<?xml version="1.0" encoding="UTF-8" standalone="no" ?>
<gpx xmlns="http://www.topografix.com/GPX/1/1" xmlns:xsi="http://www.w3.org/2001/XMLSchema-instance" xsi:schemaLocation="http://www.topografix.com/GPX/1/1 http://www.topografix.com/GPX/1/1/gpx.xsd" version="1.1" creator="VisuGPX - https://www.visugpx.com">
  <metadata>
    <name>Trek Bretagne - etape 3 Belle Isle en Terre - Le Dresnay</name>
    <desc><![CDATA[Troisième jour du trek Bretagne
Bcp de passages hors piste
Terrains très boueux lourds et mange bottes ]]></desc>
  </metadata>
  <trk>
    <name><![CDATA[SityTrail - Belle Isle en Terre - Le Dresnay]]></name>
    <desc><![CDATA[Troisième jour du trek Bretagne
Bcp de passages hors piste
Terrains très boueux lourds et mange bottes ]]></desc>
    <trkseg>
      <trkpt lat="48.54411" lon="-3.39706">
        <ele>92</ele>
        <time>2022-04-06T06:31:34.903Z</time>
      </trkpt>
      <trkpt lat="48.54411" lon="-3.39705">
        <ele>92</ele>
        <time>2022-04-06T06:31:35.142Z</time>
      </trkpt>
      <trkpt lat="48.5441" lon="-3.39699">
        <ele>92</ele>
        <time>2022-04-06T06:31:40.153Z</time>
      </trkpt>
      <trkpt lat="48.5441" lon="-3.39693">
        <ele>92</ele>
        <time>2022-04-06T06:31:45.151Z</time>
      </trkpt>
      <trkpt lat="48.5441" lon="-3.39689">
        <ele>92</ele>
        <time>2022-04-06T06:31:49.164Z</time>
      </trkpt>
      <trkpt lat="48.5441" lon="-3.39683">
        <ele>92</ele>
        <time>2022-04-06T06:31:53.156Z</time>
      </trkpt>
      <trkpt lat="48.54408" lon="-3.39677">
        <ele>92</ele>
        <time>2022-04-06T06:31:57.153Z</time>
      </trkpt>
      <trkpt lat="48.5441" lon="-3.39672">
        <ele>92</ele>
        <time>2022-04-06T06:32:02.161Z</time>
      </trkpt>
      <trkpt lat="48.54413" lon="-3.39671">
        <ele>92</ele>
        <time>2022-04-06T06:32:07.161Z</time>
      </trkpt>
      <trkpt lat="48.54416" lon="-3.39669">
        <ele>92</ele>
        <time>2022-04-06T06:32:12.158Z</time>
      </trkpt>
      <trkpt lat="48.54416" lon="-3.39683">
        <ele>92</ele>
        <time>2022-04-06T06:33:39.149Z</time>
      </trkpt>
      <trkpt lat="48.54416" lon="-3.39683">
        <ele>92</ele>
        <time>2022-04-06T06:33:44.149Z</time>
      </trkpt>
      <trkpt lat="48.54416" lon="-3.39683">
        <ele>92</ele>
        <time>2022-04-06T06:33:48.150Z</time>
      </trkpt>
      <trkpt lat="48.54416" lon="-3.39683">
        <ele>92</ele>
        <time>2022-04-06T06:33:53.148Z</time>
      </trkpt>
      <trkpt lat="48.54416" lon="-3.39683">
        <ele>92</ele>
        <time>2022-04-06T06:33:57.154Z</time>
      </trkpt>
      <trkpt lat="48.54414" lon="-3.39673">
        <ele>92</ele>
        <time>2022-04-06T06:39:20.155Z</time>
      </trkpt>
      <trkpt lat="48.54414" lon="-3.39673">
        <ele>92</ele>
        <time>2022-04-06T06:39:24.161Z</time>
      </trkpt>
      <trkpt lat="48.54414" lon="-3.39673">
        <ele>92</ele>
        <time>2022-04-06T06:39:29.156Z</time>
      </trkpt>
      <trkpt lat="48.54414" lon="-3.39672">
        <ele>92</ele>
        <time>2022-04-06T06:39:33.154Z</time>
      </trkpt>
      <trkpt lat="48.54415" lon="-3.39667">
        <ele>92</ele>
        <time>2022-04-06T06:39:37.155Z</time>
      </trkpt>
      <trkpt lat="48.54414" lon="-3.39666">
        <ele>92</ele>
        <time>2022-04-06T06:40:06.149Z</time>
      </trkpt>
      <trkpt lat="48.54414" lon="-3.39667">
        <ele>92</ele>
        <time>2022-04-06T06:40:10.149Z</time>
      </trkpt>
      <trkpt lat="48.54414" lon="-3.39665">
        <ele>92</ele>
        <time>2022-04-06T06:40:15.151Z</time>
      </trkpt>
      <trkpt lat="48.54413" lon="-3.39657">
        <ele>92</ele>
        <time>2022-04-06T06:40:20.149Z</time>
      </trkpt>
      <trkpt lat="48.54412" lon="-3.39652">
        <ele>93</ele>
        <time>2022-04-06T06:40:24.151Z</time>
      </trkpt>
      <trkpt lat="48.54412" lon="-3.39647">
        <ele>93</ele>
        <time>2022-04-06T06:40:28.150Z</time>
      </trkpt>
      <trkpt lat="48.54413" lon="-3.39641">
        <ele>93</ele>
        <time>2022-04-06T06:40:32.156Z</time>
      </trkpt>
      <trkpt lat="48.54414" lon="-3.39635">
        <ele>93</ele>
        <time>2022-04-06T06:40:37.151Z</time>
      </trkpt>
      <trkpt lat="48.54415" lon="-3.39633">
        <ele>93</ele>
        <time>2022-04-06T06:40:42.155Z</time>
      </trkpt>
      <trkpt lat="48.54415" lon="-3.39633">
        <ele>93</ele>
        <time>2022-04-06T06:40:47.152Z</time>
      </trkpt>
      <trkpt lat="48.54415" lon="-3.3963">
        <ele>93</ele>
        <time>2022-04-06T06:40:52.161Z</time>
      </trkpt>
      <trkpt lat="48.54416" lon="-3.39623">
        <ele>94</ele>
        <time>2022-04-06T06:40:57.149Z</time>
      </trkpt>
      <trkpt lat="48.54416" lon="-3.39618">
        <ele>94</ele>
        <time>2022-04-06T06:41:02.150Z</time>
      </trkpt>
      <trkpt lat="48.54412" lon="-3.39612">
        <ele>94</ele>
        <time>2022-04-06T06:42:36.160Z</time>
      </trkpt>
      <trkpt lat="48.54412" lon="-3.39609">
        <ele>94</ele>
        <time>2022-04-06T06:42:40.159Z</time>
      </trkpt>
      <trkpt lat="48.54409" lon="-3.39603">
        <ele>94</ele>
        <time>2022-04-06T06:42:45.161Z</time>
      </trkpt>
      <trkpt lat="48.54404" lon="-3.39602">
        <ele>94</ele>
        <time>2022-04-06T06:42:50.160Z</time>
      </trkpt>
      <trkpt lat="48.54401" lon="-3.39601">
        <ele>94</ele>
        <time>2022-04-06T06:42:54.163Z</time>
      </trkpt>
      <trkpt lat="48.54393" lon="-3.39598">
        <ele>94</ele>
        <time>2022-04-06T06:43:08.155Z</time>
      </trkpt>
      <trkpt lat="48.54387" lon="-3.39594">
        <ele>95</ele>
        <time>2022-04-06T06:43:12.159Z</time>
      </trkpt>
      <trkpt lat="48.54386" lon="-3.39581">
        <ele>95</ele>
        <time>2022-04-06T06:43:17.151Z</time>
      </trkpt>
      <trkpt lat="48.5438" lon="-3.39577">
        <ele>95</ele>
        <time>2022-04-06T06:43:22.150Z</time>
      </trkpt>
      <trkpt lat="48.54373" lon="-3.39575">
        <ele>95</ele>
        <time>2022-04-06T06:43:27.150Z</time>
      </trkpt>
      <trkpt lat="48.54357" lon="-3.39566">
        <ele>96</ele>
        <time>2022-04-06T06:43:45.164Z</time>
      </trkpt>
      <trkpt lat="48.54357" lon="-3.39566">
        <ele>96</ele>
        <time>2022-04-06T06:43:50.167Z</time>
      </trkpt>
      <trkpt lat="48.54357" lon="-3.39566">
        <ele>96</ele>
        <time>2022-04-06T06:43:55.162Z</time>
      </trkpt>
      <trkpt lat="48.54357" lon="-3.39566">
        <ele>96</ele>
        <time>2022-04-06T06:44:00.159Z</time>
      </trkpt>
      <trkpt lat="48.54357" lon="-3.39566">
        <ele>96</ele>
        <time>2022-04-06T06:44:05.154Z</time>
      </trkpt>
      <trkpt lat="48.54346" lon="-3.39578">
        <ele>96</ele>
        <time>2022-04-06T06:46:25.155Z</time>
      </trkpt>
      <trkpt lat="48.54341" lon="-3.39578">
        <ele>96</ele>
        <time>2022-04-06T06:46:29.165Z</time>
      </trkpt>
      <trkpt lat="48.54338" lon="-3.3957">
        <ele>96</ele>
        <time>2022-04-06T06:46:34.157Z</time>
      </trkpt>
      <trkpt lat="48.54335" lon="-3.39562">
        <ele>97</ele>
        <time>2022-04-06T06:46:38.160Z</time>
      </trkpt>
      <trkpt lat="48.54331" lon="-3.39561">
        <ele>97</ele>
        <time>2022-04-06T06:46:42.272Z</time>
      </trkpt>
      <trkpt lat="48.54329" lon="-3.39561">
        <ele>97</ele>
        <time>2022-04-06T06:48:02.162Z</time>
      </trkpt>
      <trkpt lat="48.5433" lon="-3.39561">
        <ele>97</ele>
        <time>2022-04-06T06:48:07.158Z</time>
      </trkpt>
      <trkpt lat="48.54331" lon="-3.39557">
        <ele>97</ele>
        <time>2022-04-06T06:48:12.312Z</time>
      </trkpt>
      <trkpt lat="48.5433" lon="-3.3955">
        <ele>97</ele>
        <time>2022-04-06T06:48:17.158Z</time>
      </trkpt>
      <trkpt lat="48.54332" lon="-3.39545">
        <ele>97</ele>
        <time>2022-04-06T06:48:22.156Z</time>
      </trkpt>
      <trkpt lat="48.54335" lon="-3.3954">
        <ele>96</ele>
        <time>2022-04-06T06:48:27.159Z</time>
      </trkpt>
      <trkpt lat="48.54336" lon="-3.39533">
        <ele>96</ele>
        <time>2022-04-06T06:48:32.159Z</time>
      </trkpt>
      <trkpt lat="48.54338" lon="-3.39526">
        <ele>96</ele>
        <time>2022-04-06T06:48:37.168Z</time>
      </trkpt>
      <trkpt lat="48.54342" lon="-3.39521">
        <ele>96</ele>
        <time>2022-04-06T06:48:42.155Z</time>
      </trkpt>
      <trkpt lat="48.54346" lon="-3.39521">
        <ele>96</ele>
        <time>2022-04-06T06:48:46.159Z</time>
      </trkpt>
      <trkpt lat="48.5435" lon="-3.39519">
        <ele>96</ele>
        <time>2022-04-06T06:48:50.159Z</time>
      </trkpt>
      <trkpt lat="48.54354" lon="-3.39516">
        <ele>96</ele>
        <time>2022-04-06T06:48:55.163Z</time>
      </trkpt>
      <trkpt lat="48.54358" lon="-3.39517">
        <ele>96</ele>
        <time>2022-04-06T06:49:00.158Z</time>
      </trkpt>
      <trkpt lat="48.5436" lon="-3.39512">
        <ele>96</ele>
        <time>2022-04-06T06:49:04.162Z</time>
      </trkpt>
      <trkpt lat="48.54364" lon="-3.39505">
        <ele>96</ele>
        <time>2022-04-06T06:49:09.157Z</time>
      </trkpt>
      <trkpt lat="48.54365" lon="-3.395">
        <ele>96</ele>
        <time>2022-04-06T06:49:13.157Z</time>
      </trkpt>
      <trkpt lat="48.54366" lon="-3.39495">
        <ele>96</ele>
        <time>2022-04-06T06:49:18.158Z</time>
      </trkpt>
      <trkpt lat="48.54368" lon="-3.39493">
        <ele>96</ele>
        <time>2022-04-06T06:49:47.156Z</time>
      </trkpt>
      <trkpt lat="48.54368" lon="-3.39493">
        <ele>96</ele>
        <time>2022-04-06T06:49:51.155Z</time>
      </trkpt>
      <trkpt lat="48.54369" lon="-3.39492">
        <ele>96</ele>
        <time>2022-04-06T06:49:55.156Z</time>
      </trkpt>
      <trkpt lat="48.54371" lon="-3.39489">
        <ele>96</ele>
        <time>2022-04-06T06:49:59.156Z</time>
      </trkpt>
      <trkpt lat="48.54376" lon="-3.39489">
        <ele>95</ele>
        <time>2022-04-06T06:50:04.161Z</time>
      </trkpt>
      <trkpt lat="48.54381" lon="-3.39493">
        <ele>95</ele>
        <time>2022-04-06T06:50:09.153Z</time>
      </trkpt>
      <trkpt lat="48.54385" lon="-3.39496">
        <ele>95</ele>
        <time>2022-04-06T06:50:13.157Z</time>
      </trkpt>
      <trkpt lat="48.5439" lon="-3.39501">
        <ele>95</ele>
        <time>2022-04-06T06:50:18.155Z</time>
      </trkpt>
      <trkpt lat="48.54396" lon="-3.39505">
        <ele>95</ele>
        <time>2022-04-06T06:50:23.155Z</time>
      </trkpt>
      <trkpt lat="48.54401" lon="-3.39509">
        <ele>95</ele>
        <time>2022-04-06T06:50:28.154Z</time>
      </trkpt>
      <trkpt lat="48.54405" lon="-3.39511">
        <ele>94</ele>
        <time>2022-04-06T06:50:32.157Z</time>
      </trkpt>
      <trkpt lat="48.54411" lon="-3.39511">
        <ele>94</ele>
        <time>2022-04-06T06:50:37.154Z</time>
      </trkpt>
      <trkpt lat="48.54416" lon="-3.39508">
        <ele>94</ele>
        <time>2022-04-06T06:50:41.166Z</time>
      </trkpt>
      <trkpt lat="48.54421" lon="-3.39502">
        <ele>94</ele>
        <time>2022-04-06T06:50:46.158Z</time>
      </trkpt>
      <trkpt lat="48.54423" lon="-3.39493">
        <ele>94</ele>
        <time>2022-04-06T06:50:51.154Z</time>
      </trkpt>
      <trkpt lat="48.54425" lon="-3.39486">
        <ele>93</ele>
        <time>2022-04-06T06:50:55.160Z</time>
      </trkpt>
      <trkpt lat="48.54423" lon="-3.39478">
        <ele>93</ele>
        <time>2022-04-06T06:51:00.158Z</time>
      </trkpt>
      <trkpt lat="48.5442" lon="-3.39473">
        <ele>93</ele>
        <time>2022-04-06T06:51:04.160Z</time>
      </trkpt>
      <trkpt lat="48.54414" lon="-3.3947">
        <ele>93</ele>
        <time>2022-04-06T06:51:09.170Z</time>
      </trkpt>
      <trkpt lat="48.54408" lon="-3.3947">
        <ele>93</ele>
        <time>2022-04-06T06:51:14.162Z</time>
      </trkpt>
      <trkpt lat="48.54402" lon="-3.39469">
        <ele>94</ele>
        <time>2022-04-06T06:51:19.175Z</time>
      </trkpt>
      <trkpt lat="48.54396" lon="-3.39465">
        <ele>94</ele>
        <time>2022-04-06T06:51:24.158Z</time>
      </trkpt>
      <trkpt lat="48.5439" lon="-3.39462">
        <ele>94</ele>
        <time>2022-04-06T06:51:29.156Z</time>
      </trkpt>
      <trkpt lat="48.54384" lon="-3.39458">
        <ele>94</ele>
        <time>2022-04-06T06:51:33.165Z</time>
      </trkpt>
      <trkpt lat="48.54378" lon="-3.39454">
        <ele>94</ele>
        <time>2022-04-06T06:51:38.161Z</time>
      </trkpt>
      <trkpt lat="48.54372" lon="-3.39449">
        <ele>94</ele>
        <time>2022-04-06T06:51:43.160Z</time>
      </trkpt>
      <trkpt lat="48.54368" lon="-3.39444">
        <ele>94</ele>
        <time>2022-04-06T06:51:47.168Z</time>
      </trkpt>
      <trkpt lat="48.54362" lon="-3.39437">
        <ele>94</ele>
        <time>2022-04-06T06:51:52.160Z</time>
      </trkpt>
      <trkpt lat="48.54357" lon="-3.3943">
        <ele>95</ele>
        <time>2022-04-06T06:51:56.174Z</time>
      </trkpt>
      <trkpt lat="48.54354" lon="-3.39433">
        <ele>94</ele>
        <time>2022-04-06T06:52:01.156Z</time>
      </trkpt>
      <trkpt lat="48.54351" lon="-3.39425">
        <ele>95</ele>
        <time>2022-04-06T06:52:06.153Z</time>
      </trkpt>
      <trkpt lat="48.54347" lon="-3.3942">
        <ele>96</ele>
        <time>2022-04-06T06:52:10.154Z</time>
      </trkpt>
      <trkpt lat="48.54343" lon="-3.39415">
        <ele>96</ele>
        <time>2022-04-06T06:52:14.165Z</time>
      </trkpt>
      <trkpt lat="48.54338" lon="-3.39408">
        <ele>96</ele>
        <time>2022-04-06T06:52:19.174Z</time>
      </trkpt>
      <trkpt lat="48.54333" lon="-3.39402">
        <ele>97</ele>
        <time>2022-04-06T06:52:24.158Z</time>
      </trkpt>
      <trkpt lat="48.54328" lon="-3.39396">
        <ele>97</ele>
        <time>2022-04-06T06:52:29.153Z</time>
      </trkpt>
      <trkpt lat="48.54324" lon="-3.39391">
        <ele>97</ele>
        <time>2022-04-06T06:52:34.154Z</time>
      </trkpt>
      <trkpt lat="48.54321" lon="-3.39386">
        <ele>97</ele>
        <time>2022-04-06T06:52:38.195Z</time>
      </trkpt>
      <trkpt lat="48.54316" lon="-3.3938">
        <ele>95</ele>
        <time>2022-04-06T06:52:43.163Z</time>
      </trkpt>
      <trkpt lat="48.54313" lon="-3.39372">
        <ele>97</ele>
        <time>2022-04-06T06:52:48.160Z</time>
      </trkpt>
      <trkpt lat="48.54309" lon="-3.39366">
        <ele>97</ele>
        <time>2022-04-06T06:52:52.162Z</time>
      </trkpt>
      <trkpt lat="48.54305" lon="-3.39358">
        <ele>97</ele>
        <time>2022-04-06T06:52:57.158Z</time>
      </trkpt>
      <trkpt lat="48.54303" lon="-3.3935">
        <ele>97</ele>
        <time>2022-04-06T06:53:01.167Z</time>
      </trkpt>
      <trkpt lat="48.54299" lon="-3.39342">
        <ele>101</ele>
        <time>2022-04-06T06:53:06.165Z</time>
      </trkpt>
      <trkpt lat="48.54295" lon="-3.39333">
        <ele>101</ele>
        <time>2022-04-06T06:53:11.155Z</time>
      </trkpt>
      <trkpt lat="48.54292" lon="-3.39324">
        <ele>101</ele>
        <time>2022-04-06T06:53:16.158Z</time>
      </trkpt>
      <trkpt lat="48.54288" lon="-3.39317">
        <ele>102</ele>
        <time>2022-04-06T06:53:21.152Z</time>
      </trkpt>
      <trkpt lat="48.54285" lon="-3.39312">
        <ele>102</ele>
        <time>2022-04-06T06:53:26.157Z</time>
      </trkpt>
      <trkpt lat="48.54281" lon="-3.39308">
        <ele>102</ele>
        <time>2022-04-06T06:53:30.153Z</time>
      </trkpt>
      <trkpt lat="48.54279" lon="-3.39302">
        <ele>102</ele>
        <time>2022-04-06T06:53:35.162Z</time>
      </trkpt>
      <trkpt lat="48.54276" lon="-3.39294">
        <ele>102</ele>
        <time>2022-04-06T06:53:40.150Z</time>
      </trkpt>
      <trkpt lat="48.54272" lon="-3.3929">
        <ele>106</ele>
        <time>2022-04-06T06:53:44.156Z</time>
      </trkpt>
      <trkpt lat="48.54269" lon="-3.39286">
        <ele>106</ele>
        <time>2022-04-06T06:53:48.183Z</time>
      </trkpt>
      <trkpt lat="48.54265" lon="-3.39281">
        <ele>106</ele>
        <time>2022-04-06T06:53:53.158Z</time>
      </trkpt>
      <trkpt lat="48.54262" lon="-3.39275">
        <ele>101</ele>
        <time>2022-04-06T06:53:57.176Z</time>
      </trkpt>
      <trkpt lat="48.54259" lon="-3.39273">
        <ele>101</ele>
        <time>2022-04-06T06:54:02.151Z</time>
      </trkpt>
      <trkpt lat="48.54254" lon="-3.39276">
        <ele>101</ele>
        <time>2022-04-06T06:54:07.166Z</time>
      </trkpt>
      <trkpt lat="48.54251" lon="-3.39276">
        <ele>101</ele>
        <time>2022-04-06T06:56:00.156Z</time>
      </trkpt>
      <trkpt lat="48.54256" lon="-3.39276">
        <ele>101</ele>
        <time>2022-04-06T06:56:04.164Z</time>
      </trkpt>
      <trkpt lat="48.54261" lon="-3.39279">
        <ele>101</ele>
        <time>2022-04-06T06:56:09.160Z</time>
      </trkpt>
      <trkpt lat="48.54265" lon="-3.39281">
        <ele>106</ele>
        <time>2022-04-06T06:56:13.182Z</time>
      </trkpt>
      <trkpt lat="48.5427" lon="-3.39278">
        <ele>106</ele>
        <time>2022-04-06T06:56:18.155Z</time>
      </trkpt>
      <trkpt lat="48.54273" lon="-3.39274">
        <ele>106</ele>
        <time>2022-04-06T06:56:31.196Z</time>
      </trkpt>
      <trkpt lat="48.54272" lon="-3.39272">
        <ele>106</ele>
        <time>2022-04-06T06:56:36.165Z</time>
      </trkpt>
      <trkpt lat="48.54269" lon="-3.39268">
        <ele>106</ele>
        <time>2022-04-06T06:56:41.164Z</time>
      </trkpt>
      <trkpt lat="48.54268" lon="-3.39266">
        <ele>106</ele>
        <time>2022-04-06T06:56:45.170Z</time>
      </trkpt>
      <trkpt lat="48.5427" lon="-3.39256">
        <ele>109</ele>
        <time>2022-04-06T06:56:50.168Z</time>
      </trkpt>
      <trkpt lat="48.54269" lon="-3.39255">
        <ele>109</ele>
        <time>2022-04-06T06:57:20.154Z</time>
      </trkpt>
      <trkpt lat="48.54269" lon="-3.39255">
        <ele>109</ele>
        <time>2022-04-06T06:57:24.164Z</time>
      </trkpt>
      <trkpt lat="48.54268" lon="-3.39253">
        <ele>109</ele>
        <time>2022-04-06T06:57:29.165Z</time>
      </trkpt>
      <trkpt lat="48.54265" lon="-3.39251">
        <ele>109</ele>
        <time>2022-04-06T06:57:34.165Z</time>
      </trkpt>
      <trkpt lat="48.54263" lon="-3.39249">
        <ele>104</ele>
        <time>2022-04-06T06:57:38.176Z</time>
      </trkpt>
      <trkpt lat="48.54256" lon="-3.39236">
        <ele>107</ele>
        <time>2022-04-06T06:59:47.172Z</time>
      </trkpt>
      <trkpt lat="48.54256" lon="-3.39235">
        <ele>107</ele>
        <time>2022-04-06T06:59:52.169Z</time>
      </trkpt>
      <trkpt lat="48.54256" lon="-3.39235">
        <ele>107</ele>
        <time>2022-04-06T06:59:56.195Z</time>
      </trkpt>
      <trkpt lat="48.54257" lon="-3.39234">
        <ele>107</ele>
        <time>2022-04-06T07:00:01.168Z</time>
      </trkpt>
      <trkpt lat="48.54256" lon="-3.39232">
        <ele>107</ele>
        <time>2022-04-06T07:00:06.161Z</time>
      </trkpt>
      <trkpt lat="48.54257" lon="-3.39228">
        <ele>107</ele>
        <time>2022-04-06T07:01:18.167Z</time>
      </trkpt>
      <trkpt lat="48.54256" lon="-3.39228">
        <ele>107</ele>
        <time>2022-04-06T07:01:22.180Z</time>
      </trkpt>
      <trkpt lat="48.54261" lon="-3.39227">
        <ele>107</ele>
        <time>2022-04-06T07:01:27.167Z</time>
      </trkpt>
      <trkpt lat="48.54266" lon="-3.39227">
        <ele>111</ele>
        <time>2022-04-06T07:01:31.165Z</time>
      </trkpt>
      <trkpt lat="48.54272" lon="-3.39227">
        <ele>111</ele>
        <time>2022-04-06T07:01:36.175Z</time>
      </trkpt>
      <trkpt lat="48.54278" lon="-3.39227">
        <ele>111</ele>
        <time>2022-04-06T07:01:41.168Z</time>
      </trkpt>
      <trkpt lat="48.54283" lon="-3.3923">
        <ele>111</ele>
        <time>2022-04-06T07:01:46.163Z</time>
      </trkpt>
      <trkpt lat="48.54287" lon="-3.39232">
        <ele>111</ele>
        <time>2022-04-06T07:01:50.162Z</time>
      </trkpt>
      <trkpt lat="48.54293" lon="-3.39234">
        <ele>113</ele>
        <time>2022-04-06T07:01:55.168Z</time>
      </trkpt>
      <trkpt lat="48.54299" lon="-3.39237">
        <ele>111</ele>
        <time>2022-04-06T07:02:00.180Z</time>
      </trkpt>
      <trkpt lat="48.54304" lon="-3.3924">
        <ele>111</ele>
        <time>2022-04-06T07:02:05.152Z</time>
      </trkpt>
      <trkpt lat="48.54309" lon="-3.39243">
        <ele>111</ele>
        <time>2022-04-06T07:02:10.161Z</time>
      </trkpt>
      <trkpt lat="48.54314" lon="-3.39247">
        <ele>111</ele>
        <time>2022-04-06T07:02:15.160Z</time>
      </trkpt>
      <trkpt lat="48.54319" lon="-3.39252">
        <ele>111</ele>
        <time>2022-04-06T07:02:20.201Z</time>
      </trkpt>
      <trkpt lat="48.54325" lon="-3.39256">
        <ele>111</ele>
        <time>2022-04-06T07:02:25.157Z</time>
      </trkpt>
      <trkpt lat="48.54329" lon="-3.3926">
        <ele>111</ele>
        <time>2022-04-06T07:02:29.192Z</time>
      </trkpt>
      <trkpt lat="48.54334" lon="-3.39263">
        <ele>111</ele>
        <time>2022-04-06T07:02:34.158Z</time>
      </trkpt>
      <trkpt lat="48.54339" lon="-3.39265">
        <ele>109</ele>
        <time>2022-04-06T07:02:38.166Z</time>
      </trkpt>
      <trkpt lat="48.54345" lon="-3.39266">
        <ele>109</ele>
        <time>2022-04-06T07:02:43.162Z</time>
      </trkpt>
      <trkpt lat="48.54349" lon="-3.39268">
        <ele>110</ele>
        <time>2022-04-06T07:02:47.172Z</time>
      </trkpt>
      <trkpt lat="48.54353" lon="-3.39269">
        <ele>110</ele>
        <time>2022-04-06T07:02:51.167Z</time>
      </trkpt>
      <trkpt lat="48.54359" lon="-3.3927">
        <ele>110</ele>
        <time>2022-04-06T07:02:56.160Z</time>
      </trkpt>
      <trkpt lat="48.54363" lon="-3.39273">
        <ele>110</ele>
        <time>2022-04-06T07:03:01.166Z</time>
      </trkpt>
      <trkpt lat="48.54369" lon="-3.39273">
        <ele>110</ele>
        <time>2022-04-06T07:03:06.156Z</time>
      </trkpt>
      <trkpt lat="48.54373" lon="-3.39272">
        <ele>110</ele>
        <time>2022-04-06T07:03:10.179Z</time>
      </trkpt>
      <trkpt lat="48.54379" lon="-3.39272">
        <ele>111</ele>
        <time>2022-04-06T07:03:15.156Z</time>
      </trkpt>
      <trkpt lat="48.54384" lon="-3.39271">
        <ele>111</ele>
        <time>2022-04-06T07:03:20.155Z</time>
      </trkpt>
      <trkpt lat="48.5439" lon="-3.39271">
        <ele>111</ele>
        <time>2022-04-06T07:03:25.169Z</time>
      </trkpt>
      <trkpt lat="48.54394" lon="-3.39269">
        <ele>111</ele>
        <time>2022-04-06T07:03:29.184Z</time>
      </trkpt>
      <trkpt lat="48.54399" lon="-3.39268">
        <ele>111</ele>
        <time>2022-04-06T07:03:34.156Z</time>
      </trkpt>
      <trkpt lat="48.54404" lon="-3.39266">
        <ele>112</ele>
        <time>2022-04-06T07:03:39.172Z</time>
      </trkpt>
      <trkpt lat="48.54409" lon="-3.39264">
        <ele>112</ele>
        <time>2022-04-06T07:03:44.189Z</time>
      </trkpt>
      <trkpt lat="48.54413" lon="-3.39261">
        <ele>116</ele>
        <time>2022-04-06T07:03:49.169Z</time>
      </trkpt>
      <trkpt lat="48.54421" lon="-3.39255">
        <ele>116</ele>
        <time>2022-04-06T07:03:57.172Z</time>
      </trkpt>
      <trkpt lat="48.54421" lon="-3.39254">
        <ele>116</ele>
        <time>2022-04-06T07:04:02.184Z</time>
      </trkpt>
      <trkpt lat="48.54421" lon="-3.39254">
        <ele>116</ele>
        <time>2022-04-06T07:04:07.186Z</time>
      </trkpt>
      <trkpt lat="48.54421" lon="-3.39247">
        <ele>116</ele>
        <time>2022-04-06T07:04:11.207Z</time>
      </trkpt>
      <trkpt lat="48.54418" lon="-3.39238">
        <ele>116</ele>
        <time>2022-04-06T07:04:16.157Z</time>
      </trkpt>
      <trkpt lat="48.54416" lon="-3.39233">
        <ele>118</ele>
        <time>2022-04-06T07:04:20.173Z</time>
      </trkpt>
      <trkpt lat="48.54412" lon="-3.39227">
        <ele>118</ele>
        <time>2022-04-06T07:04:25.161Z</time>
      </trkpt>
      <trkpt lat="48.5441" lon="-3.3922">
        <ele>118</ele>
        <time>2022-04-06T07:04:30.165Z</time>
      </trkpt>
      <trkpt lat="48.54408" lon="-3.39215">
        <ele>118</ele>
        <time>2022-04-06T07:04:34.175Z</time>
      </trkpt>
      <trkpt lat="48.54404" lon="-3.39208">
        <ele>120</ele>
        <time>2022-04-06T07:05:11.165Z</time>
      </trkpt>
      <trkpt lat="48.54404" lon="-3.39208">
        <ele>120</ele>
        <time>2022-04-06T07:05:15.160Z</time>
      </trkpt>
      <trkpt lat="48.54404" lon="-3.39207">
        <ele>120</ele>
        <time>2022-04-06T07:05:20.161Z</time>
      </trkpt>
      <trkpt lat="48.54399" lon="-3.39205">
        <ele>119</ele>
        <time>2022-04-06T07:05:25.165Z</time>
      </trkpt>
      <trkpt lat="48.54395" lon="-3.39204">
        <ele>119</ele>
        <time>2022-04-06T07:05:30.159Z</time>
      </trkpt>
      <trkpt lat="48.54384" lon="-3.39196">
        <ele>119</ele>
        <time>2022-04-06T07:07:54.165Z</time>
      </trkpt>
      <trkpt lat="48.54379" lon="-3.3921">
        <ele>117</ele>
        <time>2022-04-06T07:07:59.158Z</time>
      </trkpt>
      <trkpt lat="48.54378" lon="-3.39215">
        <ele>117</ele>
        <time>2022-04-06T07:08:04.157Z</time>
      </trkpt>
      <trkpt lat="48.54378" lon="-3.39217">
        <ele>117</ele>
        <time>2022-04-06T07:08:09.156Z</time>
      </trkpt>
      <trkpt lat="48.54382" lon="-3.39215">
        <ele>117</ele>
        <time>2022-04-06T07:10:59.157Z</time>
      </trkpt>
      <trkpt lat="48.54385" lon="-3.39215">
        <ele>117</ele>
        <time>2022-04-06T07:11:04.157Z</time>
      </trkpt>
      <trkpt lat="48.54388" lon="-3.39213">
        <ele>117</ele>
        <time>2022-04-06T07:11:09.166Z</time>
      </trkpt>
      <trkpt lat="48.54389" lon="-3.3921">
        <ele>117</ele>
        <time>2022-04-06T07:11:13.166Z</time>
      </trkpt>
      <trkpt lat="48.54393" lon="-3.3921">
        <ele>117</ele>
        <time>2022-04-06T07:11:18.163Z</time>
      </trkpt>
      <trkpt lat="48.54399" lon="-3.39208">
        <ele>117</ele>
        <time>2022-04-06T07:11:22.168Z</time>
      </trkpt>
      <trkpt lat="48.54403" lon="-3.39203">
        <ele>119</ele>
        <time>2022-04-06T07:11:27.167Z</time>
      </trkpt>
      <trkpt lat="48.54401" lon="-3.39195">
        <ele>119</ele>
        <time>2022-04-06T07:11:32.165Z</time>
      </trkpt>
      <trkpt lat="48.54399" lon="-3.39188">
        <ele>119</ele>
        <time>2022-04-06T07:11:37.175Z</time>
      </trkpt>
      <trkpt lat="48.54399" lon="-3.3918">
        <ele>122</ele>
        <time>2022-04-06T07:11:42.173Z</time>
      </trkpt>
      <trkpt lat="48.54397" lon="-3.39173">
        <ele>122</ele>
        <time>2022-04-06T07:11:47.166Z</time>
      </trkpt>
      <trkpt lat="48.54395" lon="-3.39164">
        <ele>122</ele>
        <time>2022-04-06T07:11:52.160Z</time>
      </trkpt>
      <trkpt lat="48.54393" lon="-3.39155">
        <ele>122</ele>
        <time>2022-04-06T07:11:57.160Z</time>
      </trkpt>
      <trkpt lat="48.54391" lon="-3.39147">
        <ele>124</ele>
        <time>2022-04-06T07:12:02.157Z</time>
      </trkpt>
      <trkpt lat="48.54389" lon="-3.39139">
        <ele>124</ele>
        <time>2022-04-06T07:12:07.159Z</time>
      </trkpt>
      <trkpt lat="48.54386" lon="-3.39133">
        <ele>124</ele>
        <time>2022-04-06T07:12:11.164Z</time>
      </trkpt>
      <trkpt lat="48.54383" lon="-3.39124">
        <ele>127</ele>
        <time>2022-04-06T07:12:16.161Z</time>
      </trkpt>
      <trkpt lat="48.54382" lon="-3.39117">
        <ele>127</ele>
        <time>2022-04-06T07:12:20.171Z</time>
      </trkpt>
      <trkpt lat="48.5438" lon="-3.39109">
        <ele>127</ele>
        <time>2022-04-06T07:12:25.161Z</time>
      </trkpt>
      <trkpt lat="48.54378" lon="-3.39102">
        <ele>127</ele>
        <time>2022-04-06T07:12:29.159Z</time>
      </trkpt>
      <trkpt lat="48.54376" lon="-3.39093">
        <ele>130</ele>
        <time>2022-04-06T07:12:34.165Z</time>
      </trkpt>
      <trkpt lat="48.54375" lon="-3.39086">
        <ele>130</ele>
        <time>2022-04-06T07:12:38.172Z</time>
      </trkpt>
      <trkpt lat="48.54374" lon="-3.39076">
        <ele>127</ele>
        <time>2022-04-06T07:12:43.159Z</time>
      </trkpt>
      <trkpt lat="48.54373" lon="-3.39065">
        <ele>129</ele>
        <time>2022-04-06T07:12:48.158Z</time>
      </trkpt>
      <trkpt lat="48.54371" lon="-3.39056">
        <ele>129</ele>
        <time>2022-04-06T07:12:52.163Z</time>
      </trkpt>
      <trkpt lat="48.5437" lon="-3.39046">
        <ele>129</ele>
        <time>2022-04-06T07:12:57.157Z</time>
      </trkpt>
      <trkpt lat="48.5437" lon="-3.39038">
        <ele>131</ele>
        <time>2022-04-06T07:13:01.167Z</time>
      </trkpt>
      <trkpt lat="48.5437" lon="-3.39029">
        <ele>131</ele>
        <time>2022-04-06T07:13:06.165Z</time>
      </trkpt>
      <trkpt lat="48.54369" lon="-3.39019">
        <ele>131</ele>
        <time>2022-04-06T07:13:11.169Z</time>
      </trkpt>
      <trkpt lat="48.54368" lon="-3.3901">
        <ele>133</ele>
        <time>2022-04-06T07:13:16.162Z</time>
      </trkpt>
      <trkpt lat="48.54366" lon="-3.39001">
        <ele>133</ele>
        <time>2022-04-06T07:13:21.168Z</time>
      </trkpt>
      <trkpt lat="48.54365" lon="-3.38991">
        <ele>133</ele>
        <time>2022-04-06T07:13:26.159Z</time>
      </trkpt>
      <trkpt lat="48.54364" lon="-3.38985">
        <ele>135</ele>
        <time>2022-04-06T07:13:30.165Z</time>
      </trkpt>
      <trkpt lat="48.54362" lon="-3.38976">
        <ele>135</ele>
        <time>2022-04-06T07:13:35.162Z</time>
      </trkpt>
      <trkpt lat="48.54362" lon="-3.38966">
        <ele>135</ele>
        <time>2022-04-06T07:13:40.168Z</time>
      </trkpt>
      <trkpt lat="48.54362" lon="-3.38957">
        <ele>137</ele>
        <time>2022-04-06T07:13:45.161Z</time>
      </trkpt>
      <trkpt lat="48.54363" lon="-3.3895">
        <ele>137</ele>
        <time>2022-04-06T07:13:49.170Z</time>
      </trkpt>
      <trkpt lat="48.54366" lon="-3.38943">
        <ele>137</ele>
        <time>2022-04-06T07:13:54.165Z</time>
      </trkpt>
      <trkpt lat="48.54364" lon="-3.38936">
        <ele>137</ele>
        <time>2022-04-06T07:13:58.175Z</time>
      </trkpt>
      <trkpt lat="48.54369" lon="-3.38929">
        <ele>139</ele>
        <time>2022-04-06T07:14:03.165Z</time>
      </trkpt>
      <trkpt lat="48.54372" lon="-3.38921">
        <ele>139</ele>
        <time>2022-04-06T07:14:08.165Z</time>
      </trkpt>
      <trkpt lat="48.54374" lon="-3.38913">
        <ele>139</ele>
        <time>2022-04-06T07:14:13.157Z</time>
      </trkpt>
      <trkpt lat="48.54376" lon="-3.38907">
        <ele>138</ele>
        <time>2022-04-06T07:14:17.165Z</time>
      </trkpt>
      <trkpt lat="48.5438" lon="-3.389">
        <ele>140</ele>
        <time>2022-04-06T07:14:22.165Z</time>
      </trkpt>
      <trkpt lat="48.54379" lon="-3.38892">
        <ele>140</ele>
        <time>2022-04-06T07:14:26.294Z</time>
      </trkpt>
      <trkpt lat="48.54381" lon="-3.38885">
        <ele>140</ele>
        <time>2022-04-06T07:14:31.163Z</time>
      </trkpt>
      <trkpt lat="48.54384" lon="-3.38876">
        <ele>140</ele>
        <time>2022-04-06T07:14:36.159Z</time>
      </trkpt>
      <trkpt lat="48.54385" lon="-3.38869">
        <ele>142</ele>
        <time>2022-04-06T07:14:40.170Z</time>
      </trkpt>
      <trkpt lat="48.54387" lon="-3.3886">
        <ele>142</ele>
        <time>2022-04-06T07:14:45.162Z</time>
      </trkpt>
      <trkpt lat="48.54389" lon="-3.38854">
        <ele>142</ele>
        <time>2022-04-06T07:14:49.163Z</time>
      </trkpt>
      <trkpt lat="48.54391" lon="-3.38845">
        <ele>144</ele>
        <time>2022-04-06T07:14:54.174Z</time>
      </trkpt>
      <trkpt lat="48.54394" lon="-3.38836">
        <ele>144</ele>
        <time>2022-04-06T07:14:59.162Z</time>
      </trkpt>
      <trkpt lat="48.54395" lon="-3.38828">
        <ele>144</ele>
        <time>2022-04-06T07:15:04.154Z</time>
      </trkpt>
      <trkpt lat="48.54397" lon="-3.38821">
        <ele>144</ele>
        <time>2022-04-06T07:15:08.176Z</time>
      </trkpt>
      <trkpt lat="48.54399" lon="-3.38813">
        <ele>145</ele>
        <time>2022-04-06T07:15:13.148Z</time>
      </trkpt>
      <trkpt lat="48.54401" lon="-3.38806">
        <ele>145</ele>
        <time>2022-04-06T07:15:17.165Z</time>
      </trkpt>
      <trkpt lat="48.54403" lon="-3.38798">
        <ele>145</ele>
        <time>2022-04-06T07:15:22.162Z</time>
      </trkpt>
      <trkpt lat="48.54406" lon="-3.38789">
        <ele>145</ele>
        <time>2022-04-06T07:15:27.158Z</time>
      </trkpt>
      <trkpt lat="48.54408" lon="-3.3878">
        <ele>145</ele>
        <time>2022-04-06T07:15:32.164Z</time>
      </trkpt>
      <trkpt lat="48.5441" lon="-3.38773">
        <ele>145</ele>
        <time>2022-04-06T07:15:36.170Z</time>
      </trkpt>
      <trkpt lat="48.54411" lon="-3.38764">
        <ele>144</ele>
        <time>2022-04-06T07:15:41.174Z</time>
      </trkpt>
      <trkpt lat="48.54413" lon="-3.38755">
        <ele>144</ele>
        <time>2022-04-06T07:15:46.175Z</time>
      </trkpt>
      <trkpt lat="48.54414" lon="-3.38745">
        <ele>144</ele>
        <time>2022-04-06T07:15:51.165Z</time>
      </trkpt>
      <trkpt lat="48.54416" lon="-3.38736">
        <ele>144</ele>
        <time>2022-04-06T07:15:56.292Z</time>
      </trkpt>
      <trkpt lat="48.54418" lon="-3.38727">
        <ele>143</ele>
        <time>2022-04-06T07:16:01.165Z</time>
      </trkpt>
      <trkpt lat="48.54421" lon="-3.38718">
        <ele>143</ele>
        <time>2022-04-06T07:16:06.163Z</time>
      </trkpt>
      <trkpt lat="48.54423" lon="-3.3871">
        <ele>143</ele>
        <time>2022-04-06T07:16:10.172Z</time>
      </trkpt>
      <trkpt lat="48.54426" lon="-3.38701">
        <ele>142</ele>
        <time>2022-04-06T07:16:15.169Z</time>
      </trkpt>
      <trkpt lat="48.54431" lon="-3.38692">
        <ele>141</ele>
        <time>2022-04-06T07:16:20.183Z</time>
      </trkpt>
      <trkpt lat="48.54435" lon="-3.38685">
        <ele>141</ele>
        <time>2022-04-06T07:16:25.165Z</time>
      </trkpt>
      <trkpt lat="48.54439" lon="-3.38678">
        <ele>140</ele>
        <time>2022-04-06T07:16:30.157Z</time>
      </trkpt>
      <trkpt lat="48.54442" lon="-3.38671">
        <ele>140</ele>
        <time>2022-04-06T07:16:34.163Z</time>
      </trkpt>
      <trkpt lat="48.54444" lon="-3.38663">
        <ele>140</ele>
        <time>2022-04-06T07:16:38.171Z</time>
      </trkpt>
      <trkpt lat="48.54448" lon="-3.38655">
        <ele>140</ele>
        <time>2022-04-06T07:16:43.167Z</time>
      </trkpt>
      <trkpt lat="48.54453" lon="-3.38648">
        <ele>140</ele>
        <time>2022-04-06T07:16:48.164Z</time>
      </trkpt>
      <trkpt lat="48.54456" lon="-3.38641">
        <ele>140</ele>
        <time>2022-04-06T07:16:52.166Z</time>
      </trkpt>
      <trkpt lat="48.5446" lon="-3.38634">
        <ele>140</ele>
        <time>2022-04-06T07:16:57.170Z</time>
      </trkpt>
      <trkpt lat="48.54464" lon="-3.38628">
        <ele>140</ele>
        <time>2022-04-06T07:17:01.180Z</time>
      </trkpt>
      <trkpt lat="48.54467" lon="-3.3862">
        <ele>139</ele>
        <time>2022-04-06T07:17:06.174Z</time>
      </trkpt>
      <trkpt lat="48.54471" lon="-3.38612">
        <ele>139</ele>
        <time>2022-04-06T07:17:11.166Z</time>
      </trkpt>
      <trkpt lat="48.54476" lon="-3.38604">
        <ele>139</ele>
        <time>2022-04-06T07:17:16.177Z</time>
      </trkpt>
      <trkpt lat="48.5448" lon="-3.38597">
        <ele>139</ele>
        <time>2022-04-06T07:17:21.165Z</time>
      </trkpt>
      <trkpt lat="48.54486" lon="-3.38592">
        <ele>139</ele>
        <time>2022-04-06T07:17:26.177Z</time>
      </trkpt>
      <trkpt lat="48.54491" lon="-3.38586">
        <ele>137</ele>
        <time>2022-04-06T07:17:31.180Z</time>
      </trkpt>
      <trkpt lat="48.54497" lon="-3.38581">
        <ele>137</ele>
        <time>2022-04-06T07:17:36.159Z</time>
      </trkpt>
      <trkpt lat="48.545" lon="-3.38576">
        <ele>137</ele>
        <time>2022-04-06T07:17:40.179Z</time>
      </trkpt>
      <trkpt lat="48.54504" lon="-3.38571">
        <ele>137</ele>
        <time>2022-04-06T07:17:45.158Z</time>
      </trkpt>
      <trkpt lat="48.54508" lon="-3.38565">
        <ele>137</ele>
        <time>2022-04-06T07:17:49.169Z</time>
      </trkpt>
      <trkpt lat="48.54513" lon="-3.38558">
        <ele>137</ele>
        <time>2022-04-06T07:17:54.164Z</time>
      </trkpt>
      <trkpt lat="48.54518" lon="-3.38551">
        <ele>136</ele>
        <time>2022-04-06T07:17:59.172Z</time>
      </trkpt>
      <trkpt lat="48.54524" lon="-3.38546">
        <ele>136</ele>
        <time>2022-04-06T07:18:04.162Z</time>
      </trkpt>
      <trkpt lat="48.54529" lon="-3.38539">
        <ele>136</ele>
        <time>2022-04-06T07:18:09.173Z</time>
      </trkpt>
      <trkpt lat="48.54534" lon="-3.38533">
        <ele>136</ele>
        <time>2022-04-06T07:18:14.162Z</time>
      </trkpt>
      <trkpt lat="48.54538" lon="-3.38528">
        <ele>136</ele>
        <time>2022-04-06T07:18:18.180Z</time>
      </trkpt>
      <trkpt lat="48.5454" lon="-3.38519">
        <ele>136</ele>
        <time>2022-04-06T07:18:23.165Z</time>
      </trkpt>
      <trkpt lat="48.5454" lon="-3.38508">
        <ele>136</ele>
        <time>2022-04-06T07:18:28.161Z</time>
      </trkpt>
      <trkpt lat="48.54538" lon="-3.38499">
        <ele>136</ele>
        <time>2022-04-06T07:18:33.159Z</time>
      </trkpt>
      <trkpt lat="48.54536" lon="-3.38489">
        <ele>136</ele>
        <time>2022-04-06T07:18:38.156Z</time>
      </trkpt>
      <trkpt lat="48.54533" lon="-3.38484">
        <ele>137</ele>
        <time>2022-04-06T07:18:42.166Z</time>
      </trkpt>
      <trkpt lat="48.5453" lon="-3.38478">
        <ele>137</ele>
        <time>2022-04-06T07:18:47.156Z</time>
      </trkpt>
      <trkpt lat="48.54533" lon="-3.3847">
        <ele>137</ele>
        <time>2022-04-06T07:18:52.158Z</time>
      </trkpt>
      <trkpt lat="48.5453" lon="-3.38464">
        <ele>137</ele>
        <time>2022-04-06T07:18:56.165Z</time>
      </trkpt>
      <trkpt lat="48.5453" lon="-3.38455">
        <ele>138</ele>
        <time>2022-04-06T07:19:01.162Z</time>
      </trkpt>
      <trkpt lat="48.54528" lon="-3.38447">
        <ele>138</ele>
        <time>2022-04-06T07:19:06.165Z</time>
      </trkpt>
      <trkpt lat="48.54524" lon="-3.3844">
        <ele>138</ele>
        <time>2022-04-06T07:19:11.173Z</time>
      </trkpt>
      <trkpt lat="48.5452" lon="-3.38432">
        <ele>138</ele>
        <time>2022-04-06T07:19:16.162Z</time>
      </trkpt>
      <trkpt lat="48.54518" lon="-3.38425">
        <ele>139</ele>
        <time>2022-04-06T07:19:20.169Z</time>
      </trkpt>
      <trkpt lat="48.54516" lon="-3.38417">
        <ele>139</ele>
        <time>2022-04-06T07:19:25.162Z</time>
      </trkpt>
      <trkpt lat="48.54515" lon="-3.38409">
        <ele>139</ele>
        <time>2022-04-06T07:19:30.162Z</time>
      </trkpt>
      <trkpt lat="48.54515" lon="-3.38402">
        <ele>139</ele>
        <time>2022-04-06T07:19:35.167Z</time>
      </trkpt>
      <trkpt lat="48.54514" lon="-3.38394">
        <ele>139</ele>
        <time>2022-04-06T07:19:40.168Z</time>
      </trkpt>
      <trkpt lat="48.54515" lon="-3.38386">
        <ele>139</ele>
        <time>2022-04-06T07:19:45.163Z</time>
      </trkpt>
      <trkpt lat="48.54515" lon="-3.38378">
        <ele>139</ele>
        <time>2022-04-06T07:19:49.166Z</time>
      </trkpt>
      <trkpt lat="48.54513" lon="-3.38369">
        <ele>138</ele>
        <time>2022-04-06T07:19:54.168Z</time>
      </trkpt>
      <trkpt lat="48.54512" lon="-3.3836">
        <ele>138</ele>
        <time>2022-04-06T07:19:59.167Z</time>
      </trkpt>
      <trkpt lat="48.54511" lon="-3.38352">
        <ele>138</ele>
        <time>2022-04-06T07:20:03.165Z</time>
      </trkpt>
      <trkpt lat="48.54512" lon="-3.38342">
        <ele>137</ele>
        <time>2022-04-06T07:20:08.162Z</time>
      </trkpt>
      <trkpt lat="48.54515" lon="-3.38333">
        <ele>138</ele>
        <time>2022-04-06T07:20:13.164Z</time>
      </trkpt>
      <trkpt lat="48.54515" lon="-3.38324">
        <ele>138</ele>
        <time>2022-04-06T07:20:18.167Z</time>
      </trkpt>
      <trkpt lat="48.54514" lon="-3.38315">
        <ele>137</ele>
        <time>2022-04-06T07:20:23.162Z</time>
      </trkpt>
      <trkpt lat="48.54512" lon="-3.38305">
        <ele>137</ele>
        <time>2022-04-06T07:20:28.165Z</time>
      </trkpt>
      <trkpt lat="48.5451" lon="-3.38297">
        <ele>137</ele>
        <time>2022-04-06T07:20:33.158Z</time>
      </trkpt>
      <trkpt lat="48.54507" lon="-3.38288">
        <ele>136</ele>
        <time>2022-04-06T07:20:38.165Z</time>
      </trkpt>
      <trkpt lat="48.54505" lon="-3.38279">
        <ele>136</ele>
        <time>2022-04-06T07:20:43.174Z</time>
      </trkpt>
      <trkpt lat="48.54505" lon="-3.38268">
        <ele>136</ele>
        <time>2022-04-06T07:20:48.152Z</time>
      </trkpt>
      <trkpt lat="48.54507" lon="-3.38261">
        <ele>136</ele>
        <time>2022-04-06T07:20:52.166Z</time>
      </trkpt>
      <trkpt lat="48.54509" lon="-3.38251">
        <ele>136</ele>
        <time>2022-04-06T07:20:57.166Z</time>
      </trkpt>
      <trkpt lat="48.54511" lon="-3.38243">
        <ele>136</ele>
        <time>2022-04-06T07:21:02.158Z</time>
      </trkpt>
      <trkpt lat="48.54513" lon="-3.38235">
        <ele>137</ele>
        <time>2022-04-06T07:21:07.160Z</time>
      </trkpt>
      <trkpt lat="48.54514" lon="-3.38226">
        <ele>139</ele>
        <time>2022-04-06T07:21:12.161Z</time>
      </trkpt>
      <trkpt lat="48.54516" lon="-3.3822">
        <ele>139</ele>
        <time>2022-04-06T07:21:16.164Z</time>
      </trkpt>
      <trkpt lat="48.54518" lon="-3.38213">
        <ele>139</ele>
        <time>2022-04-06T07:21:20.161Z</time>
      </trkpt>
      <trkpt lat="48.54519" lon="-3.38207">
        <ele>140</ele>
        <time>2022-04-06T07:21:24.167Z</time>
      </trkpt>
      <trkpt lat="48.5452" lon="-3.38202">
        <ele>140</ele>
        <time>2022-04-06T07:21:28.166Z</time>
      </trkpt>
      <trkpt lat="48.54522" lon="-3.38196">
        <ele>140</ele>
        <time>2022-04-06T07:21:32.178Z</time>
      </trkpt>
      <trkpt lat="48.54524" lon="-3.38188">
        <ele>140</ele>
        <time>2022-04-06T07:21:37.181Z</time>
      </trkpt>
      <trkpt lat="48.54525" lon="-3.3818">
        <ele>141</ele>
        <time>2022-04-06T07:21:42.167Z</time>
      </trkpt>
      <trkpt lat="48.54525" lon="-3.38172">
        <ele>141</ele>
        <time>2022-04-06T07:21:47.175Z</time>
      </trkpt>
      <trkpt lat="48.54527" lon="-3.38164">
        <ele>141</ele>
        <time>2022-04-06T07:21:52.167Z</time>
      </trkpt>
      <trkpt lat="48.54529" lon="-3.38155">
        <ele>141</ele>
        <time>2022-04-06T07:21:57.161Z</time>
      </trkpt>
      <trkpt lat="48.5453" lon="-3.38148">
        <ele>142</ele>
        <time>2022-04-06T07:22:01.166Z</time>
      </trkpt>
      <trkpt lat="48.54531" lon="-3.38143">
        <ele>142</ele>
        <time>2022-04-06T07:22:05.171Z</time>
      </trkpt>
      <trkpt lat="48.54534" lon="-3.38136">
        <ele>142</ele>
        <time>2022-04-06T07:22:10.175Z</time>
      </trkpt>
      <trkpt lat="48.54536" lon="-3.38127">
        <ele>142</ele>
        <time>2022-04-06T07:22:15.166Z</time>
      </trkpt>
      <trkpt lat="48.54538" lon="-3.3812">
        <ele>142</ele>
        <time>2022-04-06T07:22:19.170Z</time>
      </trkpt>
      <trkpt lat="48.5454" lon="-3.38113">
        <ele>142</ele>
        <time>2022-04-06T07:22:23.164Z</time>
      </trkpt>
      <trkpt lat="48.54543" lon="-3.38107">
        <ele>143</ele>
        <time>2022-04-06T07:22:28.166Z</time>
      </trkpt>
      <trkpt lat="48.54548" lon="-3.38104">
        <ele>143</ele>
        <time>2022-04-06T07:22:33.160Z</time>
      </trkpt>
      <trkpt lat="48.5455" lon="-3.381">
        <ele>143</ele>
        <time>2022-04-06T07:22:37.166Z</time>
      </trkpt>
      <trkpt lat="48.54552" lon="-3.38093">
        <ele>143</ele>
        <time>2022-04-06T07:22:41.168Z</time>
      </trkpt>
      <trkpt lat="48.54554" lon="-3.38084">
        <ele>143</ele>
        <time>2022-04-06T07:22:46.162Z</time>
      </trkpt>
      <trkpt lat="48.54555" lon="-3.38078">
        <ele>143</ele>
        <time>2022-04-06T07:22:50.173Z</time>
      </trkpt>
      <trkpt lat="48.54556" lon="-3.38071">
        <ele>143</ele>
        <time>2022-04-06T07:22:54.172Z</time>
      </trkpt>
      <trkpt lat="48.54558" lon="-3.38062">
        <ele>144</ele>
        <time>2022-04-06T07:22:59.166Z</time>
      </trkpt>
      <trkpt lat="48.5456" lon="-3.38054">
        <ele>144</ele>
        <time>2022-04-06T07:23:04.179Z</time>
      </trkpt>
      <trkpt lat="48.54563" lon="-3.38046">
        <ele>144</ele>
        <time>2022-04-06T07:23:09.164Z</time>
      </trkpt>
      <trkpt lat="48.54565" lon="-3.38036">
        <ele>145</ele>
        <time>2022-04-06T07:23:14.166Z</time>
      </trkpt>
      <trkpt lat="48.54567" lon="-3.38027">
        <ele>145</ele>
        <time>2022-04-06T07:23:19.171Z</time>
      </trkpt>
      <trkpt lat="48.54568" lon="-3.3802">
        <ele>145</ele>
        <time>2022-04-06T07:23:23.198Z</time>
      </trkpt>
      <trkpt lat="48.54569" lon="-3.38011">
        <ele>145</ele>
        <time>2022-04-06T07:23:28.170Z</time>
      </trkpt>
      <trkpt lat="48.54571" lon="-3.38004">
        <ele>147</ele>
        <time>2022-04-06T07:23:32.176Z</time>
      </trkpt>
      <trkpt lat="48.54573" lon="-3.37989">
        <ele>147</ele>
        <time>2022-04-06T07:24:24.166Z</time>
      </trkpt>
      <trkpt lat="48.54573" lon="-3.37989">
        <ele>147</ele>
        <time>2022-04-06T07:24:28.174Z</time>
      </trkpt>
      <trkpt lat="48.54572" lon="-3.37983">
        <ele>147</ele>
        <time>2022-04-06T07:24:33.196Z</time>
      </trkpt>
      <trkpt lat="48.54572" lon="-3.37976">
        <ele>147</ele>
        <time>2022-04-06T07:24:37.212Z</time>
      </trkpt>
      <trkpt lat="48.54573" lon="-3.37971">
        <ele>147</ele>
        <time>2022-04-06T07:24:42.199Z</time>
      </trkpt>
      <trkpt lat="48.54575" lon="-3.37964">
        <ele>147</ele>
        <time>2022-04-06T07:24:47.165Z</time>
      </trkpt>
      <trkpt lat="48.54575" lon="-3.37957">
        <ele>146</ele>
        <time>2022-04-06T07:24:52.174Z</time>
      </trkpt>
      <trkpt lat="48.54577" lon="-3.3795">
        <ele>146</ele>
        <time>2022-04-06T07:24:57.167Z</time>
      </trkpt>
      <trkpt lat="48.54578" lon="-3.37943">
        <ele>146</ele>
        <time>2022-04-06T07:25:01.189Z</time>
      </trkpt>
      <trkpt lat="48.54579" lon="-3.37936">
        <ele>146</ele>
        <time>2022-04-06T07:25:06.205Z</time>
      </trkpt>
      <trkpt lat="48.5458" lon="-3.37928">
        <ele>145</ele>
        <time>2022-04-06T07:25:11.185Z</time>
      </trkpt>
      <trkpt lat="48.54581" lon="-3.3792">
        <ele>145</ele>
        <time>2022-04-06T07:25:16.170Z</time>
      </trkpt>
      <trkpt lat="48.54582" lon="-3.37913">
        <ele>145</ele>
        <time>2022-04-06T07:25:20.174Z</time>
      </trkpt>
      <trkpt lat="48.54583" lon="-3.37906">
        <ele>145</ele>
        <time>2022-04-06T07:25:25.196Z</time>
      </trkpt>
      <trkpt lat="48.54585" lon="-3.37898">
        <ele>145</ele>
        <time>2022-04-06T07:25:30.179Z</time>
      </trkpt>
      <trkpt lat="48.54587" lon="-3.37892">
        <ele>145</ele>
        <time>2022-04-06T07:25:34.174Z</time>
      </trkpt>
      <trkpt lat="48.54588" lon="-3.37887">
        <ele>145</ele>
        <time>2022-04-06T07:25:38.197Z</time>
      </trkpt>
      <trkpt lat="48.5459" lon="-3.37881">
        <ele>145</ele>
        <time>2022-04-06T07:25:42.201Z</time>
      </trkpt>
      <trkpt lat="48.54591" lon="-3.37872">
        <ele>145</ele>
        <time>2022-04-06T07:25:47.206Z</time>
      </trkpt>
      <trkpt lat="48.54593" lon="-3.37863">
        <ele>145</ele>
        <time>2022-04-06T07:25:52.168Z</time>
      </trkpt>
      <trkpt lat="48.54594" lon="-3.37856">
        <ele>145</ele>
        <time>2022-04-06T07:25:56.176Z</time>
      </trkpt>
      <trkpt lat="48.54596" lon="-3.37848">
        <ele>145</ele>
        <time>2022-04-06T07:26:01.203Z</time>
      </trkpt>
      <trkpt lat="48.54597" lon="-3.37838">
        <ele>145</ele>
        <time>2022-04-06T07:26:06.205Z</time>
      </trkpt>
      <trkpt lat="48.54599" lon="-3.37829">
        <ele>147</ele>
        <time>2022-04-06T07:26:11.177Z</time>
      </trkpt>
      <trkpt lat="48.54601" lon="-3.37821">
        <ele>147</ele>
        <time>2022-04-06T07:26:16.168Z</time>
      </trkpt>
      <trkpt lat="48.54601" lon="-3.37814">
        <ele>146</ele>
        <time>2022-04-06T07:26:20.201Z</time>
      </trkpt>
      <trkpt lat="48.546" lon="-3.37806">
        <ele>146</ele>
        <time>2022-04-06T07:26:25.171Z</time>
      </trkpt>
      <trkpt lat="48.54602" lon="-3.378">
        <ele>146</ele>
        <time>2022-04-06T07:26:30.166Z</time>
      </trkpt>
      <trkpt lat="48.54604" lon="-3.37797">
        <ele>146</ele>
        <time>2022-04-06T07:26:34.167Z</time>
      </trkpt>
      <trkpt lat="48.54606" lon="-3.37794">
        <ele>146</ele>
        <time>2022-04-06T07:26:38.211Z</time>
      </trkpt>
      <trkpt lat="48.54608" lon="-3.37787">
        <ele>146</ele>
        <time>2022-04-06T07:26:43.209Z</time>
      </trkpt>
      <trkpt lat="48.54608" lon="-3.3778">
        <ele>146</ele>
        <time>2022-04-06T07:26:48.177Z</time>
      </trkpt>
      <trkpt lat="48.54609" lon="-3.37774">
        <ele>146</ele>
        <time>2022-04-06T07:26:52.212Z</time>
      </trkpt>
      <trkpt lat="48.54611" lon="-3.37767">
        <ele>146</ele>
        <time>2022-04-06T07:26:57.166Z</time>
      </trkpt>
      <trkpt lat="48.54612" lon="-3.37758">
        <ele>145</ele>
        <time>2022-04-06T07:27:02.213Z</time>
      </trkpt>
      <trkpt lat="48.54615" lon="-3.37751">
        <ele>145</ele>
        <time>2022-04-06T07:27:07.204Z</time>
      </trkpt>
      <trkpt lat="48.54617" lon="-3.37741">
        <ele>145</ele>
        <time>2022-04-06T07:27:12.164Z</time>
      </trkpt>
      <trkpt lat="48.54617" lon="-3.37734">
        <ele>145</ele>
        <time>2022-04-06T07:27:16.171Z</time>
      </trkpt>
      <trkpt lat="48.54619" lon="-3.37727">
        <ele>145</ele>
        <time>2022-04-06T07:27:21.195Z</time>
      </trkpt>
      <trkpt lat="48.54621" lon="-3.3772">
        <ele>145</ele>
        <time>2022-04-06T07:27:25.205Z</time>
      </trkpt>
      <trkpt lat="48.54623" lon="-3.37713">
        <ele>145</ele>
        <time>2022-04-06T07:27:30.179Z</time>
      </trkpt>
      <trkpt lat="48.54626" lon="-3.37705">
        <ele>145</ele>
        <time>2022-04-06T07:27:35.164Z</time>
      </trkpt>
      <trkpt lat="48.54629" lon="-3.37699">
        <ele>145</ele>
        <time>2022-04-06T07:27:39.167Z</time>
      </trkpt>
      <trkpt lat="48.54632" lon="-3.37692">
        <ele>145</ele>
        <time>2022-04-06T07:27:43.204Z</time>
      </trkpt>
      <trkpt lat="48.54632" lon="-3.37685">
        <ele>145</ele>
        <time>2022-04-06T07:27:47.206Z</time>
      </trkpt>
      <trkpt lat="48.54634" lon="-3.37676">
        <ele>145</ele>
        <time>2022-04-06T07:27:52.194Z</time>
      </trkpt>
      <trkpt lat="48.54637" lon="-3.3767">
        <ele>145</ele>
        <time>2022-04-06T07:27:57.204Z</time>
      </trkpt>
      <trkpt lat="48.54639" lon="-3.37662">
        <ele>145</ele>
        <time>2022-04-06T07:28:02.217Z</time>
      </trkpt>
      <trkpt lat="48.54641" lon="-3.37656">
        <ele>145</ele>
        <time>2022-04-06T07:28:07.203Z</time>
      </trkpt>
      <trkpt lat="48.54643" lon="-3.37648">
        <ele>145</ele>
        <time>2022-04-06T07:28:12.200Z</time>
      </trkpt>
      <trkpt lat="48.54646" lon="-3.3764">
        <ele>145</ele>
        <time>2022-04-06T07:28:17.202Z</time>
      </trkpt>
      <trkpt lat="48.54647" lon="-3.37632">
        <ele>145</ele>
        <time>2022-04-06T07:28:22.211Z</time>
      </trkpt>
      <trkpt lat="48.54651" lon="-3.37624">
        <ele>146</ele>
        <time>2022-04-06T07:28:27.214Z</time>
      </trkpt>
      <trkpt lat="48.54665" lon="-3.37612">
        <ele>148</ele>
        <time>2022-04-06T07:30:27.163Z</time>
      </trkpt>
      <trkpt lat="48.54666" lon="-3.37611">
        <ele>148</ele>
        <time>2022-04-06T07:30:31.169Z</time>
      </trkpt>
      <trkpt lat="48.54666" lon="-3.37611">
        <ele>148</ele>
        <time>2022-04-06T07:30:35.168Z</time>
      </trkpt>
      <trkpt lat="48.54669" lon="-3.37611">
        <ele>148</ele>
        <time>2022-04-06T07:30:40.192Z</time>
      </trkpt>
      <trkpt lat="48.54675" lon="-3.37613">
        <ele>148</ele>
        <time>2022-04-06T07:30:45.183Z</time>
      </trkpt>
      <trkpt lat="48.54677" lon="-3.37616">
        <ele>148</ele>
        <time>2022-04-06T07:30:49.178Z</time>
      </trkpt>
      <trkpt lat="48.54676" lon="-3.37622">
        <ele>148</ele>
        <time>2022-04-06T07:30:54.165Z</time>
      </trkpt>
      <trkpt lat="48.54681" lon="-3.37626">
        <ele>149</ele>
        <time>2022-04-06T07:30:59.164Z</time>
      </trkpt>
      <trkpt lat="48.54685" lon="-3.3763">
        <ele>149</ele>
        <time>2022-04-06T07:31:04.169Z</time>
      </trkpt>
      <trkpt lat="48.5469" lon="-3.37633">
        <ele>149</ele>
        <time>2022-04-06T07:31:09.167Z</time>
      </trkpt>
      <trkpt lat="48.54695" lon="-3.37639">
        <ele>149</ele>
        <time>2022-04-06T07:31:14.181Z</time>
      </trkpt>
      <trkpt lat="48.54699" lon="-3.37644">
        <ele>149</ele>
        <time>2022-04-06T07:31:19.162Z</time>
      </trkpt>
      <trkpt lat="48.54703" lon="-3.37648">
        <ele>149</ele>
        <time>2022-04-06T07:31:23.182Z</time>
      </trkpt>
      <trkpt lat="48.5471" lon="-3.3765">
        <ele>149</ele>
        <time>2022-04-06T07:31:28.170Z</time>
      </trkpt>
      <trkpt lat="48.54715" lon="-3.37653">
        <ele>149</ele>
        <time>2022-04-06T07:31:32.180Z</time>
      </trkpt>
      <trkpt lat="48.54719" lon="-3.37656">
        <ele>149</ele>
        <time>2022-04-06T07:31:36.179Z</time>
      </trkpt>
      <trkpt lat="48.54724" lon="-3.37658">
        <ele>149</ele>
        <time>2022-04-06T07:31:41.161Z</time>
      </trkpt>
      <trkpt lat="48.54732" lon="-3.37652">
        <ele>149</ele>
        <time>2022-04-06T07:31:58.166Z</time>
      </trkpt>
      <trkpt lat="48.54732" lon="-3.37649">
        <ele>149</ele>
        <time>2022-04-06T07:32:03.155Z</time>
      </trkpt>
      <trkpt lat="48.54734" lon="-3.37651">
        <ele>149</ele>
        <time>2022-04-06T07:32:08.153Z</time>
      </trkpt>
      <trkpt lat="48.54739" lon="-3.37655">
        <ele>150</ele>
        <time>2022-04-06T07:32:12.164Z</time>
      </trkpt>
      <trkpt lat="48.54744" lon="-3.37657">
        <ele>150</ele>
        <time>2022-04-06T07:32:17.164Z</time>
      </trkpt>
      <trkpt lat="48.54748" lon="-3.37657">
        <ele>150</ele>
        <time>2022-04-06T07:32:21.163Z</time>
      </trkpt>
      <trkpt lat="48.54752" lon="-3.37656">
        <ele>150</ele>
        <time>2022-04-06T07:32:25.168Z</time>
      </trkpt>
      <trkpt lat="48.54756" lon="-3.37659">
        <ele>150</ele>
        <time>2022-04-06T07:32:29.170Z</time>
      </trkpt>
      <trkpt lat="48.54763" lon="-3.37658">
        <ele>150</ele>
        <time>2022-04-06T07:32:34.165Z</time>
      </trkpt>
      <trkpt lat="48.54769" lon="-3.37656">
        <ele>150</ele>
        <time>2022-04-06T07:32:52.172Z</time>
      </trkpt>
      <trkpt lat="48.54774" lon="-3.37656">
        <ele>150</ele>
        <time>2022-04-06T07:32:57.159Z</time>
      </trkpt>
      <trkpt lat="48.54779" lon="-3.37654">
        <ele>150</ele>
        <time>2022-04-06T07:33:02.165Z</time>
      </trkpt>
      <trkpt lat="48.54785" lon="-3.37655">
        <ele>150</ele>
        <time>2022-04-06T07:33:07.160Z</time>
      </trkpt>
      <trkpt lat="48.54789" lon="-3.37657">
        <ele>150</ele>
        <time>2022-04-06T07:33:11.174Z</time>
      </trkpt>
      <trkpt lat="48.54793" lon="-3.37657">
        <ele>150</ele>
        <time>2022-04-06T07:33:16.178Z</time>
      </trkpt>
      <trkpt lat="48.54798" lon="-3.37657">
        <ele>150</ele>
        <time>2022-04-06T07:33:20.178Z</time>
      </trkpt>
      <trkpt lat="48.54803" lon="-3.37658">
        <ele>150</ele>
        <time>2022-04-06T07:33:25.183Z</time>
      </trkpt>
      <trkpt lat="48.54809" lon="-3.37658">
        <ele>150</ele>
        <time>2022-04-06T07:33:30.170Z</time>
      </trkpt>
      <trkpt lat="48.54813" lon="-3.37658">
        <ele>150</ele>
        <time>2022-04-06T07:33:48.173Z</time>
      </trkpt>
      <trkpt lat="48.54814" lon="-3.37656">
        <ele>150</ele>
        <time>2022-04-06T07:33:52.180Z</time>
      </trkpt>
      <trkpt lat="48.54816" lon="-3.37651">
        <ele>150</ele>
        <time>2022-04-06T07:33:57.161Z</time>
      </trkpt>
      <trkpt lat="48.54819" lon="-3.37643">
        <ele>150</ele>
        <time>2022-04-06T07:34:02.174Z</time>
      </trkpt>
      <trkpt lat="48.54822" lon="-3.37633">
        <ele>151</ele>
        <time>2022-04-06T07:34:07.171Z</time>
      </trkpt>
      <trkpt lat="48.54824" lon="-3.37626">
        <ele>151</ele>
        <time>2022-04-06T07:34:12.167Z</time>
      </trkpt>
      <trkpt lat="48.54826" lon="-3.37619">
        <ele>150</ele>
        <time>2022-04-06T07:34:16.173Z</time>
      </trkpt>
      <trkpt lat="48.54827" lon="-3.37611">
        <ele>150</ele>
        <time>2022-04-06T07:34:21.343Z</time>
      </trkpt>
      <trkpt lat="48.54828" lon="-3.37603">
        <ele>150</ele>
        <time>2022-04-06T07:34:26.174Z</time>
      </trkpt>
      <trkpt lat="48.54829" lon="-3.37596">
        <ele>150</ele>
        <time>2022-04-06T07:34:30.175Z</time>
      </trkpt>
      <trkpt lat="48.54831" lon="-3.37588">
        <ele>150</ele>
        <time>2022-04-06T07:34:35.182Z</time>
      </trkpt>
      <trkpt lat="48.54832" lon="-3.3758">
        <ele>150</ele>
        <time>2022-04-06T07:34:40.178Z</time>
      </trkpt>
      <trkpt lat="48.54833" lon="-3.37573">
        <ele>150</ele>
        <time>2022-04-06T07:34:44.182Z</time>
      </trkpt>
      <trkpt lat="48.54835" lon="-3.37566">
        <ele>150</ele>
        <time>2022-04-06T07:34:49.167Z</time>
      </trkpt>
      <trkpt lat="48.54835" lon="-3.37561">
        <ele>150</ele>
        <time>2022-04-06T07:34:53.172Z</time>
      </trkpt>
      <trkpt lat="48.54836" lon="-3.37555">
        <ele>150</ele>
        <time>2022-04-06T07:34:58.160Z</time>
      </trkpt>
      <trkpt lat="48.54836" lon="-3.3755">
        <ele>150</ele>
        <time>2022-04-06T07:35:02.172Z</time>
      </trkpt>
      <trkpt lat="48.54837" lon="-3.37543">
        <ele>150</ele>
        <time>2022-04-06T07:35:07.173Z</time>
      </trkpt>
      <trkpt lat="48.54836" lon="-3.37538">
        <ele>150</ele>
        <time>2022-04-06T07:35:11.177Z</time>
      </trkpt>
      <trkpt lat="48.54835" lon="-3.37531">
        <ele>150</ele>
        <time>2022-04-06T07:35:16.179Z</time>
      </trkpt>
      <trkpt lat="48.54834" lon="-3.37524">
        <ele>150</ele>
        <time>2022-04-06T07:35:21.172Z</time>
      </trkpt>
      <trkpt lat="48.54831" lon="-3.37521">
        <ele>150</ele>
        <time>2022-04-06T07:35:26.171Z</time>
      </trkpt>
      <trkpt lat="48.54829" lon="-3.37513">
        <ele>149</ele>
        <time>2022-04-06T07:35:31.161Z</time>
      </trkpt>
      <trkpt lat="48.54829" lon="-3.37507">
        <ele>149</ele>
        <time>2022-04-06T07:35:35.171Z</time>
      </trkpt>
      <trkpt lat="48.54827" lon="-3.37502">
        <ele>149</ele>
        <time>2022-04-06T07:35:39.175Z</time>
      </trkpt>
      <trkpt lat="48.54823" lon="-3.37498">
        <ele>149</ele>
        <time>2022-04-06T07:35:44.162Z</time>
      </trkpt>
      <trkpt lat="48.54822" lon="-3.37492">
        <ele>149</ele>
        <time>2022-04-06T07:35:48.159Z</time>
      </trkpt>
      <trkpt lat="48.54819" lon="-3.37485">
        <ele>149</ele>
        <time>2022-04-06T07:35:53.170Z</time>
      </trkpt>
      <trkpt lat="48.54816" lon="-3.37477">
        <ele>149</ele>
        <time>2022-04-06T07:35:58.157Z</time>
      </trkpt>
      <trkpt lat="48.54814" lon="-3.3747">
        <ele>149</ele>
        <time>2022-04-06T07:36:02.165Z</time>
      </trkpt>
      <trkpt lat="48.54812" lon="-3.37461">
        <ele>149</ele>
        <time>2022-04-06T07:36:07.162Z</time>
      </trkpt>
      <trkpt lat="48.54811" lon="-3.37456">
        <ele>147</ele>
        <time>2022-04-06T07:36:11.167Z</time>
      </trkpt>
      <trkpt lat="48.54809" lon="-3.37451">
        <ele>147</ele>
        <time>2022-04-06T07:36:15.168Z</time>
      </trkpt>
      <trkpt lat="48.54806" lon="-3.37444">
        <ele>147</ele>
        <time>2022-04-06T07:36:20.160Z</time>
      </trkpt>
      <trkpt lat="48.54805" lon="-3.37438">
        <ele>147</ele>
        <time>2022-04-06T07:36:24.163Z</time>
      </trkpt>
      <trkpt lat="48.54804" lon="-3.37435">
        <ele>147</ele>
        <time>2022-04-06T07:36:29.170Z</time>
      </trkpt>
      <trkpt lat="48.54801" lon="-3.37428">
        <ele>146</ele>
        <time>2022-04-06T07:36:34.167Z</time>
      </trkpt>
      <trkpt lat="48.548" lon="-3.3742">
        <ele>146</ele>
        <time>2022-04-06T07:36:39.170Z</time>
      </trkpt>
      <trkpt lat="48.54797" lon="-3.37413">
        <ele>146</ele>
        <time>2022-04-06T07:36:44.164Z</time>
      </trkpt>
      <trkpt lat="48.54796" lon="-3.37407">
        <ele>146</ele>
        <time>2022-04-06T07:36:48.173Z</time>
      </trkpt>
      <trkpt lat="48.54796" lon="-3.37404">
        <ele>146</ele>
        <time>2022-04-06T07:36:53.171Z</time>
      </trkpt>
      <trkpt lat="48.54796" lon="-3.37403">
        <ele>146</ele>
        <time>2022-04-06T07:37:21.177Z</time>
      </trkpt>
      <trkpt lat="48.54796" lon="-3.37403">
        <ele>146</ele>
        <time>2022-04-06T07:37:26.170Z</time>
      </trkpt>
      <trkpt lat="48.54793" lon="-3.37401">
        <ele>144</ele>
        <time>2022-04-06T07:37:31.183Z</time>
      </trkpt>
      <trkpt lat="48.54788" lon="-3.374">
        <ele>145</ele>
        <time>2022-04-06T07:37:36.163Z</time>
      </trkpt>
      <trkpt lat="48.54783" lon="-3.374">
        <ele>145</ele>
        <time>2022-04-06T07:37:40.171Z</time>
      </trkpt>
      <trkpt lat="48.54778" lon="-3.37398">
        <ele>145</ele>
        <time>2022-04-06T07:37:44.167Z</time>
      </trkpt>
      <trkpt lat="48.54773" lon="-3.37393">
        <ele>145</ele>
        <time>2022-04-06T07:37:49.176Z</time>
      </trkpt>
      <trkpt lat="48.54769" lon="-3.37389">
        <ele>145</ele>
        <time>2022-04-06T07:37:53.185Z</time>
      </trkpt>
      <trkpt lat="48.54764" lon="-3.37385">
        <ele>146</ele>
        <time>2022-04-06T07:37:58.176Z</time>
      </trkpt>
      <trkpt lat="48.54758" lon="-3.3738">
        <ele>146</ele>
        <time>2022-04-06T07:38:03.174Z</time>
      </trkpt>
      <trkpt lat="48.54752" lon="-3.37378">
        <ele>146</ele>
        <time>2022-04-06T07:38:08.167Z</time>
      </trkpt>
      <trkpt lat="48.54747" lon="-3.37377">
        <ele>146</ele>
        <time>2022-04-06T07:38:12.182Z</time>
      </trkpt>
      <trkpt lat="48.54741" lon="-3.37376">
        <ele>146</ele>
        <time>2022-04-06T07:38:17.176Z</time>
      </trkpt>
      <trkpt lat="48.54734" lon="-3.37374">
        <ele>146</ele>
        <time>2022-04-06T07:38:22.167Z</time>
      </trkpt>
      <trkpt lat="48.54728" lon="-3.37373">
        <ele>146</ele>
        <time>2022-04-06T07:38:26.169Z</time>
      </trkpt>
      <trkpt lat="48.54725" lon="-3.37371">
        <ele>146</ele>
        <time>2022-04-06T07:38:30.174Z</time>
      </trkpt>
      <trkpt lat="48.5472" lon="-3.37369">
        <ele>146</ele>
        <time>2022-04-06T07:38:34.177Z</time>
      </trkpt>
      <trkpt lat="48.54716" lon="-3.37364">
        <ele>146</ele>
        <time>2022-04-06T07:38:39.181Z</time>
      </trkpt>
      <trkpt lat="48.54713" lon="-3.37357">
        <ele>146</ele>
        <time>2022-04-06T07:38:44.163Z</time>
      </trkpt>
      <trkpt lat="48.54711" lon="-3.37352">
        <ele>146</ele>
        <time>2022-04-06T07:38:48.182Z</time>
      </trkpt>
      <trkpt lat="48.54711" lon="-3.37343">
        <ele>145</ele>
        <time>2022-04-06T07:38:53.162Z</time>
      </trkpt>
      <trkpt lat="48.54711" lon="-3.37335">
        <ele>145</ele>
        <time>2022-04-06T07:38:58.181Z</time>
      </trkpt>
      <trkpt lat="48.54712" lon="-3.37328">
        <ele>145</ele>
        <time>2022-04-06T07:39:03.171Z</time>
      </trkpt>
      <trkpt lat="48.54712" lon="-3.37322">
        <ele>145</ele>
        <time>2022-04-06T07:39:07.178Z</time>
      </trkpt>
      <trkpt lat="48.54712" lon="-3.37317">
        <ele>146</ele>
        <time>2022-04-06T07:39:11.177Z</time>
      </trkpt>
      <trkpt lat="48.54714" lon="-3.37309">
        <ele>146</ele>
        <time>2022-04-06T07:39:16.176Z</time>
      </trkpt>
      <trkpt lat="48.54715" lon="-3.37301">
        <ele>146</ele>
        <time>2022-04-06T07:39:21.177Z</time>
      </trkpt>
      <trkpt lat="48.54717" lon="-3.37292">
        <ele>145</ele>
        <time>2022-04-06T07:39:26.180Z</time>
      </trkpt>
      <trkpt lat="48.54719" lon="-3.37284">
        <ele>145</ele>
        <time>2022-04-06T07:39:31.181Z</time>
      </trkpt>
      <trkpt lat="48.5472" lon="-3.37276">
        <ele>145</ele>
        <time>2022-04-06T07:39:36.180Z</time>
      </trkpt>
      <trkpt lat="48.5472" lon="-3.37268">
        <ele>145</ele>
        <time>2022-04-06T07:39:41.166Z</time>
      </trkpt>
      <trkpt lat="48.54719" lon="-3.37265">
        <ele>145</ele>
        <time>2022-04-06T07:39:45.175Z</time>
      </trkpt>
      <trkpt lat="48.54715" lon="-3.37263">
        <ele>143</ele>
        <time>2022-04-06T07:39:50.162Z</time>
      </trkpt>
      <trkpt lat="48.54712" lon="-3.37261">
        <ele>143</ele>
        <time>2022-04-06T07:39:55.181Z</time>
      </trkpt>
      <trkpt lat="48.5471" lon="-3.37254">
        <ele>143</ele>
        <time>2022-04-06T07:40:00.177Z</time>
      </trkpt>
      <trkpt lat="48.54709" lon="-3.37246">
        <ele>143</ele>
        <time>2022-04-06T07:40:05.181Z</time>
      </trkpt>
      <trkpt lat="48.5471" lon="-3.37238">
        <ele>143</ele>
        <time>2022-04-06T07:40:10.167Z</time>
      </trkpt>
      <trkpt lat="48.54713" lon="-3.37229">
        <ele>140</ele>
        <time>2022-04-06T07:40:15.167Z</time>
      </trkpt>
      <trkpt lat="48.54714" lon="-3.37223">
        <ele>140</ele>
        <time>2022-04-06T07:40:19.172Z</time>
      </trkpt>
      <trkpt lat="48.54715" lon="-3.37218">
        <ele>140</ele>
        <time>2022-04-06T07:40:23.180Z</time>
      </trkpt>
      <trkpt lat="48.54717" lon="-3.37212">
        <ele>140</ele>
        <time>2022-04-06T07:40:27.179Z</time>
      </trkpt>
      <trkpt lat="48.5472" lon="-3.37205">
        <ele>138</ele>
        <time>2022-04-06T07:40:32.181Z</time>
      </trkpt>
      <trkpt lat="48.54721" lon="-3.372">
        <ele>138</ele>
        <time>2022-04-06T07:40:36.284Z</time>
      </trkpt>
      <trkpt lat="48.54723" lon="-3.37193">
        <ele>138</ele>
        <time>2022-04-06T07:40:41.177Z</time>
      </trkpt>
      <trkpt lat="48.54724" lon="-3.37187">
        <ele>138</ele>
        <time>2022-04-06T07:40:45.177Z</time>
      </trkpt>
      <trkpt lat="48.54724" lon="-3.3718">
        <ele>137</ele>
        <time>2022-04-06T07:40:50.179Z</time>
      </trkpt>
      <trkpt lat="48.54725" lon="-3.37172">
        <ele>137</ele>
        <time>2022-04-06T07:40:55.170Z</time>
      </trkpt>
      <trkpt lat="48.54727" lon="-3.37166">
        <ele>137</ele>
        <time>2022-04-06T07:40:59.175Z</time>
      </trkpt>
      <trkpt lat="48.54728" lon="-3.37161">
        <ele>137</ele>
        <time>2022-04-06T07:41:03.179Z</time>
      </trkpt>
      <trkpt lat="48.5473" lon="-3.37156">
        <ele>137</ele>
        <time>2022-04-06T07:41:07.180Z</time>
      </trkpt>
      <trkpt lat="48.54731" lon="-3.37153">
        <ele>137</ele>
        <time>2022-04-06T07:41:12.159Z</time>
      </trkpt>
      <trkpt lat="48.54731" lon="-3.37147">
        <ele>137</ele>
        <time>2022-04-06T07:41:16.166Z</time>
      </trkpt>
      <trkpt lat="48.5473" lon="-3.37141">
        <ele>137</ele>
        <time>2022-04-06T07:41:21.184Z</time>
      </trkpt>
      <trkpt lat="48.54725" lon="-3.37127">
        <ele>137</ele>
        <time>2022-04-06T07:44:07.173Z</time>
      </trkpt>
      <trkpt lat="48.54725" lon="-3.37126">
        <ele>137</ele>
        <time>2022-04-06T07:44:11.190Z</time>
      </trkpt>
      <trkpt lat="48.54725" lon="-3.37125">
        <ele>137</ele>
        <time>2022-04-06T07:44:16.157Z</time>
      </trkpt>
      <trkpt lat="48.54726" lon="-3.37121">
        <ele>137</ele>
        <time>2022-04-06T07:44:21.162Z</time>
      </trkpt>
      <trkpt lat="48.54726" lon="-3.37121">
        <ele>137</ele>
        <time>2022-04-06T07:44:25.180Z</time>
      </trkpt>
      <trkpt lat="48.54725" lon="-3.37112">
        <ele>137</ele>
        <time>2022-04-06T07:47:03.169Z</time>
      </trkpt>
      <trkpt lat="48.54727" lon="-3.37112">
        <ele>137</ele>
        <time>2022-04-06T07:47:08.181Z</time>
      </trkpt>
      <trkpt lat="48.54728" lon="-3.37112">
        <ele>137</ele>
        <time>2022-04-06T07:47:13.168Z</time>
      </trkpt>
      <trkpt lat="48.54729" lon="-3.3711">
        <ele>137</ele>
        <time>2022-04-06T07:47:18.185Z</time>
      </trkpt>
      <trkpt lat="48.5473" lon="-3.37109">
        <ele>137</ele>
        <time>2022-04-06T07:47:22.174Z</time>
      </trkpt>
      <trkpt lat="48.54733" lon="-3.3711">
        <ele>137</ele>
        <time>2022-04-06T07:49:47.167Z</time>
      </trkpt>
      <trkpt lat="48.54733" lon="-3.3711">
        <ele>137</ele>
        <time>2022-04-06T07:49:51.172Z</time>
      </trkpt>
      <trkpt lat="48.54733" lon="-3.37108">
        <ele>137</ele>
        <time>2022-04-06T07:49:56.174Z</time>
      </trkpt>
      <trkpt lat="48.54733" lon="-3.37101">
        <ele>137</ele>
        <time>2022-04-06T07:50:01.170Z</time>
      </trkpt>
      <trkpt lat="48.5473" lon="-3.37094">
        <ele>137</ele>
        <time>2022-04-06T07:50:06.178Z</time>
      </trkpt>
      <trkpt lat="48.54726" lon="-3.37087">
        <ele>137</ele>
        <time>2022-04-06T07:50:11.170Z</time>
      </trkpt>
      <trkpt lat="48.54723" lon="-3.37083">
        <ele>137</ele>
        <time>2022-04-06T07:50:15.181Z</time>
      </trkpt>
      <trkpt lat="48.54721" lon="-3.37081">
        <ele>137</ele>
        <time>2022-04-06T07:50:20.280Z</time>
      </trkpt>
      <trkpt lat="48.54718" lon="-3.37074">
        <ele>137</ele>
        <time>2022-04-06T07:50:25.169Z</time>
      </trkpt>
      <trkpt lat="48.54714" lon="-3.37068">
        <ele>138</ele>
        <time>2022-04-06T07:50:30.175Z</time>
      </trkpt>
      <trkpt lat="48.5471" lon="-3.37063">
        <ele>138</ele>
        <time>2022-04-06T07:50:34.175Z</time>
      </trkpt>
      <trkpt lat="48.54705" lon="-3.37055">
        <ele>138</ele>
        <time>2022-04-06T07:50:39.177Z</time>
      </trkpt>
      <trkpt lat="48.547" lon="-3.37048">
        <ele>138</ele>
        <time>2022-04-06T07:50:44.175Z</time>
      </trkpt>
      <trkpt lat="48.54696" lon="-3.37041">
        <ele>138</ele>
        <time>2022-04-06T07:50:49.175Z</time>
      </trkpt>
      <trkpt lat="48.54693" lon="-3.37035">
        <ele>138</ele>
        <time>2022-04-06T07:50:54.180Z</time>
      </trkpt>
      <trkpt lat="48.54694" lon="-3.37026">
        <ele>138</ele>
        <time>2022-04-06T07:50:59.182Z</time>
      </trkpt>
      <trkpt lat="48.54693" lon="-3.37019">
        <ele>138</ele>
        <time>2022-04-06T07:51:04.172Z</time>
      </trkpt>
      <trkpt lat="48.54696" lon="-3.37011">
        <ele>139</ele>
        <time>2022-04-06T07:51:09.175Z</time>
      </trkpt>
      <trkpt lat="48.54698" lon="-3.37006">
        <ele>139</ele>
        <time>2022-04-06T07:51:13.178Z</time>
      </trkpt>
      <trkpt lat="48.54701" lon="-3.37">
        <ele>139</ele>
        <time>2022-04-06T07:51:18.183Z</time>
      </trkpt>
      <trkpt lat="48.54705" lon="-3.36992">
        <ele>139</ele>
        <time>2022-04-06T07:51:23.177Z</time>
      </trkpt>
      <trkpt lat="48.54708" lon="-3.36984">
        <ele>140</ele>
        <time>2022-04-06T07:51:28.169Z</time>
      </trkpt>
      <trkpt lat="48.54711" lon="-3.36979">
        <ele>141</ele>
        <time>2022-04-06T07:51:32.168Z</time>
      </trkpt>
      <trkpt lat="48.54714" lon="-3.36972">
        <ele>141</ele>
        <time>2022-04-06T07:51:37.177Z</time>
      </trkpt>
      <trkpt lat="48.54716" lon="-3.36967">
        <ele>141</ele>
        <time>2022-04-06T07:51:41.189Z</time>
      </trkpt>
      <trkpt lat="48.54719" lon="-3.3696">
        <ele>141</ele>
        <time>2022-04-06T07:51:46.173Z</time>
      </trkpt>
      <trkpt lat="48.54722" lon="-3.36954">
        <ele>141</ele>
        <time>2022-04-06T07:51:50.178Z</time>
      </trkpt>
      <trkpt lat="48.54724" lon="-3.36947">
        <ele>141</ele>
        <time>2022-04-06T07:51:55.179Z</time>
      </trkpt>
      <trkpt lat="48.54728" lon="-3.36941">
        <ele>141</ele>
        <time>2022-04-06T07:52:00.175Z</time>
      </trkpt>
      <trkpt lat="48.54731" lon="-3.36934">
        <ele>141</ele>
        <time>2022-04-06T07:52:05.171Z</time>
      </trkpt>
      <trkpt lat="48.54733" lon="-3.36928">
        <ele>142</ele>
        <time>2022-04-06T07:52:09.173Z</time>
      </trkpt>
      <trkpt lat="48.54734" lon="-3.36917">
        <ele>142</ele>
        <time>2022-04-06T07:52:14.174Z</time>
      </trkpt>
      <trkpt lat="48.54737" lon="-3.36911">
        <ele>143</ele>
        <time>2022-04-06T07:52:19.163Z</time>
      </trkpt>
      <trkpt lat="48.54738" lon="-3.36905">
        <ele>143</ele>
        <time>2022-04-06T07:52:23.180Z</time>
      </trkpt>
      <trkpt lat="48.54741" lon="-3.36899">
        <ele>143</ele>
        <time>2022-04-06T07:52:28.180Z</time>
      </trkpt>
      <trkpt lat="48.54743" lon="-3.36892">
        <ele>143</ele>
        <time>2022-04-06T07:52:33.184Z</time>
      </trkpt>
      <trkpt lat="48.54746" lon="-3.36885">
        <ele>143</ele>
        <time>2022-04-06T07:52:38.182Z</time>
      </trkpt>
      <trkpt lat="48.54749" lon="-3.36879">
        <ele>143</ele>
        <time>2022-04-06T07:52:42.189Z</time>
      </trkpt>
      <trkpt lat="48.54751" lon="-3.36872">
        <ele>143</ele>
        <time>2022-04-06T07:52:47.181Z</time>
      </trkpt>
      <trkpt lat="48.54754" lon="-3.36863">
        <ele>143</ele>
        <time>2022-04-06T07:52:52.167Z</time>
      </trkpt>
      <trkpt lat="48.54756" lon="-3.36857">
        <ele>143</ele>
        <time>2022-04-06T07:52:56.181Z</time>
      </trkpt>
      <trkpt lat="48.5476" lon="-3.3685">
        <ele>143</ele>
        <time>2022-04-06T07:53:01.167Z</time>
      </trkpt>
      <trkpt lat="48.54763" lon="-3.36845">
        <ele>142</ele>
        <time>2022-04-06T07:53:05.175Z</time>
      </trkpt>
      <trkpt lat="48.54767" lon="-3.3684">
        <ele>143</ele>
        <time>2022-04-06T07:53:10.172Z</time>
      </trkpt>
      <trkpt lat="48.5477" lon="-3.36834">
        <ele>143</ele>
        <time>2022-04-06T07:53:15.164Z</time>
      </trkpt>
      <trkpt lat="48.54773" lon="-3.36828">
        <ele>143</ele>
        <time>2022-04-06T07:53:19.171Z</time>
      </trkpt>
      <trkpt lat="48.54776" lon="-3.36823">
        <ele>143</ele>
        <time>2022-04-06T07:53:23.179Z</time>
      </trkpt>
      <trkpt lat="48.54779" lon="-3.36818">
        <ele>143</ele>
        <time>2022-04-06T07:53:27.198Z</time>
      </trkpt>
      <trkpt lat="48.54782" lon="-3.36811">
        <ele>143</ele>
        <time>2022-04-06T07:53:32.177Z</time>
      </trkpt>
      <trkpt lat="48.54786" lon="-3.36806">
        <ele>143</ele>
        <time>2022-04-06T07:53:36.181Z</time>
      </trkpt>
      <trkpt lat="48.5479" lon="-3.36799">
        <ele>143</ele>
        <time>2022-04-06T07:53:41.175Z</time>
      </trkpt>
      <trkpt lat="48.54794" lon="-3.36793">
        <ele>144</ele>
        <time>2022-04-06T07:53:46.185Z</time>
      </trkpt>
      <trkpt lat="48.54798" lon="-3.36786">
        <ele>144</ele>
        <time>2022-04-06T07:53:51.173Z</time>
      </trkpt>
      <trkpt lat="48.54802" lon="-3.36779">
        <ele>144</ele>
        <time>2022-04-06T07:53:56.174Z</time>
      </trkpt>
      <trkpt lat="48.54806" lon="-3.36773">
        <ele>144</ele>
        <time>2022-04-06T07:54:01.168Z</time>
      </trkpt>
      <trkpt lat="48.54811" lon="-3.36766">
        <ele>144</ele>
        <time>2022-04-06T07:54:06.169Z</time>
      </trkpt>
      <trkpt lat="48.54814" lon="-3.3676">
        <ele>144</ele>
        <time>2022-04-06T07:54:10.183Z</time>
      </trkpt>
      <trkpt lat="48.54818" lon="-3.36753">
        <ele>144</ele>
        <time>2022-04-06T07:54:15.179Z</time>
      </trkpt>
      <trkpt lat="48.54823" lon="-3.36746">
        <ele>145</ele>
        <time>2022-04-06T07:54:20.168Z</time>
      </trkpt>
      <trkpt lat="48.54827" lon="-3.36739">
        <ele>145</ele>
        <time>2022-04-06T07:54:25.169Z</time>
      </trkpt>
      <trkpt lat="48.54831" lon="-3.36732">
        <ele>145</ele>
        <time>2022-04-06T07:54:30.176Z</time>
      </trkpt>
      <trkpt lat="48.54836" lon="-3.36725">
        <ele>145</ele>
        <time>2022-04-06T07:54:35.184Z</time>
      </trkpt>
      <trkpt lat="48.5484" lon="-3.36719">
        <ele>145</ele>
        <time>2022-04-06T07:54:40.172Z</time>
      </trkpt>
      <trkpt lat="48.54844" lon="-3.36713">
        <ele>145</ele>
        <time>2022-04-06T07:54:44.178Z</time>
      </trkpt>
      <trkpt lat="48.54847" lon="-3.36707">
        <ele>145</ele>
        <time>2022-04-06T07:54:48.180Z</time>
      </trkpt>
      <trkpt lat="48.54852" lon="-3.367">
        <ele>145</ele>
        <time>2022-04-06T07:54:53.171Z</time>
      </trkpt>
      <trkpt lat="48.54855" lon="-3.36695">
        <ele>145</ele>
        <time>2022-04-06T07:54:57.178Z</time>
      </trkpt>
      <trkpt lat="48.54859" lon="-3.3669">
        <ele>145</ele>
        <time>2022-04-06T07:55:01.195Z</time>
      </trkpt>
      <trkpt lat="48.54862" lon="-3.36682">
        <ele>145</ele>
        <time>2022-04-06T07:55:06.185Z</time>
      </trkpt>
      <trkpt lat="48.54863" lon="-3.36673">
        <ele>145</ele>
        <time>2022-04-06T07:55:11.169Z</time>
      </trkpt>
      <trkpt lat="48.54859" lon="-3.36666">
        <ele>145</ele>
        <time>2022-04-06T07:55:16.171Z</time>
      </trkpt>
      <trkpt lat="48.54853" lon="-3.36666">
        <ele>145</ele>
        <time>2022-04-06T07:55:21.165Z</time>
      </trkpt>
      <trkpt lat="48.54848" lon="-3.36664">
        <ele>145</ele>
        <time>2022-04-06T07:55:25.175Z</time>
      </trkpt>
      <trkpt lat="48.54844" lon="-3.36661">
        <ele>143</ele>
        <time>2022-04-06T07:55:29.186Z</time>
      </trkpt>
      <trkpt lat="48.54838" lon="-3.36656">
        <ele>143</ele>
        <time>2022-04-06T07:55:34.173Z</time>
      </trkpt>
      <trkpt lat="48.54833" lon="-3.3665">
        <ele>143</ele>
        <time>2022-04-06T07:55:39.174Z</time>
      </trkpt>
      <trkpt lat="48.54827" lon="-3.36643">
        <ele>143</ele>
        <time>2022-04-06T07:55:44.172Z</time>
      </trkpt>
      <trkpt lat="48.54823" lon="-3.36637">
        <ele>143</ele>
        <time>2022-04-06T07:55:49.171Z</time>
      </trkpt>
      <trkpt lat="48.54819" lon="-3.36632">
        <ele>142</ele>
        <time>2022-04-06T07:55:53.177Z</time>
      </trkpt>
      <trkpt lat="48.54815" lon="-3.36627">
        <ele>142</ele>
        <time>2022-04-06T07:55:57.179Z</time>
      </trkpt>
      <trkpt lat="48.54809" lon="-3.3662">
        <ele>142</ele>
        <time>2022-04-06T07:56:02.176Z</time>
      </trkpt>
      <trkpt lat="48.54804" lon="-3.36616">
        <ele>142</ele>
        <time>2022-04-06T07:56:06.178Z</time>
      </trkpt>
      <trkpt lat="48.548" lon="-3.36612">
        <ele>142</ele>
        <time>2022-04-06T07:56:10.179Z</time>
      </trkpt>
      <trkpt lat="48.54793" lon="-3.36609">
        <ele>142</ele>
        <time>2022-04-06T07:56:15.180Z</time>
      </trkpt>
      <trkpt lat="48.54786" lon="-3.3661">
        <ele>141</ele>
        <time>2022-04-06T07:56:20.166Z</time>
      </trkpt>
      <trkpt lat="48.54781" lon="-3.36612">
        <ele>141</ele>
        <time>2022-04-06T07:56:24.171Z</time>
      </trkpt>
      <trkpt lat="48.54775" lon="-3.36617">
        <ele>141</ele>
        <time>2022-04-06T07:56:29.171Z</time>
      </trkpt>
      <trkpt lat="48.54769" lon="-3.36622">
        <ele>141</ele>
        <time>2022-04-06T07:56:34.164Z</time>
      </trkpt>
      <trkpt lat="48.54764" lon="-3.36625">
        <ele>141</ele>
        <time>2022-04-06T07:56:38.173Z</time>
      </trkpt>
      <trkpt lat="48.54758" lon="-3.36627">
        <ele>141</ele>
        <time>2022-04-06T07:56:43.173Z</time>
      </trkpt>
      <trkpt lat="48.54752" lon="-3.36628">
        <ele>141</ele>
        <time>2022-04-06T07:56:47.177Z</time>
      </trkpt>
      <trkpt lat="48.54745" lon="-3.36628">
        <ele>141</ele>
        <time>2022-04-06T07:56:52.173Z</time>
      </trkpt>
      <trkpt lat="48.5474" lon="-3.36627">
        <ele>141</ele>
        <time>2022-04-06T07:56:56.178Z</time>
      </trkpt>
      <trkpt lat="48.54733" lon="-3.36626">
        <ele>141</ele>
        <time>2022-04-06T07:57:01.179Z</time>
      </trkpt>
      <trkpt lat="48.54726" lon="-3.36623">
        <ele>140</ele>
        <time>2022-04-06T07:57:06.173Z</time>
      </trkpt>
      <trkpt lat="48.54721" lon="-3.36624">
        <ele>140</ele>
        <time>2022-04-06T07:57:11.165Z</time>
      </trkpt>
      <trkpt lat="48.54719" lon="-3.36619">
        <ele>140</ele>
        <time>2022-04-06T07:57:15.176Z</time>
      </trkpt>
      <trkpt lat="48.54716" lon="-3.36617">
        <ele>140</ele>
        <time>2022-04-06T07:57:19.188Z</time>
      </trkpt>
      <trkpt lat="48.54711" lon="-3.36619">
        <ele>140</ele>
        <time>2022-04-06T07:57:24.171Z</time>
      </trkpt>
      <trkpt lat="48.54708" lon="-3.36616">
        <ele>138</ele>
        <time>2022-04-06T07:57:28.177Z</time>
      </trkpt>
      <trkpt lat="48.54704" lon="-3.36615">
        <ele>138</ele>
        <time>2022-04-06T07:57:33.177Z</time>
      </trkpt>
      <trkpt lat="48.547" lon="-3.36617">
        <ele>138</ele>
        <time>2022-04-06T07:57:37.182Z</time>
      </trkpt>
      <trkpt lat="48.54695" lon="-3.36618">
        <ele>138</ele>
        <time>2022-04-06T07:57:42.293Z</time>
      </trkpt>
      <trkpt lat="48.54689" lon="-3.36619">
        <ele>138</ele>
        <time>2022-04-06T07:57:47.177Z</time>
      </trkpt>
      <trkpt lat="48.54683" lon="-3.36618">
        <ele>138</ele>
        <time>2022-04-06T07:57:52.171Z</time>
      </trkpt>
      <trkpt lat="48.54679" lon="-3.36619">
        <ele>135</ele>
        <time>2022-04-06T07:57:56.175Z</time>
      </trkpt>
      <trkpt lat="48.54675" lon="-3.36621">
        <ele>135</ele>
        <time>2022-04-06T07:58:00.178Z</time>
      </trkpt>
      <trkpt lat="48.5467" lon="-3.36625">
        <ele>137</ele>
        <time>2022-04-06T07:58:05.180Z</time>
      </trkpt>
      <trkpt lat="48.54665" lon="-3.36626">
        <ele>137</ele>
        <time>2022-04-06T07:58:10.174Z</time>
      </trkpt>
      <trkpt lat="48.54661" lon="-3.36621">
        <ele>135</ele>
        <time>2022-04-06T07:58:15.174Z</time>
      </trkpt>
      <trkpt lat="48.54658" lon="-3.36617">
        <ele>135</ele>
        <time>2022-04-06T07:58:19.179Z</time>
      </trkpt>
      <trkpt lat="48.54655" lon="-3.36621">
        <ele>135</ele>
        <time>2022-04-06T07:58:24.170Z</time>
      </trkpt>
      <trkpt lat="48.54653" lon="-3.36623">
        <ele>131</ele>
        <time>2022-04-06T07:58:29.167Z</time>
      </trkpt>
      <trkpt lat="48.54651" lon="-3.36623">
        <ele>131</ele>
        <time>2022-04-06T07:58:33.169Z</time>
      </trkpt>
      <trkpt lat="48.54648" lon="-3.36623">
        <ele>131</ele>
        <time>2022-04-06T07:58:38.169Z</time>
      </trkpt>
      <trkpt lat="48.54645" lon="-3.36624">
        <ele>131</ele>
        <time>2022-04-06T07:58:43.169Z</time>
      </trkpt>
      <trkpt lat="48.5464" lon="-3.36624">
        <ele>131</ele>
        <time>2022-04-06T07:58:48.173Z</time>
      </trkpt>
      <trkpt lat="48.54638" lon="-3.36626">
        <ele>133</ele>
        <time>2022-04-06T07:58:53.168Z</time>
      </trkpt>
      <trkpt lat="48.54628" lon="-3.36623">
        <ele>131</ele>
        <time>2022-04-06T07:59:30.169Z</time>
      </trkpt>
      <trkpt lat="48.54629" lon="-3.36619">
        <ele>131</ele>
        <time>2022-04-06T07:59:34.169Z</time>
      </trkpt>
      <trkpt lat="48.54632" lon="-3.36615">
        <ele>131</ele>
        <time>2022-04-06T07:59:39.168Z</time>
      </trkpt>
      <trkpt lat="48.54634" lon="-3.36611">
        <ele>131</ele>
        <time>2022-04-06T07:59:43.169Z</time>
      </trkpt>
      <trkpt lat="48.54638" lon="-3.36609">
        <ele>131</ele>
        <time>2022-04-06T07:59:47.168Z</time>
      </trkpt>
      <trkpt lat="48.54638" lon="-3.36603">
        <ele>131</ele>
        <time>2022-04-06T07:59:51.174Z</time>
      </trkpt>
      <trkpt lat="48.54635" lon="-3.36594">
        <ele>130</ele>
        <time>2022-04-06T07:59:56.171Z</time>
      </trkpt>
      <trkpt lat="48.54633" lon="-3.36588">
        <ele>130</ele>
        <time>2022-04-06T08:00:00.172Z</time>
      </trkpt>
      <trkpt lat="48.54628" lon="-3.36583">
        <ele>130</ele>
        <time>2022-04-06T08:00:05.169Z</time>
      </trkpt>
      <trkpt lat="48.54626" lon="-3.36575">
        <ele>130</ele>
        <time>2022-04-06T08:00:10.172Z</time>
      </trkpt>
      <trkpt lat="48.54623" lon="-3.36569">
        <ele>128</ele>
        <time>2022-04-06T08:00:15.172Z</time>
      </trkpt>
      <trkpt lat="48.54625" lon="-3.36561">
        <ele>131</ele>
        <time>2022-04-06T08:00:20.177Z</time>
      </trkpt>
      <trkpt lat="48.54625" lon="-3.36556">
        <ele>131</ele>
        <time>2022-04-06T08:00:25.175Z</time>
      </trkpt>
      <trkpt lat="48.54624" lon="-3.36551">
        <ele>128</ele>
        <time>2022-04-06T08:00:30.168Z</time>
      </trkpt>
      <trkpt lat="48.54623" lon="-3.36549">
        <ele>128</ele>
        <time>2022-04-06T08:00:34.171Z</time>
      </trkpt>
      <trkpt lat="48.5462" lon="-3.36547">
        <ele>128</ele>
        <time>2022-04-06T08:00:39.168Z</time>
      </trkpt>
      <trkpt lat="48.54616" lon="-3.36544">
        <ele>128</ele>
        <time>2022-04-06T08:00:43.172Z</time>
      </trkpt>
      <trkpt lat="48.54612" lon="-3.36541">
        <ele>130</ele>
        <time>2022-04-06T08:00:48.168Z</time>
      </trkpt>
      <trkpt lat="48.54608" lon="-3.36537">
        <ele>130</ele>
        <time>2022-04-06T08:00:53.169Z</time>
      </trkpt>
      <trkpt lat="48.54605" lon="-3.36536">
        <ele>130</ele>
        <time>2022-04-06T08:00:57.173Z</time>
      </trkpt>
      <trkpt lat="48.546" lon="-3.36536">
        <ele>130</ele>
        <time>2022-04-06T08:01:02.174Z</time>
      </trkpt>
      <trkpt lat="48.54595" lon="-3.36536">
        <ele>129</ele>
        <time>2022-04-06T08:01:07.173Z</time>
      </trkpt>
      <trkpt lat="48.54589" lon="-3.36538">
        <ele>129</ele>
        <time>2022-04-06T08:01:12.168Z</time>
      </trkpt>
      <trkpt lat="48.54585" lon="-3.36535">
        <ele>129</ele>
        <time>2022-04-06T08:01:17.173Z</time>
      </trkpt>
      <trkpt lat="48.54581" lon="-3.36533">
        <ele>129</ele>
        <time>2022-04-06T08:01:21.175Z</time>
      </trkpt>
      <trkpt lat="48.54576" lon="-3.36529">
        <ele>129</ele>
        <time>2022-04-06T08:01:26.173Z</time>
      </trkpt>
      <trkpt lat="48.54572" lon="-3.36528">
        <ele>129</ele>
        <time>2022-04-06T08:01:30.169Z</time>
      </trkpt>
      <trkpt lat="48.54568" lon="-3.36526">
        <ele>130</ele>
        <time>2022-04-06T08:01:35.176Z</time>
      </trkpt>
      <trkpt lat="48.54563" lon="-3.36526">
        <ele>130</ele>
        <time>2022-04-06T08:01:40.169Z</time>
      </trkpt>
      <trkpt lat="48.54559" lon="-3.36528">
        <ele>130</ele>
        <time>2022-04-06T08:01:44.169Z</time>
      </trkpt>
      <trkpt lat="48.54554" lon="-3.36527">
        <ele>130</ele>
        <time>2022-04-06T08:01:49.176Z</time>
      </trkpt>
      <trkpt lat="48.5455" lon="-3.36526">
        <ele>130</ele>
        <time>2022-04-06T08:01:54.168Z</time>
      </trkpt>
      <trkpt lat="48.54546" lon="-3.36527">
        <ele>130</ele>
        <time>2022-04-06T08:01:58.174Z</time>
      </trkpt>
      <trkpt lat="48.54541" lon="-3.36527">
        <ele>130</ele>
        <time>2022-04-06T08:02:03.171Z</time>
      </trkpt>
      <trkpt lat="48.54538" lon="-3.36529">
        <ele>130</ele>
        <time>2022-04-06T08:02:07.178Z</time>
      </trkpt>
      <trkpt lat="48.54533" lon="-3.36527">
        <ele>130</ele>
        <time>2022-04-06T08:02:12.169Z</time>
      </trkpt>
      <trkpt lat="48.54533" lon="-3.36529">
        <ele>130</ele>
        <time>2022-04-06T08:02:16.174Z</time>
      </trkpt>
      <trkpt lat="48.54529" lon="-3.36525">
        <ele>130</ele>
        <time>2022-04-06T08:02:21.175Z</time>
      </trkpt>
      <trkpt lat="48.54526" lon="-3.36522">
        <ele>130</ele>
        <time>2022-04-06T08:02:25.179Z</time>
      </trkpt>
      <trkpt lat="48.54523" lon="-3.36517">
        <ele>130</ele>
        <time>2022-04-06T08:02:30.180Z</time>
      </trkpt>
      <trkpt lat="48.54519" lon="-3.36511">
        <ele>132</ele>
        <time>2022-04-06T08:02:35.178Z</time>
      </trkpt>
      <trkpt lat="48.54516" lon="-3.36506">
        <ele>132</ele>
        <time>2022-04-06T08:02:39.197Z</time>
      </trkpt>
      <trkpt lat="48.54513" lon="-3.365">
        <ele>135</ele>
        <time>2022-04-06T08:02:44.172Z</time>
      </trkpt>
      <trkpt lat="48.54511" lon="-3.36493">
        <ele>135</ele>
        <time>2022-04-06T08:02:49.199Z</time>
      </trkpt>
      <trkpt lat="48.54509" lon="-3.36488">
        <ele>135</ele>
        <time>2022-04-06T08:02:54.192Z</time>
      </trkpt>
      <trkpt lat="48.54506" lon="-3.36483">
        <ele>138</ele>
        <time>2022-04-06T08:02:59.190Z</time>
      </trkpt>
      <trkpt lat="48.54502" lon="-3.36478">
        <ele>138</ele>
        <time>2022-04-06T08:03:04.200Z</time>
      </trkpt>
      <trkpt lat="48.54499" lon="-3.36473">
        <ele>138</ele>
        <time>2022-04-06T08:03:09.182Z</time>
      </trkpt>
      <trkpt lat="48.54494" lon="-3.36468">
        <ele>138</ele>
        <time>2022-04-06T08:03:14.200Z</time>
      </trkpt>
      <trkpt lat="48.54491" lon="-3.36463">
        <ele>138</ele>
        <time>2022-04-06T08:03:19.197Z</time>
      </trkpt>
      <trkpt lat="48.54487" lon="-3.3646">
        <ele>138</ele>
        <time>2022-04-06T08:03:24.185Z</time>
      </trkpt>
      <trkpt lat="48.5448" lon="-3.36461">
        <ele>139</ele>
        <time>2022-04-06T08:03:29.179Z</time>
      </trkpt>
      <trkpt lat="48.54474" lon="-3.3646">
        <ele>139</ele>
        <time>2022-04-06T08:03:34.206Z</time>
      </trkpt>
      <trkpt lat="48.54469" lon="-3.36459">
        <ele>139</ele>
        <time>2022-04-06T08:03:39.201Z</time>
      </trkpt>
      <trkpt lat="48.54463" lon="-3.3646">
        <ele>139</ele>
        <time>2022-04-06T08:03:44.221Z</time>
      </trkpt>
      <trkpt lat="48.54456" lon="-3.3646">
        <ele>138</ele>
        <time>2022-04-06T08:03:49.184Z</time>
      </trkpt>
      <trkpt lat="48.5445" lon="-3.36457">
        <ele>140</ele>
        <time>2022-04-06T08:03:54.206Z</time>
      </trkpt>
      <trkpt lat="48.54445" lon="-3.36457">
        <ele>140</ele>
        <time>2022-04-06T08:03:59.205Z</time>
      </trkpt>
      <trkpt lat="48.5444" lon="-3.36457">
        <ele>140</ele>
        <time>2022-04-06T08:04:04.177Z</time>
      </trkpt>
      <trkpt lat="48.54438" lon="-3.36452">
        <ele>140</ele>
        <time>2022-04-06T08:04:09.206Z</time>
      </trkpt>
      <trkpt lat="48.54433" lon="-3.36456">
        <ele>140</ele>
        <time>2022-04-06T08:04:14.197Z</time>
      </trkpt>
      <trkpt lat="48.54429" lon="-3.36461">
        <ele>138</ele>
        <time>2022-04-06T08:04:19.212Z</time>
      </trkpt>
      <trkpt lat="48.54426" lon="-3.36467">
        <ele>138</ele>
        <time>2022-04-06T08:04:24.194Z</time>
      </trkpt>
      <trkpt lat="48.54422" lon="-3.36472">
        <ele>138</ele>
        <time>2022-04-06T08:04:28.209Z</time>
      </trkpt>
      <trkpt lat="48.54417" lon="-3.36479">
        <ele>138</ele>
        <time>2022-04-06T08:04:33.183Z</time>
      </trkpt>
      <trkpt lat="48.54414" lon="-3.36485">
        <ele>138</ele>
        <time>2022-04-06T08:04:37.185Z</time>
      </trkpt>
      <trkpt lat="48.54408" lon="-3.36492">
        <ele>136</ele>
        <time>2022-04-06T08:04:42.176Z</time>
      </trkpt>
      <trkpt lat="48.54403" lon="-3.36497">
        <ele>136</ele>
        <time>2022-04-06T08:04:47.168Z</time>
      </trkpt>
      <trkpt lat="48.54398" lon="-3.36499">
        <ele>136</ele>
        <time>2022-04-06T08:04:51.205Z</time>
      </trkpt>
      <trkpt lat="48.54391" lon="-3.365">
        <ele>136</ele>
        <time>2022-04-06T08:04:56.206Z</time>
      </trkpt>
      <trkpt lat="48.54384" lon="-3.365">
        <ele>136</ele>
        <time>2022-04-06T08:05:01.203Z</time>
      </trkpt>
      <trkpt lat="48.54378" lon="-3.36501">
        <ele>136</ele>
        <time>2022-04-06T08:05:06.191Z</time>
      </trkpt>
      <trkpt lat="48.54373" lon="-3.36499">
        <ele>135</ele>
        <time>2022-04-06T08:05:10.211Z</time>
      </trkpt>
      <trkpt lat="48.54367" lon="-3.36499">
        <ele>135</ele>
        <time>2022-04-06T08:05:15.181Z</time>
      </trkpt>
      <trkpt lat="48.54362" lon="-3.365">
        <ele>135</ele>
        <time>2022-04-06T08:05:19.216Z</time>
      </trkpt>
      <trkpt lat="48.54355" lon="-3.36499">
        <ele>135</ele>
        <time>2022-04-06T08:05:24.211Z</time>
      </trkpt>
      <trkpt lat="48.54349" lon="-3.36499">
        <ele>135</ele>
        <time>2022-04-06T08:05:29.201Z</time>
      </trkpt>
      <trkpt lat="48.54343" lon="-3.365">
        <ele>134</ele>
        <time>2022-04-06T08:05:34.199Z</time>
      </trkpt>
      <trkpt lat="48.54336" lon="-3.36501">
        <ele>134</ele>
        <time>2022-04-06T08:05:39.194Z</time>
      </trkpt>
      <trkpt lat="48.5433" lon="-3.36503">
        <ele>134</ele>
        <time>2022-04-06T08:05:44.167Z</time>
      </trkpt>
      <trkpt lat="48.54325" lon="-3.36506">
        <ele>134</ele>
        <time>2022-04-06T08:05:48.177Z</time>
      </trkpt>
      <trkpt lat="48.5432" lon="-3.36508">
        <ele>134</ele>
        <time>2022-04-06T08:05:52.177Z</time>
      </trkpt>
      <trkpt lat="48.54313" lon="-3.36512">
        <ele>134</ele>
        <time>2022-04-06T08:05:57.166Z</time>
      </trkpt>
      <trkpt lat="48.54309" lon="-3.36515">
        <ele>132</ele>
        <time>2022-04-06T08:06:01.186Z</time>
      </trkpt>
      <trkpt lat="48.54303" lon="-3.36518">
        <ele>132</ele>
        <time>2022-04-06T08:06:06.200Z</time>
      </trkpt>
      <trkpt lat="48.54296" lon="-3.36522">
        <ele>132</ele>
        <time>2022-04-06T08:06:11.178Z</time>
      </trkpt>
      <trkpt lat="48.543" lon="-3.36528">
        <ele>132</ele>
        <time>2022-04-06T08:06:15.181Z</time>
      </trkpt>
      <trkpt lat="48.54293" lon="-3.36525">
        <ele>132</ele>
        <time>2022-04-06T08:06:19.200Z</time>
      </trkpt>
      <trkpt lat="48.54291" lon="-3.36527">
        <ele>131</ele>
        <time>2022-04-06T08:06:24.176Z</time>
      </trkpt>
      <trkpt lat="48.54289" lon="-3.36529">
        <ele>131</ele>
        <time>2022-04-06T08:06:29.216Z</time>
      </trkpt>
      <trkpt lat="48.5428" lon="-3.36534">
        <ele>131</ele>
        <time>2022-04-06T08:08:43.162Z</time>
      </trkpt>
      <trkpt lat="48.54279" lon="-3.36534">
        <ele>131</ele>
        <time>2022-04-06T08:08:47.169Z</time>
      </trkpt>
      <trkpt lat="48.54279" lon="-3.36534">
        <ele>131</ele>
        <time>2022-04-06T08:08:52.176Z</time>
      </trkpt>
      <trkpt lat="48.54279" lon="-3.36537">
        <ele>131</ele>
        <time>2022-04-06T08:08:56.180Z</time>
      </trkpt>
      <trkpt lat="48.54277" lon="-3.36535">
        <ele>131</ele>
        <time>2022-04-06T08:09:01.179Z</time>
      </trkpt>
      <trkpt lat="48.54273" lon="-3.36536">
        <ele>131</ele>
        <time>2022-04-06T08:09:06.172Z</time>
      </trkpt>
      <trkpt lat="48.54267" lon="-3.36538">
        <ele>131</ele>
        <time>2022-04-06T08:09:11.173Z</time>
      </trkpt>
      <trkpt lat="48.54264" lon="-3.36539">
        <ele>130</ele>
        <time>2022-04-06T08:09:15.183Z</time>
      </trkpt>
      <trkpt lat="48.5426" lon="-3.3654">
        <ele>130</ele>
        <time>2022-04-06T08:09:20.184Z</time>
      </trkpt>
      <trkpt lat="48.54254" lon="-3.36542">
        <ele>128</ele>
        <time>2022-04-06T08:09:25.183Z</time>
      </trkpt>
      <trkpt lat="48.54249" lon="-3.36539">
        <ele>130</ele>
        <time>2022-04-06T08:09:30.170Z</time>
      </trkpt>
      <trkpt lat="48.54244" lon="-3.36536">
        <ele>130</ele>
        <time>2022-04-06T08:09:35.172Z</time>
      </trkpt>
      <trkpt lat="48.54243" lon="-3.36533">
        <ele>130</ele>
        <time>2022-04-06T08:09:39.180Z</time>
      </trkpt>
      <trkpt lat="48.54242" lon="-3.36532">
        <ele>130</ele>
        <time>2022-04-06T08:09:43.188Z</time>
      </trkpt>
      <trkpt lat="48.5424" lon="-3.36528">
        <ele>130</ele>
        <time>2022-04-06T08:09:48.165Z</time>
      </trkpt>
      <trkpt lat="48.54237" lon="-3.36526">
        <ele>130</ele>
        <time>2022-04-06T08:09:52.185Z</time>
      </trkpt>
      <trkpt lat="48.54234" lon="-3.36522">
        <ele>132</ele>
        <time>2022-04-06T08:09:57.187Z</time>
      </trkpt>
      <trkpt lat="48.54233" lon="-3.36518">
        <ele>132</ele>
        <time>2022-04-06T08:10:02.171Z</time>
      </trkpt>
      <trkpt lat="48.5423" lon="-3.36513">
        <ele>133</ele>
        <time>2022-04-06T08:10:06.178Z</time>
      </trkpt>
      <trkpt lat="48.54226" lon="-3.36504">
        <ele>133</ele>
        <time>2022-04-06T08:10:11.184Z</time>
      </trkpt>
      <trkpt lat="48.54223" lon="-3.36499">
        <ele>133</ele>
        <time>2022-04-06T08:10:15.180Z</time>
      </trkpt>
      <trkpt lat="48.54222" lon="-3.36498">
        <ele>133</ele>
        <time>2022-04-06T08:10:20.181Z</time>
      </trkpt>
      <trkpt lat="48.54222" lon="-3.36498">
        <ele>133</ele>
        <time>2022-04-06T08:10:25.179Z</time>
      </trkpt>
      <trkpt lat="48.54218" lon="-3.36493">
        <ele>133</ele>
        <time>2022-04-06T08:10:30.178Z</time>
      </trkpt>
      <trkpt lat="48.54216" lon="-3.3649">
        <ele>133</ele>
        <time>2022-04-06T08:10:34.179Z</time>
      </trkpt>
      <trkpt lat="48.54213" lon="-3.36487">
        <ele>133</ele>
        <time>2022-04-06T08:10:39.175Z</time>
      </trkpt>
      <trkpt lat="48.54211" lon="-3.36487">
        <ele>133</ele>
        <time>2022-04-06T08:10:43.182Z</time>
      </trkpt>
      <trkpt lat="48.54207" lon="-3.36492">
        <ele>140</ele>
        <time>2022-04-06T08:10:48.175Z</time>
      </trkpt>
      <trkpt lat="48.54203" lon="-3.36496">
        <ele>140</ele>
        <time>2022-04-06T08:10:52.186Z</time>
      </trkpt>
      <trkpt lat="48.54201" lon="-3.36499">
        <ele>140</ele>
        <time>2022-04-06T08:10:57.177Z</time>
      </trkpt>
      <trkpt lat="48.542" lon="-3.365">
        <ele>140</ele>
        <time>2022-04-06T08:13:03.176Z</time>
      </trkpt>
      <trkpt lat="48.54198" lon="-3.36506">
        <ele>140</ele>
        <time>2022-04-06T08:13:08.166Z</time>
      </trkpt>
      <trkpt lat="48.54195" lon="-3.36506">
        <ele>140</ele>
        <time>2022-04-06T08:13:12.174Z</time>
      </trkpt>
      <trkpt lat="48.54191" lon="-3.36509">
        <ele>140</ele>
        <time>2022-04-06T08:13:17.181Z</time>
      </trkpt>
      <trkpt lat="48.54187" lon="-3.36512">
        <ele>140</ele>
        <time>2022-04-06T08:13:22.185Z</time>
      </trkpt>
      <trkpt lat="48.54182" lon="-3.36514">
        <ele>138</ele>
        <time>2022-04-06T08:13:27.179Z</time>
      </trkpt>
      <trkpt lat="48.54178" lon="-3.36519">
        <ele>145</ele>
        <time>2022-04-06T08:13:32.175Z</time>
      </trkpt>
      <trkpt lat="48.54174" lon="-3.36522">
        <ele>145</ele>
        <time>2022-04-06T08:13:36.191Z</time>
      </trkpt>
      <trkpt lat="48.5417" lon="-3.36525">
        <ele>145</ele>
        <time>2022-04-06T08:13:41.175Z</time>
      </trkpt>
      <trkpt lat="48.54168" lon="-3.36533">
        <ele>145</ele>
        <time>2022-04-06T08:13:46.176Z</time>
      </trkpt>
      <trkpt lat="48.54165" lon="-3.3654">
        <ele>145</ele>
        <time>2022-04-06T08:13:51.185Z</time>
      </trkpt>
      <trkpt lat="48.54166" lon="-3.36545">
        <ele>143</ele>
        <time>2022-04-06T08:13:56.183Z</time>
      </trkpt>
      <trkpt lat="48.54162" lon="-3.36548">
        <ele>143</ele>
        <time>2022-04-06T08:14:01.177Z</time>
      </trkpt>
      <trkpt lat="48.54158" lon="-3.36553">
        <ele>143</ele>
        <time>2022-04-06T08:14:06.184Z</time>
      </trkpt>
      <trkpt lat="48.54155" lon="-3.36556">
        <ele>143</ele>
        <time>2022-04-06T08:14:11.165Z</time>
      </trkpt>
      <trkpt lat="48.54152" lon="-3.36559">
        <ele>148</ele>
        <time>2022-04-06T08:14:15.174Z</time>
      </trkpt>
      <trkpt lat="48.54149" lon="-3.36563">
        <ele>148</ele>
        <time>2022-04-06T08:14:20.171Z</time>
      </trkpt>
      <trkpt lat="48.54146" lon="-3.36567">
        <ele>148</ele>
        <time>2022-04-06T08:14:25.166Z</time>
      </trkpt>
      <trkpt lat="48.54144" lon="-3.3657">
        <ele>146</ele>
        <time>2022-04-06T08:14:29.177Z</time>
      </trkpt>
      <trkpt lat="48.54139" lon="-3.36574">
        <ele>146</ele>
        <time>2022-04-06T08:14:34.187Z</time>
      </trkpt>
      <trkpt lat="48.54133" lon="-3.36578">
        <ele>146</ele>
        <time>2022-04-06T08:14:39.178Z</time>
      </trkpt>
      <trkpt lat="48.54131" lon="-3.36578">
        <ele>146</ele>
        <time>2022-04-06T08:14:43.174Z</time>
      </trkpt>
      <trkpt lat="48.54126" lon="-3.36585">
        <ele>146</ele>
        <time>2022-04-06T08:14:48.177Z</time>
      </trkpt>
      <trkpt lat="48.54122" lon="-3.36586">
        <ele>148</ele>
        <time>2022-04-06T08:14:53.171Z</time>
      </trkpt>
      <trkpt lat="48.5412" lon="-3.36588">
        <ele>148</ele>
        <time>2022-04-06T08:14:57.178Z</time>
      </trkpt>
      <trkpt lat="48.54117" lon="-3.36592">
        <ele>148</ele>
        <time>2022-04-06T08:15:01.183Z</time>
      </trkpt>
      <trkpt lat="48.54115" lon="-3.36596">
        <ele>148</ele>
        <time>2022-04-06T08:15:06.178Z</time>
      </trkpt>
      <trkpt lat="48.54111" lon="-3.36602">
        <ele>146</ele>
        <time>2022-04-06T08:15:11.173Z</time>
      </trkpt>
      <trkpt lat="48.54107" lon="-3.36607">
        <ele>146</ele>
        <time>2022-04-06T08:15:15.180Z</time>
      </trkpt>
      <trkpt lat="48.54104" lon="-3.36613">
        <ele>146</ele>
        <time>2022-04-06T08:15:20.179Z</time>
      </trkpt>
      <trkpt lat="48.54101" lon="-3.36617">
        <ele>146</ele>
        <time>2022-04-06T08:15:24.178Z</time>
      </trkpt>
      <trkpt lat="48.54097" lon="-3.36621">
        <ele>149</ele>
        <time>2022-04-06T08:15:29.166Z</time>
      </trkpt>
      <trkpt lat="48.54092" lon="-3.36626">
        <ele>147</ele>
        <time>2022-04-06T08:15:33.180Z</time>
      </trkpt>
      <trkpt lat="48.54088" lon="-3.36631">
        <ele>147</ele>
        <time>2022-04-06T08:15:38.176Z</time>
      </trkpt>
      <trkpt lat="48.54085" lon="-3.36636">
        <ele>147</ele>
        <time>2022-04-06T08:15:42.192Z</time>
      </trkpt>
      <trkpt lat="48.54079" lon="-3.36642">
        <ele>147</ele>
        <time>2022-04-06T08:15:47.184Z</time>
      </trkpt>
      <trkpt lat="48.54075" lon="-3.36647">
        <ele>147</ele>
        <time>2022-04-06T08:15:52.178Z</time>
      </trkpt>
      <trkpt lat="48.54071" lon="-3.36651">
        <ele>147</ele>
        <time>2022-04-06T08:15:56.181Z</time>
      </trkpt>
      <trkpt lat="48.54066" lon="-3.36657">
        <ele>149</ele>
        <time>2022-04-06T08:16:01.183Z</time>
      </trkpt>
      <trkpt lat="48.54061" lon="-3.36664">
        <ele>149</ele>
        <time>2022-04-06T08:16:06.166Z</time>
      </trkpt>
      <trkpt lat="48.54056" lon="-3.3667">
        <ele>149</ele>
        <time>2022-04-06T08:16:10.170Z</time>
      </trkpt>
      <trkpt lat="48.54051" lon="-3.36677">
        <ele>149</ele>
        <time>2022-04-06T08:16:15.171Z</time>
      </trkpt>
      <trkpt lat="48.54047" lon="-3.36683">
        <ele>146</ele>
        <time>2022-04-06T08:16:19.177Z</time>
      </trkpt>
      <trkpt lat="48.54043" lon="-3.36688">
        <ele>146</ele>
        <time>2022-04-06T08:16:23.188Z</time>
      </trkpt>
      <trkpt lat="48.54038" lon="-3.36694">
        <ele>149</ele>
        <time>2022-04-06T08:16:28.184Z</time>
      </trkpt>
      <trkpt lat="48.54033" lon="-3.367">
        <ele>149</ele>
        <time>2022-04-06T08:16:33.177Z</time>
      </trkpt>
      <trkpt lat="48.54028" lon="-3.36705">
        <ele>149</ele>
        <time>2022-04-06T08:16:38.184Z</time>
      </trkpt>
      <trkpt lat="48.54024" lon="-3.36707">
        <ele>149</ele>
        <time>2022-04-06T08:16:42.186Z</time>
      </trkpt>
      <trkpt lat="48.54018" lon="-3.36712">
        <ele>146</ele>
        <time>2022-04-06T08:16:47.176Z</time>
      </trkpt>
      <trkpt lat="48.54012" lon="-3.36716">
        <ele>148</ele>
        <time>2022-04-06T08:16:51.174Z</time>
      </trkpt>
      <trkpt lat="48.54008" lon="-3.3672">
        <ele>148</ele>
        <time>2022-04-06T08:16:56.174Z</time>
      </trkpt>
      <trkpt lat="48.54003" lon="-3.36726">
        <ele>148</ele>
        <time>2022-04-06T08:17:01.165Z</time>
      </trkpt>
      <trkpt lat="48.53998" lon="-3.36729">
        <ele>148</ele>
        <time>2022-04-06T08:17:05.179Z</time>
      </trkpt>
      <trkpt lat="48.53994" lon="-3.36733">
        <ele>148</ele>
        <time>2022-04-06T08:17:10.171Z</time>
      </trkpt>
      <trkpt lat="48.53989" lon="-3.36736">
        <ele>146</ele>
        <time>2022-04-06T08:17:15.167Z</time>
      </trkpt>
      <trkpt lat="48.53984" lon="-3.3674">
        <ele>150</ele>
        <time>2022-04-06T08:17:19.170Z</time>
      </trkpt>
      <trkpt lat="48.5398" lon="-3.36744">
        <ele>150</ele>
        <time>2022-04-06T08:17:23.173Z</time>
      </trkpt>
      <trkpt lat="48.53975" lon="-3.36748">
        <ele>150</ele>
        <time>2022-04-06T08:17:28.177Z</time>
      </trkpt>
      <trkpt lat="48.53971" lon="-3.36752">
        <ele>150</ele>
        <time>2022-04-06T08:17:33.168Z</time>
      </trkpt>
      <trkpt lat="48.53968" lon="-3.36754">
        <ele>150</ele>
        <time>2022-04-06T08:17:37.170Z</time>
      </trkpt>
      <trkpt lat="48.53963" lon="-3.36758">
        <ele>150</ele>
        <time>2022-04-06T08:17:42.175Z</time>
      </trkpt>
      <trkpt lat="48.53957" lon="-3.36761">
        <ele>153</ele>
        <time>2022-04-06T08:17:47.171Z</time>
      </trkpt>
      <trkpt lat="48.53953" lon="-3.36767">
        <ele>151</ele>
        <time>2022-04-06T08:17:51.175Z</time>
      </trkpt>
      <trkpt lat="48.53948" lon="-3.3677">
        <ele>151</ele>
        <time>2022-04-06T08:17:56.173Z</time>
      </trkpt>
      <trkpt lat="48.53944" lon="-3.36773">
        <ele>151</ele>
        <time>2022-04-06T08:18:00.180Z</time>
      </trkpt>
      <trkpt lat="48.53938" lon="-3.36775">
        <ele>151</ele>
        <time>2022-04-06T08:18:05.174Z</time>
      </trkpt>
      <trkpt lat="48.53935" lon="-3.3678">
        <ele>151</ele>
        <time>2022-04-06T08:18:09.179Z</time>
      </trkpt>
      <trkpt lat="48.53932" lon="-3.36787">
        <ele>151</ele>
        <time>2022-04-06T08:18:14.180Z</time>
      </trkpt>
      <trkpt lat="48.5393" lon="-3.36792">
        <ele>151</ele>
        <time>2022-04-06T08:18:19.173Z</time>
      </trkpt>
      <trkpt lat="48.53928" lon="-3.36799">
        <ele>151</ele>
        <time>2022-04-06T08:18:24.177Z</time>
      </trkpt>
      <trkpt lat="48.53924" lon="-3.36808">
        <ele>151</ele>
        <time>2022-04-06T08:18:29.181Z</time>
      </trkpt>
      <trkpt lat="48.5392" lon="-3.36812">
        <ele>151</ele>
        <time>2022-04-06T08:18:34.181Z</time>
      </trkpt>
      <trkpt lat="48.53917" lon="-3.3681">
        <ele>151</ele>
        <time>2022-04-06T08:18:39.177Z</time>
      </trkpt>
      <trkpt lat="48.53916" lon="-3.36811">
        <ele>151</ele>
        <time>2022-04-06T08:18:44.170Z</time>
      </trkpt>
      <trkpt lat="48.53912" lon="-3.36808">
        <ele>151</ele>
        <time>2022-04-06T08:18:49.172Z</time>
      </trkpt>
      <trkpt lat="48.53908" lon="-3.36806">
        <ele>151</ele>
        <time>2022-04-06T08:18:54.172Z</time>
      </trkpt>
      <trkpt lat="48.53904" lon="-3.36803">
        <ele>151</ele>
        <time>2022-04-06T08:18:59.169Z</time>
      </trkpt>
      <trkpt lat="48.53901" lon="-3.368">
        <ele>152</ele>
        <time>2022-04-06T08:19:03.175Z</time>
      </trkpt>
      <trkpt lat="48.53896" lon="-3.36797">
        <ele>152</ele>
        <time>2022-04-06T08:19:08.168Z</time>
      </trkpt>
      <trkpt lat="48.53892" lon="-3.36792">
        <ele>152</ele>
        <time>2022-04-06T08:19:12.174Z</time>
      </trkpt>
      <trkpt lat="48.53888" lon="-3.36788">
        <ele>154</ele>
        <time>2022-04-06T08:19:17.175Z</time>
      </trkpt>
      <trkpt lat="48.53882" lon="-3.36783">
        <ele>154</ele>
        <time>2022-04-06T08:19:22.177Z</time>
      </trkpt>
      <trkpt lat="48.53876" lon="-3.36778">
        <ele>154</ele>
        <time>2022-04-06T08:19:26.177Z</time>
      </trkpt>
      <trkpt lat="48.53872" lon="-3.36773">
        <ele>156</ele>
        <time>2022-04-06T08:19:30.216Z</time>
      </trkpt>
      <trkpt lat="48.53868" lon="-3.36769">
        <ele>156</ele>
        <time>2022-04-06T08:19:35.176Z</time>
      </trkpt>
      <trkpt lat="48.53865" lon="-3.36768">
        <ele>156</ele>
        <time>2022-04-06T08:19:39.183Z</time>
      </trkpt>
      <trkpt lat="48.53858" lon="-3.36761">
        <ele>158</ele>
        <time>2022-04-06T08:19:44.176Z</time>
      </trkpt>
      <trkpt lat="48.53854" lon="-3.36755">
        <ele>158</ele>
        <time>2022-04-06T08:19:49.175Z</time>
      </trkpt>
      <trkpt lat="48.53848" lon="-3.36749">
        <ele>158</ele>
        <time>2022-04-06T08:19:53.174Z</time>
      </trkpt>
      <trkpt lat="48.53844" lon="-3.36743">
        <ele>159</ele>
        <time>2022-04-06T08:19:58.167Z</time>
      </trkpt>
      <trkpt lat="48.53839" lon="-3.36737">
        <ele>159</ele>
        <time>2022-04-06T08:20:03.176Z</time>
      </trkpt>
      <trkpt lat="48.53835" lon="-3.3673">
        <ele>161</ele>
        <time>2022-04-06T08:20:08.187Z</time>
      </trkpt>
      <trkpt lat="48.53831" lon="-3.36721">
        <ele>161</ele>
        <time>2022-04-06T08:20:13.179Z</time>
      </trkpt>
      <trkpt lat="48.53828" lon="-3.36712">
        <ele>161</ele>
        <time>2022-04-06T08:20:18.179Z</time>
      </trkpt>
      <trkpt lat="48.53826" lon="-3.36703">
        <ele>163</ele>
        <time>2022-04-06T08:20:23.187Z</time>
      </trkpt>
      <trkpt lat="48.53823" lon="-3.36693">
        <ele>163</ele>
        <time>2022-04-06T08:20:28.174Z</time>
      </trkpt>
      <trkpt lat="48.53824" lon="-3.36684">
        <ele>163</ele>
        <time>2022-04-06T08:20:32.174Z</time>
      </trkpt>
      <trkpt lat="48.53822" lon="-3.36676">
        <ele>163</ele>
        <time>2022-04-06T08:20:36.177Z</time>
      </trkpt>
      <trkpt lat="48.53816" lon="-3.36668">
        <ele>162</ele>
        <time>2022-04-06T08:20:41.180Z</time>
      </trkpt>
      <trkpt lat="48.53815" lon="-3.36657">
        <ele>162</ele>
        <time>2022-04-06T08:20:46.175Z</time>
      </trkpt>
      <trkpt lat="48.53814" lon="-3.36646">
        <ele>163</ele>
        <time>2022-04-06T08:20:51.179Z</time>
      </trkpt>
      <trkpt lat="48.53812" lon="-3.36635">
        <ele>163</ele>
        <time>2022-04-06T08:20:56.179Z</time>
      </trkpt>
      <trkpt lat="48.53809" lon="-3.36625">
        <ele>163</ele>
        <time>2022-04-06T08:21:01.177Z</time>
      </trkpt>
      <trkpt lat="48.53806" lon="-3.36614">
        <ele>163</ele>
        <time>2022-04-06T08:21:06.179Z</time>
      </trkpt>
      <trkpt lat="48.53804" lon="-3.36604">
        <ele>163</ele>
        <time>2022-04-06T08:21:11.168Z</time>
      </trkpt>
      <trkpt lat="48.53802" lon="-3.36594">
        <ele>166</ele>
        <time>2022-04-06T08:21:16.174Z</time>
      </trkpt>
      <trkpt lat="48.53801" lon="-3.36585">
        <ele>166</ele>
        <time>2022-04-06T08:21:21.180Z</time>
      </trkpt>
      <trkpt lat="48.53796" lon="-3.36587">
        <ele>166</ele>
        <time>2022-04-06T08:21:26.176Z</time>
      </trkpt>
      <trkpt lat="48.53794" lon="-3.3658">
        <ele>166</ele>
        <time>2022-04-06T08:21:31.166Z</time>
      </trkpt>
      <trkpt lat="48.53797" lon="-3.36574">
        <ele>166</ele>
        <time>2022-04-06T08:21:36.175Z</time>
      </trkpt>
      <trkpt lat="48.53797" lon="-3.36572">
        <ele>166</ele>
        <time>2022-04-06T08:21:40.182Z</time>
      </trkpt>
      <trkpt lat="48.53796" lon="-3.36563">
        <ele>168</ele>
        <time>2022-04-06T08:21:45.171Z</time>
      </trkpt>
      <trkpt lat="48.53796" lon="-3.36558">
        <ele>168</ele>
        <time>2022-04-06T08:21:49.174Z</time>
      </trkpt>
      <trkpt lat="48.53794" lon="-3.36552">
        <ele>168</ele>
        <time>2022-04-06T08:21:54.166Z</time>
      </trkpt>
      <trkpt lat="48.53794" lon="-3.36548">
        <ele>168</ele>
        <time>2022-04-06T08:21:58.175Z</time>
      </trkpt>
      <trkpt lat="48.53792" lon="-3.36543">
        <ele>168</ele>
        <time>2022-04-06T08:22:03.169Z</time>
      </trkpt>
      <trkpt lat="48.53791" lon="-3.36536">
        <ele>170</ele>
        <time>2022-04-06T08:22:08.177Z</time>
      </trkpt>
      <trkpt lat="48.53783" lon="-3.36517">
        <ele>170</ele>
        <time>2022-04-06T08:22:41.178Z</time>
      </trkpt>
      <trkpt lat="48.53784" lon="-3.3651">
        <ele>171</ele>
        <time>2022-04-06T08:22:46.169Z</time>
      </trkpt>
      <trkpt lat="48.53783" lon="-3.36504">
        <ele>171</ele>
        <time>2022-04-06T08:22:50.175Z</time>
      </trkpt>
      <trkpt lat="48.53781" lon="-3.36498">
        <ele>171</ele>
        <time>2022-04-06T08:22:55.169Z</time>
      </trkpt>
      <trkpt lat="48.5378" lon="-3.36495">
        <ele>171</ele>
        <time>2022-04-06T08:22:59.172Z</time>
      </trkpt>
      <trkpt lat="48.53779" lon="-3.3649">
        <ele>171</ele>
        <time>2022-04-06T08:23:03.171Z</time>
      </trkpt>
      <trkpt lat="48.53777" lon="-3.36483">
        <ele>172</ele>
        <time>2022-04-06T08:23:08.170Z</time>
      </trkpt>
      <trkpt lat="48.53779" lon="-3.36478">
        <ele>172</ele>
        <time>2022-04-06T08:23:12.175Z</time>
      </trkpt>
      <trkpt lat="48.53776" lon="-3.36469">
        <ele>172</ele>
        <time>2022-04-06T08:23:17.172Z</time>
      </trkpt>
      <trkpt lat="48.53774" lon="-3.36459">
        <ele>172</ele>
        <time>2022-04-06T08:23:22.169Z</time>
      </trkpt>
      <trkpt lat="48.53772" lon="-3.36451">
        <ele>173</ele>
        <time>2022-04-06T08:23:27.177Z</time>
      </trkpt>
      <trkpt lat="48.5377" lon="-3.36444">
        <ele>173</ele>
        <time>2022-04-06T08:23:32.171Z</time>
      </trkpt>
      <trkpt lat="48.53769" lon="-3.36437">
        <ele>173</ele>
        <time>2022-04-06T08:23:36.176Z</time>
      </trkpt>
      <trkpt lat="48.53767" lon="-3.36428">
        <ele>174</ele>
        <time>2022-04-06T08:23:41.175Z</time>
      </trkpt>
      <trkpt lat="48.53766" lon="-3.36422">
        <ele>174</ele>
        <time>2022-04-06T08:23:45.171Z</time>
      </trkpt>
      <trkpt lat="48.53763" lon="-3.36412">
        <ele>172</ele>
        <time>2022-04-06T08:23:50.177Z</time>
      </trkpt>
      <trkpt lat="48.53762" lon="-3.36402">
        <ele>173</ele>
        <time>2022-04-06T08:23:55.176Z</time>
      </trkpt>
      <trkpt lat="48.53759" lon="-3.36393">
        <ele>173</ele>
        <time>2022-04-06T08:24:00.175Z</time>
      </trkpt>
      <trkpt lat="48.53758" lon="-3.36385">
        <ele>173</ele>
        <time>2022-04-06T08:24:04.197Z</time>
      </trkpt>
      <trkpt lat="48.53758" lon="-3.36379">
        <ele>173</ele>
        <time>2022-04-06T08:24:09.177Z</time>
      </trkpt>
      <trkpt lat="48.53756" lon="-3.3637">
        <ele>174</ele>
        <time>2022-04-06T08:24:14.181Z</time>
      </trkpt>
      <trkpt lat="48.53754" lon="-3.36362">
        <ele>174</ele>
        <time>2022-04-06T08:24:19.177Z</time>
      </trkpt>
      <trkpt lat="48.53752" lon="-3.36353">
        <ele>174</ele>
        <time>2022-04-06T08:24:24.170Z</time>
      </trkpt>
      <trkpt lat="48.53751" lon="-3.36347">
        <ele>174</ele>
        <time>2022-04-06T08:24:28.174Z</time>
      </trkpt>
      <trkpt lat="48.5375" lon="-3.36339">
        <ele>176</ele>
        <time>2022-04-06T08:24:33.182Z</time>
      </trkpt>
      <trkpt lat="48.53747" lon="-3.3633">
        <ele>176</ele>
        <time>2022-04-06T08:24:38.188Z</time>
      </trkpt>
      <trkpt lat="48.53748" lon="-3.36322">
        <ele>176</ele>
        <time>2022-04-06T08:24:43.170Z</time>
      </trkpt>
      <trkpt lat="48.53747" lon="-3.36313">
        <ele>177</ele>
        <time>2022-04-06T08:24:48.169Z</time>
      </trkpt>
      <trkpt lat="48.53747" lon="-3.36306">
        <ele>177</ele>
        <time>2022-04-06T08:24:52.178Z</time>
      </trkpt>
      <trkpt lat="48.53746" lon="-3.36298">
        <ele>177</ele>
        <time>2022-04-06T08:24:57.177Z</time>
      </trkpt>
      <trkpt lat="48.53745" lon="-3.3629">
        <ele>177</ele>
        <time>2022-04-06T08:25:02.173Z</time>
      </trkpt>
      <trkpt lat="48.53745" lon="-3.36282">
        <ele>177</ele>
        <time>2022-04-06T08:25:06.187Z</time>
      </trkpt>
      <trkpt lat="48.53745" lon="-3.36274">
        <ele>177</ele>
        <time>2022-04-06T08:25:11.174Z</time>
      </trkpt>
      <trkpt lat="48.53744" lon="-3.36265">
        <ele>177</ele>
        <time>2022-04-06T08:25:16.178Z</time>
      </trkpt>
      <trkpt lat="48.53742" lon="-3.36256">
        <ele>177</ele>
        <time>2022-04-06T08:25:21.180Z</time>
      </trkpt>
      <trkpt lat="48.5374" lon="-3.36246">
        <ele>177</ele>
        <time>2022-04-06T08:25:26.162Z</time>
      </trkpt>
      <trkpt lat="48.53739" lon="-3.36239">
        <ele>177</ele>
        <time>2022-04-06T08:25:30.170Z</time>
      </trkpt>
      <trkpt lat="48.53737" lon="-3.36228">
        <ele>179</ele>
        <time>2022-04-06T08:25:34.179Z</time>
      </trkpt>
      <trkpt lat="48.53734" lon="-3.36218">
        <ele>177</ele>
        <time>2022-04-06T08:25:39.175Z</time>
      </trkpt>
      <trkpt lat="48.53732" lon="-3.36209">
        <ele>177</ele>
        <time>2022-04-06T08:25:44.175Z</time>
      </trkpt>
      <trkpt lat="48.53729" lon="-3.36199">
        <ele>178</ele>
        <time>2022-04-06T08:25:49.173Z</time>
      </trkpt>
      <trkpt lat="48.53727" lon="-3.3619">
        <ele>178</ele>
        <time>2022-04-06T08:25:54.171Z</time>
      </trkpt>
      <trkpt lat="48.53725" lon="-3.36181">
        <ele>178</ele>
        <time>2022-04-06T08:25:59.167Z</time>
      </trkpt>
      <trkpt lat="48.53723" lon="-3.36171">
        <ele>179</ele>
        <time>2022-04-06T08:26:04.171Z</time>
      </trkpt>
      <trkpt lat="48.53722" lon="-3.36163">
        <ele>179</ele>
        <time>2022-04-06T08:26:08.177Z</time>
      </trkpt>
      <trkpt lat="48.5372" lon="-3.36155">
        <ele>179</ele>
        <time>2022-04-06T08:26:13.166Z</time>
      </trkpt>
      <trkpt lat="48.53719" lon="-3.36147">
        <ele>181</ele>
        <time>2022-04-06T08:26:17.172Z</time>
      </trkpt>
      <trkpt lat="48.53719" lon="-3.36137">
        <ele>181</ele>
        <time>2022-04-06T08:26:22.185Z</time>
      </trkpt>
      <trkpt lat="48.53719" lon="-3.36127">
        <ele>181</ele>
        <time>2022-04-06T08:26:27.179Z</time>
      </trkpt>
      <trkpt lat="48.53718" lon="-3.36118">
        <ele>182</ele>
        <time>2022-04-06T08:26:32.171Z</time>
      </trkpt>
      <trkpt lat="48.53717" lon="-3.36111">
        <ele>182</ele>
        <time>2022-04-06T08:26:36.176Z</time>
      </trkpt>
      <trkpt lat="48.53717" lon="-3.36103">
        <ele>182</ele>
        <time>2022-04-06T08:26:41.173Z</time>
      </trkpt>
      <trkpt lat="48.53718" lon="-3.36095">
        <ele>184</ele>
        <time>2022-04-06T08:26:46.175Z</time>
      </trkpt>
      <trkpt lat="48.53718" lon="-3.36088">
        <ele>184</ele>
        <time>2022-04-06T08:26:50.185Z</time>
      </trkpt>
      <trkpt lat="48.53718" lon="-3.36078">
        <ele>184</ele>
        <time>2022-04-06T08:26:55.172Z</time>
      </trkpt>
      <trkpt lat="48.53718" lon="-3.3607">
        <ele>184</ele>
        <time>2022-04-06T08:26:59.177Z</time>
      </trkpt>
      <trkpt lat="48.53718" lon="-3.36061">
        <ele>185</ele>
        <time>2022-04-06T08:27:04.174Z</time>
      </trkpt>
      <trkpt lat="48.53718" lon="-3.3605">
        <ele>185</ele>
        <time>2022-04-06T08:27:09.178Z</time>
      </trkpt>
      <trkpt lat="48.53718" lon="-3.3604">
        <ele>186</ele>
        <time>2022-04-06T08:27:14.178Z</time>
      </trkpt>
      <trkpt lat="48.53719" lon="-3.36031">
        <ele>186</ele>
        <time>2022-04-06T08:27:19.172Z</time>
      </trkpt>
      <trkpt lat="48.5372" lon="-3.3602">
        <ele>186</ele>
        <time>2022-04-06T08:27:24.180Z</time>
      </trkpt>
      <trkpt lat="48.53721" lon="-3.3601">
        <ele>186</ele>
        <time>2022-04-06T08:27:29.179Z</time>
      </trkpt>
      <trkpt lat="48.53722" lon="-3.36">
        <ele>186</ele>
        <time>2022-04-06T08:27:34.177Z</time>
      </trkpt>
      <trkpt lat="48.53723" lon="-3.35991">
        <ele>186</ele>
        <time>2022-04-06T08:27:39.174Z</time>
      </trkpt>
      <trkpt lat="48.53723" lon="-3.35983">
        <ele>185</ele>
        <time>2022-04-06T08:27:44.176Z</time>
      </trkpt>
      <trkpt lat="48.53723" lon="-3.35975">
        <ele>185</ele>
        <time>2022-04-06T08:27:48.186Z</time>
      </trkpt>
      <trkpt lat="48.53723" lon="-3.35965">
        <ele>185</ele>
        <time>2022-04-06T08:27:53.174Z</time>
      </trkpt>
      <trkpt lat="48.53724" lon="-3.35955">
        <ele>185</ele>
        <time>2022-04-06T08:27:58.178Z</time>
      </trkpt>
      <trkpt lat="48.53724" lon="-3.35946">
        <ele>185</ele>
        <time>2022-04-06T08:28:03.184Z</time>
      </trkpt>
      <trkpt lat="48.5372" lon="-3.35938">
        <ele>185</ele>
        <time>2022-04-06T08:28:08.169Z</time>
      </trkpt>
      <trkpt lat="48.53717" lon="-3.35932">
        <ele>185</ele>
        <time>2022-04-06T08:28:12.180Z</time>
      </trkpt>
      <trkpt lat="48.53711" lon="-3.35932">
        <ele>185</ele>
        <time>2022-04-06T08:28:17.170Z</time>
      </trkpt>
      <trkpt lat="48.53707" lon="-3.35933">
        <ele>182</ele>
        <time>2022-04-06T08:28:21.176Z</time>
      </trkpt>
      <trkpt lat="48.53701" lon="-3.35931">
        <ele>182</ele>
        <time>2022-04-06T08:29:38.170Z</time>
      </trkpt>
      <trkpt lat="48.53699" lon="-3.35932">
        <ele>182</ele>
        <time>2022-04-06T08:29:42.172Z</time>
      </trkpt>
      <trkpt lat="48.53694" lon="-3.35932">
        <ele>182</ele>
        <time>2022-04-06T08:29:47.178Z</time>
      </trkpt>
      <trkpt lat="48.5369" lon="-3.35934">
        <ele>182</ele>
        <time>2022-04-06T08:29:51.184Z</time>
      </trkpt>
      <trkpt lat="48.53686" lon="-3.35935">
        <ele>182</ele>
        <time>2022-04-06T08:29:56.180Z</time>
      </trkpt>
      <trkpt lat="48.5368" lon="-3.35935">
        <ele>181</ele>
        <time>2022-04-06T08:30:01.179Z</time>
      </trkpt>
      <trkpt lat="48.53675" lon="-3.35934">
        <ele>181</ele>
        <time>2022-04-06T08:30:06.177Z</time>
      </trkpt>
      <trkpt lat="48.53672" lon="-3.35934">
        <ele>181</ele>
        <time>2022-04-06T08:30:10.191Z</time>
      </trkpt>
      <trkpt lat="48.53666" lon="-3.35932">
        <ele>181</ele>
        <time>2022-04-06T08:30:15.174Z</time>
      </trkpt>
      <trkpt lat="48.5366" lon="-3.35932">
        <ele>181</ele>
        <time>2022-04-06T08:30:20.174Z</time>
      </trkpt>
      <trkpt lat="48.53654" lon="-3.35931">
        <ele>181</ele>
        <time>2022-04-06T08:30:24.176Z</time>
      </trkpt>
      <trkpt lat="48.53644" lon="-3.35929">
        <ele>180</ele>
        <time>2022-04-06T08:30:29.173Z</time>
      </trkpt>
      <trkpt lat="48.53638" lon="-3.35925">
        <ele>180</ele>
        <time>2022-04-06T08:30:33.186Z</time>
      </trkpt>
      <trkpt lat="48.5363" lon="-3.35921">
        <ele>180</ele>
        <time>2022-04-06T08:30:38.175Z</time>
      </trkpt>
      <trkpt lat="48.53625" lon="-3.35917">
        <ele>178</ele>
        <time>2022-04-06T08:30:42.182Z</time>
      </trkpt>
      <trkpt lat="48.53619" lon="-3.35913">
        <ele>178</ele>
        <time>2022-04-06T08:30:47.170Z</time>
      </trkpt>
      <trkpt lat="48.53614" lon="-3.35909">
        <ele>178</ele>
        <time>2022-04-06T08:30:51.189Z</time>
      </trkpt>
      <trkpt lat="48.53608" lon="-3.35905">
        <ele>178</ele>
        <time>2022-04-06T08:30:56.179Z</time>
      </trkpt>
      <trkpt lat="48.53601" lon="-3.35901">
        <ele>177</ele>
        <time>2022-04-06T08:31:01.179Z</time>
      </trkpt>
      <trkpt lat="48.53595" lon="-3.35899">
        <ele>175</ele>
        <time>2022-04-06T08:31:06.198Z</time>
      </trkpt>
      <trkpt lat="48.53588" lon="-3.35895">
        <ele>175</ele>
        <time>2022-04-06T08:31:11.174Z</time>
      </trkpt>
      <trkpt lat="48.53582" lon="-3.35893">
        <ele>175</ele>
        <time>2022-04-06T08:31:15.179Z</time>
      </trkpt>
      <trkpt lat="48.53575" lon="-3.35894">
        <ele>175</ele>
        <time>2022-04-06T08:31:20.180Z</time>
      </trkpt>
      <trkpt lat="48.53569" lon="-3.35893">
        <ele>173</ele>
        <time>2022-04-06T08:31:25.175Z</time>
      </trkpt>
      <trkpt lat="48.53563" lon="-3.35891">
        <ele>173</ele>
        <time>2022-04-06T08:31:29.184Z</time>
      </trkpt>
      <trkpt lat="48.53559" lon="-3.359">
        <ele>173</ele>
        <time>2022-04-06T08:31:34.177Z</time>
      </trkpt>
      <trkpt lat="48.53553" lon="-3.35892">
        <ele>173</ele>
        <time>2022-04-06T08:31:39.178Z</time>
      </trkpt>
      <trkpt lat="48.53548" lon="-3.35891">
        <ele>173</ele>
        <time>2022-04-06T08:31:44.171Z</time>
      </trkpt>
      <trkpt lat="48.53542" lon="-3.35889">
        <ele>173</ele>
        <time>2022-04-06T08:31:49.173Z</time>
      </trkpt>
      <trkpt lat="48.53538" lon="-3.35889">
        <ele>171</ele>
        <time>2022-04-06T08:31:53.179Z</time>
      </trkpt>
      <trkpt lat="48.53532" lon="-3.3589">
        <ele>171</ele>
        <time>2022-04-06T08:31:58.180Z</time>
      </trkpt>
      <trkpt lat="48.53527" lon="-3.35888">
        <ele>171</ele>
        <time>2022-04-06T08:32:02.177Z</time>
      </trkpt>
      <trkpt lat="48.53523" lon="-3.35888">
        <ele>171</ele>
        <time>2022-04-06T08:32:06.221Z</time>
      </trkpt>
      <trkpt lat="48.53519" lon="-3.35885">
        <ele>171</ele>
        <time>2022-04-06T08:32:11.175Z</time>
      </trkpt>
      <trkpt lat="48.53514" lon="-3.35886">
        <ele>168</ele>
        <time>2022-04-06T08:32:16.175Z</time>
      </trkpt>
      <trkpt lat="48.53509" lon="-3.35886">
        <ele>168</ele>
        <time>2022-04-06T08:32:21.176Z</time>
      </trkpt>
      <trkpt lat="48.53503" lon="-3.35886">
        <ele>168</ele>
        <time>2022-04-06T08:32:26.171Z</time>
      </trkpt>
      <trkpt lat="48.53497" lon="-3.35888">
        <ele>168</ele>
        <time>2022-04-06T08:32:31.173Z</time>
      </trkpt>
      <trkpt lat="48.53493" lon="-3.35889">
        <ele>168</ele>
        <time>2022-04-06T08:32:36.170Z</time>
      </trkpt>
      <trkpt lat="48.53488" lon="-3.35889">
        <ele>168</ele>
        <time>2022-04-06T08:32:40.181Z</time>
      </trkpt>
      <trkpt lat="48.53483" lon="-3.35889">
        <ele>164</ele>
        <time>2022-04-06T08:32:44.178Z</time>
      </trkpt>
      <trkpt lat="48.53478" lon="-3.35889">
        <ele>164</ele>
        <time>2022-04-06T08:32:49.182Z</time>
      </trkpt>
      <trkpt lat="48.5347" lon="-3.35888">
        <ele>164</ele>
        <time>2022-04-06T08:32:54.175Z</time>
      </trkpt>
      <trkpt lat="48.53465" lon="-3.35889">
        <ele>164</ele>
        <time>2022-04-06T08:32:58.174Z</time>
      </trkpt>
      <trkpt lat="48.53457" lon="-3.3589">
        <ele>162</ele>
        <time>2022-04-06T08:33:03.186Z</time>
      </trkpt>
      <trkpt lat="48.53449" lon="-3.35892">
        <ele>162</ele>
        <time>2022-04-06T08:33:08.170Z</time>
      </trkpt>
      <trkpt lat="48.53441" lon="-3.35893">
        <ele>162</ele>
        <time>2022-04-06T08:33:13.199Z</time>
      </trkpt>
      <trkpt lat="48.53433" lon="-3.35892">
        <ele>162</ele>
        <time>2022-04-06T08:33:18.169Z</time>
      </trkpt>
      <trkpt lat="48.53426" lon="-3.35892">
        <ele>162</ele>
        <time>2022-04-06T08:33:22.175Z</time>
      </trkpt>
      <trkpt lat="48.53419" lon="-3.35892">
        <ele>162</ele>
        <time>2022-04-06T08:33:26.182Z</time>
      </trkpt>
      <trkpt lat="48.53411" lon="-3.35892">
        <ele>162</ele>
        <time>2022-04-06T08:33:31.181Z</time>
      </trkpt>
      <trkpt lat="48.53404" lon="-3.35889">
        <ele>162</ele>
        <time>2022-04-06T08:33:36.179Z</time>
      </trkpt>
      <trkpt lat="48.53396" lon="-3.35888">
        <ele>162</ele>
        <time>2022-04-06T08:33:41.179Z</time>
      </trkpt>
      <trkpt lat="48.53389" lon="-3.35887">
        <ele>162</ele>
        <time>2022-04-06T08:33:46.177Z</time>
      </trkpt>
      <trkpt lat="48.53381" lon="-3.35886">
        <ele>162</ele>
        <time>2022-04-06T08:33:51.177Z</time>
      </trkpt>
      <trkpt lat="48.53376" lon="-3.3588">
        <ele>162</ele>
        <time>2022-04-06T08:33:56.181Z</time>
      </trkpt>
      <trkpt lat="48.53367" lon="-3.35883">
        <ele>163</ele>
        <time>2022-04-06T08:34:01.176Z</time>
      </trkpt>
      <trkpt lat="48.53356" lon="-3.35891">
        <ele>163</ele>
        <time>2022-04-06T08:34:06.173Z</time>
      </trkpt>
      <trkpt lat="48.53352" lon="-3.35891">
        <ele>163</ele>
        <time>2022-04-06T08:34:10.176Z</time>
      </trkpt>
      <trkpt lat="48.53346" lon="-3.35893">
        <ele>164</ele>
        <time>2022-04-06T08:34:15.176Z</time>
      </trkpt>
      <trkpt lat="48.53341" lon="-3.35894">
        <ele>164</ele>
        <time>2022-04-06T08:34:19.176Z</time>
      </trkpt>
      <trkpt lat="48.53333" lon="-3.35899">
        <ele>164</ele>
        <time>2022-04-06T08:36:18.187Z</time>
      </trkpt>
      <trkpt lat="48.53332" lon="-3.359">
        <ele>164</ele>
        <time>2022-04-06T08:36:22.187Z</time>
      </trkpt>
      <trkpt lat="48.53332" lon="-3.359">
        <ele>164</ele>
        <time>2022-04-06T08:36:27.167Z</time>
      </trkpt>
      <trkpt lat="48.53332" lon="-3.35898">
        <ele>164</ele>
        <time>2022-04-06T08:36:31.171Z</time>
      </trkpt>
      <trkpt lat="48.53331" lon="-3.35897">
        <ele>164</ele>
        <time>2022-04-06T08:36:36.172Z</time>
      </trkpt>
      <trkpt lat="48.53331" lon="-3.35897">
        <ele>164</ele>
        <time>2022-04-06T08:36:40.172Z</time>
      </trkpt>
      <trkpt lat="48.53331" lon="-3.35897">
        <ele>164</ele>
        <time>2022-04-06T08:36:44.169Z</time>
      </trkpt>
      <trkpt lat="48.5333" lon="-3.35901">
        <ele>164</ele>
        <time>2022-04-06T08:36:49.174Z</time>
      </trkpt>
      <trkpt lat="48.53326" lon="-3.35903">
        <ele>163</ele>
        <time>2022-04-06T08:36:53.179Z</time>
      </trkpt>
      <trkpt lat="48.53322" lon="-3.35906">
        <ele>163</ele>
        <time>2022-04-06T08:36:58.178Z</time>
      </trkpt>
      <trkpt lat="48.53319" lon="-3.35908">
        <ele>164</ele>
        <time>2022-04-06T08:37:03.173Z</time>
      </trkpt>
      <trkpt lat="48.53315" lon="-3.3591">
        <ele>164</ele>
        <time>2022-04-06T08:37:07.171Z</time>
      </trkpt>
      <trkpt lat="48.53312" lon="-3.35912">
        <ele>164</ele>
        <time>2022-04-06T08:37:11.174Z</time>
      </trkpt>
      <trkpt lat="48.53308" lon="-3.35914">
        <ele>164</ele>
        <time>2022-04-06T08:37:16.171Z</time>
      </trkpt>
      <trkpt lat="48.53304" lon="-3.35919">
        <ele>164</ele>
        <time>2022-04-06T08:37:21.173Z</time>
      </trkpt>
      <trkpt lat="48.53299" lon="-3.35924">
        <ele>164</ele>
        <time>2022-04-06T08:37:26.168Z</time>
      </trkpt>
      <trkpt lat="48.53297" lon="-3.35929">
        <ele>164</ele>
        <time>2022-04-06T08:37:31.171Z</time>
      </trkpt>
      <trkpt lat="48.53293" lon="-3.35935">
        <ele>162</ele>
        <time>2022-04-06T08:37:36.182Z</time>
      </trkpt>
      <trkpt lat="48.53288" lon="-3.35941">
        <ele>164</ele>
        <time>2022-04-06T08:37:41.175Z</time>
      </trkpt>
      <trkpt lat="48.53284" lon="-3.35947">
        <ele>164</ele>
        <time>2022-04-06T08:37:45.181Z</time>
      </trkpt>
      <trkpt lat="48.53279" lon="-3.35956">
        <ele>164</ele>
        <time>2022-04-06T08:37:50.182Z</time>
      </trkpt>
      <trkpt lat="48.53275" lon="-3.35963">
        <ele>162</ele>
        <time>2022-04-06T08:37:55.193Z</time>
      </trkpt>
      <trkpt lat="48.53271" lon="-3.3597">
        <ele>162</ele>
        <time>2022-04-06T08:38:00.184Z</time>
      </trkpt>
      <trkpt lat="48.53266" lon="-3.35978">
        <ele>162</ele>
        <time>2022-04-06T08:38:05.177Z</time>
      </trkpt>
      <trkpt lat="48.53262" lon="-3.35985">
        <ele>164</ele>
        <time>2022-04-06T08:38:10.173Z</time>
      </trkpt>
      <trkpt lat="48.53258" lon="-3.35991">
        <ele>160</ele>
        <time>2022-04-06T08:38:14.171Z</time>
      </trkpt>
      <trkpt lat="48.53254" lon="-3.35997">
        <ele>160</ele>
        <time>2022-04-06T08:38:19.170Z</time>
      </trkpt>
      <trkpt lat="48.53251" lon="-3.36002">
        <ele>160</ele>
        <time>2022-04-06T08:38:23.171Z</time>
      </trkpt>
      <trkpt lat="48.53247" lon="-3.36008">
        <ele>160</ele>
        <time>2022-04-06T08:38:27.176Z</time>
      </trkpt>
      <trkpt lat="48.53244" lon="-3.36014">
        <ele>160</ele>
        <time>2022-04-06T08:38:31.179Z</time>
      </trkpt>
      <trkpt lat="48.53241" lon="-3.36021">
        <ele>157</ele>
        <time>2022-04-06T08:38:36.172Z</time>
      </trkpt>
      <trkpt lat="48.53238" lon="-3.36027">
        <ele>157</ele>
        <time>2022-04-06T08:38:40.171Z</time>
      </trkpt>
      <trkpt lat="48.53235" lon="-3.36034">
        <ele>159</ele>
        <time>2022-04-06T08:38:45.178Z</time>
      </trkpt>
      <trkpt lat="48.53232" lon="-3.3604">
        <ele>159</ele>
        <time>2022-04-06T08:38:50.186Z</time>
      </trkpt>
      <trkpt lat="48.53228" lon="-3.36047">
        <ele>157</ele>
        <time>2022-04-06T08:38:55.179Z</time>
      </trkpt>
      <trkpt lat="48.53224" lon="-3.36055">
        <ele>157</ele>
        <time>2022-04-06T08:39:00.177Z</time>
      </trkpt>
      <trkpt lat="48.5322" lon="-3.36061">
        <ele>157</ele>
        <time>2022-04-06T08:39:05.170Z</time>
      </trkpt>
      <trkpt lat="48.53215" lon="-3.36067">
        <ele>157</ele>
        <time>2022-04-06T08:39:10.175Z</time>
      </trkpt>
      <trkpt lat="48.53212" lon="-3.36071">
        <ele>155</ele>
        <time>2022-04-06T08:39:14.177Z</time>
      </trkpt>
      <trkpt lat="48.53207" lon="-3.36076">
        <ele>156</ele>
        <time>2022-04-06T08:39:19.173Z</time>
      </trkpt>
      <trkpt lat="48.53202" lon="-3.3608">
        <ele>156</ele>
        <time>2022-04-06T08:39:24.168Z</time>
      </trkpt>
      <trkpt lat="48.53197" lon="-3.36084">
        <ele>156</ele>
        <time>2022-04-06T08:39:29.171Z</time>
      </trkpt>
      <trkpt lat="48.5319" lon="-3.36089">
        <ele>156</ele>
        <time>2022-04-06T08:39:34.182Z</time>
      </trkpt>
      <trkpt lat="48.53184" lon="-3.36094">
        <ele>156</ele>
        <time>2022-04-06T08:39:39.176Z</time>
      </trkpt>
      <trkpt lat="48.53178" lon="-3.36098">
        <ele>155</ele>
        <time>2022-04-06T08:39:44.178Z</time>
      </trkpt>
      <trkpt lat="48.53173" lon="-3.36101">
        <ele>155</ele>
        <time>2022-04-06T08:39:49.179Z</time>
      </trkpt>
      <trkpt lat="48.53168" lon="-3.36103">
        <ele>155</ele>
        <time>2022-04-06T08:39:53.182Z</time>
      </trkpt>
      <trkpt lat="48.53162" lon="-3.36106">
        <ele>155</ele>
        <time>2022-04-06T08:39:57.179Z</time>
      </trkpt>
      <trkpt lat="48.53155" lon="-3.36111">
        <ele>155</ele>
        <time>2022-04-06T08:40:02.171Z</time>
      </trkpt>
      <trkpt lat="48.5315" lon="-3.36115">
        <ele>155</ele>
        <time>2022-04-06T08:40:06.185Z</time>
      </trkpt>
      <trkpt lat="48.53145" lon="-3.36119">
        <ele>155</ele>
        <time>2022-04-06T08:40:11.174Z</time>
      </trkpt>
      <trkpt lat="48.53139" lon="-3.36121">
        <ele>155</ele>
        <time>2022-04-06T08:40:16.174Z</time>
      </trkpt>
      <trkpt lat="48.53133" lon="-3.36126">
        <ele>152</ele>
        <time>2022-04-06T08:40:21.169Z</time>
      </trkpt>
      <trkpt lat="48.53129" lon="-3.3613">
        <ele>152</ele>
        <time>2022-04-06T08:40:25.180Z</time>
      </trkpt>
      <trkpt lat="48.53123" lon="-3.36135">
        <ele>149</ele>
        <time>2022-04-06T08:40:30.168Z</time>
      </trkpt>
      <trkpt lat="48.53116" lon="-3.3614">
        <ele>149</ele>
        <time>2022-04-06T08:40:35.178Z</time>
      </trkpt>
      <trkpt lat="48.5311" lon="-3.36144">
        <ele>149</ele>
        <time>2022-04-06T08:40:40.173Z</time>
      </trkpt>
      <trkpt lat="48.53105" lon="-3.36147">
        <ele>149</ele>
        <time>2022-04-06T08:40:44.170Z</time>
      </trkpt>
      <trkpt lat="48.53098" lon="-3.36151">
        <ele>149</ele>
        <time>2022-04-06T08:40:49.170Z</time>
      </trkpt>
      <trkpt lat="48.53093" lon="-3.36154">
        <ele>144</ele>
        <time>2022-04-06T08:40:53.173Z</time>
      </trkpt>
      <trkpt lat="48.53088" lon="-3.36157">
        <ele>144</ele>
        <time>2022-04-06T08:40:57.175Z</time>
      </trkpt>
      <trkpt lat="48.53081" lon="-3.3616">
        <ele>144</ele>
        <time>2022-04-06T08:41:02.169Z</time>
      </trkpt>
      <trkpt lat="48.53075" lon="-3.36163">
        <ele>144</ele>
        <time>2022-04-06T08:41:07.173Z</time>
      </trkpt>
      <trkpt lat="48.53068" lon="-3.36163">
        <ele>140</ele>
        <time>2022-04-06T08:41:12.175Z</time>
      </trkpt>
      <trkpt lat="48.53061" lon="-3.36164">
        <ele>140</ele>
        <time>2022-04-06T08:41:17.174Z</time>
      </trkpt>
      <trkpt lat="48.53055" lon="-3.36162">
        <ele>140</ele>
        <time>2022-04-06T08:41:21.176Z</time>
      </trkpt>
      <trkpt lat="48.53049" lon="-3.36154">
        <ele>140</ele>
        <time>2022-04-06T08:41:26.175Z</time>
      </trkpt>
      <trkpt lat="48.53049" lon="-3.36143">
        <ele>140</ele>
        <time>2022-04-06T08:41:31.179Z</time>
      </trkpt>
      <trkpt lat="48.53049" lon="-3.36133">
        <ele>140</ele>
        <time>2022-04-06T08:41:36.177Z</time>
      </trkpt>
      <trkpt lat="48.5305" lon="-3.36125">
        <ele>140</ele>
        <time>2022-04-06T08:41:40.177Z</time>
      </trkpt>
      <trkpt lat="48.53051" lon="-3.36115">
        <ele>141</ele>
        <time>2022-04-06T08:41:45.172Z</time>
      </trkpt>
      <trkpt lat="48.53051" lon="-3.36105">
        <ele>141</ele>
        <time>2022-04-06T08:41:50.169Z</time>
      </trkpt>
      <trkpt lat="48.53051" lon="-3.36096">
        <ele>142</ele>
        <time>2022-04-06T08:41:54.174Z</time>
      </trkpt>
      <trkpt lat="48.53052" lon="-3.36084">
        <ele>142</ele>
        <time>2022-04-06T08:41:59.179Z</time>
      </trkpt>
      <trkpt lat="48.53052" lon="-3.36072">
        <ele>142</ele>
        <time>2022-04-06T08:42:04.183Z</time>
      </trkpt>
      <trkpt lat="48.53052" lon="-3.36062">
        <ele>144</ele>
        <time>2022-04-06T08:42:09.181Z</time>
      </trkpt>
      <trkpt lat="48.53052" lon="-3.36052">
        <ele>144</ele>
        <time>2022-04-06T08:42:14.172Z</time>
      </trkpt>
      <trkpt lat="48.53051" lon="-3.36042">
        <ele>144</ele>
        <time>2022-04-06T08:42:19.174Z</time>
      </trkpt>
      <trkpt lat="48.53049" lon="-3.36032">
        <ele>144</ele>
        <time>2022-04-06T08:42:24.176Z</time>
      </trkpt>
      <trkpt lat="48.53048" lon="-3.36023">
        <ele>144</ele>
        <time>2022-04-06T08:42:28.184Z</time>
      </trkpt>
      <trkpt lat="48.53046" lon="-3.36014">
        <ele>144</ele>
        <time>2022-04-06T08:42:33.184Z</time>
      </trkpt>
      <trkpt lat="48.53044" lon="-3.36003">
        <ele>145</ele>
        <time>2022-04-06T08:42:38.177Z</time>
      </trkpt>
      <trkpt lat="48.53044" lon="-3.35993">
        <ele>145</ele>
        <time>2022-04-06T08:42:42.182Z</time>
      </trkpt>
      <trkpt lat="48.53043" lon="-3.35981">
        <ele>145</ele>
        <time>2022-04-06T08:42:47.178Z</time>
      </trkpt>
      <trkpt lat="48.53042" lon="-3.3597">
        <ele>145</ele>
        <time>2022-04-06T08:42:52.173Z</time>
      </trkpt>
      <trkpt lat="48.53041" lon="-3.35961">
        <ele>142</ele>
        <time>2022-04-06T08:42:56.171Z</time>
      </trkpt>
      <trkpt lat="48.53046" lon="-3.35955">
        <ele>145</ele>
        <time>2022-04-06T08:43:01.176Z</time>
      </trkpt>
      <trkpt lat="48.53048" lon="-3.35945">
        <ele>145</ele>
        <time>2022-04-06T08:43:06.166Z</time>
      </trkpt>
      <trkpt lat="48.53048" lon="-3.35937">
        <ele>145</ele>
        <time>2022-04-06T08:43:10.175Z</time>
      </trkpt>
      <trkpt lat="48.53047" lon="-3.35926">
        <ele>147</ele>
        <time>2022-04-06T08:43:15.170Z</time>
      </trkpt>
      <trkpt lat="48.53045" lon="-3.35918">
        <ele>147</ele>
        <time>2022-04-06T08:43:19.182Z</time>
      </trkpt>
      <trkpt lat="48.53043" lon="-3.35909">
        <ele>147</ele>
        <time>2022-04-06T08:43:24.182Z</time>
      </trkpt>
      <trkpt lat="48.53042" lon="-3.35898">
        <ele>148</ele>
        <time>2022-04-06T08:43:29.171Z</time>
      </trkpt>
      <trkpt lat="48.53043" lon="-3.35888">
        <ele>148</ele>
        <time>2022-04-06T08:43:34.173Z</time>
      </trkpt>
      <trkpt lat="48.53036" lon="-3.3587">
        <ele>148</ele>
        <time>2022-04-06T08:44:53.173Z</time>
      </trkpt>
      <trkpt lat="48.53032" lon="-3.35865">
        <ele>148</ele>
        <time>2022-04-06T08:44:58.171Z</time>
      </trkpt>
      <trkpt lat="48.53029" lon="-3.35862">
        <ele>148</ele>
        <time>2022-04-06T08:45:02.178Z</time>
      </trkpt>
      <trkpt lat="48.53025" lon="-3.35861">
        <ele>148</ele>
        <time>2022-04-06T08:45:06.179Z</time>
      </trkpt>
      <trkpt lat="48.5302" lon="-3.35862">
        <ele>148</ele>
        <time>2022-04-06T08:45:11.179Z</time>
      </trkpt>
      <trkpt lat="48.53015" lon="-3.35867">
        <ele>148</ele>
        <time>2022-04-06T08:45:16.170Z</time>
      </trkpt>
      <trkpt lat="48.53011" lon="-3.35872">
        <ele>152</ele>
        <time>2022-04-06T08:45:20.171Z</time>
      </trkpt>
      <trkpt lat="48.53008" lon="-3.35877">
        <ele>150</ele>
        <time>2022-04-06T08:45:25.167Z</time>
      </trkpt>
      <trkpt lat="48.53003" lon="-3.35882">
        <ele>150</ele>
        <time>2022-04-06T08:45:30.170Z</time>
      </trkpt>
      <trkpt lat="48.52999" lon="-3.35887">
        <ele>150</ele>
        <time>2022-04-06T08:45:35.170Z</time>
      </trkpt>
      <trkpt lat="48.52995" lon="-3.35892">
        <ele>150</ele>
        <time>2022-04-06T08:45:40.171Z</time>
      </trkpt>
      <trkpt lat="48.52992" lon="-3.35897">
        <ele>150</ele>
        <time>2022-04-06T08:45:44.172Z</time>
      </trkpt>
      <trkpt lat="48.52989" lon="-3.35902">
        <ele>150</ele>
        <time>2022-04-06T08:45:49.179Z</time>
      </trkpt>
      <trkpt lat="48.52985" lon="-3.35908">
        <ele>152</ele>
        <time>2022-04-06T08:45:54.172Z</time>
      </trkpt>
      <trkpt lat="48.52981" lon="-3.35915">
        <ele>152</ele>
        <time>2022-04-06T08:45:59.173Z</time>
      </trkpt>
      <trkpt lat="48.52977" lon="-3.35918">
        <ele>152</ele>
        <time>2022-04-06T08:46:04.169Z</time>
      </trkpt>
      <trkpt lat="48.52974" lon="-3.35919">
        <ele>152</ele>
        <time>2022-04-06T08:46:08.169Z</time>
      </trkpt>
      <trkpt lat="48.5297" lon="-3.3592">
        <ele>152</ele>
        <time>2022-04-06T08:46:13.171Z</time>
      </trkpt>
      <trkpt lat="48.52965" lon="-3.35921">
        <ele>152</ele>
        <time>2022-04-06T08:46:18.172Z</time>
      </trkpt>
      <trkpt lat="48.5296" lon="-3.35923">
        <ele>152</ele>
        <time>2022-04-06T08:46:23.176Z</time>
      </trkpt>
      <trkpt lat="48.52956" lon="-3.35922">
        <ele>155</ele>
        <time>2022-04-06T08:46:27.180Z</time>
      </trkpt>
      <trkpt lat="48.52953" lon="-3.35923">
        <ele>155</ele>
        <time>2022-04-06T08:46:32.182Z</time>
      </trkpt>
      <trkpt lat="48.52949" lon="-3.35924">
        <ele>155</ele>
        <time>2022-04-06T08:46:37.188Z</time>
      </trkpt>
      <trkpt lat="48.52945" lon="-3.35923">
        <ele>155</ele>
        <time>2022-04-06T08:46:42.180Z</time>
      </trkpt>
      <trkpt lat="48.52941" lon="-3.35922">
        <ele>155</ele>
        <time>2022-04-06T08:46:47.180Z</time>
      </trkpt>
      <trkpt lat="48.52938" lon="-3.35919">
        <ele>155</ele>
        <time>2022-04-06T08:46:52.181Z</time>
      </trkpt>
      <trkpt lat="48.52935" lon="-3.35918">
        <ele>155</ele>
        <time>2022-04-06T08:46:57.182Z</time>
      </trkpt>
      <trkpt lat="48.52932" lon="-3.35915">
        <ele>155</ele>
        <time>2022-04-06T08:47:02.173Z</time>
      </trkpt>
      <trkpt lat="48.52929" lon="-3.35913">
        <ele>154</ele>
        <time>2022-04-06T08:47:07.173Z</time>
      </trkpt>
      <trkpt lat="48.52925" lon="-3.35911">
        <ele>154</ele>
        <time>2022-04-06T08:47:12.175Z</time>
      </trkpt>
      <trkpt lat="48.52922" lon="-3.35908">
        <ele>154</ele>
        <time>2022-04-06T08:47:17.171Z</time>
      </trkpt>
      <trkpt lat="48.52919" lon="-3.35905">
        <ele>154</ele>
        <time>2022-04-06T08:47:21.178Z</time>
      </trkpt>
      <trkpt lat="48.52916" lon="-3.35901">
        <ele>157</ele>
        <time>2022-04-06T08:47:26.180Z</time>
      </trkpt>
      <trkpt lat="48.52913" lon="-3.35898">
        <ele>157</ele>
        <time>2022-04-06T08:47:31.180Z</time>
      </trkpt>
      <trkpt lat="48.52909" lon="-3.35895">
        <ele>157</ele>
        <time>2022-04-06T08:47:36.172Z</time>
      </trkpt>
      <trkpt lat="48.52905" lon="-3.35892">
        <ele>157</ele>
        <time>2022-04-06T08:47:41.178Z</time>
      </trkpt>
      <trkpt lat="48.52903" lon="-3.35887">
        <ele>156</ele>
        <time>2022-04-06T08:47:45.179Z</time>
      </trkpt>
      <trkpt lat="48.52899" lon="-3.35883">
        <ele>156</ele>
        <time>2022-04-06T08:47:49.187Z</time>
      </trkpt>
      <trkpt lat="48.52896" lon="-3.35878">
        <ele>156</ele>
        <time>2022-04-06T08:47:54.184Z</time>
      </trkpt>
      <trkpt lat="48.52893" lon="-3.35873">
        <ele>160</ele>
        <time>2022-04-06T08:47:59.178Z</time>
      </trkpt>
      <trkpt lat="48.52889" lon="-3.35868">
        <ele>160</ele>
        <time>2022-04-06T08:48:04.168Z</time>
      </trkpt>
      <trkpt lat="48.52887" lon="-3.35862">
        <ele>160</ele>
        <time>2022-04-06T08:48:09.179Z</time>
      </trkpt>
      <trkpt lat="48.52885" lon="-3.35857">
        <ele>160</ele>
        <time>2022-04-06T08:48:14.168Z</time>
      </trkpt>
      <trkpt lat="48.52883" lon="-3.35851">
        <ele>160</ele>
        <time>2022-04-06T08:48:18.171Z</time>
      </trkpt>
      <trkpt lat="48.52881" lon="-3.35845">
        <ele>164</ele>
        <time>2022-04-06T08:48:23.170Z</time>
      </trkpt>
      <trkpt lat="48.52878" lon="-3.35839">
        <ele>164</ele>
        <time>2022-04-06T08:48:28.171Z</time>
      </trkpt>
      <trkpt lat="48.52877" lon="-3.35834">
        <ele>164</ele>
        <time>2022-04-06T08:48:32.182Z</time>
      </trkpt>
      <trkpt lat="48.52874" lon="-3.35829">
        <ele>164</ele>
        <time>2022-04-06T08:48:37.169Z</time>
      </trkpt>
      <trkpt lat="48.52872" lon="-3.35825">
        <ele>164</ele>
        <time>2022-04-06T08:48:41.181Z</time>
      </trkpt>
      <trkpt lat="48.52867" lon="-3.3582">
        <ele>164</ele>
        <time>2022-04-06T08:48:46.175Z</time>
      </trkpt>
      <trkpt lat="48.52861" lon="-3.35819">
        <ele>168</ele>
        <time>2022-04-06T08:48:51.169Z</time>
      </trkpt>
      <trkpt lat="48.52856" lon="-3.35817">
        <ele>168</ele>
        <time>2022-04-06T08:48:56.173Z</time>
      </trkpt>
      <trkpt lat="48.52852" lon="-3.35815">
        <ele>168</ele>
        <time>2022-04-06T08:49:00.173Z</time>
      </trkpt>
      <trkpt lat="48.52846" lon="-3.35816">
        <ele>167</ele>
        <time>2022-04-06T08:49:05.172Z</time>
      </trkpt>
      <trkpt lat="48.5284" lon="-3.35816">
        <ele>167</ele>
        <time>2022-04-06T08:49:10.170Z</time>
      </trkpt>
      <trkpt lat="48.52836" lon="-3.35815">
        <ele>167</ele>
        <time>2022-04-06T08:49:14.173Z</time>
      </trkpt>
      <trkpt lat="48.52831" lon="-3.35814">
        <ele>167</ele>
        <time>2022-04-06T08:49:19.170Z</time>
      </trkpt>
      <trkpt lat="48.52826" lon="-3.35812">
        <ele>167</ele>
        <time>2022-04-06T08:49:28.183Z</time>
      </trkpt>
      <trkpt lat="48.52826" lon="-3.35812">
        <ele>167</ele>
        <time>2022-04-06T08:49:32.186Z</time>
      </trkpt>
      <trkpt lat="48.52825" lon="-3.35812">
        <ele>167</ele>
        <time>2022-04-06T08:49:37.182Z</time>
      </trkpt>
      <trkpt lat="48.52823" lon="-3.35808">
        <ele>167</ele>
        <time>2022-04-06T08:49:41.181Z</time>
      </trkpt>
      <trkpt lat="48.5282" lon="-3.35803">
        <ele>167</ele>
        <time>2022-04-06T08:49:46.178Z</time>
      </trkpt>
      <trkpt lat="48.52817" lon="-3.35796">
        <ele>165</ele>
        <time>2022-04-06T08:49:51.183Z</time>
      </trkpt>
      <trkpt lat="48.52814" lon="-3.3579">
        <ele>168</ele>
        <time>2022-04-06T08:49:56.170Z</time>
      </trkpt>
      <trkpt lat="48.52812" lon="-3.35785">
        <ele>168</ele>
        <time>2022-04-06T08:50:01.176Z</time>
      </trkpt>
      <trkpt lat="48.5281" lon="-3.3578">
        <ele>168</ele>
        <time>2022-04-06T08:50:05.190Z</time>
      </trkpt>
      <trkpt lat="48.52807" lon="-3.35775">
        <ele>168</ele>
        <time>2022-04-06T08:50:10.171Z</time>
      </trkpt>
      <trkpt lat="48.52806" lon="-3.3577">
        <ele>168</ele>
        <time>2022-04-06T08:50:14.174Z</time>
      </trkpt>
      <trkpt lat="48.52805" lon="-3.35764">
        <ele>171</ele>
        <time>2022-04-06T08:50:19.176Z</time>
      </trkpt>
      <trkpt lat="48.52804" lon="-3.35756">
        <ele>171</ele>
        <time>2022-04-06T08:50:24.175Z</time>
      </trkpt>
      <trkpt lat="48.52802" lon="-3.35752">
        <ele>171</ele>
        <time>2022-04-06T08:50:28.179Z</time>
      </trkpt>
      <trkpt lat="48.528" lon="-3.35746">
        <ele>171</ele>
        <time>2022-04-06T08:50:33.173Z</time>
      </trkpt>
      <trkpt lat="48.52798" lon="-3.35739">
        <ele>171</ele>
        <time>2022-04-06T08:50:38.179Z</time>
      </trkpt>
      <trkpt lat="48.52796" lon="-3.35734">
        <ele>174</ele>
        <time>2022-04-06T08:50:42.173Z</time>
      </trkpt>
      <trkpt lat="48.52793" lon="-3.35729">
        <ele>174</ele>
        <time>2022-04-06T08:50:47.176Z</time>
      </trkpt>
      <trkpt lat="48.5279" lon="-3.35721">
        <ele>171</ele>
        <time>2022-04-06T08:50:52.188Z</time>
      </trkpt>
      <trkpt lat="48.52788" lon="-3.35714">
        <ele>171</ele>
        <time>2022-04-06T08:50:57.175Z</time>
      </trkpt>
      <trkpt lat="48.52785" lon="-3.35707">
        <ele>175</ele>
        <time>2022-04-06T08:51:02.175Z</time>
      </trkpt>
      <trkpt lat="48.52782" lon="-3.35701">
        <ele>175</ele>
        <time>2022-04-06T08:51:07.177Z</time>
      </trkpt>
      <trkpt lat="48.5278" lon="-3.35694">
        <ele>175</ele>
        <time>2022-04-06T08:51:12.174Z</time>
      </trkpt>
      <trkpt lat="48.52777" lon="-3.35688">
        <ele>175</ele>
        <time>2022-04-06T08:51:16.180Z</time>
      </trkpt>
      <trkpt lat="48.52774" lon="-3.35683">
        <ele>175</ele>
        <time>2022-04-06T08:51:21.177Z</time>
      </trkpt>
      <trkpt lat="48.52772" lon="-3.35677">
        <ele>179</ele>
        <time>2022-04-06T08:51:25.181Z</time>
      </trkpt>
      <trkpt lat="48.5277" lon="-3.35672">
        <ele>179</ele>
        <time>2022-04-06T08:51:29.187Z</time>
      </trkpt>
      <trkpt lat="48.52767" lon="-3.35667">
        <ele>179</ele>
        <time>2022-04-06T08:51:33.181Z</time>
      </trkpt>
      <trkpt lat="48.52765" lon="-3.35662">
        <ele>179</ele>
        <time>2022-04-06T08:51:38.181Z</time>
      </trkpt>
      <trkpt lat="48.52763" lon="-3.35659">
        <ele>178</ele>
        <time>2022-04-06T08:51:42.172Z</time>
      </trkpt>
      <trkpt lat="48.5276" lon="-3.35654">
        <ele>178</ele>
        <time>2022-04-06T08:51:47.179Z</time>
      </trkpt>
      <trkpt lat="48.52758" lon="-3.3565">
        <ele>183</ele>
        <time>2022-04-06T08:51:52.177Z</time>
      </trkpt>
      <trkpt lat="48.52756" lon="-3.35644">
        <ele>183</ele>
        <time>2022-04-06T08:51:57.171Z</time>
      </trkpt>
      <trkpt lat="48.52756" lon="-3.35639">
        <ele>183</ele>
        <time>2022-04-06T08:52:02.175Z</time>
      </trkpt>
      <trkpt lat="48.52753" lon="-3.35635">
        <ele>183</ele>
        <time>2022-04-06T08:52:06.175Z</time>
      </trkpt>
      <trkpt lat="48.5275" lon="-3.35629">
        <ele>183</ele>
        <time>2022-04-06T08:52:11.171Z</time>
      </trkpt>
      <trkpt lat="48.52746" lon="-3.35624">
        <ele>187</ele>
        <time>2022-04-06T08:52:16.173Z</time>
      </trkpt>
      <trkpt lat="48.52744" lon="-3.35618">
        <ele>187</ele>
        <time>2022-04-06T08:52:20.174Z</time>
      </trkpt>
      <trkpt lat="48.52743" lon="-3.35612">
        <ele>187</ele>
        <time>2022-04-06T08:52:25.170Z</time>
      </trkpt>
      <trkpt lat="48.52742" lon="-3.35606">
        <ele>187</ele>
        <time>2022-04-06T08:52:30.180Z</time>
      </trkpt>
      <trkpt lat="48.52739" lon="-3.35602">
        <ele>187</ele>
        <time>2022-04-06T08:52:35.175Z</time>
      </trkpt>
      <trkpt lat="48.52737" lon="-3.35595">
        <ele>190</ele>
        <time>2022-04-06T08:52:39.181Z</time>
      </trkpt>
      <trkpt lat="48.52734" lon="-3.35587">
        <ele>188</ele>
        <time>2022-04-06T08:52:44.177Z</time>
      </trkpt>
      <trkpt lat="48.52732" lon="-3.3558">
        <ele>188</ele>
        <time>2022-04-06T08:52:49.180Z</time>
      </trkpt>
      <trkpt lat="48.5273" lon="-3.35573">
        <ele>188</ele>
        <time>2022-04-06T08:52:54.173Z</time>
      </trkpt>
      <trkpt lat="48.52731" lon="-3.35567">
        <ele>190</ele>
        <time>2022-04-06T08:53:04.174Z</time>
      </trkpt>
      <trkpt lat="48.52731" lon="-3.35567">
        <ele>190</ele>
        <time>2022-04-06T08:53:08.178Z</time>
      </trkpt>
      <trkpt lat="48.52731" lon="-3.35565">
        <ele>190</ele>
        <time>2022-04-06T08:53:12.186Z</time>
      </trkpt>
      <trkpt lat="48.52727" lon="-3.35559">
        <ele>190</ele>
        <time>2022-04-06T08:53:17.174Z</time>
      </trkpt>
      <trkpt lat="48.52723" lon="-3.35554">
        <ele>190</ele>
        <time>2022-04-06T08:53:22.173Z</time>
      </trkpt>
      <trkpt lat="48.52724" lon="-3.3555">
        <ele>190</ele>
        <time>2022-04-06T08:53:26.174Z</time>
      </trkpt>
      <trkpt lat="48.52722" lon="-3.35548">
        <ele>190</ele>
        <time>2022-04-06T08:53:31.176Z</time>
      </trkpt>
      <trkpt lat="48.52721" lon="-3.35539">
        <ele>191</ele>
        <time>2022-04-06T08:53:36.179Z</time>
      </trkpt>
      <trkpt lat="48.52718" lon="-3.35532">
        <ele>191</ele>
        <time>2022-04-06T08:53:41.181Z</time>
      </trkpt>
      <trkpt lat="48.52716" lon="-3.35537">
        <ele>191</ele>
        <time>2022-04-06T08:53:46.183Z</time>
      </trkpt>
      <trkpt lat="48.52712" lon="-3.35531">
        <ele>191</ele>
        <time>2022-04-06T08:53:51.181Z</time>
      </trkpt>
      <trkpt lat="48.52707" lon="-3.35526">
        <ele>188</ele>
        <time>2022-04-06T08:53:56.174Z</time>
      </trkpt>
      <trkpt lat="48.52704" lon="-3.35518">
        <ele>188</ele>
        <time>2022-04-06T08:54:01.173Z</time>
      </trkpt>
      <trkpt lat="48.52702" lon="-3.35512">
        <ele>187</ele>
        <time>2022-04-06T08:54:05.174Z</time>
      </trkpt>
      <trkpt lat="48.52698" lon="-3.35506">
        <ele>187</ele>
        <time>2022-04-06T08:54:10.176Z</time>
      </trkpt>
      <trkpt lat="48.52695" lon="-3.35499">
        <ele>187</ele>
        <time>2022-04-06T08:54:15.174Z</time>
      </trkpt>
      <trkpt lat="48.52692" lon="-3.35494">
        <ele>187</ele>
        <time>2022-04-06T08:54:19.181Z</time>
      </trkpt>
      <trkpt lat="48.52689" lon="-3.35485">
        <ele>187</ele>
        <time>2022-04-06T08:54:24.177Z</time>
      </trkpt>
      <trkpt lat="48.52687" lon="-3.35479">
        <ele>187</ele>
        <time>2022-04-06T08:54:28.183Z</time>
      </trkpt>
      <trkpt lat="48.52683" lon="-3.3547">
        <ele>187</ele>
        <time>2022-04-06T08:54:33.191Z</time>
      </trkpt>
      <trkpt lat="48.52679" lon="-3.35461">
        <ele>182</ele>
        <time>2022-04-06T08:54:38.180Z</time>
      </trkpt>
      <trkpt lat="48.52674" lon="-3.35452">
        <ele>182</ele>
        <time>2022-04-06T08:56:09.171Z</time>
      </trkpt>
      <trkpt lat="48.52674" lon="-3.35449">
        <ele>182</ele>
        <time>2022-04-06T08:56:14.170Z</time>
      </trkpt>
      <trkpt lat="48.52671" lon="-3.35441">
        <ele>182</ele>
        <time>2022-04-06T08:56:19.166Z</time>
      </trkpt>
      <trkpt lat="48.52668" lon="-3.35435">
        <ele>182</ele>
        <time>2022-04-06T08:56:23.173Z</time>
      </trkpt>
      <trkpt lat="48.52666" lon="-3.35426">
        <ele>183</ele>
        <time>2022-04-06T08:56:28.171Z</time>
      </trkpt>
      <trkpt lat="48.52667" lon="-3.35418">
        <ele>183</ele>
        <time>2022-04-06T08:56:32.176Z</time>
      </trkpt>
      <trkpt lat="48.52664" lon="-3.35411">
        <ele>183</ele>
        <time>2022-04-06T08:56:37.174Z</time>
      </trkpt>
      <trkpt lat="48.52662" lon="-3.35405">
        <ele>183</ele>
        <time>2022-04-06T08:56:41.173Z</time>
      </trkpt>
      <trkpt lat="48.52659" lon="-3.35399">
        <ele>184</ele>
        <time>2022-04-06T08:56:46.177Z</time>
      </trkpt>
      <trkpt lat="48.52656" lon="-3.35392">
        <ele>184</ele>
        <time>2022-04-06T08:56:51.182Z</time>
      </trkpt>
      <trkpt lat="48.52654" lon="-3.35384">
        <ele>184</ele>
        <time>2022-04-06T08:56:56.180Z</time>
      </trkpt>
      <trkpt lat="48.52652" lon="-3.35378">
        <ele>178</ele>
        <time>2022-04-06T08:57:00.190Z</time>
      </trkpt>
      <trkpt lat="48.52649" lon="-3.35371">
        <ele>177</ele>
        <time>2022-04-06T08:57:05.189Z</time>
      </trkpt>
      <trkpt lat="48.52646" lon="-3.35363">
        <ele>177</ele>
        <time>2022-04-06T08:57:10.182Z</time>
      </trkpt>
      <trkpt lat="48.52644" lon="-3.35356">
        <ele>177</ele>
        <time>2022-04-06T08:57:14.182Z</time>
      </trkpt>
      <trkpt lat="48.52641" lon="-3.35348">
        <ele>177</ele>
        <time>2022-04-06T08:57:19.181Z</time>
      </trkpt>
      <trkpt lat="48.52637" lon="-3.35341">
        <ele>177</ele>
        <time>2022-04-06T08:57:24.188Z</time>
      </trkpt>
      <trkpt lat="48.52634" lon="-3.35331">
        <ele>177</ele>
        <time>2022-04-06T08:57:29.171Z</time>
      </trkpt>
      <trkpt lat="48.52631" lon="-3.35325">
        <ele>177</ele>
        <time>2022-04-06T08:57:33.170Z</time>
      </trkpt>
      <trkpt lat="48.52628" lon="-3.35318">
        <ele>179</ele>
        <time>2022-04-06T08:57:38.175Z</time>
      </trkpt>
      <trkpt lat="48.52625" lon="-3.35312">
        <ele>176</ele>
        <time>2022-04-06T08:57:42.181Z</time>
      </trkpt>
      <trkpt lat="48.52623" lon="-3.35306">
        <ele>176</ele>
        <time>2022-04-06T08:57:46.179Z</time>
      </trkpt>
      <trkpt lat="48.52619" lon="-3.35298">
        <ele>176</ele>
        <time>2022-04-06T08:57:51.183Z</time>
      </trkpt>
      <trkpt lat="48.52615" lon="-3.3529">
        <ele>178</ele>
        <time>2022-04-06T08:57:56.172Z</time>
      </trkpt>
      <trkpt lat="48.52611" lon="-3.35282">
        <ele>178</ele>
        <time>2022-04-06T08:58:01.173Z</time>
      </trkpt>
      <trkpt lat="48.52608" lon="-3.35272">
        <ele>178</ele>
        <time>2022-04-06T08:58:06.175Z</time>
      </trkpt>
      <trkpt lat="48.52605" lon="-3.35265">
        <ele>178</ele>
        <time>2022-04-06T08:58:10.178Z</time>
      </trkpt>
      <trkpt lat="48.52602" lon="-3.35258">
        <ele>181</ele>
        <time>2022-04-06T08:58:15.175Z</time>
      </trkpt>
      <trkpt lat="48.52598" lon="-3.35251">
        <ele>181</ele>
        <time>2022-04-06T08:58:20.174Z</time>
      </trkpt>
      <trkpt lat="48.52594" lon="-3.35244">
        <ele>181</ele>
        <time>2022-04-06T08:58:25.186Z</time>
      </trkpt>
      <trkpt lat="48.52591" lon="-3.35239">
        <ele>181</ele>
        <time>2022-04-06T08:58:29.184Z</time>
      </trkpt>
      <trkpt lat="48.52588" lon="-3.35231">
        <ele>183</ele>
        <time>2022-04-06T08:58:34.179Z</time>
      </trkpt>
      <trkpt lat="48.52584" lon="-3.35222">
        <ele>183</ele>
        <time>2022-04-06T08:58:39.185Z</time>
      </trkpt>
      <trkpt lat="48.52581" lon="-3.35214">
        <ele>183</ele>
        <time>2022-04-06T08:58:44.182Z</time>
      </trkpt>
      <trkpt lat="48.52579" lon="-3.35207">
        <ele>186</ele>
        <time>2022-04-06T08:58:49.184Z</time>
      </trkpt>
      <trkpt lat="48.52576" lon="-3.35201">
        <ele>186</ele>
        <time>2022-04-06T08:58:54.184Z</time>
      </trkpt>
      <trkpt lat="48.52573" lon="-3.35195">
        <ele>186</ele>
        <time>2022-04-06T08:58:59.180Z</time>
      </trkpt>
      <trkpt lat="48.52571" lon="-3.3519">
        <ele>186</ele>
        <time>2022-04-06T08:59:03.180Z</time>
      </trkpt>
      <trkpt lat="48.52568" lon="-3.35183">
        <ele>185</ele>
        <time>2022-04-06T08:59:08.177Z</time>
      </trkpt>
      <trkpt lat="48.52565" lon="-3.35176">
        <ele>188</ele>
        <time>2022-04-06T08:59:13.177Z</time>
      </trkpt>
      <trkpt lat="48.52562" lon="-3.35169">
        <ele>188</ele>
        <time>2022-04-06T08:59:18.174Z</time>
      </trkpt>
      <trkpt lat="48.52559" lon="-3.35163">
        <ele>188</ele>
        <time>2022-04-06T08:59:23.173Z</time>
      </trkpt>
      <trkpt lat="48.52557" lon="-3.35157">
        <ele>188</ele>
        <time>2022-04-06T08:59:27.174Z</time>
      </trkpt>
      <trkpt lat="48.52554" lon="-3.35149">
        <ele>192</ele>
        <time>2022-04-06T08:59:32.174Z</time>
      </trkpt>
      <trkpt lat="48.52551" lon="-3.35143">
        <ele>192</ele>
        <time>2022-04-06T08:59:36.183Z</time>
      </trkpt>
      <trkpt lat="48.52549" lon="-3.35138">
        <ele>192</ele>
        <time>2022-04-06T08:59:40.187Z</time>
      </trkpt>
      <trkpt lat="48.52545" lon="-3.35131">
        <ele>192</ele>
        <time>2022-04-06T08:59:45.179Z</time>
      </trkpt>
      <trkpt lat="48.52542" lon="-3.35124">
        <ele>195</ele>
        <time>2022-04-06T08:59:50.177Z</time>
      </trkpt>
      <trkpt lat="48.5254" lon="-3.35117">
        <ele>193</ele>
        <time>2022-04-06T08:59:54.176Z</time>
      </trkpt>
      <trkpt lat="48.52537" lon="-3.35108">
        <ele>193</ele>
        <time>2022-04-06T08:59:59.183Z</time>
      </trkpt>
      <trkpt lat="48.52533" lon="-3.35101">
        <ele>193</ele>
        <time>2022-04-06T09:00:04.173Z</time>
      </trkpt>
      <trkpt lat="48.5253" lon="-3.35097">
        <ele>194</ele>
        <time>2022-04-06T09:00:08.182Z</time>
      </trkpt>
      <trkpt lat="48.52527" lon="-3.35089">
        <ele>194</ele>
        <time>2022-04-06T09:00:13.188Z</time>
      </trkpt>
      <trkpt lat="48.52524" lon="-3.35081">
        <ele>194</ele>
        <time>2022-04-06T09:00:18.184Z</time>
      </trkpt>
      <trkpt lat="48.52522" lon="-3.35074">
        <ele>194</ele>
        <time>2022-04-06T09:00:22.188Z</time>
      </trkpt>
      <trkpt lat="48.52519" lon="-3.35065">
        <ele>193</ele>
        <time>2022-04-06T09:00:27.184Z</time>
      </trkpt>
      <trkpt lat="48.52516" lon="-3.35057">
        <ele>193</ele>
        <time>2022-04-06T09:00:32.178Z</time>
      </trkpt>
      <trkpt lat="48.52514" lon="-3.35051">
        <ele>191</ele>
        <time>2022-04-06T09:00:36.187Z</time>
      </trkpt>
      <trkpt lat="48.52511" lon="-3.35043">
        <ele>191</ele>
        <time>2022-04-06T09:00:41.175Z</time>
      </trkpt>
      <trkpt lat="48.52508" lon="-3.35036">
        <ele>190</ele>
        <time>2022-04-06T09:00:45.183Z</time>
      </trkpt>
      <trkpt lat="48.52505" lon="-3.35028">
        <ele>190</ele>
        <time>2022-04-06T09:00:50.182Z</time>
      </trkpt>
      <trkpt lat="48.52502" lon="-3.35022">
        <ele>190</ele>
        <time>2022-04-06T09:00:54.186Z</time>
      </trkpt>
      <trkpt lat="48.52499" lon="-3.35016">
        <ele>190</ele>
        <time>2022-04-06T09:00:58.190Z</time>
      </trkpt>
      <trkpt lat="48.52496" lon="-3.35007">
        <ele>188</ele>
        <time>2022-04-06T09:01:03.179Z</time>
      </trkpt>
      <trkpt lat="48.52493" lon="-3.35002">
        <ele>188</ele>
        <time>2022-04-06T09:01:07.184Z</time>
      </trkpt>
      <trkpt lat="48.52489" lon="-3.34993">
        <ele>188</ele>
        <time>2022-04-06T09:01:12.175Z</time>
      </trkpt>
      <trkpt lat="48.52485" lon="-3.34984">
        <ele>186</ele>
        <time>2022-04-06T09:01:17.184Z</time>
      </trkpt>
      <trkpt lat="48.52482" lon="-3.34975">
        <ele>186</ele>
        <time>2022-04-06T09:01:22.178Z</time>
      </trkpt>
      <trkpt lat="48.52478" lon="-3.34968">
        <ele>186</ele>
        <time>2022-04-06T09:01:27.179Z</time>
      </trkpt>
      <trkpt lat="48.52475" lon="-3.34962">
        <ele>186</ele>
        <time>2022-04-06T09:01:31.184Z</time>
      </trkpt>
      <trkpt lat="48.52472" lon="-3.34955">
        <ele>186</ele>
        <time>2022-04-06T09:01:36.179Z</time>
      </trkpt>
      <trkpt lat="48.52468" lon="-3.34949">
        <ele>186</ele>
        <time>2022-04-06T09:01:40.185Z</time>
      </trkpt>
      <trkpt lat="48.52465" lon="-3.34941">
        <ele>186</ele>
        <time>2022-04-06T09:01:45.176Z</time>
      </trkpt>
      <trkpt lat="48.52462" lon="-3.34933">
        <ele>186</ele>
        <time>2022-04-06T09:01:50.181Z</time>
      </trkpt>
      <trkpt lat="48.5246" lon="-3.34928">
        <ele>187</ele>
        <time>2022-04-06T09:01:54.185Z</time>
      </trkpt>
      <trkpt lat="48.52457" lon="-3.3492">
        <ele>187</ele>
        <time>2022-04-06T09:01:59.180Z</time>
      </trkpt>
      <trkpt lat="48.52452" lon="-3.34918">
        <ele>187</ele>
        <time>2022-04-06T09:02:04.175Z</time>
      </trkpt>
      <trkpt lat="48.52447" lon="-3.34919">
        <ele>187</ele>
        <time>2022-04-06T09:02:08.183Z</time>
      </trkpt>
      <trkpt lat="48.52442" lon="-3.34923">
        <ele>187</ele>
        <time>2022-04-06T09:02:13.181Z</time>
      </trkpt>
      <trkpt lat="48.52437" lon="-3.34922">
        <ele>187</ele>
        <time>2022-04-06T09:02:18.186Z</time>
      </trkpt>
      <trkpt lat="48.52432" lon="-3.34921">
        <ele>187</ele>
        <time>2022-04-06T09:02:23.164Z</time>
      </trkpt>
      <trkpt lat="48.52428" lon="-3.34921">
        <ele>186</ele>
        <time>2022-04-06T09:02:27.169Z</time>
      </trkpt>
      <trkpt lat="48.52422" lon="-3.34918">
        <ele>186</ele>
        <time>2022-04-06T09:02:32.168Z</time>
      </trkpt>
      <trkpt lat="48.52417" lon="-3.34917">
        <ele>186</ele>
        <time>2022-04-06T09:02:37.183Z</time>
      </trkpt>
      <trkpt lat="48.5241" lon="-3.34914">
        <ele>186</ele>
        <time>2022-04-06T09:02:42.167Z</time>
      </trkpt>
      <trkpt lat="48.52404" lon="-3.34913">
        <ele>186</ele>
        <time>2022-04-06T09:02:47.178Z</time>
      </trkpt>
      <trkpt lat="48.524" lon="-3.34912">
        <ele>186</ele>
        <time>2022-04-06T09:02:52.172Z</time>
      </trkpt>
      <trkpt lat="48.52394" lon="-3.3491">
        <ele>186</ele>
        <time>2022-04-06T09:02:57.168Z</time>
      </trkpt>
      <trkpt lat="48.52389" lon="-3.34909">
        <ele>186</ele>
        <time>2022-04-06T09:03:02.182Z</time>
      </trkpt>
      <trkpt lat="48.52384" lon="-3.34908">
        <ele>186</ele>
        <time>2022-04-06T09:03:07.177Z</time>
      </trkpt>
      <trkpt lat="48.52379" lon="-3.34906">
        <ele>186</ele>
        <time>2022-04-06T09:03:11.182Z</time>
      </trkpt>
      <trkpt lat="48.52372" lon="-3.34904">
        <ele>185</ele>
        <time>2022-04-06T09:03:16.177Z</time>
      </trkpt>
      <trkpt lat="48.52366" lon="-3.34904">
        <ele>185</ele>
        <time>2022-04-06T09:03:20.184Z</time>
      </trkpt>
      <trkpt lat="48.52358" lon="-3.34903">
        <ele>185</ele>
        <time>2022-04-06T09:03:25.177Z</time>
      </trkpt>
      <trkpt lat="48.52352" lon="-3.349">
        <ele>185</ele>
        <time>2022-04-06T09:03:30.182Z</time>
      </trkpt>
      <trkpt lat="48.52345" lon="-3.34897">
        <ele>182</ele>
        <time>2022-04-06T09:03:35.177Z</time>
      </trkpt>
      <trkpt lat="48.5234" lon="-3.34895">
        <ele>182</ele>
        <time>2022-04-06T09:03:39.182Z</time>
      </trkpt>
      <trkpt lat="48.52334" lon="-3.3489">
        <ele>182</ele>
        <time>2022-04-06T09:03:44.177Z</time>
      </trkpt>
      <trkpt lat="48.52325" lon="-3.34889">
        <ele>182</ele>
        <time>2022-04-06T09:03:49.177Z</time>
      </trkpt>
      <trkpt lat="48.52318" lon="-3.34888">
        <ele>179</ele>
        <time>2022-04-06T09:03:54.182Z</time>
      </trkpt>
      <trkpt lat="48.52312" lon="-3.34888">
        <ele>179</ele>
        <time>2022-04-06T09:03:59.182Z</time>
      </trkpt>
      <trkpt lat="48.52306" lon="-3.34888">
        <ele>179</ele>
        <time>2022-04-06T09:04:04.178Z</time>
      </trkpt>
      <trkpt lat="48.523" lon="-3.34886">
        <ele>179</ele>
        <time>2022-04-06T09:04:09.170Z</time>
      </trkpt>
      <trkpt lat="48.52293" lon="-3.34884">
        <ele>179</ele>
        <time>2022-04-06T09:04:14.168Z</time>
      </trkpt>
      <trkpt lat="48.52289" lon="-3.34883">
        <ele>177</ele>
        <time>2022-04-06T09:04:18.181Z</time>
      </trkpt>
      <trkpt lat="48.52283" lon="-3.34882">
        <ele>177</ele>
        <time>2022-04-06T09:04:23.179Z</time>
      </trkpt>
      <trkpt lat="48.52277" lon="-3.3488">
        <ele>177</ele>
        <time>2022-04-06T09:04:28.169Z</time>
      </trkpt>
      <trkpt lat="48.52272" lon="-3.34879">
        <ele>177</ele>
        <time>2022-04-06T09:04:33.181Z</time>
      </trkpt>
      <trkpt lat="48.52266" lon="-3.34878">
        <ele>177</ele>
        <time>2022-04-06T09:04:38.181Z</time>
      </trkpt>
      <trkpt lat="48.52262" lon="-3.34877">
        <ele>178</ele>
        <time>2022-04-06T09:04:42.177Z</time>
      </trkpt>
      <trkpt lat="48.52257" lon="-3.34876">
        <ele>178</ele>
        <time>2022-04-06T09:04:47.181Z</time>
      </trkpt>
      <trkpt lat="48.52253" lon="-3.34874">
        <ele>180</ele>
        <time>2022-04-06T09:04:51.184Z</time>
      </trkpt>
      <trkpt lat="48.52247" lon="-3.34872">
        <ele>180</ele>
        <time>2022-04-06T09:04:56.183Z</time>
      </trkpt>
      <trkpt lat="48.52241" lon="-3.3487">
        <ele>180</ele>
        <time>2022-04-06T09:05:01.181Z</time>
      </trkpt>
      <trkpt lat="48.52235" lon="-3.34868">
        <ele>180</ele>
        <time>2022-04-06T09:05:06.171Z</time>
      </trkpt>
      <trkpt lat="48.52231" lon="-3.34866">
        <ele>180</ele>
        <time>2022-04-06T09:05:10.179Z</time>
      </trkpt>
      <trkpt lat="48.52226" lon="-3.34864">
        <ele>180</ele>
        <time>2022-04-06T09:05:15.182Z</time>
      </trkpt>
      <trkpt lat="48.5222" lon="-3.34863">
        <ele>180</ele>
        <time>2022-04-06T09:05:20.173Z</time>
      </trkpt>
      <trkpt lat="48.52215" lon="-3.34861">
        <ele>180</ele>
        <time>2022-04-06T09:05:24.179Z</time>
      </trkpt>
      <trkpt lat="48.52208" lon="-3.3486">
        <ele>180</ele>
        <time>2022-04-06T09:05:29.177Z</time>
      </trkpt>
      <trkpt lat="48.52202" lon="-3.3486">
        <ele>179</ele>
        <time>2022-04-06T09:05:34.186Z</time>
      </trkpt>
      <trkpt lat="48.52194" lon="-3.3486">
        <ele>179</ele>
        <time>2022-04-06T09:05:39.178Z</time>
      </trkpt>
      <trkpt lat="48.52188" lon="-3.34857">
        <ele>179</ele>
        <time>2022-04-06T09:05:44.181Z</time>
      </trkpt>
      <trkpt lat="48.52181" lon="-3.34855">
        <ele>179</ele>
        <time>2022-04-06T09:05:49.182Z</time>
      </trkpt>
      <trkpt lat="48.52175" lon="-3.34854">
        <ele>178</ele>
        <time>2022-04-06T09:05:54.176Z</time>
      </trkpt>
      <trkpt lat="48.5217" lon="-3.34854">
        <ele>178</ele>
        <time>2022-04-06T09:05:58.186Z</time>
      </trkpt>
      <trkpt lat="48.52164" lon="-3.34852">
        <ele>178</ele>
        <time>2022-04-06T09:06:03.182Z</time>
      </trkpt>
      <trkpt lat="48.52159" lon="-3.34849">
        <ele>178</ele>
        <time>2022-04-06T09:06:08.177Z</time>
      </trkpt>
      <trkpt lat="48.52154" lon="-3.34847">
        <ele>179</ele>
        <time>2022-04-06T09:06:12.183Z</time>
      </trkpt>
      <trkpt lat="48.52149" lon="-3.34844">
        <ele>177</ele>
        <time>2022-04-06T09:06:17.184Z</time>
      </trkpt>
      <trkpt lat="48.52145" lon="-3.34842">
        <ele>177</ele>
        <time>2022-04-06T09:06:21.185Z</time>
      </trkpt>
      <trkpt lat="48.52139" lon="-3.3484">
        <ele>177</ele>
        <time>2022-04-06T09:06:26.180Z</time>
      </trkpt>
      <trkpt lat="48.52135" lon="-3.34838">
        <ele>177</ele>
        <time>2022-04-06T09:06:30.185Z</time>
      </trkpt>
      <trkpt lat="48.52129" lon="-3.34837">
        <ele>177</ele>
        <time>2022-04-06T09:06:35.183Z</time>
      </trkpt>
      <trkpt lat="48.52124" lon="-3.34835">
        <ele>174</ele>
        <time>2022-04-06T09:06:40.172Z</time>
      </trkpt>
      <trkpt lat="48.52118" lon="-3.34832">
        <ele>174</ele>
        <time>2022-04-06T09:06:45.176Z</time>
      </trkpt>
      <trkpt lat="48.52112" lon="-3.34832">
        <ele>174</ele>
        <time>2022-04-06T09:06:49.189Z</time>
      </trkpt>
      <trkpt lat="48.52106" lon="-3.34831">
        <ele>174</ele>
        <time>2022-04-06T09:06:54.183Z</time>
      </trkpt>
      <trkpt lat="48.52099" lon="-3.34828">
        <ele>174</ele>
        <time>2022-04-06T09:06:59.171Z</time>
      </trkpt>
      <trkpt lat="48.52094" lon="-3.34826">
        <ele>171</ele>
        <time>2022-04-06T09:07:03.185Z</time>
      </trkpt>
      <trkpt lat="48.52089" lon="-3.34822">
        <ele>171</ele>
        <time>2022-04-06T09:07:08.171Z</time>
      </trkpt>
      <trkpt lat="48.52084" lon="-3.34821">
        <ele>171</ele>
        <time>2022-04-06T09:07:12.175Z</time>
      </trkpt>
      <trkpt lat="48.52079" lon="-3.34819">
        <ele>172</ele>
        <time>2022-04-06T09:07:17.184Z</time>
      </trkpt>
      <trkpt lat="48.52073" lon="-3.34821">
        <ele>171</ele>
        <time>2022-04-06T09:07:22.173Z</time>
      </trkpt>
      <trkpt lat="48.52068" lon="-3.34822">
        <ele>164</ele>
        <time>2022-04-06T09:07:26.182Z</time>
      </trkpt>
      <trkpt lat="48.52063" lon="-3.34821">
        <ele>164</ele>
        <time>2022-04-06T09:07:31.171Z</time>
      </trkpt>
      <trkpt lat="48.52058" lon="-3.3482">
        <ele>164</ele>
        <time>2022-04-06T09:07:35.188Z</time>
      </trkpt>
      <trkpt lat="48.52052" lon="-3.34817">
        <ele>166</ele>
        <time>2022-04-06T09:07:40.187Z</time>
      </trkpt>
      <trkpt lat="48.52046" lon="-3.34817">
        <ele>166</ele>
        <time>2022-04-06T09:07:45.181Z</time>
      </trkpt>
      <trkpt lat="48.52041" lon="-3.34812">
        <ele>161</ele>
        <time>2022-04-06T09:07:50.184Z</time>
      </trkpt>
      <trkpt lat="48.52036" lon="-3.34809">
        <ele>161</ele>
        <time>2022-04-06T09:07:55.180Z</time>
      </trkpt>
      <trkpt lat="48.5203" lon="-3.34806">
        <ele>161</ele>
        <time>2022-04-06T09:08:00.172Z</time>
      </trkpt>
      <trkpt lat="48.52023" lon="-3.34807">
        <ele>161</ele>
        <time>2022-04-06T09:08:05.173Z</time>
      </trkpt>
      <trkpt lat="48.52018" lon="-3.34808">
        <ele>161</ele>
        <time>2022-04-06T09:08:09.176Z</time>
      </trkpt>
      <trkpt lat="48.52013" lon="-3.3481">
        <ele>160</ele>
        <time>2022-04-06T09:08:14.173Z</time>
      </trkpt>
      <trkpt lat="48.52011" lon="-3.34817">
        <ele>160</ele>
        <time>2022-04-06T09:08:19.172Z</time>
      </trkpt>
      <trkpt lat="48.5201" lon="-3.34823">
        <ele>159</ele>
        <time>2022-04-06T09:08:23.176Z</time>
      </trkpt>
      <trkpt lat="48.52011" lon="-3.34831">
        <ele>159</ele>
        <time>2022-04-06T09:08:28.185Z</time>
      </trkpt>
      <trkpt lat="48.52011" lon="-3.3484">
        <ele>159</ele>
        <time>2022-04-06T09:08:33.179Z</time>
      </trkpt>
      <trkpt lat="48.5201" lon="-3.34848">
        <ele>157</ele>
        <time>2022-04-06T09:08:38.186Z</time>
      </trkpt>
      <trkpt lat="48.52013" lon="-3.34856">
        <ele>157</ele>
        <time>2022-04-06T09:08:43.185Z</time>
      </trkpt>
      <trkpt lat="48.52018" lon="-3.34859">
        <ele>158</ele>
        <time>2022-04-06T09:08:48.175Z</time>
      </trkpt>
      <trkpt lat="48.52018" lon="-3.34857">
        <ele>158</ele>
        <time>2022-04-06T09:08:53.207Z</time>
      </trkpt>
      <trkpt lat="48.52015" lon="-3.34859">
        <ele>158</ele>
        <time>2022-04-06T09:08:58.167Z</time>
      </trkpt>
      <trkpt lat="48.52013" lon="-3.34868">
        <ele>157</ele>
        <time>2022-04-06T09:09:03.168Z</time>
      </trkpt>
      <trkpt lat="48.52014" lon="-3.34874">
        <ele>157</ele>
        <time>2022-04-06T09:09:07.172Z</time>
      </trkpt>
      <trkpt lat="48.52012" lon="-3.3488">
        <ele>154</ele>
        <time>2022-04-06T09:09:12.171Z</time>
      </trkpt>
      <trkpt lat="48.52005" lon="-3.34881">
        <ele>154</ele>
        <time>2022-04-06T09:09:17.164Z</time>
      </trkpt>
      <trkpt lat="48.52001" lon="-3.34878">
        <ele>154</ele>
        <time>2022-04-06T09:09:21.186Z</time>
      </trkpt>
      <trkpt lat="48.51997" lon="-3.3487">
        <ele>157</ele>
        <time>2022-04-06T09:09:26.179Z</time>
      </trkpt>
      <trkpt lat="48.51992" lon="-3.34864">
        <ele>157</ele>
        <time>2022-04-06T09:09:30.187Z</time>
      </trkpt>
      <trkpt lat="48.51988" lon="-3.34858">
        <ele>157</ele>
        <time>2022-04-06T09:09:34.171Z</time>
      </trkpt>
      <trkpt lat="48.51985" lon="-3.3485">
        <ele>156</ele>
        <time>2022-04-06T09:09:39.179Z</time>
      </trkpt>
      <trkpt lat="48.51981" lon="-3.34843">
        <ele>157</ele>
        <time>2022-04-06T09:09:44.171Z</time>
      </trkpt>
      <trkpt lat="48.51979" lon="-3.34838">
        <ele>157</ele>
        <time>2022-04-06T09:09:48.172Z</time>
      </trkpt>
      <trkpt lat="48.51976" lon="-3.34833">
        <ele>157</ele>
        <time>2022-04-06T09:09:53.172Z</time>
      </trkpt>
      <trkpt lat="48.51973" lon="-3.3483">
        <ele>157</ele>
        <time>2022-04-06T09:09:58.172Z</time>
      </trkpt>
      <trkpt lat="48.5197" lon="-3.34829">
        <ele>157</ele>
        <time>2022-04-06T09:10:02.176Z</time>
      </trkpt>
      <trkpt lat="48.51967" lon="-3.34829">
        <ele>157</ele>
        <time>2022-04-06T09:10:07.183Z</time>
      </trkpt>
      <trkpt lat="48.51965" lon="-3.34821">
        <ele>157</ele>
        <time>2022-04-06T09:10:12.257Z</time>
      </trkpt>
      <trkpt lat="48.5196" lon="-3.34812">
        <ele>158</ele>
        <time>2022-04-06T09:10:17.179Z</time>
      </trkpt>
      <trkpt lat="48.51952" lon="-3.348">
        <ele>154</ele>
        <time>2022-04-06T09:10:22.181Z</time>
      </trkpt>
      <trkpt lat="48.51949" lon="-3.34794">
        <ele>154</ele>
        <time>2022-04-06T09:10:26.192Z</time>
      </trkpt>
      <trkpt lat="48.51944" lon="-3.34786">
        <ele>156</ele>
        <time>2022-04-06T09:10:31.172Z</time>
      </trkpt>
      <trkpt lat="48.51937" lon="-3.34781">
        <ele>156</ele>
        <time>2022-04-06T09:10:36.175Z</time>
      </trkpt>
      <trkpt lat="48.51934" lon="-3.34774">
        <ele>156</ele>
        <time>2022-04-06T09:10:40.173Z</time>
      </trkpt>
      <trkpt lat="48.5193" lon="-3.34769">
        <ele>150</ele>
        <time>2022-04-06T09:10:45.174Z</time>
      </trkpt>
      <trkpt lat="48.51928" lon="-3.34765">
        <ele>150</ele>
        <time>2022-04-06T09:10:49.186Z</time>
      </trkpt>
      <trkpt lat="48.51925" lon="-3.34758">
        <ele>152</ele>
        <time>2022-04-06T09:10:54.170Z</time>
      </trkpt>
      <trkpt lat="48.51923" lon="-3.34752">
        <ele>152</ele>
        <time>2022-04-06T09:10:59.173Z</time>
      </trkpt>
      <trkpt lat="48.51918" lon="-3.34748">
        <ele>152</ele>
        <time>2022-04-06T09:11:04.176Z</time>
      </trkpt>
      <trkpt lat="48.51915" lon="-3.34742">
        <ele>152</ele>
        <time>2022-04-06T09:11:09.174Z</time>
      </trkpt>
      <trkpt lat="48.51914" lon="-3.34735">
        <ele>153</ele>
        <time>2022-04-06T09:11:14.179Z</time>
      </trkpt>
      <trkpt lat="48.51912" lon="-3.34729">
        <ele>153</ele>
        <time>2022-04-06T09:11:19.179Z</time>
      </trkpt>
      <trkpt lat="48.5191" lon="-3.34726">
        <ele>153</ele>
        <time>2022-04-06T09:11:59.178Z</time>
      </trkpt>
      <trkpt lat="48.5191" lon="-3.34726">
        <ele>153</ele>
        <time>2022-04-06T09:12:04.172Z</time>
      </trkpt>
      <trkpt lat="48.5191" lon="-3.34725">
        <ele>153</ele>
        <time>2022-04-06T09:12:08.173Z</time>
      </trkpt>
      <trkpt lat="48.51904" lon="-3.34724">
        <ele>153</ele>
        <time>2022-04-06T09:12:12.171Z</time>
      </trkpt>
      <trkpt lat="48.51902" lon="-3.34722">
        <ele>149</ele>
        <time>2022-04-06T09:12:17.175Z</time>
      </trkpt>
      <trkpt lat="48.51901" lon="-3.34717">
        <ele>149</ele>
        <time>2022-04-06T09:12:21.181Z</time>
      </trkpt>
      <trkpt lat="48.51897" lon="-3.34715">
        <ele>149</ele>
        <time>2022-04-06T09:12:25.185Z</time>
      </trkpt>
      <trkpt lat="48.51896" lon="-3.3471">
        <ele>149</ele>
        <time>2022-04-06T09:12:29.195Z</time>
      </trkpt>
      <trkpt lat="48.51895" lon="-3.34703">
        <ele>152</ele>
        <time>2022-04-06T09:12:34.183Z</time>
      </trkpt>
      <trkpt lat="48.51895" lon="-3.34698">
        <ele>152</ele>
        <time>2022-04-06T09:12:39.178Z</time>
      </trkpt>
      <trkpt lat="48.51894" lon="-3.34693">
        <ele>152</ele>
        <time>2022-04-06T09:12:44.173Z</time>
      </trkpt>
      <trkpt lat="48.51892" lon="-3.34688">
        <ele>152</ele>
        <time>2022-04-06T09:12:49.175Z</time>
      </trkpt>
      <trkpt lat="48.51889" lon="-3.34684">
        <ele>152</ele>
        <time>2022-04-06T09:12:54.176Z</time>
      </trkpt>
      <trkpt lat="48.51887" lon="-3.3468">
        <ele>153</ele>
        <time>2022-04-06T09:12:59.174Z</time>
      </trkpt>
      <trkpt lat="48.51887" lon="-3.34678">
        <ele>153</ele>
        <time>2022-04-06T09:13:04.175Z</time>
      </trkpt>
      <trkpt lat="48.51884" lon="-3.34678">
        <ele>153</ele>
        <time>2022-04-06T09:13:08.186Z</time>
      </trkpt>
      <trkpt lat="48.51881" lon="-3.34673">
        <ele>153</ele>
        <time>2022-04-06T09:13:13.170Z</time>
      </trkpt>
      <trkpt lat="48.51878" lon="-3.34668">
        <ele>153</ele>
        <time>2022-04-06T09:13:18.171Z</time>
      </trkpt>
      <trkpt lat="48.51877" lon="-3.34653">
        <ele>153</ele>
        <time>2022-04-06T09:13:37.173Z</time>
      </trkpt>
      <trkpt lat="48.51879" lon="-3.34651">
        <ele>155</ele>
        <time>2022-04-06T09:13:41.178Z</time>
      </trkpt>
      <trkpt lat="48.51881" lon="-3.34647">
        <ele>155</ele>
        <time>2022-04-06T09:13:46.179Z</time>
      </trkpt>
      <trkpt lat="48.51885" lon="-3.34643">
        <ele>155</ele>
        <time>2022-04-06T09:13:51.175Z</time>
      </trkpt>
      <trkpt lat="48.51887" lon="-3.34641">
        <ele>155</ele>
        <time>2022-04-06T09:13:55.185Z</time>
      </trkpt>
      <trkpt lat="48.51883" lon="-3.34637">
        <ele>155</ele>
        <time>2022-04-06T09:14:04.180Z</time>
      </trkpt>
      <trkpt lat="48.51883" lon="-3.34637">
        <ele>155</ele>
        <time>2022-04-06T09:14:09.176Z</time>
      </trkpt>
      <trkpt lat="48.51883" lon="-3.34637">
        <ele>155</ele>
        <time>2022-04-06T09:14:13.185Z</time>
      </trkpt>
      <trkpt lat="48.51878" lon="-3.34633">
        <ele>155</ele>
        <time>2022-04-06T09:14:18.192Z</time>
      </trkpt>
      <trkpt lat="48.51871" lon="-3.34629">
        <ele>153</ele>
        <time>2022-04-06T09:14:23.170Z</time>
      </trkpt>
      <trkpt lat="48.51864" lon="-3.34629">
        <ele>153</ele>
        <time>2022-04-06T09:14:28.180Z</time>
      </trkpt>
      <trkpt lat="48.51865" lon="-3.34629">
        <ele>153</ele>
        <time>2022-04-06T09:14:33.173Z</time>
      </trkpt>
      <trkpt lat="48.51867" lon="-3.34625">
        <ele>155</ele>
        <time>2022-04-06T09:14:38.181Z</time>
      </trkpt>
      <trkpt lat="48.51865" lon="-3.34619">
        <ele>155</ele>
        <time>2022-04-06T09:14:42.183Z</time>
      </trkpt>
      <trkpt lat="48.51857" lon="-3.34617">
        <ele>155</ele>
        <time>2022-04-06T09:14:47.182Z</time>
      </trkpt>
      <trkpt lat="48.51851" lon="-3.34616">
        <ele>155</ele>
        <time>2022-04-06T09:14:52.180Z</time>
      </trkpt>
      <trkpt lat="48.51848" lon="-3.34614">
        <ele>155</ele>
        <time>2022-04-06T09:14:56.182Z</time>
      </trkpt>
      <trkpt lat="48.51846" lon="-3.3461">
        <ele>155</ele>
        <time>2022-04-06T09:15:00.168Z</time>
      </trkpt>
      <trkpt lat="48.51843" lon="-3.34607">
        <ele>155</ele>
        <time>2022-04-06T09:15:05.184Z</time>
      </trkpt>
      <trkpt lat="48.51843" lon="-3.34603">
        <ele>155</ele>
        <time>2022-04-06T09:15:24.188Z</time>
      </trkpt>
      <trkpt lat="48.51845" lon="-3.34597">
        <ele>158</ele>
        <time>2022-04-06T09:15:29.171Z</time>
      </trkpt>
      <trkpt lat="48.51848" lon="-3.34589">
        <ele>158</ele>
        <time>2022-04-06T09:15:34.173Z</time>
      </trkpt>
      <trkpt lat="48.51851" lon="-3.34584">
        <ele>158</ele>
        <time>2022-04-06T09:15:39.185Z</time>
      </trkpt>
      <trkpt lat="48.51853" lon="-3.34577">
        <ele>158</ele>
        <time>2022-04-06T09:15:44.178Z</time>
      </trkpt>
      <trkpt lat="48.51851" lon="-3.34571">
        <ele>158</ele>
        <time>2022-04-06T09:15:48.184Z</time>
      </trkpt>
      <trkpt lat="48.51846" lon="-3.34565">
        <ele>159</ele>
        <time>2022-04-06T09:15:53.175Z</time>
      </trkpt>
      <trkpt lat="48.51844" lon="-3.3456">
        <ele>159</ele>
        <time>2022-04-06T09:15:57.183Z</time>
      </trkpt>
      <trkpt lat="48.51839" lon="-3.34556">
        <ele>159</ele>
        <time>2022-04-06T09:16:02.181Z</time>
      </trkpt>
      <trkpt lat="48.51834" lon="-3.34552">
        <ele>159</ele>
        <time>2022-04-06T09:16:07.181Z</time>
      </trkpt>
      <trkpt lat="48.51833" lon="-3.34546">
        <ele>159</ele>
        <time>2022-04-06T09:16:12.185Z</time>
      </trkpt>
      <trkpt lat="48.51833" lon="-3.34539">
        <ele>158</ele>
        <time>2022-04-06T09:16:17.182Z</time>
      </trkpt>
      <trkpt lat="48.51833" lon="-3.34534">
        <ele>158</ele>
        <time>2022-04-06T09:16:21.187Z</time>
      </trkpt>
      <trkpt lat="48.51832" lon="-3.34529">
        <ele>158</ele>
        <time>2022-04-06T09:16:26.171Z</time>
      </trkpt>
      <trkpt lat="48.5183" lon="-3.34525">
        <ele>158</ele>
        <time>2022-04-06T09:16:30.181Z</time>
      </trkpt>
      <trkpt lat="48.51829" lon="-3.34519">
        <ele>158</ele>
        <time>2022-04-06T09:16:35.172Z</time>
      </trkpt>
      <trkpt lat="48.51831" lon="-3.34515">
        <ele>158</ele>
        <time>2022-04-06T09:16:40.182Z</time>
      </trkpt>
      <trkpt lat="48.51832" lon="-3.34514">
        <ele>158</ele>
        <time>2022-04-06T09:16:45.171Z</time>
      </trkpt>
      <trkpt lat="48.51833" lon="-3.34509">
        <ele>159</ele>
        <time>2022-04-06T09:16:49.180Z</time>
      </trkpt>
      <trkpt lat="48.51835" lon="-3.34504">
        <ele>159</ele>
        <time>2022-04-06T09:16:54.170Z</time>
      </trkpt>
      <trkpt lat="48.51832" lon="-3.345">
        <ele>159</ele>
        <time>2022-04-06T09:16:58.186Z</time>
      </trkpt>
      <trkpt lat="48.51826" lon="-3.34497">
        <ele>159</ele>
        <time>2022-04-06T09:17:03.170Z</time>
      </trkpt>
      <trkpt lat="48.51823" lon="-3.34492">
        <ele>159</ele>
        <time>2022-04-06T09:17:08.181Z</time>
      </trkpt>
      <trkpt lat="48.51823" lon="-3.34489">
        <ele>159</ele>
        <time>2022-04-06T09:17:12.183Z</time>
      </trkpt>
      <trkpt lat="48.51822" lon="-3.34484">
        <ele>161</ele>
        <time>2022-04-06T09:17:17.173Z</time>
      </trkpt>
      <trkpt lat="48.51822" lon="-3.34481">
        <ele>161</ele>
        <time>2022-04-06T09:17:21.186Z</time>
      </trkpt>
      <trkpt lat="48.51823" lon="-3.34476">
        <ele>161</ele>
        <time>2022-04-06T09:17:26.171Z</time>
      </trkpt>
      <trkpt lat="48.51824" lon="-3.3447">
        <ele>161</ele>
        <time>2022-04-06T09:17:31.186Z</time>
      </trkpt>
      <trkpt lat="48.51823" lon="-3.34467">
        <ele>161</ele>
        <time>2022-04-06T09:17:36.171Z</time>
      </trkpt>
      <trkpt lat="48.51821" lon="-3.34463">
        <ele>161</ele>
        <time>2022-04-06T09:17:40.170Z</time>
      </trkpt>
      <trkpt lat="48.51822" lon="-3.34458">
        <ele>163</ele>
        <time>2022-04-06T09:17:44.180Z</time>
      </trkpt>
      <trkpt lat="48.51821" lon="-3.34453">
        <ele>163</ele>
        <time>2022-04-06T09:17:49.170Z</time>
      </trkpt>
      <trkpt lat="48.51822" lon="-3.34449">
        <ele>163</ele>
        <time>2022-04-06T09:17:53.185Z</time>
      </trkpt>
      <trkpt lat="48.51818" lon="-3.34446">
        <ele>159</ele>
        <time>2022-04-06T09:18:02.186Z</time>
      </trkpt>
      <trkpt lat="48.51817" lon="-3.34446">
        <ele>159</ele>
        <time>2022-04-06T09:18:06.192Z</time>
      </trkpt>
      <trkpt lat="48.51816" lon="-3.34445">
        <ele>159</ele>
        <time>2022-04-06T09:18:11.190Z</time>
      </trkpt>
      <trkpt lat="48.51816" lon="-3.34442">
        <ele>159</ele>
        <time>2022-04-06T09:18:16.172Z</time>
      </trkpt>
      <trkpt lat="48.51814" lon="-3.3444">
        <ele>159</ele>
        <time>2022-04-06T09:18:20.192Z</time>
      </trkpt>
      <trkpt lat="48.51811" lon="-3.34432">
        <ele>159</ele>
        <time>2022-04-06T09:18:53.183Z</time>
      </trkpt>
      <trkpt lat="48.51812" lon="-3.34429">
        <ele>161</ele>
        <time>2022-04-06T09:18:58.171Z</time>
      </trkpt>
      <trkpt lat="48.51815" lon="-3.34426">
        <ele>161</ele>
        <time>2022-04-06T09:19:02.184Z</time>
      </trkpt>
      <trkpt lat="48.5182" lon="-3.34423">
        <ele>164</ele>
        <time>2022-04-06T09:19:07.173Z</time>
      </trkpt>
      <trkpt lat="48.51824" lon="-3.34422">
        <ele>164</ele>
        <time>2022-04-06T09:19:11.172Z</time>
      </trkpt>
      <trkpt lat="48.51828" lon="-3.34418">
        <ele>164</ele>
        <time>2022-04-06T09:19:15.181Z</time>
      </trkpt>
      <trkpt lat="48.51833" lon="-3.34413">
        <ele>164</ele>
        <time>2022-04-06T09:19:20.172Z</time>
      </trkpt>
      <trkpt lat="48.51836" lon="-3.34408">
        <ele>164</ele>
        <time>2022-04-06T09:19:24.180Z</time>
      </trkpt>
      <trkpt lat="48.51839" lon="-3.34404">
        <ele>164</ele>
        <time>2022-04-06T09:19:28.182Z</time>
      </trkpt>
      <trkpt lat="48.51843" lon="-3.34398">
        <ele>164</ele>
        <time>2022-04-06T09:19:33.175Z</time>
      </trkpt>
      <trkpt lat="48.51846" lon="-3.34393">
        <ele>164</ele>
        <time>2022-04-06T09:19:37.184Z</time>
      </trkpt>
      <trkpt lat="48.51851" lon="-3.34387">
        <ele>167</ele>
        <time>2022-04-06T09:19:42.180Z</time>
      </trkpt>
      <trkpt lat="48.51854" lon="-3.34383">
        <ele>167</ele>
        <time>2022-04-06T09:19:46.181Z</time>
      </trkpt>
      <trkpt lat="48.51858" lon="-3.34376">
        <ele>167</ele>
        <time>2022-04-06T09:19:51.178Z</time>
      </trkpt>
      <trkpt lat="48.51863" lon="-3.3437">
        <ele>167</ele>
        <time>2022-04-06T09:19:56.173Z</time>
      </trkpt>
      <trkpt lat="48.51866" lon="-3.34366">
        <ele>167</ele>
        <time>2022-04-06T09:20:00.180Z</time>
      </trkpt>
      <trkpt lat="48.5187" lon="-3.34361">
        <ele>167</ele>
        <time>2022-04-06T09:20:05.180Z</time>
      </trkpt>
      <trkpt lat="48.51868" lon="-3.34354">
        <ele>167</ele>
        <time>2022-04-06T09:20:42.167Z</time>
      </trkpt>
      <trkpt lat="48.51868" lon="-3.34354">
        <ele>167</ele>
        <time>2022-04-06T09:20:46.181Z</time>
      </trkpt>
      <trkpt lat="48.51868" lon="-3.34353">
        <ele>167</ele>
        <time>2022-04-06T09:20:50.177Z</time>
      </trkpt>
      <trkpt lat="48.51873" lon="-3.3435">
        <ele>167</ele>
        <time>2022-04-06T09:20:55.178Z</time>
      </trkpt>
      <trkpt lat="48.51876" lon="-3.34346">
        <ele>171</ele>
        <time>2022-04-06T09:20:59.183Z</time>
      </trkpt>
      <trkpt lat="48.51879" lon="-3.34342">
        <ele>171</ele>
        <time>2022-04-06T09:21:04.171Z</time>
      </trkpt>
      <trkpt lat="48.51883" lon="-3.34338">
        <ele>171</ele>
        <time>2022-04-06T09:21:09.178Z</time>
      </trkpt>
      <trkpt lat="48.51886" lon="-3.34335">
        <ele>171</ele>
        <time>2022-04-06T09:21:13.188Z</time>
      </trkpt>
      <trkpt lat="48.51889" lon="-3.34331">
        <ele>171</ele>
        <time>2022-04-06T09:21:18.174Z</time>
      </trkpt>
      <trkpt lat="48.51892" lon="-3.34326">
        <ele>171</ele>
        <time>2022-04-06T09:21:23.169Z</time>
      </trkpt>
      <trkpt lat="48.51896" lon="-3.34322">
        <ele>171</ele>
        <time>2022-04-06T09:21:27.172Z</time>
      </trkpt>
      <trkpt lat="48.51899" lon="-3.34317">
        <ele>172</ele>
        <time>2022-04-06T09:21:32.175Z</time>
      </trkpt>
      <trkpt lat="48.51902" lon="-3.34313">
        <ele>172</ele>
        <time>2022-04-06T09:21:37.173Z</time>
      </trkpt>
      <trkpt lat="48.51905" lon="-3.34309">
        <ele>174</ele>
        <time>2022-04-06T09:21:42.171Z</time>
      </trkpt>
      <trkpt lat="48.51908" lon="-3.34304">
        <ele>174</ele>
        <time>2022-04-06T09:21:47.171Z</time>
      </trkpt>
      <trkpt lat="48.51911" lon="-3.34299">
        <ele>174</ele>
        <time>2022-04-06T09:21:51.173Z</time>
      </trkpt>
      <trkpt lat="48.51915" lon="-3.34294">
        <ele>174</ele>
        <time>2022-04-06T09:21:56.175Z</time>
      </trkpt>
      <trkpt lat="48.51918" lon="-3.3429">
        <ele>176</ele>
        <time>2022-04-06T09:22:00.173Z</time>
      </trkpt>
      <trkpt lat="48.51921" lon="-3.34286">
        <ele>176</ele>
        <time>2022-04-06T09:22:04.183Z</time>
      </trkpt>
      <trkpt lat="48.51924" lon="-3.34281">
        <ele>176</ele>
        <time>2022-04-06T09:22:09.177Z</time>
      </trkpt>
      <trkpt lat="48.51928" lon="-3.34278">
        <ele>176</ele>
        <time>2022-04-06T09:22:13.171Z</time>
      </trkpt>
      <trkpt lat="48.51931" lon="-3.34273">
        <ele>178</ele>
        <time>2022-04-06T09:22:18.172Z</time>
      </trkpt>
      <trkpt lat="48.51933" lon="-3.34268">
        <ele>178</ele>
        <time>2022-04-06T09:22:22.179Z</time>
      </trkpt>
      <trkpt lat="48.51937" lon="-3.34262">
        <ele>179</ele>
        <time>2022-04-06T09:22:27.176Z</time>
      </trkpt>
      <trkpt lat="48.51941" lon="-3.34257">
        <ele>179</ele>
        <time>2022-04-06T09:22:32.171Z</time>
      </trkpt>
      <trkpt lat="48.51944" lon="-3.34252">
        <ele>179</ele>
        <time>2022-04-06T09:22:36.176Z</time>
      </trkpt>
      <trkpt lat="48.51949" lon="-3.34249">
        <ele>179</ele>
        <time>2022-04-06T09:22:40.179Z</time>
      </trkpt>
      <trkpt lat="48.51953" lon="-3.34242">
        <ele>179</ele>
        <time>2022-04-06T09:22:45.171Z</time>
      </trkpt>
      <trkpt lat="48.51958" lon="-3.34236">
        <ele>179</ele>
        <time>2022-04-06T09:22:50.176Z</time>
      </trkpt>
      <trkpt lat="48.51962" lon="-3.34232">
        <ele>182</ele>
        <time>2022-04-06T09:22:55.172Z</time>
      </trkpt>
      <trkpt lat="48.51966" lon="-3.34226">
        <ele>182</ele>
        <time>2022-04-06T09:23:00.175Z</time>
      </trkpt>
      <trkpt lat="48.51971" lon="-3.34221">
        <ele>182</ele>
        <time>2022-04-06T09:23:05.171Z</time>
      </trkpt>
      <trkpt lat="48.51974" lon="-3.34216">
        <ele>182</ele>
        <time>2022-04-06T09:23:09.176Z</time>
      </trkpt>
      <trkpt lat="48.5198" lon="-3.34211">
        <ele>182</ele>
        <time>2022-04-06T09:23:14.178Z</time>
      </trkpt>
      <trkpt lat="48.51983" lon="-3.34205">
        <ele>183</ele>
        <time>2022-04-06T09:23:19.171Z</time>
      </trkpt>
      <trkpt lat="48.51986" lon="-3.342">
        <ele>183</ele>
        <time>2022-04-06T09:23:23.173Z</time>
      </trkpt>
      <trkpt lat="48.5199" lon="-3.34195">
        <ele>184</ele>
        <time>2022-04-06T09:23:28.175Z</time>
      </trkpt>
      <trkpt lat="48.51993" lon="-3.34191">
        <ele>184</ele>
        <time>2022-04-06T09:23:32.181Z</time>
      </trkpt>
      <trkpt lat="48.51997" lon="-3.34185">
        <ele>184</ele>
        <time>2022-04-06T09:23:37.174Z</time>
      </trkpt>
      <trkpt lat="48.52001" lon="-3.34179">
        <ele>185</ele>
        <time>2022-04-06T09:23:42.176Z</time>
      </trkpt>
      <trkpt lat="48.52005" lon="-3.34174">
        <ele>185</ele>
        <time>2022-04-06T09:23:47.172Z</time>
      </trkpt>
      <trkpt lat="48.52009" lon="-3.3417">
        <ele>185</ele>
        <time>2022-04-06T09:23:51.173Z</time>
      </trkpt>
      <trkpt lat="48.52013" lon="-3.34165">
        <ele>185</ele>
        <time>2022-04-06T09:23:56.174Z</time>
      </trkpt>
      <trkpt lat="48.52017" lon="-3.34161">
        <ele>186</ele>
        <time>2022-04-06T09:24:01.177Z</time>
      </trkpt>
      <trkpt lat="48.52021" lon="-3.34154">
        <ele>186</ele>
        <time>2022-04-06T09:24:06.180Z</time>
      </trkpt>
      <trkpt lat="48.52026" lon="-3.34148">
        <ele>187</ele>
        <time>2022-04-06T09:24:11.171Z</time>
      </trkpt>
      <trkpt lat="48.5203" lon="-3.34143">
        <ele>187</ele>
        <time>2022-04-06T09:24:15.173Z</time>
      </trkpt>
      <trkpt lat="48.52034" lon="-3.34137">
        <ele>187</ele>
        <time>2022-04-06T09:24:20.172Z</time>
      </trkpt>
      <trkpt lat="48.52038" lon="-3.34133">
        <ele>187</ele>
        <time>2022-04-06T09:24:24.176Z</time>
      </trkpt>
      <trkpt lat="48.52042" lon="-3.34127">
        <ele>187</ele>
        <time>2022-04-06T09:24:29.171Z</time>
      </trkpt>
      <trkpt lat="48.52046" lon="-3.34121">
        <ele>188</ele>
        <time>2022-04-06T09:24:34.173Z</time>
      </trkpt>
      <trkpt lat="48.52051" lon="-3.34116">
        <ele>188</ele>
        <time>2022-04-06T09:24:39.172Z</time>
      </trkpt>
      <trkpt lat="48.52055" lon="-3.34111">
        <ele>188</ele>
        <time>2022-04-06T09:24:43.172Z</time>
      </trkpt>
      <trkpt lat="48.52059" lon="-3.34104">
        <ele>188</ele>
        <time>2022-04-06T09:24:48.176Z</time>
      </trkpt>
      <trkpt lat="48.52064" lon="-3.34099">
        <ele>188</ele>
        <time>2022-04-06T09:24:53.173Z</time>
      </trkpt>
      <trkpt lat="48.52068" lon="-3.34095">
        <ele>190</ele>
        <time>2022-04-06T09:24:57.173Z</time>
      </trkpt>
      <trkpt lat="48.52072" lon="-3.34091">
        <ele>190</ele>
        <time>2022-04-06T09:25:01.173Z</time>
      </trkpt>
      <trkpt lat="48.52076" lon="-3.34086">
        <ele>190</ele>
        <time>2022-04-06T09:25:06.173Z</time>
      </trkpt>
      <trkpt lat="48.5208" lon="-3.34081">
        <ele>190</ele>
        <time>2022-04-06T09:25:11.171Z</time>
      </trkpt>
      <trkpt lat="48.52083" lon="-3.34076">
        <ele>190</ele>
        <time>2022-04-06T09:25:15.173Z</time>
      </trkpt>
      <trkpt lat="48.52087" lon="-3.34072">
        <ele>190</ele>
        <time>2022-04-06T09:25:19.173Z</time>
      </trkpt>
      <trkpt lat="48.52092" lon="-3.34066">
        <ele>192</ele>
        <time>2022-04-06T09:25:24.173Z</time>
      </trkpt>
      <trkpt lat="48.52095" lon="-3.34061">
        <ele>192</ele>
        <time>2022-04-06T09:25:28.174Z</time>
      </trkpt>
      <trkpt lat="48.52098" lon="-3.34052">
        <ele>191</ele>
        <time>2022-04-06T09:25:33.173Z</time>
      </trkpt>
      <trkpt lat="48.52096" lon="-3.34044">
        <ele>192</ele>
        <time>2022-04-06T09:25:38.171Z</time>
      </trkpt>
      <trkpt lat="48.52094" lon="-3.34037">
        <ele>193</ele>
        <time>2022-04-06T09:25:42.175Z</time>
      </trkpt>
      <trkpt lat="48.52089" lon="-3.34034">
        <ele>193</ele>
        <time>2022-04-06T09:25:46.167Z</time>
      </trkpt>
      <trkpt lat="48.52083" lon="-3.34032">
        <ele>193</ele>
        <time>2022-04-06T09:25:51.180Z</time>
      </trkpt>
      <trkpt lat="48.52077" lon="-3.34031">
        <ele>193</ele>
        <time>2022-04-06T09:25:56.171Z</time>
      </trkpt>
      <trkpt lat="48.52057" lon="-3.34053">
        <ele>193</ele>
        <time>2022-04-06T09:27:52.165Z</time>
      </trkpt>
      <trkpt lat="48.52063" lon="-3.34048">
        <ele>193</ele>
        <time>2022-04-06T09:27:57.176Z</time>
      </trkpt>
      <trkpt lat="48.52065" lon="-3.34047">
        <ele>193</ele>
        <time>2022-04-06T09:28:01.196Z</time>
      </trkpt>
      <trkpt lat="48.52065" lon="-3.34046">
        <ele>193</ele>
        <time>2022-04-06T09:28:06.176Z</time>
      </trkpt>
      <trkpt lat="48.52069" lon="-3.34043">
        <ele>193</ele>
        <time>2022-04-06T09:47:24.170Z</time>
      </trkpt>
      <trkpt lat="48.52069" lon="-3.34043">
        <ele>193</ele>
        <time>2022-04-06T09:47:28.170Z</time>
      </trkpt>
      <trkpt lat="48.5207" lon="-3.3404">
        <ele>193</ele>
        <time>2022-04-06T09:47:33.171Z</time>
      </trkpt>
      <trkpt lat="48.5207" lon="-3.34036">
        <ele>193</ele>
        <time>2022-04-06T09:47:37.168Z</time>
      </trkpt>
      <trkpt lat="48.52067" lon="-3.34031">
        <ele>193</ele>
        <time>2022-04-06T09:47:42.169Z</time>
      </trkpt>
      <trkpt lat="48.52063" lon="-3.34028">
        <ele>193</ele>
        <time>2022-04-06T09:47:46.172Z</time>
      </trkpt>
      <trkpt lat="48.52063" lon="-3.34022">
        <ele>193</ele>
        <time>2022-04-06T09:47:51.169Z</time>
      </trkpt>
      <trkpt lat="48.52058" lon="-3.34024">
        <ele>193</ele>
        <time>2022-04-06T09:47:56.168Z</time>
      </trkpt>
      <trkpt lat="48.5205" lon="-3.34025">
        <ele>193</ele>
        <time>2022-04-06T09:48:01.170Z</time>
      </trkpt>
      <trkpt lat="48.52045" lon="-3.34025">
        <ele>193</ele>
        <time>2022-04-06T09:48:05.171Z</time>
      </trkpt>
      <trkpt lat="48.5204" lon="-3.34021">
        <ele>192</ele>
        <time>2022-04-06T09:48:10.173Z</time>
      </trkpt>
      <trkpt lat="48.52035" lon="-3.34018">
        <ele>192</ele>
        <time>2022-04-06T09:48:15.176Z</time>
      </trkpt>
      <trkpt lat="48.5203" lon="-3.34022">
        <ele>192</ele>
        <time>2022-04-06T09:48:20.175Z</time>
      </trkpt>
      <trkpt lat="48.52023" lon="-3.34026">
        <ele>192</ele>
        <time>2022-04-06T09:48:25.168Z</time>
      </trkpt>
      <trkpt lat="48.52016" lon="-3.34029">
        <ele>192</ele>
        <time>2022-04-06T09:48:29.169Z</time>
      </trkpt>
      <trkpt lat="48.5201" lon="-3.3403">
        <ele>189</ele>
        <time>2022-04-06T09:48:33.175Z</time>
      </trkpt>
      <trkpt lat="48.52005" lon="-3.34023">
        <ele>189</ele>
        <time>2022-04-06T09:48:38.172Z</time>
      </trkpt>
      <trkpt lat="48.52002" lon="-3.34019">
        <ele>189</ele>
        <time>2022-04-06T09:48:43.175Z</time>
      </trkpt>
      <trkpt lat="48.51996" lon="-3.34018">
        <ele>189</ele>
        <time>2022-04-06T09:48:48.168Z</time>
      </trkpt>
      <trkpt lat="48.51992" lon="-3.34016">
        <ele>189</ele>
        <time>2022-04-06T09:48:52.179Z</time>
      </trkpt>
      <trkpt lat="48.51984" lon="-3.34014">
        <ele>186</ele>
        <time>2022-04-06T09:48:57.169Z</time>
      </trkpt>
      <trkpt lat="48.51977" lon="-3.34007">
        <ele>187</ele>
        <time>2022-04-06T09:49:01.178Z</time>
      </trkpt>
      <trkpt lat="48.51971" lon="-3.34005">
        <ele>187</ele>
        <time>2022-04-06T09:49:06.176Z</time>
      </trkpt>
      <trkpt lat="48.51966" lon="-3.34002">
        <ele>187</ele>
        <time>2022-04-06T09:49:11.178Z</time>
      </trkpt>
      <trkpt lat="48.51961" lon="-3.34">
        <ele>187</ele>
        <time>2022-04-06T09:49:16.182Z</time>
      </trkpt>
      <trkpt lat="48.51959" lon="-3.33997">
        <ele>187</ele>
        <time>2022-04-06T09:49:21.176Z</time>
      </trkpt>
      <trkpt lat="48.51953" lon="-3.33997">
        <ele>184</ele>
        <time>2022-04-06T09:49:26.167Z</time>
      </trkpt>
      <trkpt lat="48.51949" lon="-3.33991">
        <ele>184</ele>
        <time>2022-04-06T09:49:31.169Z</time>
      </trkpt>
      <trkpt lat="48.51946" lon="-3.33988">
        <ele>184</ele>
        <time>2022-04-06T09:49:35.170Z</time>
      </trkpt>
      <trkpt lat="48.51936" lon="-3.3399">
        <ele>184</ele>
        <time>2022-04-06T09:49:40.171Z</time>
      </trkpt>
      <trkpt lat="48.51931" lon="-3.33991">
        <ele>184</ele>
        <time>2022-04-06T09:49:44.174Z</time>
      </trkpt>
      <trkpt lat="48.51927" lon="-3.33992">
        <ele>181</ele>
        <time>2022-04-06T09:49:49.171Z</time>
      </trkpt>
      <trkpt lat="48.51922" lon="-3.33992">
        <ele>181</ele>
        <time>2022-04-06T09:49:53.170Z</time>
      </trkpt>
      <trkpt lat="48.51917" lon="-3.33992">
        <ele>181</ele>
        <time>2022-04-06T09:49:58.167Z</time>
      </trkpt>
      <trkpt lat="48.5191" lon="-3.33993">
        <ele>181</ele>
        <time>2022-04-06T09:50:03.170Z</time>
      </trkpt>
      <trkpt lat="48.51903" lon="-3.33995">
        <ele>180</ele>
        <time>2022-04-06T09:50:08.169Z</time>
      </trkpt>
      <trkpt lat="48.51896" lon="-3.33995">
        <ele>180</ele>
        <time>2022-04-06T09:50:13.168Z</time>
      </trkpt>
      <trkpt lat="48.51893" lon="-3.3399">
        <ele>180</ele>
        <time>2022-04-06T09:50:17.173Z</time>
      </trkpt>
      <trkpt lat="48.51889" lon="-3.33989">
        <ele>180</ele>
        <time>2022-04-06T09:50:22.170Z</time>
      </trkpt>
      <trkpt lat="48.51887" lon="-3.33987">
        <ele>180</ele>
        <time>2022-04-06T09:50:27.181Z</time>
      </trkpt>
      <trkpt lat="48.51881" lon="-3.33985">
        <ele>181</ele>
        <time>2022-04-06T09:50:32.174Z</time>
      </trkpt>
      <trkpt lat="48.51875" lon="-3.3398">
        <ele>181</ele>
        <time>2022-04-06T09:50:36.173Z</time>
      </trkpt>
      <trkpt lat="48.5187" lon="-3.33978">
        <ele>179</ele>
        <time>2022-04-06T09:50:41.177Z</time>
      </trkpt>
      <trkpt lat="48.51863" lon="-3.33974">
        <ele>179</ele>
        <time>2022-04-06T09:50:46.173Z</time>
      </trkpt>
      <trkpt lat="48.51855" lon="-3.33972">
        <ele>179</ele>
        <time>2022-04-06T09:50:51.173Z</time>
      </trkpt>
      <trkpt lat="48.51847" lon="-3.33972">
        <ele>179</ele>
        <time>2022-04-06T09:50:56.173Z</time>
      </trkpt>
      <trkpt lat="48.5184" lon="-3.33972">
        <ele>177</ele>
        <time>2022-04-06T09:51:01.177Z</time>
      </trkpt>
      <trkpt lat="48.51834" lon="-3.33971">
        <ele>177</ele>
        <time>2022-04-06T09:51:06.169Z</time>
      </trkpt>
      <trkpt lat="48.51831" lon="-3.33973">
        <ele>177</ele>
        <time>2022-04-06T09:51:10.174Z</time>
      </trkpt>
      <trkpt lat="48.51825" lon="-3.33971">
        <ele>177</ele>
        <time>2022-04-06T09:51:15.170Z</time>
      </trkpt>
      <trkpt lat="48.5182" lon="-3.33962">
        <ele>177</ele>
        <time>2022-04-06T09:51:20.170Z</time>
      </trkpt>
      <trkpt lat="48.51816" lon="-3.33959">
        <ele>175</ele>
        <time>2022-04-06T09:51:25.172Z</time>
      </trkpt>
      <trkpt lat="48.51811" lon="-3.33961">
        <ele>175</ele>
        <time>2022-04-06T09:51:30.166Z</time>
      </trkpt>
      <trkpt lat="48.51803" lon="-3.33959">
        <ele>175</ele>
        <time>2022-04-06T09:51:35.169Z</time>
      </trkpt>
      <trkpt lat="48.51799" lon="-3.33958">
        <ele>176</ele>
        <time>2022-04-06T09:51:39.171Z</time>
      </trkpt>
      <trkpt lat="48.51793" lon="-3.33956">
        <ele>176</ele>
        <time>2022-04-06T09:51:44.172Z</time>
      </trkpt>
      <trkpt lat="48.51787" lon="-3.33953">
        <ele>175</ele>
        <time>2022-04-06T09:51:49.168Z</time>
      </trkpt>
      <trkpt lat="48.51782" lon="-3.33953">
        <ele>175</ele>
        <time>2022-04-06T09:51:53.173Z</time>
      </trkpt>
      <trkpt lat="48.51775" lon="-3.33953">
        <ele>175</ele>
        <time>2022-04-06T09:51:58.171Z</time>
      </trkpt>
      <trkpt lat="48.5177" lon="-3.3395">
        <ele>175</ele>
        <time>2022-04-06T09:52:02.171Z</time>
      </trkpt>
      <trkpt lat="48.51761" lon="-3.3395">
        <ele>173</ele>
        <time>2022-04-06T09:52:07.170Z</time>
      </trkpt>
      <trkpt lat="48.51754" lon="-3.3395">
        <ele>173</ele>
        <time>2022-04-06T09:52:12.172Z</time>
      </trkpt>
      <trkpt lat="48.5175" lon="-3.3395">
        <ele>173</ele>
        <time>2022-04-06T09:52:17.169Z</time>
      </trkpt>
      <trkpt lat="48.51747" lon="-3.33951">
        <ele>173</ele>
        <time>2022-04-06T09:52:22.171Z</time>
      </trkpt>
      <trkpt lat="48.51745" lon="-3.33949">
        <ele>173</ele>
        <time>2022-04-06T09:52:26.174Z</time>
      </trkpt>
      <trkpt lat="48.5174" lon="-3.33943">
        <ele>173</ele>
        <time>2022-04-06T09:52:31.171Z</time>
      </trkpt>
      <trkpt lat="48.51734" lon="-3.33936">
        <ele>172</ele>
        <time>2022-04-06T09:52:36.174Z</time>
      </trkpt>
      <trkpt lat="48.51729" lon="-3.33933">
        <ele>172</ele>
        <time>2022-04-06T09:52:41.170Z</time>
      </trkpt>
      <trkpt lat="48.51723" lon="-3.33933">
        <ele>172</ele>
        <time>2022-04-06T09:52:45.168Z</time>
      </trkpt>
      <trkpt lat="48.51718" lon="-3.33932">
        <ele>172</ele>
        <time>2022-04-06T09:53:08.166Z</time>
      </trkpt>
      <trkpt lat="48.51711" lon="-3.33929">
        <ele>174</ele>
        <time>2022-04-06T09:53:13.171Z</time>
      </trkpt>
      <trkpt lat="48.5171" lon="-3.33924">
        <ele>174</ele>
        <time>2022-04-06T09:53:18.170Z</time>
      </trkpt>
      <trkpt lat="48.51707" lon="-3.33918">
        <ele>175</ele>
        <time>2022-04-06T09:53:23.174Z</time>
      </trkpt>
      <trkpt lat="48.51706" lon="-3.33915">
        <ele>175</ele>
        <time>2022-04-06T09:53:27.176Z</time>
      </trkpt>
      <trkpt lat="48.517" lon="-3.33915">
        <ele>175</ele>
        <time>2022-04-06T09:53:32.171Z</time>
      </trkpt>
      <trkpt lat="48.51694" lon="-3.33916">
        <ele>175</ele>
        <time>2022-04-06T09:53:37.180Z</time>
      </trkpt>
      <trkpt lat="48.51685" lon="-3.33918">
        <ele>175</ele>
        <time>2022-04-06T09:53:42.181Z</time>
      </trkpt>
      <trkpt lat="48.51679" lon="-3.33917">
        <ele>176</ele>
        <time>2022-04-06T09:53:47.179Z</time>
      </trkpt>
      <trkpt lat="48.51674" lon="-3.33921">
        <ele>176</ele>
        <time>2022-04-06T09:53:52.178Z</time>
      </trkpt>
      <trkpt lat="48.51669" lon="-3.33925">
        <ele>176</ele>
        <time>2022-04-06T09:53:57.178Z</time>
      </trkpt>
      <trkpt lat="48.51666" lon="-3.3392">
        <ele>176</ele>
        <time>2022-04-06T09:54:01.179Z</time>
      </trkpt>
      <trkpt lat="48.5166" lon="-3.33918">
        <ele>176</ele>
        <time>2022-04-06T09:54:06.179Z</time>
      </trkpt>
      <trkpt lat="48.51654" lon="-3.33921">
        <ele>176</ele>
        <time>2022-04-06T09:54:11.178Z</time>
      </trkpt>
      <trkpt lat="48.51647" lon="-3.33922">
        <ele>178</ele>
        <time>2022-04-06T09:54:16.187Z</time>
      </trkpt>
      <trkpt lat="48.5164" lon="-3.33925">
        <ele>178</ele>
        <time>2022-04-06T09:54:21.169Z</time>
      </trkpt>
      <trkpt lat="48.51634" lon="-3.33927">
        <ele>178</ele>
        <time>2022-04-06T09:54:26.170Z</time>
      </trkpt>
      <trkpt lat="48.51627" lon="-3.33926">
        <ele>178</ele>
        <time>2022-04-06T09:54:31.169Z</time>
      </trkpt>
      <trkpt lat="48.51619" lon="-3.33923">
        <ele>181</ele>
        <time>2022-04-06T09:54:36.167Z</time>
      </trkpt>
      <trkpt lat="48.51616" lon="-3.33917">
        <ele>181</ele>
        <time>2022-04-06T09:54:40.167Z</time>
      </trkpt>
      <trkpt lat="48.51614" lon="-3.3391">
        <ele>181</ele>
        <time>2022-04-06T09:54:45.165Z</time>
      </trkpt>
      <trkpt lat="48.51611" lon="-3.33906">
        <ele>181</ele>
        <time>2022-04-06T09:54:50.168Z</time>
      </trkpt>
      <trkpt lat="48.51608" lon="-3.33904">
        <ele>181</ele>
        <time>2022-04-06T09:54:54.181Z</time>
      </trkpt>
      <trkpt lat="48.51599" lon="-3.33904">
        <ele>181</ele>
        <time>2022-04-06T09:54:59.172Z</time>
      </trkpt>
      <trkpt lat="48.51593" lon="-3.33906">
        <ele>182</ele>
        <time>2022-04-06T09:55:03.179Z</time>
      </trkpt>
      <trkpt lat="48.51588" lon="-3.33907">
        <ele>182</ele>
        <time>2022-04-06T09:55:08.178Z</time>
      </trkpt>
      <trkpt lat="48.51585" lon="-3.33908">
        <ele>182</ele>
        <time>2022-04-06T09:55:12.172Z</time>
      </trkpt>
      <trkpt lat="48.51582" lon="-3.33904">
        <ele>182</ele>
        <time>2022-04-06T09:55:16.181Z</time>
      </trkpt>
      <trkpt lat="48.51577" lon="-3.33898">
        <ele>183</ele>
        <time>2022-04-06T09:55:21.167Z</time>
      </trkpt>
      <trkpt lat="48.51572" lon="-3.33895">
        <ele>183</ele>
        <time>2022-04-06T09:55:25.182Z</time>
      </trkpt>
      <trkpt lat="48.51565" lon="-3.33895">
        <ele>184</ele>
        <time>2022-04-06T09:55:30.171Z</time>
      </trkpt>
      <trkpt lat="48.5156" lon="-3.33894">
        <ele>184</ele>
        <time>2022-04-06T09:55:35.171Z</time>
      </trkpt>
      <trkpt lat="48.51554" lon="-3.33891">
        <ele>184</ele>
        <time>2022-04-06T09:55:40.171Z</time>
      </trkpt>
      <trkpt lat="48.51547" lon="-3.33888">
        <ele>184</ele>
        <time>2022-04-06T09:55:45.177Z</time>
      </trkpt>
      <trkpt lat="48.51541" lon="-3.33886">
        <ele>186</ele>
        <time>2022-04-06T09:55:50.168Z</time>
      </trkpt>
      <trkpt lat="48.51538" lon="-3.33883">
        <ele>186</ele>
        <time>2022-04-06T09:55:54.177Z</time>
      </trkpt>
      <trkpt lat="48.51533" lon="-3.33881">
        <ele>186</ele>
        <time>2022-04-06T09:55:59.172Z</time>
      </trkpt>
      <trkpt lat="48.51525" lon="-3.33883">
        <ele>186</ele>
        <time>2022-04-06T09:56:04.171Z</time>
      </trkpt>
      <trkpt lat="48.5152" lon="-3.33881">
        <ele>186</ele>
        <time>2022-04-06T09:56:08.172Z</time>
      </trkpt>
      <trkpt lat="48.51516" lon="-3.33877">
        <ele>186</ele>
        <time>2022-04-06T09:56:13.173Z</time>
      </trkpt>
      <trkpt lat="48.5151" lon="-3.33877">
        <ele>185</ele>
        <time>2022-04-06T09:56:18.169Z</time>
      </trkpt>
      <trkpt lat="48.51504" lon="-3.33878">
        <ele>185</ele>
        <time>2022-04-06T09:56:22.175Z</time>
      </trkpt>
      <trkpt lat="48.51499" lon="-3.33875">
        <ele>184</ele>
        <time>2022-04-06T09:56:27.170Z</time>
      </trkpt>
      <trkpt lat="48.51491" lon="-3.33868">
        <ele>184</ele>
        <time>2022-04-06T09:56:32.171Z</time>
      </trkpt>
      <trkpt lat="48.51486" lon="-3.33866">
        <ele>183</ele>
        <time>2022-04-06T09:56:36.172Z</time>
      </trkpt>
      <trkpt lat="48.51479" lon="-3.33867">
        <ele>183</ele>
        <time>2022-04-06T09:56:41.170Z</time>
      </trkpt>
      <trkpt lat="48.51474" lon="-3.33865">
        <ele>183</ele>
        <time>2022-04-06T09:56:45.178Z</time>
      </trkpt>
      <trkpt lat="48.51468" lon="-3.33865">
        <ele>183</ele>
        <time>2022-04-06T09:56:50.172Z</time>
      </trkpt>
      <trkpt lat="48.51462" lon="-3.33866">
        <ele>183</ele>
        <time>2022-04-06T09:56:55.172Z</time>
      </trkpt>
      <trkpt lat="48.51457" lon="-3.33863">
        <ele>183</ele>
        <time>2022-04-06T09:57:00.173Z</time>
      </trkpt>
      <trkpt lat="48.51451" lon="-3.33861">
        <ele>183</ele>
        <time>2022-04-06T09:57:04.171Z</time>
      </trkpt>
      <trkpt lat="48.51446" lon="-3.33854">
        <ele>183</ele>
        <time>2022-04-06T09:57:09.165Z</time>
      </trkpt>
      <trkpt lat="48.51441" lon="-3.33852">
        <ele>183</ele>
        <time>2022-04-06T09:57:13.182Z</time>
      </trkpt>
      <trkpt lat="48.51434" lon="-3.3385">
        <ele>183</ele>
        <time>2022-04-06T09:57:18.173Z</time>
      </trkpt>
      <trkpt lat="48.51427" lon="-3.33851">
        <ele>179</ele>
        <time>2022-04-06T09:57:23.169Z</time>
      </trkpt>
      <trkpt lat="48.51421" lon="-3.33852">
        <ele>179</ele>
        <time>2022-04-06T09:57:27.175Z</time>
      </trkpt>
      <trkpt lat="48.51414" lon="-3.33855">
        <ele>179</ele>
        <time>2022-04-06T09:57:32.168Z</time>
      </trkpt>
      <trkpt lat="48.51411" lon="-3.33856">
        <ele>179</ele>
        <time>2022-04-06T09:57:36.170Z</time>
      </trkpt>
      <trkpt lat="48.51406" lon="-3.33854">
        <ele>179</ele>
        <time>2022-04-06T09:57:41.168Z</time>
      </trkpt>
      <trkpt lat="48.51403" lon="-3.33845">
        <ele>172</ele>
        <time>2022-04-06T09:57:46.174Z</time>
      </trkpt>
      <trkpt lat="48.51398" lon="-3.33842">
        <ele>172</ele>
        <time>2022-04-06T09:57:51.173Z</time>
      </trkpt>
      <trkpt lat="48.51392" lon="-3.33843">
        <ele>172</ele>
        <time>2022-04-06T09:57:56.168Z</time>
      </trkpt>
      <trkpt lat="48.51389" lon="-3.33851">
        <ele>175</ele>
        <time>2022-04-06T09:58:01.168Z</time>
      </trkpt>
      <trkpt lat="48.51389" lon="-3.33854">
        <ele>175</ele>
        <time>2022-04-06T09:58:05.171Z</time>
      </trkpt>
      <trkpt lat="48.51387" lon="-3.33858">
        <ele>175</ele>
        <time>2022-04-06T09:58:10.169Z</time>
      </trkpt>
      <trkpt lat="48.51382" lon="-3.33863">
        <ele>175</ele>
        <time>2022-04-06T09:58:14.176Z</time>
      </trkpt>
      <trkpt lat="48.51379" lon="-3.33863">
        <ele>175</ele>
        <time>2022-04-06T09:58:19.171Z</time>
      </trkpt>
      <trkpt lat="48.51374" lon="-3.33867">
        <ele>168</ele>
        <time>2022-04-06T09:58:24.181Z</time>
      </trkpt>
      <trkpt lat="48.51369" lon="-3.33875">
        <ele>168</ele>
        <time>2022-04-06T09:58:29.180Z</time>
      </trkpt>
      <trkpt lat="48.51366" lon="-3.33883">
        <ele>171</ele>
        <time>2022-04-06T09:58:34.167Z</time>
      </trkpt>
      <trkpt lat="48.51361" lon="-3.33894">
        <ele>171</ele>
        <time>2022-04-06T09:58:39.174Z</time>
      </trkpt>
      <trkpt lat="48.51358" lon="-3.33901">
        <ele>171</ele>
        <time>2022-04-06T09:58:44.176Z</time>
      </trkpt>
      <trkpt lat="48.51355" lon="-3.33909">
        <ele>173</ele>
        <time>2022-04-06T09:58:49.170Z</time>
      </trkpt>
      <trkpt lat="48.51351" lon="-3.33917">
        <ele>173</ele>
        <time>2022-04-06T09:58:53.249Z</time>
      </trkpt>
      <trkpt lat="48.51355" lon="-3.33927">
        <ele>173</ele>
        <time>2022-04-06T09:58:58.170Z</time>
      </trkpt>
      <trkpt lat="48.51352" lon="-3.33936">
        <ele>175</ele>
        <time>2022-04-06T09:59:03.169Z</time>
      </trkpt>
      <trkpt lat="48.51349" lon="-3.33939">
        <ele>175</ele>
        <time>2022-04-06T09:59:08.183Z</time>
      </trkpt>
      <trkpt lat="48.51346" lon="-3.33949">
        <ele>169</ele>
        <time>2022-04-06T09:59:13.170Z</time>
      </trkpt>
      <trkpt lat="48.5134" lon="-3.33956">
        <ele>169</ele>
        <time>2022-04-06T09:59:18.161Z</time>
      </trkpt>
      <trkpt lat="48.51336" lon="-3.33958">
        <ele>169</ele>
        <time>2022-04-06T09:59:22.169Z</time>
      </trkpt>
      <trkpt lat="48.51333" lon="-3.33963">
        <ele>172</ele>
        <time>2022-04-06T09:59:26.176Z</time>
      </trkpt>
      <trkpt lat="48.51329" lon="-3.33966">
        <ele>172</ele>
        <time>2022-04-06T09:59:31.171Z</time>
      </trkpt>
      <trkpt lat="48.51326" lon="-3.33971">
        <ele>172</ele>
        <time>2022-04-06T09:59:35.173Z</time>
      </trkpt>
      <trkpt lat="48.51322" lon="-3.33971">
        <ele>172</ele>
        <time>2022-04-06T09:59:40.171Z</time>
      </trkpt>
      <trkpt lat="48.51318" lon="-3.33969">
        <ele>168</ele>
        <time>2022-04-06T09:59:45.175Z</time>
      </trkpt>
      <trkpt lat="48.51314" lon="-3.33971">
        <ele>168</ele>
        <time>2022-04-06T09:59:50.170Z</time>
      </trkpt>
      <trkpt lat="48.51306" lon="-3.33974">
        <ele>168</ele>
        <time>2022-04-06T09:59:55.174Z</time>
      </trkpt>
      <trkpt lat="48.513" lon="-3.33978">
        <ele>168</ele>
        <time>2022-04-06T10:00:00.172Z</time>
      </trkpt>
      <trkpt lat="48.51297" lon="-3.33982">
        <ele>168</ele>
        <time>2022-04-06T10:00:05.176Z</time>
      </trkpt>
      <trkpt lat="48.51295" lon="-3.33983">
        <ele>168</ele>
        <time>2022-04-06T10:00:10.167Z</time>
      </trkpt>
      <trkpt lat="48.51297" lon="-3.33982">
        <ele>168</ele>
        <time>2022-04-06T10:00:14.170Z</time>
      </trkpt>
      <trkpt lat="48.51289" lon="-3.33986">
        <ele>166</ele>
        <time>2022-04-06T10:00:18.173Z</time>
      </trkpt>
      <trkpt lat="48.51282" lon="-3.33995">
        <ele>166</ele>
        <time>2022-04-06T10:00:23.165Z</time>
      </trkpt>
      <trkpt lat="48.51279" lon="-3.33999">
        <ele>166</ele>
        <time>2022-04-06T10:00:27.177Z</time>
      </trkpt>
      <trkpt lat="48.51274" lon="-3.34005">
        <ele>166</ele>
        <time>2022-04-06T10:00:32.176Z</time>
      </trkpt>
      <trkpt lat="48.51275" lon="-3.34016">
        <ele>167</ele>
        <time>2022-04-06T10:00:37.176Z</time>
      </trkpt>
      <trkpt lat="48.51273" lon="-3.34024">
        <ele>167</ele>
        <time>2022-04-06T10:00:42.171Z</time>
      </trkpt>
      <trkpt lat="48.51272" lon="-3.34031">
        <ele>167</ele>
        <time>2022-04-06T10:00:47.169Z</time>
      </trkpt>
      <trkpt lat="48.51268" lon="-3.34037">
        <ele>167</ele>
        <time>2022-04-06T10:00:51.179Z</time>
      </trkpt>
      <trkpt lat="48.51265" lon="-3.34044">
        <ele>168</ele>
        <time>2022-04-06T10:00:56.177Z</time>
      </trkpt>
      <trkpt lat="48.51263" lon="-3.34046">
        <ele>162</ele>
        <time>2022-04-06T10:01:00.182Z</time>
      </trkpt>
      <trkpt lat="48.51261" lon="-3.34053">
        <ele>162</ele>
        <time>2022-04-06T10:01:05.176Z</time>
      </trkpt>
      <trkpt lat="48.51262" lon="-3.34058">
        <ele>162</ele>
        <time>2022-04-06T10:01:10.163Z</time>
      </trkpt>
      <trkpt lat="48.51261" lon="-3.34062">
        <ele>162</ele>
        <time>2022-04-06T10:01:14.179Z</time>
      </trkpt>
      <trkpt lat="48.51257" lon="-3.34071">
        <ele>163</ele>
        <time>2022-04-06T10:01:19.178Z</time>
      </trkpt>
      <trkpt lat="48.51252" lon="-3.34091">
        <ele>163</ele>
        <time>2022-04-06T10:03:00.186Z</time>
      </trkpt>
      <trkpt lat="48.51253" lon="-3.34096">
        <ele>163</ele>
        <time>2022-04-06T10:03:05.176Z</time>
      </trkpt>
      <trkpt lat="48.51255" lon="-3.341">
        <ele>164</ele>
        <time>2022-04-06T10:03:10.172Z</time>
      </trkpt>
      <trkpt lat="48.51256" lon="-3.34105">
        <ele>164</ele>
        <time>2022-04-06T10:03:14.174Z</time>
      </trkpt>
      <trkpt lat="48.51252" lon="-3.34111">
        <ele>164</ele>
        <time>2022-04-06T10:03:19.168Z</time>
      </trkpt>
      <trkpt lat="48.51248" lon="-3.34116">
        <ele>164</ele>
        <time>2022-04-06T10:03:23.175Z</time>
      </trkpt>
      <trkpt lat="48.51242" lon="-3.34124">
        <ele>164</ele>
        <time>2022-04-06T10:03:28.177Z</time>
      </trkpt>
      <trkpt lat="48.51239" lon="-3.34127">
        <ele>166</ele>
        <time>2022-04-06T10:03:33.175Z</time>
      </trkpt>
      <trkpt lat="48.51236" lon="-3.34134">
        <ele>166</ele>
        <time>2022-04-06T10:03:38.176Z</time>
      </trkpt>
      <trkpt lat="48.51235" lon="-3.34144">
        <ele>162</ele>
        <time>2022-04-06T10:03:43.166Z</time>
      </trkpt>
      <trkpt lat="48.51233" lon="-3.34149">
        <ele>162</ele>
        <time>2022-04-06T10:03:47.169Z</time>
      </trkpt>
      <trkpt lat="48.51229" lon="-3.34156">
        <ele>163</ele>
        <time>2022-04-06T10:03:52.168Z</time>
      </trkpt>
      <trkpt lat="48.51227" lon="-3.34158">
        <ele>163</ele>
        <time>2022-04-06T10:03:56.172Z</time>
      </trkpt>
      <trkpt lat="48.5123" lon="-3.3416">
        <ele>163</ele>
        <time>2022-04-06T10:04:01.169Z</time>
      </trkpt>
      <trkpt lat="48.51232" lon="-3.34165">
        <ele>163</ele>
        <time>2022-04-06T10:04:05.169Z</time>
      </trkpt>
      <trkpt lat="48.51231" lon="-3.34177">
        <ele>163</ele>
        <time>2022-04-06T10:04:10.179Z</time>
      </trkpt>
      <trkpt lat="48.51227" lon="-3.34184">
        <ele>165</ele>
        <time>2022-04-06T10:04:15.174Z</time>
      </trkpt>
      <trkpt lat="48.51223" lon="-3.34188">
        <ele>165</ele>
        <time>2022-04-06T10:04:20.172Z</time>
      </trkpt>
      <trkpt lat="48.51222" lon="-3.34195">
        <ele>165</ele>
        <time>2022-04-06T10:04:25.174Z</time>
      </trkpt>
      <trkpt lat="48.51221" lon="-3.342">
        <ele>165</ele>
        <time>2022-04-06T10:04:30.179Z</time>
      </trkpt>
      <trkpt lat="48.5122" lon="-3.342">
        <ele>165</ele>
        <time>2022-04-06T10:04:35.172Z</time>
      </trkpt>
      <trkpt lat="48.51217" lon="-3.34207">
        <ele>165</ele>
        <time>2022-04-06T10:04:40.173Z</time>
      </trkpt>
      <trkpt lat="48.51216" lon="-3.34211">
        <ele>167</ele>
        <time>2022-04-06T10:04:45.171Z</time>
      </trkpt>
      <trkpt lat="48.51218" lon="-3.34214">
        <ele>167</ele>
        <time>2022-04-06T10:04:50.172Z</time>
      </trkpt>
      <trkpt lat="48.51223" lon="-3.34213">
        <ele>167</ele>
        <time>2022-04-06T10:04:55.173Z</time>
      </trkpt>
      <trkpt lat="48.5123" lon="-3.34215">
        <ele>167</ele>
        <time>2022-04-06T10:05:00.170Z</time>
      </trkpt>
      <trkpt lat="48.51235" lon="-3.3422">
        <ele>167</ele>
        <time>2022-04-06T10:05:05.171Z</time>
      </trkpt>
      <trkpt lat="48.51239" lon="-3.3422">
        <ele>172</ele>
        <time>2022-04-06T10:05:10.180Z</time>
      </trkpt>
      <trkpt lat="48.51242" lon="-3.34221">
        <ele>172</ele>
        <time>2022-04-06T10:05:15.176Z</time>
      </trkpt>
      <trkpt lat="48.51247" lon="-3.34224">
        <ele>172</ele>
        <time>2022-04-06T10:05:20.167Z</time>
      </trkpt>
      <trkpt lat="48.51249" lon="-3.34227">
        <ele>172</ele>
        <time>2022-04-06T10:05:24.174Z</time>
      </trkpt>
      <trkpt lat="48.51251" lon="-3.34231">
        <ele>172</ele>
        <time>2022-04-06T10:05:28.173Z</time>
      </trkpt>
      <trkpt lat="48.51254" lon="-3.34237">
        <ele>175</ele>
        <time>2022-04-06T10:05:33.177Z</time>
      </trkpt>
      <trkpt lat="48.51255" lon="-3.34243">
        <ele>175</ele>
        <time>2022-04-06T10:05:38.171Z</time>
      </trkpt>
      <trkpt lat="48.51252" lon="-3.34248">
        <ele>175</ele>
        <time>2022-04-06T10:05:42.176Z</time>
      </trkpt>
      <trkpt lat="48.51249" lon="-3.34252">
        <ele>175</ele>
        <time>2022-04-06T10:05:47.167Z</time>
      </trkpt>
      <trkpt lat="48.51246" lon="-3.34259">
        <ele>175</ele>
        <time>2022-04-06T10:05:52.172Z</time>
      </trkpt>
      <trkpt lat="48.51245" lon="-3.34265">
        <ele>177</ele>
        <time>2022-04-06T10:05:56.195Z</time>
      </trkpt>
      <trkpt lat="48.51242" lon="-3.34269">
        <ele>177</ele>
        <time>2022-04-06T10:06:00.205Z</time>
      </trkpt>
      <trkpt lat="48.51243" lon="-3.34274">
        <ele>177</ele>
        <time>2022-04-06T10:06:05.176Z</time>
      </trkpt>
      <trkpt lat="48.5124" lon="-3.34283">
        <ele>177</ele>
        <time>2022-04-06T10:06:10.173Z</time>
      </trkpt>
      <trkpt lat="48.51237" lon="-3.3429">
        <ele>177</ele>
        <time>2022-04-06T10:06:14.171Z</time>
      </trkpt>
      <trkpt lat="48.51235" lon="-3.34296">
        <ele>170</ele>
        <time>2022-04-06T10:06:18.177Z</time>
      </trkpt>
      <trkpt lat="48.51236" lon="-3.34305">
        <ele>170</ele>
        <time>2022-04-06T10:06:23.204Z</time>
      </trkpt>
      <trkpt lat="48.51235" lon="-3.34314">
        <ele>170</ele>
        <time>2022-04-06T10:06:28.178Z</time>
      </trkpt>
      <trkpt lat="48.51238" lon="-3.3432">
        <ele>177</ele>
        <time>2022-04-06T10:06:33.169Z</time>
      </trkpt>
      <trkpt lat="48.51239" lon="-3.34327">
        <ele>177</ele>
        <time>2022-04-06T10:06:37.184Z</time>
      </trkpt>
      <trkpt lat="48.51237" lon="-3.34333">
        <ele>177</ele>
        <time>2022-04-06T10:06:41.213Z</time>
      </trkpt>
      <trkpt lat="48.51235" lon="-3.34341">
        <ele>170</ele>
        <time>2022-04-06T10:06:46.181Z</time>
      </trkpt>
      <trkpt lat="48.51239" lon="-3.34347">
        <ele>177</ele>
        <time>2022-04-06T10:06:51.178Z</time>
      </trkpt>
      <trkpt lat="48.51238" lon="-3.34354">
        <ele>177</ele>
        <time>2022-04-06T10:06:56.175Z</time>
      </trkpt>
      <trkpt lat="48.51236" lon="-3.34362">
        <ele>177</ele>
        <time>2022-04-06T10:07:00.182Z</time>
      </trkpt>
      <trkpt lat="48.51236" lon="-3.3437">
        <ele>170</ele>
        <time>2022-04-06T10:07:05.176Z</time>
      </trkpt>
      <trkpt lat="48.51235" lon="-3.34377">
        <ele>170</ele>
        <time>2022-04-06T10:07:09.175Z</time>
      </trkpt>
      <trkpt lat="48.51234" lon="-3.34387">
        <ele>170</ele>
        <time>2022-04-06T10:07:14.181Z</time>
      </trkpt>
      <trkpt lat="48.51236" lon="-3.34395">
        <ele>178</ele>
        <time>2022-04-06T10:07:19.180Z</time>
      </trkpt>
      <trkpt lat="48.51239" lon="-3.34403">
        <ele>178</ele>
        <time>2022-04-06T10:07:24.180Z</time>
      </trkpt>
      <trkpt lat="48.51239" lon="-3.3441">
        <ele>178</ele>
        <time>2022-04-06T10:07:28.182Z</time>
      </trkpt>
      <trkpt lat="48.51242" lon="-3.34418">
        <ele>178</ele>
        <time>2022-04-06T10:07:33.173Z</time>
      </trkpt>
      <trkpt lat="48.51245" lon="-3.34424">
        <ele>178</ele>
        <time>2022-04-06T10:07:37.182Z</time>
      </trkpt>
      <trkpt lat="48.51245" lon="-3.34431">
        <ele>177</ele>
        <time>2022-04-06T10:07:42.180Z</time>
      </trkpt>
      <trkpt lat="48.51246" lon="-3.34441">
        <ele>177</ele>
        <time>2022-04-06T10:07:47.180Z</time>
      </trkpt>
      <trkpt lat="48.51247" lon="-3.34443">
        <ele>177</ele>
        <time>2022-04-06T10:07:52.170Z</time>
      </trkpt>
      <trkpt lat="48.51251" lon="-3.34447">
        <ele>177</ele>
        <time>2022-04-06T10:07:56.182Z</time>
      </trkpt>
      <trkpt lat="48.51252" lon="-3.34453">
        <ele>177</ele>
        <time>2022-04-06T10:08:01.184Z</time>
      </trkpt>
      <trkpt lat="48.51254" lon="-3.34457">
        <ele>177</ele>
        <time>2022-04-06T10:08:06.171Z</time>
      </trkpt>
      <trkpt lat="48.51255" lon="-3.34465">
        <ele>176</ele>
        <time>2022-04-06T10:08:11.182Z</time>
      </trkpt>
      <trkpt lat="48.51252" lon="-3.3447">
        <ele>176</ele>
        <time>2022-04-06T10:08:16.169Z</time>
      </trkpt>
      <trkpt lat="48.51253" lon="-3.34475">
        <ele>176</ele>
        <time>2022-04-06T10:08:20.184Z</time>
      </trkpt>
      <trkpt lat="48.51251" lon="-3.34479">
        <ele>176</ele>
        <time>2022-04-06T10:08:24.196Z</time>
      </trkpt>
      <trkpt lat="48.51257" lon="-3.34507">
        <ele>177</ele>
        <time>2022-04-06T10:08:57.185Z</time>
      </trkpt>
      <trkpt lat="48.51258" lon="-3.34508">
        <ele>177</ele>
        <time>2022-04-06T10:09:02.179Z</time>
      </trkpt>
      <trkpt lat="48.51258" lon="-3.34509">
        <ele>177</ele>
        <time>2022-04-06T10:09:06.182Z</time>
      </trkpt>
      <trkpt lat="48.51258" lon="-3.34511">
        <ele>177</ele>
        <time>2022-04-06T10:09:11.184Z</time>
      </trkpt>
      <trkpt lat="48.51258" lon="-3.34518">
        <ele>177</ele>
        <time>2022-04-06T10:09:15.185Z</time>
      </trkpt>
      <trkpt lat="48.51259" lon="-3.34526">
        <ele>177</ele>
        <time>2022-04-06T10:09:20.182Z</time>
      </trkpt>
      <trkpt lat="48.51259" lon="-3.34533">
        <ele>177</ele>
        <time>2022-04-06T10:09:25.177Z</time>
      </trkpt>
      <trkpt lat="48.51261" lon="-3.34538">
        <ele>177</ele>
        <time>2022-04-06T10:09:29.181Z</time>
      </trkpt>
      <trkpt lat="48.51262" lon="-3.34546">
        <ele>177</ele>
        <time>2022-04-06T10:09:34.177Z</time>
      </trkpt>
      <trkpt lat="48.51262" lon="-3.34555">
        <ele>177</ele>
        <time>2022-04-06T10:09:39.171Z</time>
      </trkpt>
      <trkpt lat="48.5126" lon="-3.34563">
        <ele>177</ele>
        <time>2022-04-06T10:09:43.177Z</time>
      </trkpt>
      <trkpt lat="48.51257" lon="-3.34571">
        <ele>176</ele>
        <time>2022-04-06T10:09:48.175Z</time>
      </trkpt>
      <trkpt lat="48.51253" lon="-3.34577">
        <ele>176</ele>
        <time>2022-04-06T10:09:53.172Z</time>
      </trkpt>
      <trkpt lat="48.5125" lon="-3.34581">
        <ele>176</ele>
        <time>2022-04-06T10:09:57.177Z</time>
      </trkpt>
      <trkpt lat="48.51247" lon="-3.34589">
        <ele>176</ele>
        <time>2022-04-06T10:10:02.180Z</time>
      </trkpt>
      <trkpt lat="48.51245" lon="-3.34597">
        <ele>176</ele>
        <time>2022-04-06T10:10:07.175Z</time>
      </trkpt>
      <trkpt lat="48.51244" lon="-3.34605">
        <ele>175</ele>
        <time>2022-04-06T10:10:12.171Z</time>
      </trkpt>
      <trkpt lat="48.51244" lon="-3.34611">
        <ele>175</ele>
        <time>2022-04-06T10:10:16.176Z</time>
      </trkpt>
      <trkpt lat="48.51246" lon="-3.34617">
        <ele>175</ele>
        <time>2022-04-06T10:10:20.178Z</time>
      </trkpt>
      <trkpt lat="48.51243" lon="-3.34625">
        <ele>175</ele>
        <time>2022-04-06T10:10:24.186Z</time>
      </trkpt>
      <trkpt lat="48.51242" lon="-3.34633">
        <ele>176</ele>
        <time>2022-04-06T10:10:29.173Z</time>
      </trkpt>
      <trkpt lat="48.51242" lon="-3.34639">
        <ele>176</ele>
        <time>2022-04-06T10:10:33.181Z</time>
      </trkpt>
      <trkpt lat="48.51242" lon="-3.34646">
        <ele>176</ele>
        <time>2022-04-06T10:10:37.181Z</time>
      </trkpt>
      <trkpt lat="48.51236" lon="-3.34654">
        <ele>170</ele>
        <time>2022-04-06T10:10:42.184Z</time>
      </trkpt>
      <trkpt lat="48.51229" lon="-3.34656">
        <ele>170</ele>
        <time>2022-04-06T10:10:47.176Z</time>
      </trkpt>
      <trkpt lat="48.51225" lon="-3.34663">
        <ele>170</ele>
        <time>2022-04-06T10:10:52.180Z</time>
      </trkpt>
      <trkpt lat="48.51224" lon="-3.34672">
        <ele>170</ele>
        <time>2022-04-06T10:10:57.167Z</time>
      </trkpt>
      <trkpt lat="48.51222" lon="-3.3468">
        <ele>170</ele>
        <time>2022-04-06T10:11:02.176Z</time>
      </trkpt>
      <trkpt lat="48.51221" lon="-3.34687">
        <ele>170</ele>
        <time>2022-04-06T10:11:06.182Z</time>
      </trkpt>
      <trkpt lat="48.51221" lon="-3.34695">
        <ele>170</ele>
        <time>2022-04-06T10:11:11.173Z</time>
      </trkpt>
      <trkpt lat="48.5122" lon="-3.34702">
        <ele>170</ele>
        <time>2022-04-06T10:11:15.182Z</time>
      </trkpt>
      <trkpt lat="48.51223" lon="-3.34712">
        <ele>170</ele>
        <time>2022-04-06T10:11:20.181Z</time>
      </trkpt>
      <trkpt lat="48.51225" lon="-3.34721">
        <ele>170</ele>
        <time>2022-04-06T10:11:25.170Z</time>
      </trkpt>
      <trkpt lat="48.51226" lon="-3.34728">
        <ele>170</ele>
        <time>2022-04-06T10:11:30.178Z</time>
      </trkpt>
      <trkpt lat="48.51226" lon="-3.34734">
        <ele>170</ele>
        <time>2022-04-06T10:11:34.184Z</time>
      </trkpt>
      <trkpt lat="48.51226" lon="-3.34745">
        <ele>170</ele>
        <time>2022-04-06T10:11:39.179Z</time>
      </trkpt>
      <trkpt lat="48.51225" lon="-3.34753">
        <ele>170</ele>
        <time>2022-04-06T10:11:44.182Z</time>
      </trkpt>
      <trkpt lat="48.51224" lon="-3.34762">
        <ele>170</ele>
        <time>2022-04-06T10:11:49.176Z</time>
      </trkpt>
      <trkpt lat="48.51223" lon="-3.3477">
        <ele>170</ele>
        <time>2022-04-06T10:11:54.176Z</time>
      </trkpt>
      <trkpt lat="48.51223" lon="-3.34776">
        <ele>170</ele>
        <time>2022-04-06T10:11:58.198Z</time>
      </trkpt>
      <trkpt lat="48.5122" lon="-3.34786">
        <ele>170</ele>
        <time>2022-04-06T10:12:03.173Z</time>
      </trkpt>
      <trkpt lat="48.51218" lon="-3.34797">
        <ele>170</ele>
        <time>2022-04-06T10:12:08.173Z</time>
      </trkpt>
      <trkpt lat="48.51217" lon="-3.34808">
        <ele>170</ele>
        <time>2022-04-06T10:12:13.176Z</time>
      </trkpt>
      <trkpt lat="48.51212" lon="-3.34814">
        <ele>170</ele>
        <time>2022-04-06T10:12:18.168Z</time>
      </trkpt>
      <trkpt lat="48.51207" lon="-3.34818">
        <ele>165</ele>
        <time>2022-04-06T10:12:23.171Z</time>
      </trkpt>
      <trkpt lat="48.51203" lon="-3.34822">
        <ele>164</ele>
        <time>2022-04-06T10:12:28.165Z</time>
      </trkpt>
      <trkpt lat="48.51199" lon="-3.34825">
        <ele>164</ele>
        <time>2022-04-06T10:12:32.167Z</time>
      </trkpt>
      <trkpt lat="48.51194" lon="-3.34832">
        <ele>164</ele>
        <time>2022-04-06T10:12:37.168Z</time>
      </trkpt>
      <trkpt lat="48.51191" lon="-3.34838">
        <ele>164</ele>
        <time>2022-04-06T10:12:42.179Z</time>
      </trkpt>
      <trkpt lat="48.51188" lon="-3.34843">
        <ele>164</ele>
        <time>2022-04-06T10:12:47.167Z</time>
      </trkpt>
      <trkpt lat="48.51187" lon="-3.3485">
        <ele>164</ele>
        <time>2022-04-06T10:12:51.177Z</time>
      </trkpt>
      <trkpt lat="48.51184" lon="-3.34852">
        <ele>164</ele>
        <time>2022-04-06T10:12:56.167Z</time>
      </trkpt>
      <trkpt lat="48.51183" lon="-3.34859">
        <ele>164</ele>
        <time>2022-04-06T10:13:01.177Z</time>
      </trkpt>
      <trkpt lat="48.51179" lon="-3.34863">
        <ele>163</ele>
        <time>2022-04-06T10:13:06.181Z</time>
      </trkpt>
      <trkpt lat="48.51176" lon="-3.34869">
        <ele>163</ele>
        <time>2022-04-06T10:13:11.173Z</time>
      </trkpt>
      <trkpt lat="48.51174" lon="-3.34875">
        <ele>164</ele>
        <time>2022-04-06T10:13:15.177Z</time>
      </trkpt>
      <trkpt lat="48.51173" lon="-3.34881">
        <ele>164</ele>
        <time>2022-04-06T10:13:19.197Z</time>
      </trkpt>
      <trkpt lat="48.51171" lon="-3.34887">
        <ele>164</ele>
        <time>2022-04-06T10:13:23.203Z</time>
      </trkpt>
      <trkpt lat="48.51168" lon="-3.34893">
        <ele>164</ele>
        <time>2022-04-06T10:13:28.174Z</time>
      </trkpt>
      <trkpt lat="48.51168" lon="-3.349">
        <ele>164</ele>
        <time>2022-04-06T10:13:33.170Z</time>
      </trkpt>
      <trkpt lat="48.51167" lon="-3.34907">
        <ele>165</ele>
        <time>2022-04-06T10:13:38.167Z</time>
      </trkpt>
      <trkpt lat="48.51166" lon="-3.34913">
        <ele>165</ele>
        <time>2022-04-06T10:13:42.176Z</time>
      </trkpt>
      <trkpt lat="48.51166" lon="-3.3492">
        <ele>165</ele>
        <time>2022-04-06T10:13:47.190Z</time>
      </trkpt>
      <trkpt lat="48.51169" lon="-3.34928">
        <ele>165</ele>
        <time>2022-04-06T10:13:52.177Z</time>
      </trkpt>
      <trkpt lat="48.51168" lon="-3.3494">
        <ele>166</ele>
        <time>2022-04-06T10:13:57.176Z</time>
      </trkpt>
      <trkpt lat="48.51166" lon="-3.34947">
        <ele>166</ele>
        <time>2022-04-06T10:14:01.177Z</time>
      </trkpt>
      <trkpt lat="48.51164" lon="-3.34955">
        <ele>166</ele>
        <time>2022-04-06T10:14:06.177Z</time>
      </trkpt>
      <trkpt lat="48.51164" lon="-3.34964">
        <ele>164</ele>
        <time>2022-04-06T10:14:11.169Z</time>
      </trkpt>
      <trkpt lat="48.51163" lon="-3.3497">
        <ele>164</ele>
        <time>2022-04-06T10:14:15.174Z</time>
      </trkpt>
      <trkpt lat="48.51162" lon="-3.34977">
        <ele>164</ele>
        <time>2022-04-06T10:14:20.179Z</time>
      </trkpt>
      <trkpt lat="48.51164" lon="-3.34984">
        <ele>164</ele>
        <time>2022-04-06T10:14:25.168Z</time>
      </trkpt>
      <trkpt lat="48.51162" lon="-3.34991">
        <ele>163</ele>
        <time>2022-04-06T10:14:29.171Z</time>
      </trkpt>
      <trkpt lat="48.51163" lon="-3.34998">
        <ele>163</ele>
        <time>2022-04-06T10:14:34.172Z</time>
      </trkpt>
      <trkpt lat="48.51163" lon="-3.35005">
        <ele>163</ele>
        <time>2022-04-06T10:14:38.177Z</time>
      </trkpt>
      <trkpt lat="48.51164" lon="-3.35011">
        <ele>163</ele>
        <time>2022-04-06T10:14:43.173Z</time>
      </trkpt>
      <trkpt lat="48.51164" lon="-3.35019">
        <ele>160</ele>
        <time>2022-04-06T10:14:48.211Z</time>
      </trkpt>
      <trkpt lat="48.51164" lon="-3.35028">
        <ele>160</ele>
        <time>2022-04-06T10:14:53.202Z</time>
      </trkpt>
      <trkpt lat="48.51164" lon="-3.35037">
        <ele>160</ele>
        <time>2022-04-06T10:14:58.196Z</time>
      </trkpt>
      <trkpt lat="48.51163" lon="-3.35045">
        <ele>158</ele>
        <time>2022-04-06T10:15:03.174Z</time>
      </trkpt>
      <trkpt lat="48.51163" lon="-3.35056">
        <ele>158</ele>
        <time>2022-04-06T10:15:08.171Z</time>
      </trkpt>
      <trkpt lat="48.51164" lon="-3.35066">
        <ele>158</ele>
        <time>2022-04-06T10:15:13.170Z</time>
      </trkpt>
      <trkpt lat="48.51164" lon="-3.35076">
        <ele>157</ele>
        <time>2022-04-06T10:15:18.174Z</time>
      </trkpt>
      <trkpt lat="48.51164" lon="-3.35082">
        <ele>157</ele>
        <time>2022-04-06T10:15:22.183Z</time>
      </trkpt>
      <trkpt lat="48.51163" lon="-3.3509">
        <ele>157</ele>
        <time>2022-04-06T10:15:27.216Z</time>
      </trkpt>
      <trkpt lat="48.51162" lon="-3.35098">
        <ele>155</ele>
        <time>2022-04-06T10:15:31.224Z</time>
      </trkpt>
      <trkpt lat="48.51161" lon="-3.35108">
        <ele>155</ele>
        <time>2022-04-06T10:15:36.161Z</time>
      </trkpt>
      <trkpt lat="48.5116" lon="-3.35117">
        <ele>155</ele>
        <time>2022-04-06T10:15:40.217Z</time>
      </trkpt>
      <trkpt lat="48.51159" lon="-3.35128">
        <ele>153</ele>
        <time>2022-04-06T10:15:44.228Z</time>
      </trkpt>
      <trkpt lat="48.5116" lon="-3.35138">
        <ele>153</ele>
        <time>2022-04-06T10:15:49.212Z</time>
      </trkpt>
      <trkpt lat="48.51159" lon="-3.35148">
        <ele>153</ele>
        <time>2022-04-06T10:15:54.179Z</time>
      </trkpt>
      <trkpt lat="48.51158" lon="-3.35158">
        <ele>151</ele>
        <time>2022-04-06T10:15:59.167Z</time>
      </trkpt>
      <trkpt lat="48.51158" lon="-3.35165">
        <ele>151</ele>
        <time>2022-04-06T10:16:03.175Z</time>
      </trkpt>
      <trkpt lat="48.51159" lon="-3.35174">
        <ele>151</ele>
        <time>2022-04-06T10:16:08.166Z</time>
      </trkpt>
      <trkpt lat="48.51159" lon="-3.35181">
        <ele>150</ele>
        <time>2022-04-06T10:16:12.176Z</time>
      </trkpt>
      <trkpt lat="48.5116" lon="-3.35188">
        <ele>150</ele>
        <time>2022-04-06T10:16:16.224Z</time>
      </trkpt>
      <trkpt lat="48.51163" lon="-3.35195">
        <ele>150</ele>
        <time>2022-04-06T10:16:21.185Z</time>
      </trkpt>
      <trkpt lat="48.51166" lon="-3.35204">
        <ele>150</ele>
        <time>2022-04-06T10:16:26.178Z</time>
      </trkpt>
      <trkpt lat="48.51169" lon="-3.35209">
        <ele>148</ele>
        <time>2022-04-06T10:16:30.204Z</time>
      </trkpt>
      <trkpt lat="48.51171" lon="-3.35218">
        <ele>148</ele>
        <time>2022-04-06T10:16:35.193Z</time>
      </trkpt>
      <trkpt lat="48.51171" lon="-3.35226">
        <ele>148</ele>
        <time>2022-04-06T10:16:40.238Z</time>
      </trkpt>
      <trkpt lat="48.51174" lon="-3.35232">
        <ele>148</ele>
        <time>2022-04-06T10:16:45.237Z</time>
      </trkpt>
      <trkpt lat="48.51177" lon="-3.35237">
        <ele>148</ele>
        <time>2022-04-06T10:16:50.217Z</time>
      </trkpt>
      <trkpt lat="48.51181" lon="-3.35242">
        <ele>148</ele>
        <time>2022-04-06T10:16:55.182Z</time>
      </trkpt>
      <trkpt lat="48.51186" lon="-3.35245">
        <ele>148</ele>
        <time>2022-04-06T10:17:00.168Z</time>
      </trkpt>
      <trkpt lat="48.5119" lon="-3.35248">
        <ele>148</ele>
        <time>2022-04-06T10:17:04.177Z</time>
      </trkpt>
      <trkpt lat="48.51194" lon="-3.3525">
        <ele>148</ele>
        <time>2022-04-06T10:17:08.176Z</time>
      </trkpt>
      <trkpt lat="48.51199" lon="-3.35251">
        <ele>148</ele>
        <time>2022-04-06T10:17:13.177Z</time>
      </trkpt>
      <trkpt lat="48.51204" lon="-3.35254">
        <ele>148</ele>
        <time>2022-04-06T10:17:18.168Z</time>
      </trkpt>
      <trkpt lat="48.51209" lon="-3.35255">
        <ele>148</ele>
        <time>2022-04-06T10:17:22.171Z</time>
      </trkpt>
      <trkpt lat="48.5122" lon="-3.35263">
        <ele>148</ele>
        <time>2022-04-06T10:19:19.173Z</time>
      </trkpt>
      <trkpt lat="48.5122" lon="-3.35263">
        <ele>148</ele>
        <time>2022-04-06T10:19:23.179Z</time>
      </trkpt>
      <trkpt lat="48.51218" lon="-3.35269">
        <ele>147</ele>
        <time>2022-04-06T10:19:28.179Z</time>
      </trkpt>
      <trkpt lat="48.51218" lon="-3.35273">
        <ele>147</ele>
        <time>2022-04-06T10:19:33.179Z</time>
      </trkpt>
      <trkpt lat="48.51217" lon="-3.35273">
        <ele>147</ele>
        <time>2022-04-06T10:19:37.180Z</time>
      </trkpt>
      <trkpt lat="48.51214" lon="-3.35276">
        <ele>147</ele>
        <time>2022-04-06T10:19:59.187Z</time>
      </trkpt>
      <trkpt lat="48.51215" lon="-3.3528">
        <ele>147</ele>
        <time>2022-04-06T10:20:04.177Z</time>
      </trkpt>
      <trkpt lat="48.51218" lon="-3.35286">
        <ele>147</ele>
        <time>2022-04-06T10:20:09.175Z</time>
      </trkpt>
      <trkpt lat="48.51219" lon="-3.3529">
        <ele>147</ele>
        <time>2022-04-06T10:20:13.177Z</time>
      </trkpt>
      <trkpt lat="48.51219" lon="-3.35295">
        <ele>148</ele>
        <time>2022-04-06T10:20:18.172Z</time>
      </trkpt>
      <trkpt lat="48.51223" lon="-3.35305">
        <ele>148</ele>
        <time>2022-04-06T10:20:23.168Z</time>
      </trkpt>
      <trkpt lat="48.51224" lon="-3.35313">
        <ele>148</ele>
        <time>2022-04-06T10:20:27.177Z</time>
      </trkpt>
      <trkpt lat="48.51227" lon="-3.3532">
        <ele>149</ele>
        <time>2022-04-06T10:20:32.168Z</time>
      </trkpt>
      <trkpt lat="48.51228" lon="-3.35327">
        <ele>149</ele>
        <time>2022-04-06T10:20:37.172Z</time>
      </trkpt>
      <trkpt lat="48.51228" lon="-3.35334">
        <ele>149</ele>
        <time>2022-04-06T10:20:42.169Z</time>
      </trkpt>
      <trkpt lat="48.51228" lon="-3.3534">
        <ele>149</ele>
        <time>2022-04-06T10:20:46.177Z</time>
      </trkpt>
      <trkpt lat="48.5123" lon="-3.35348">
        <ele>151</ele>
        <time>2022-04-06T10:20:51.175Z</time>
      </trkpt>
      <trkpt lat="48.51232" lon="-3.35353">
        <ele>151</ele>
        <time>2022-04-06T10:20:55.211Z</time>
      </trkpt>
      <trkpt lat="48.51233" lon="-3.35363">
        <ele>151</ele>
        <time>2022-04-06T10:21:00.179Z</time>
      </trkpt>
      <trkpt lat="48.51235" lon="-3.3537">
        <ele>151</ele>
        <time>2022-04-06T10:21:05.195Z</time>
      </trkpt>
      <trkpt lat="48.51237" lon="-3.35376">
        <ele>152</ele>
        <time>2022-04-06T10:21:10.179Z</time>
      </trkpt>
      <trkpt lat="48.51237" lon="-3.35385">
        <ele>152</ele>
        <time>2022-04-06T10:21:15.177Z</time>
      </trkpt>
      <trkpt lat="48.51238" lon="-3.35391">
        <ele>152</ele>
        <time>2022-04-06T10:21:20.172Z</time>
      </trkpt>
      <trkpt lat="48.5124" lon="-3.35395">
        <ele>152</ele>
        <time>2022-04-06T10:21:25.216Z</time>
      </trkpt>
      <trkpt lat="48.51241" lon="-3.35402">
        <ele>152</ele>
        <time>2022-04-06T10:21:30.170Z</time>
      </trkpt>
      <trkpt lat="48.51241" lon="-3.35407">
        <ele>155</ele>
        <time>2022-04-06T10:21:34.172Z</time>
      </trkpt>
      <trkpt lat="48.51243" lon="-3.35413">
        <ele>155</ele>
        <time>2022-04-06T10:21:39.169Z</time>
      </trkpt>
      <trkpt lat="48.51243" lon="-3.35419">
        <ele>155</ele>
        <time>2022-04-06T10:21:44.172Z</time>
      </trkpt>
      <trkpt lat="48.51241" lon="-3.35422">
        <ele>155</ele>
        <time>2022-04-06T10:21:48.224Z</time>
      </trkpt>
      <trkpt lat="48.51236" lon="-3.35422">
        <ele>157</ele>
        <time>2022-04-06T10:21:53.223Z</time>
      </trkpt>
      <trkpt lat="48.5123" lon="-3.35422">
        <ele>157</ele>
        <time>2022-04-06T10:21:58.169Z</time>
      </trkpt>
      <trkpt lat="48.51225" lon="-3.35422">
        <ele>157</ele>
        <time>2022-04-06T10:22:02.179Z</time>
      </trkpt>
      <trkpt lat="48.5122" lon="-3.3542">
        <ele>157</ele>
        <time>2022-04-06T10:22:07.168Z</time>
      </trkpt>
      <trkpt lat="48.51217" lon="-3.35421">
        <ele>157</ele>
        <time>2022-04-06T10:22:11.235Z</time>
      </trkpt>
      <trkpt lat="48.51213" lon="-3.35419">
        <ele>157</ele>
        <time>2022-04-06T10:22:16.217Z</time>
      </trkpt>
      <trkpt lat="48.51209" lon="-3.35419">
        <ele>157</ele>
        <time>2022-04-06T10:22:20.226Z</time>
      </trkpt>
      <trkpt lat="48.51203" lon="-3.35418">
        <ele>158</ele>
        <time>2022-04-06T10:22:24.257Z</time>
      </trkpt>
      <trkpt lat="48.51198" lon="-3.35416">
        <ele>158</ele>
        <time>2022-04-06T10:22:29.211Z</time>
      </trkpt>
      <trkpt lat="48.51197" lon="-3.35416">
        <ele>158</ele>
        <time>2022-04-06T10:22:34.167Z</time>
      </trkpt>
      <trkpt lat="48.51195" lon="-3.35417">
        <ele>158</ele>
        <time>2022-04-06T10:22:38.173Z</time>
      </trkpt>
      <trkpt lat="48.51195" lon="-3.3542">
        <ele>158</ele>
        <time>2022-04-06T10:22:43.170Z</time>
      </trkpt>
      <trkpt lat="48.51194" lon="-3.35424">
        <ele>158</ele>
        <time>2022-04-06T10:22:47.180Z</time>
      </trkpt>
      <trkpt lat="48.51192" lon="-3.35427">
        <ele>158</ele>
        <time>2022-04-06T10:22:51.218Z</time>
      </trkpt>
      <trkpt lat="48.51194" lon="-3.35434">
        <ele>163</ele>
        <time>2022-04-06T10:22:56.220Z</time>
      </trkpt>
      <trkpt lat="48.51197" lon="-3.35443">
        <ele>163</ele>
        <time>2022-04-06T10:23:01.172Z</time>
      </trkpt>
      <trkpt lat="48.51196" lon="-3.35448">
        <ele>163</ele>
        <time>2022-04-06T10:23:05.211Z</time>
      </trkpt>
      <trkpt lat="48.51197" lon="-3.35452">
        <ele>163</ele>
        <time>2022-04-06T10:23:10.202Z</time>
      </trkpt>
      <trkpt lat="48.512" lon="-3.35456">
        <ele>163</ele>
        <time>2022-04-06T10:23:15.191Z</time>
      </trkpt>
      <trkpt lat="48.51204" lon="-3.35458">
        <ele>163</ele>
        <time>2022-04-06T10:23:19.201Z</time>
      </trkpt>
      <trkpt lat="48.51208" lon="-3.35457">
        <ele>161</ele>
        <time>2022-04-06T10:23:24.177Z</time>
      </trkpt>
      <trkpt lat="48.51214" lon="-3.35456">
        <ele>161</ele>
        <time>2022-04-06T10:23:29.206Z</time>
      </trkpt>
      <trkpt lat="48.51219" lon="-3.35459">
        <ele>165</ele>
        <time>2022-04-06T10:23:34.168Z</time>
      </trkpt>
      <trkpt lat="48.5122" lon="-3.35465">
        <ele>165</ele>
        <time>2022-04-06T10:23:38.172Z</time>
      </trkpt>
      <trkpt lat="48.51223" lon="-3.35471">
        <ele>165</ele>
        <time>2022-04-06T10:23:43.171Z</time>
      </trkpt>
      <trkpt lat="48.51225" lon="-3.35478">
        <ele>165</ele>
        <time>2022-04-06T10:23:48.172Z</time>
      </trkpt>
      <trkpt lat="48.51228" lon="-3.35483">
        <ele>165</ele>
        <time>2022-04-06T10:23:52.170Z</time>
      </trkpt>
      <trkpt lat="48.51229" lon="-3.35488">
        <ele>170</ele>
        <time>2022-04-06T10:23:56.176Z</time>
      </trkpt>
      <trkpt lat="48.5123" lon="-3.35494">
        <ele>170</ele>
        <time>2022-04-06T10:24:01.172Z</time>
      </trkpt>
      <trkpt lat="48.51232" lon="-3.355">
        <ele>170</ele>
        <time>2022-04-06T10:24:06.169Z</time>
      </trkpt>
      <trkpt lat="48.51231" lon="-3.35508">
        <ele>170</ele>
        <time>2022-04-06T10:24:11.169Z</time>
      </trkpt>
      <trkpt lat="48.5123" lon="-3.35516">
        <ele>172</ele>
        <time>2022-04-06T10:24:16.164Z</time>
      </trkpt>
      <trkpt lat="48.5123" lon="-3.35523">
        <ele>172</ele>
        <time>2022-04-06T10:24:20.175Z</time>
      </trkpt>
      <trkpt lat="48.5123" lon="-3.35528">
        <ele>172</ele>
        <time>2022-04-06T10:24:24.175Z</time>
      </trkpt>
      <trkpt lat="48.51233" lon="-3.35531">
        <ele>172</ele>
        <time>2022-04-06T10:24:29.169Z</time>
      </trkpt>
      <trkpt lat="48.51237" lon="-3.35535">
        <ele>173</ele>
        <time>2022-04-06T10:24:34.169Z</time>
      </trkpt>
      <trkpt lat="48.51241" lon="-3.35541">
        <ele>173</ele>
        <time>2022-04-06T10:24:38.171Z</time>
      </trkpt>
      <trkpt lat="48.51245" lon="-3.35544">
        <ele>176</ele>
        <time>2022-04-06T10:24:42.176Z</time>
      </trkpt>
      <trkpt lat="48.51247" lon="-3.3555">
        <ele>176</ele>
        <time>2022-04-06T10:24:47.167Z</time>
      </trkpt>
      <trkpt lat="48.5125" lon="-3.35557">
        <ele>176</ele>
        <time>2022-04-06T10:24:52.175Z</time>
      </trkpt>
      <trkpt lat="48.51255" lon="-3.35564">
        <ele>176</ele>
        <time>2022-04-06T10:24:57.168Z</time>
      </trkpt>
      <trkpt lat="48.51257" lon="-3.35571">
        <ele>177</ele>
        <time>2022-04-06T10:25:01.169Z</time>
      </trkpt>
      <trkpt lat="48.5126" lon="-3.35578">
        <ele>177</ele>
        <time>2022-04-06T10:25:06.176Z</time>
      </trkpt>
      <trkpt lat="48.51264" lon="-3.35586">
        <ele>177</ele>
        <time>2022-04-06T10:25:11.168Z</time>
      </trkpt>
      <trkpt lat="48.51264" lon="-3.35597">
        <ele>177</ele>
        <time>2022-04-06T10:25:16.168Z</time>
      </trkpt>
      <trkpt lat="48.51265" lon="-3.35603">
        <ele>178</ele>
        <time>2022-04-06T10:25:21.167Z</time>
      </trkpt>
      <trkpt lat="48.51267" lon="-3.35611">
        <ele>178</ele>
        <time>2022-04-06T10:25:26.168Z</time>
      </trkpt>
      <trkpt lat="48.51266" lon="-3.35618">
        <ele>178</ele>
        <time>2022-04-06T10:25:30.166Z</time>
      </trkpt>
      <trkpt lat="48.51267" lon="-3.35627">
        <ele>178</ele>
        <time>2022-04-06T10:25:35.178Z</time>
      </trkpt>
      <trkpt lat="48.51268" lon="-3.35636">
        <ele>178</ele>
        <time>2022-04-06T10:25:40.169Z</time>
      </trkpt>
      <trkpt lat="48.5127" lon="-3.35644">
        <ele>178</ele>
        <time>2022-04-06T10:25:45.168Z</time>
      </trkpt>
      <trkpt lat="48.51269" lon="-3.3565">
        <ele>178</ele>
        <time>2022-04-06T10:25:49.169Z</time>
      </trkpt>
      <trkpt lat="48.51267" lon="-3.35656">
        <ele>177</ele>
        <time>2022-04-06T10:25:53.169Z</time>
      </trkpt>
      <trkpt lat="48.51265" lon="-3.35663">
        <ele>177</ele>
        <time>2022-04-06T10:25:58.167Z</time>
      </trkpt>
      <trkpt lat="48.51264" lon="-3.3567">
        <ele>177</ele>
        <time>2022-04-06T10:26:02.169Z</time>
      </trkpt>
      <trkpt lat="48.51265" lon="-3.35674">
        <ele>177</ele>
        <time>2022-04-06T10:26:06.169Z</time>
      </trkpt>
      <trkpt lat="48.51262" lon="-3.35679">
        <ele>180</ele>
        <time>2022-04-06T10:26:11.169Z</time>
      </trkpt>
      <trkpt lat="48.51261" lon="-3.35686">
        <ele>181</ele>
        <time>2022-04-06T10:26:16.168Z</time>
      </trkpt>
      <trkpt lat="48.51259" lon="-3.35693">
        <ele>181</ele>
        <time>2022-04-06T10:26:20.172Z</time>
      </trkpt>
      <trkpt lat="48.51257" lon="-3.35702">
        <ele>181</ele>
        <time>2022-04-06T10:26:25.167Z</time>
      </trkpt>
      <trkpt lat="48.51255" lon="-3.35711">
        <ele>183</ele>
        <time>2022-04-06T10:26:30.168Z</time>
      </trkpt>
      <trkpt lat="48.51254" lon="-3.35719">
        <ele>183</ele>
        <time>2022-04-06T10:26:35.169Z</time>
      </trkpt>
      <trkpt lat="48.51253" lon="-3.35726">
        <ele>183</ele>
        <time>2022-04-06T10:26:40.168Z</time>
      </trkpt>
      <trkpt lat="48.51251" lon="-3.35733">
        <ele>183</ele>
        <time>2022-04-06T10:26:45.170Z</time>
      </trkpt>
      <trkpt lat="48.51248" lon="-3.35742">
        <ele>184</ele>
        <time>2022-04-06T10:26:50.166Z</time>
      </trkpt>
      <trkpt lat="48.51247" lon="-3.35751">
        <ele>184</ele>
        <time>2022-04-06T10:26:55.172Z</time>
      </trkpt>
      <trkpt lat="48.51246" lon="-3.3576">
        <ele>184</ele>
        <time>2022-04-06T10:27:00.171Z</time>
      </trkpt>
      <trkpt lat="48.51248" lon="-3.35767">
        <ele>187</ele>
        <time>2022-04-06T10:27:04.177Z</time>
      </trkpt>
      <trkpt lat="48.5125" lon="-3.35777">
        <ele>187</ele>
        <time>2022-04-06T10:27:09.168Z</time>
      </trkpt>
      <trkpt lat="48.5125" lon="-3.35784">
        <ele>187</ele>
        <time>2022-04-06T10:27:14.168Z</time>
      </trkpt>
      <trkpt lat="48.51247" lon="-3.35788">
        <ele>187</ele>
        <time>2022-04-06T10:27:18.172Z</time>
      </trkpt>
      <trkpt lat="48.51248" lon="-3.35794">
        <ele>189</ele>
        <time>2022-04-06T10:27:23.168Z</time>
      </trkpt>
      <trkpt lat="48.51247" lon="-3.35803">
        <ele>189</ele>
        <time>2022-04-06T10:27:28.166Z</time>
      </trkpt>
      <trkpt lat="48.51248" lon="-3.35808">
        <ele>189</ele>
        <time>2022-04-06T10:27:32.173Z</time>
      </trkpt>
      <trkpt lat="48.51252" lon="-3.3581">
        <ele>189</ele>
        <time>2022-04-06T10:27:36.175Z</time>
      </trkpt>
      <trkpt lat="48.5125" lon="-3.35818">
        <ele>189</ele>
        <time>2022-04-06T10:27:41.169Z</time>
      </trkpt>
      <trkpt lat="48.51247" lon="-3.35826">
        <ele>191</ele>
        <time>2022-04-06T10:27:46.176Z</time>
      </trkpt>
      <trkpt lat="48.51246" lon="-3.35833">
        <ele>191</ele>
        <time>2022-04-06T10:27:51.167Z</time>
      </trkpt>
      <trkpt lat="48.51247" lon="-3.35835">
        <ele>191</ele>
        <time>2022-04-06T10:27:55.170Z</time>
      </trkpt>
      <trkpt lat="48.51255" lon="-3.35828">
        <ele>191</ele>
        <time>2022-04-06T10:27:59.174Z</time>
      </trkpt>
      <trkpt lat="48.5125" lon="-3.35838">
        <ele>191</ele>
        <time>2022-04-06T10:28:04.172Z</time>
      </trkpt>
      <trkpt lat="48.51244" lon="-3.35846">
        <ele>191</ele>
        <time>2022-04-06T10:28:08.166Z</time>
      </trkpt>
      <trkpt lat="48.51231" lon="-3.35857">
        <ele>195</ele>
        <time>2022-04-06T10:28:13.171Z</time>
      </trkpt>
      <trkpt lat="48.51231" lon="-3.35865">
        <ele>195</ele>
        <time>2022-04-06T10:28:18.169Z</time>
      </trkpt>
      <trkpt lat="48.51231" lon="-3.35873">
        <ele>195</ele>
        <time>2022-04-06T10:28:23.169Z</time>
      </trkpt>
      <trkpt lat="48.51232" lon="-3.35885">
        <ele>198</ele>
        <time>2022-04-06T10:28:28.167Z</time>
      </trkpt>
      <trkpt lat="48.51233" lon="-3.35893">
        <ele>198</ele>
        <time>2022-04-06T10:28:32.172Z</time>
      </trkpt>
      <trkpt lat="48.51233" lon="-3.35907">
        <ele>201</ele>
        <time>2022-04-06T10:28:46.170Z</time>
      </trkpt>
      <trkpt lat="48.51228" lon="-3.35911">
        <ele>201</ele>
        <time>2022-04-06T10:28:50.169Z</time>
      </trkpt>
      <trkpt lat="48.51229" lon="-3.35919">
        <ele>201</ele>
        <time>2022-04-06T10:28:55.169Z</time>
      </trkpt>
      <trkpt lat="48.51228" lon="-3.35922">
        <ele>201</ele>
        <time>2022-04-06T10:29:00.172Z</time>
      </trkpt>
      <trkpt lat="48.51227" lon="-3.35922">
        <ele>201</ele>
        <time>2022-04-06T10:29:05.171Z</time>
      </trkpt>
      <trkpt lat="48.51226" lon="-3.35924">
        <ele>201</ele>
        <time>2022-04-06T10:29:09.179Z</time>
      </trkpt>
      <trkpt lat="48.51227" lon="-3.35925">
        <ele>201</ele>
        <time>2022-04-06T10:29:14.171Z</time>
      </trkpt>
      <trkpt lat="48.51226" lon="-3.35928">
        <ele>201</ele>
        <time>2022-04-06T10:29:18.180Z</time>
      </trkpt>
      <trkpt lat="48.51223" lon="-3.35937">
        <ele>205</ele>
        <time>2022-04-06T10:29:23.171Z</time>
      </trkpt>
      <trkpt lat="48.51223" lon="-3.35946">
        <ele>205</ele>
        <time>2022-04-06T10:29:27.175Z</time>
      </trkpt>
      <trkpt lat="48.51223" lon="-3.35951">
        <ele>205</ele>
        <time>2022-04-06T10:29:32.166Z</time>
      </trkpt>
      <trkpt lat="48.51221" lon="-3.35956">
        <ele>205</ele>
        <time>2022-04-06T10:29:36.174Z</time>
      </trkpt>
      <trkpt lat="48.51222" lon="-3.35963">
        <ele>209</ele>
        <time>2022-04-06T10:29:41.170Z</time>
      </trkpt>
      <trkpt lat="48.51221" lon="-3.3597">
        <ele>209</ele>
        <time>2022-04-06T10:29:46.173Z</time>
      </trkpt>
      <trkpt lat="48.51221" lon="-3.35978">
        <ele>209</ele>
        <time>2022-04-06T10:29:51.174Z</time>
      </trkpt>
      <trkpt lat="48.5122" lon="-3.35985">
        <ele>209</ele>
        <time>2022-04-06T10:29:56.170Z</time>
      </trkpt>
      <trkpt lat="48.5122" lon="-3.35993">
        <ele>213</ele>
        <time>2022-04-06T10:30:01.169Z</time>
      </trkpt>
      <trkpt lat="48.51221" lon="-3.35998">
        <ele>213</ele>
        <time>2022-04-06T10:30:05.170Z</time>
      </trkpt>
      <trkpt lat="48.51218" lon="-3.36003">
        <ele>213</ele>
        <time>2022-04-06T10:30:10.171Z</time>
      </trkpt>
      <trkpt lat="48.51219" lon="-3.36013">
        <ele>213</ele>
        <time>2022-04-06T10:30:15.173Z</time>
      </trkpt>
      <trkpt lat="48.51219" lon="-3.36018">
        <ele>216</ele>
        <time>2022-04-06T10:30:19.170Z</time>
      </trkpt>
      <trkpt lat="48.51219" lon="-3.36025">
        <ele>216</ele>
        <time>2022-04-06T10:30:24.171Z</time>
      </trkpt>
      <trkpt lat="48.5122" lon="-3.3603">
        <ele>216</ele>
        <time>2022-04-06T10:30:28.170Z</time>
      </trkpt>
      <trkpt lat="48.5122" lon="-3.36036">
        <ele>216</ele>
        <time>2022-04-06T10:30:33.171Z</time>
      </trkpt>
      <trkpt lat="48.5122" lon="-3.36042">
        <ele>216</ele>
        <time>2022-04-06T10:30:37.176Z</time>
      </trkpt>
      <trkpt lat="48.51221" lon="-3.36049">
        <ele>218</ele>
        <time>2022-04-06T10:30:42.169Z</time>
      </trkpt>
      <trkpt lat="48.51221" lon="-3.36055">
        <ele>218</ele>
        <time>2022-04-06T10:30:47.170Z</time>
      </trkpt>
      <trkpt lat="48.5122" lon="-3.3606">
        <ele>218</ele>
        <time>2022-04-06T10:30:51.170Z</time>
      </trkpt>
      <trkpt lat="48.51219" lon="-3.36067">
        <ele>218</ele>
        <time>2022-04-06T10:30:56.171Z</time>
      </trkpt>
      <trkpt lat="48.51218" lon="-3.36072">
        <ele>221</ele>
        <time>2022-04-06T10:31:00.168Z</time>
      </trkpt>
      <trkpt lat="48.51219" lon="-3.36079">
        <ele>221</ele>
        <time>2022-04-06T10:31:05.169Z</time>
      </trkpt>
      <trkpt lat="48.5122" lon="-3.36084">
        <ele>221</ele>
        <time>2022-04-06T10:31:10.174Z</time>
      </trkpt>
      <trkpt lat="48.5122" lon="-3.3609">
        <ele>221</ele>
        <time>2022-04-06T10:31:14.177Z</time>
      </trkpt>
      <trkpt lat="48.5122" lon="-3.36097">
        <ele>226</ele>
        <time>2022-04-06T10:31:19.172Z</time>
      </trkpt>
      <trkpt lat="48.51219" lon="-3.36106">
        <ele>226</ele>
        <time>2022-04-06T10:31:24.168Z</time>
      </trkpt>
      <trkpt lat="48.51218" lon="-3.36113">
        <ele>226</ele>
        <time>2022-04-06T10:31:28.172Z</time>
      </trkpt>
      <trkpt lat="48.51219" lon="-3.3612">
        <ele>226</ele>
        <time>2022-04-06T10:31:32.185Z</time>
      </trkpt>
      <trkpt lat="48.51219" lon="-3.36129">
        <ele>231</ele>
        <time>2022-04-06T10:31:37.170Z</time>
      </trkpt>
      <trkpt lat="48.51218" lon="-3.36139">
        <ele>231</ele>
        <time>2022-04-06T10:31:41.173Z</time>
      </trkpt>
      <trkpt lat="48.51218" lon="-3.3615">
        <ele>231</ele>
        <time>2022-04-06T10:31:46.167Z</time>
      </trkpt>
      <trkpt lat="48.51217" lon="-3.36156">
        <ele>234</ele>
        <time>2022-04-06T10:31:50.169Z</time>
      </trkpt>
      <trkpt lat="48.51218" lon="-3.36162">
        <ele>234</ele>
        <time>2022-04-06T10:31:55.171Z</time>
      </trkpt>
      <trkpt lat="48.51217" lon="-3.36169">
        <ele>234</ele>
        <time>2022-04-06T10:32:00.169Z</time>
      </trkpt>
      <trkpt lat="48.51216" lon="-3.36175">
        <ele>234</ele>
        <time>2022-04-06T10:32:04.174Z</time>
      </trkpt>
      <trkpt lat="48.51217" lon="-3.36182">
        <ele>239</ele>
        <time>2022-04-06T10:32:09.166Z</time>
      </trkpt>
      <trkpt lat="48.51217" lon="-3.36188">
        <ele>239</ele>
        <time>2022-04-06T10:32:13.170Z</time>
      </trkpt>
      <trkpt lat="48.51218" lon="-3.36196">
        <ele>239</ele>
        <time>2022-04-06T10:32:18.168Z</time>
      </trkpt>
      <trkpt lat="48.51219" lon="-3.36202">
        <ele>239</ele>
        <time>2022-04-06T10:32:23.168Z</time>
      </trkpt>
      <trkpt lat="48.51219" lon="-3.36208">
        <ele>239</ele>
        <time>2022-04-06T10:32:27.178Z</time>
      </trkpt>
      <trkpt lat="48.51219" lon="-3.36215">
        <ele>241</ele>
        <time>2022-04-06T10:32:32.170Z</time>
      </trkpt>
      <trkpt lat="48.51219" lon="-3.36223">
        <ele>241</ele>
        <time>2022-04-06T10:32:37.168Z</time>
      </trkpt>
      <trkpt lat="48.51219" lon="-3.36229">
        <ele>241</ele>
        <time>2022-04-06T10:32:41.168Z</time>
      </trkpt>
      <trkpt lat="48.51219" lon="-3.36237">
        <ele>242</ele>
        <time>2022-04-06T10:32:46.169Z</time>
      </trkpt>
      <trkpt lat="48.51218" lon="-3.36246">
        <ele>242</ele>
        <time>2022-04-06T10:32:51.171Z</time>
      </trkpt>
      <trkpt lat="48.51218" lon="-3.36253">
        <ele>242</ele>
        <time>2022-04-06T10:32:56.174Z</time>
      </trkpt>
      <trkpt lat="48.51218" lon="-3.36261">
        <ele>242</ele>
        <time>2022-04-06T10:33:01.172Z</time>
      </trkpt>
      <trkpt lat="48.51218" lon="-3.36268">
        <ele>244</ele>
        <time>2022-04-06T10:33:05.172Z</time>
      </trkpt>
      <trkpt lat="48.51217" lon="-3.36275">
        <ele>244</ele>
        <time>2022-04-06T10:33:10.170Z</time>
      </trkpt>
      <trkpt lat="48.51216" lon="-3.36284">
        <ele>244</ele>
        <time>2022-04-06T10:33:14.187Z</time>
      </trkpt>
      <trkpt lat="48.51215" lon="-3.36293">
        <ele>246</ele>
        <time>2022-04-06T10:33:19.183Z</time>
      </trkpt>
      <trkpt lat="48.51215" lon="-3.36302">
        <ele>246</ele>
        <time>2022-04-06T10:33:24.173Z</time>
      </trkpt>
      <trkpt lat="48.51216" lon="-3.36309">
        <ele>246</ele>
        <time>2022-04-06T10:33:28.190Z</time>
      </trkpt>
      <trkpt lat="48.51216" lon="-3.36317">
        <ele>246</ele>
        <time>2022-04-06T10:33:33.177Z</time>
      </trkpt>
      <trkpt lat="48.51216" lon="-3.36323">
        <ele>249</ele>
        <time>2022-04-06T10:33:37.180Z</time>
      </trkpt>
      <trkpt lat="48.51215" lon="-3.36331">
        <ele>249</ele>
        <time>2022-04-06T10:33:42.172Z</time>
      </trkpt>
      <trkpt lat="48.51215" lon="-3.36341">
        <ele>249</ele>
        <time>2022-04-06T10:33:47.177Z</time>
      </trkpt>
      <trkpt lat="48.51215" lon="-3.3635">
        <ele>250</ele>
        <time>2022-04-06T10:33:52.169Z</time>
      </trkpt>
      <trkpt lat="48.51213" lon="-3.36359">
        <ele>250</ele>
        <time>2022-04-06T10:33:57.172Z</time>
      </trkpt>
      <trkpt lat="48.51214" lon="-3.36368">
        <ele>250</ele>
        <time>2022-04-06T10:34:02.178Z</time>
      </trkpt>
      <trkpt lat="48.51213" lon="-3.36378">
        <ele>252</ele>
        <time>2022-04-06T10:34:07.175Z</time>
      </trkpt>
      <trkpt lat="48.51213" lon="-3.36387">
        <ele>252</ele>
        <time>2022-04-06T10:34:12.178Z</time>
      </trkpt>
      <trkpt lat="48.51214" lon="-3.36396">
        <ele>252</ele>
        <time>2022-04-06T10:34:17.177Z</time>
      </trkpt>
      <trkpt lat="48.51213" lon="-3.36406">
        <ele>255</ele>
        <time>2022-04-06T10:34:22.168Z</time>
      </trkpt>
      <trkpt lat="48.51213" lon="-3.36415">
        <ele>255</ele>
        <time>2022-04-06T10:34:27.190Z</time>
      </trkpt>
      <trkpt lat="48.51212" lon="-3.36424">
        <ele>255</ele>
        <time>2022-04-06T10:34:32.169Z</time>
      </trkpt>
      <trkpt lat="48.51212" lon="-3.36432">
        <ele>259</ele>
        <time>2022-04-06T10:34:37.167Z</time>
      </trkpt>
      <trkpt lat="48.51213" lon="-3.36439">
        <ele>259</ele>
        <time>2022-04-06T10:34:41.174Z</time>
      </trkpt>
      <trkpt lat="48.51215" lon="-3.36448">
        <ele>259</ele>
        <time>2022-04-06T10:34:46.176Z</time>
      </trkpt>
      <trkpt lat="48.51219" lon="-3.36462">
        <ele>262</ele>
        <time>2022-04-06T10:35:05.180Z</time>
      </trkpt>
      <trkpt lat="48.51221" lon="-3.3647">
        <ele>262</ele>
        <time>2022-04-06T10:35:10.169Z</time>
      </trkpt>
      <trkpt lat="48.5122" lon="-3.36477">
        <ele>262</ele>
        <time>2022-04-06T10:35:15.171Z</time>
      </trkpt>
      <trkpt lat="48.5122" lon="-3.36483">
        <ele>262</ele>
        <time>2022-04-06T10:35:20.176Z</time>
      </trkpt>
      <trkpt lat="48.5122" lon="-3.36492">
        <ele>265</ele>
        <time>2022-04-06T10:35:25.179Z</time>
      </trkpt>
      <trkpt lat="48.5122" lon="-3.36498">
        <ele>265</ele>
        <time>2022-04-06T10:35:29.174Z</time>
      </trkpt>
      <trkpt lat="48.51219" lon="-3.36505">
        <ele>265</ele>
        <time>2022-04-06T10:35:34.172Z</time>
      </trkpt>
      <trkpt lat="48.51219" lon="-3.36512">
        <ele>265</ele>
        <time>2022-04-06T10:35:39.176Z</time>
      </trkpt>
      <trkpt lat="48.51219" lon="-3.3652">
        <ele>266</ele>
        <time>2022-04-06T10:35:44.178Z</time>
      </trkpt>
      <trkpt lat="48.51219" lon="-3.36535">
        <ele>266</ele>
        <time>2022-04-06T10:35:59.186Z</time>
      </trkpt>
      <trkpt lat="48.51222" lon="-3.36542">
        <ele>266</ele>
        <time>2022-04-06T10:36:03.180Z</time>
      </trkpt>
      <trkpt lat="48.5122" lon="-3.36549">
        <ele>267</ele>
        <time>2022-04-06T10:36:08.177Z</time>
      </trkpt>
      <trkpt lat="48.51219" lon="-3.36558">
        <ele>267</ele>
        <time>2022-04-06T10:36:13.169Z</time>
      </trkpt>
      <trkpt lat="48.51218" lon="-3.36559">
        <ele>267</ele>
        <time>2022-04-06T10:36:18.176Z</time>
      </trkpt>
      <trkpt lat="48.51218" lon="-3.36562">
        <ele>267</ele>
        <time>2022-04-06T10:43:30.169Z</time>
      </trkpt>
      <trkpt lat="48.51218" lon="-3.36562">
        <ele>267</ele>
        <time>2022-04-06T10:43:34.174Z</time>
      </trkpt>
      <trkpt lat="48.51217" lon="-3.36565">
        <ele>267</ele>
        <time>2022-04-06T10:43:39.169Z</time>
      </trkpt>
      <trkpt lat="48.51216" lon="-3.36573">
        <ele>267</ele>
        <time>2022-04-06T10:43:43.181Z</time>
      </trkpt>
      <trkpt lat="48.51216" lon="-3.3658">
        <ele>267</ele>
        <time>2022-04-06T10:43:48.170Z</time>
      </trkpt>
      <trkpt lat="48.51215" lon="-3.36586">
        <ele>267</ele>
        <time>2022-04-06T10:43:52.172Z</time>
      </trkpt>
      <trkpt lat="48.51214" lon="-3.36594">
        <ele>267</ele>
        <time>2022-04-06T10:43:57.179Z</time>
      </trkpt>
      <trkpt lat="48.51208" lon="-3.36602">
        <ele>266</ele>
        <time>2022-04-06T10:44:02.166Z</time>
      </trkpt>
      <trkpt lat="48.51208" lon="-3.36609">
        <ele>267</ele>
        <time>2022-04-06T10:44:06.173Z</time>
      </trkpt>
      <trkpt lat="48.51206" lon="-3.36619">
        <ele>267</ele>
        <time>2022-04-06T10:44:11.168Z</time>
      </trkpt>
      <trkpt lat="48.51203" lon="-3.36627">
        <ele>266</ele>
        <time>2022-04-06T10:44:16.178Z</time>
      </trkpt>
      <trkpt lat="48.512" lon="-3.36635">
        <ele>266</ele>
        <time>2022-04-06T10:44:21.174Z</time>
      </trkpt>
      <trkpt lat="48.51198" lon="-3.36638">
        <ele>266</ele>
        <time>2022-04-06T10:44:25.182Z</time>
      </trkpt>
      <trkpt lat="48.512" lon="-3.36636">
        <ele>266</ele>
        <time>2022-04-06T10:47:01.172Z</time>
      </trkpt>
      <trkpt lat="48.512" lon="-3.36643">
        <ele>266</ele>
        <time>2022-04-06T10:47:05.174Z</time>
      </trkpt>
      <trkpt lat="48.51198" lon="-3.36649">
        <ele>266</ele>
        <time>2022-04-06T10:47:09.180Z</time>
      </trkpt>
      <trkpt lat="48.51196" lon="-3.36656">
        <ele>265</ele>
        <time>2022-04-06T10:47:14.170Z</time>
      </trkpt>
      <trkpt lat="48.51195" lon="-3.36663">
        <ele>265</ele>
        <time>2022-04-06T10:47:19.171Z</time>
      </trkpt>
      <trkpt lat="48.51192" lon="-3.3667">
        <ele>265</ele>
        <time>2022-04-06T10:47:24.178Z</time>
      </trkpt>
      <trkpt lat="48.5119" lon="-3.36677">
        <ele>265</ele>
        <time>2022-04-06T10:47:29.173Z</time>
      </trkpt>
      <trkpt lat="48.51187" lon="-3.36685">
        <ele>264</ele>
        <time>2022-04-06T10:47:34.173Z</time>
      </trkpt>
      <trkpt lat="48.51184" lon="-3.36691">
        <ele>264</ele>
        <time>2022-04-06T10:47:39.170Z</time>
      </trkpt>
      <trkpt lat="48.51181" lon="-3.36695">
        <ele>264</ele>
        <time>2022-04-06T10:47:43.175Z</time>
      </trkpt>
      <trkpt lat="48.5118" lon="-3.36703">
        <ele>261</ele>
        <time>2022-04-06T10:47:48.180Z</time>
      </trkpt>
      <trkpt lat="48.51177" lon="-3.36711">
        <ele>260</ele>
        <time>2022-04-06T10:47:53.181Z</time>
      </trkpt>
      <trkpt lat="48.51175" lon="-3.3672">
        <ele>260</ele>
        <time>2022-04-06T10:47:58.180Z</time>
      </trkpt>
      <trkpt lat="48.51172" lon="-3.36727">
        <ele>260</ele>
        <time>2022-04-06T10:48:03.172Z</time>
      </trkpt>
      <trkpt lat="48.51168" lon="-3.36732">
        <ele>260</ele>
        <time>2022-04-06T10:48:08.174Z</time>
      </trkpt>
      <trkpt lat="48.51166" lon="-3.36738">
        <ele>258</ele>
        <time>2022-04-06T10:48:13.171Z</time>
      </trkpt>
      <trkpt lat="48.51163" lon="-3.36743">
        <ele>258</ele>
        <time>2022-04-06T10:48:18.173Z</time>
      </trkpt>
      <trkpt lat="48.5116" lon="-3.3675">
        <ele>258</ele>
        <time>2022-04-06T10:48:23.171Z</time>
      </trkpt>
      <trkpt lat="48.5116" lon="-3.36756">
        <ele>258</ele>
        <time>2022-04-06T10:48:27.176Z</time>
      </trkpt>
      <trkpt lat="48.51157" lon="-3.36764">
        <ele>258</ele>
        <time>2022-04-06T10:48:32.174Z</time>
      </trkpt>
      <trkpt lat="48.51154" lon="-3.36767">
        <ele>256</ele>
        <time>2022-04-06T10:48:36.177Z</time>
      </trkpt>
      <trkpt lat="48.51152" lon="-3.36773">
        <ele>254</ele>
        <time>2022-04-06T10:48:41.177Z</time>
      </trkpt>
      <trkpt lat="48.51149" lon="-3.36779">
        <ele>254</ele>
        <time>2022-04-06T10:48:46.187Z</time>
      </trkpt>
      <trkpt lat="48.51147" lon="-3.36786">
        <ele>254</ele>
        <time>2022-04-06T10:48:51.173Z</time>
      </trkpt>
      <trkpt lat="48.51146" lon="-3.36792">
        <ele>252</ele>
        <time>2022-04-06T10:48:55.174Z</time>
      </trkpt>
      <trkpt lat="48.51143" lon="-3.36797">
        <ele>252</ele>
        <time>2022-04-06T10:49:00.174Z</time>
      </trkpt>
      <trkpt lat="48.5114" lon="-3.36804">
        <ele>252</ele>
        <time>2022-04-06T10:49:05.178Z</time>
      </trkpt>
      <trkpt lat="48.51139" lon="-3.36811">
        <ele>252</ele>
        <time>2022-04-06T10:49:10.181Z</time>
      </trkpt>
      <trkpt lat="48.51136" lon="-3.36815">
        <ele>252</ele>
        <time>2022-04-06T10:49:15.171Z</time>
      </trkpt>
      <trkpt lat="48.51135" lon="-3.36822">
        <ele>252</ele>
        <time>2022-04-06T10:49:19.176Z</time>
      </trkpt>
      <trkpt lat="48.51132" lon="-3.36827">
        <ele>252</ele>
        <time>2022-04-06T10:49:24.179Z</time>
      </trkpt>
      <trkpt lat="48.5113" lon="-3.36834">
        <ele>252</ele>
        <time>2022-04-06T10:49:29.175Z</time>
      </trkpt>
      <trkpt lat="48.51128" lon="-3.3684">
        <ele>252</ele>
        <time>2022-04-06T10:49:34.181Z</time>
      </trkpt>
      <trkpt lat="48.51126" lon="-3.36848">
        <ele>251</ele>
        <time>2022-04-06T10:49:39.170Z</time>
      </trkpt>
      <trkpt lat="48.51124" lon="-3.36854">
        <ele>249</ele>
        <time>2022-04-06T10:49:43.175Z</time>
      </trkpt>
      <trkpt lat="48.51121" lon="-3.36861">
        <ele>249</ele>
        <time>2022-04-06T10:49:48.181Z</time>
      </trkpt>
      <trkpt lat="48.51119" lon="-3.36869">
        <ele>249</ele>
        <time>2022-04-06T10:49:53.180Z</time>
      </trkpt>
      <trkpt lat="48.51116" lon="-3.36878">
        <ele>249</ele>
        <time>2022-04-06T10:49:58.181Z</time>
      </trkpt>
      <trkpt lat="48.51114" lon="-3.36886">
        <ele>249</ele>
        <time>2022-04-06T10:50:03.174Z</time>
      </trkpt>
      <trkpt lat="48.51112" lon="-3.36895">
        <ele>249</ele>
        <time>2022-04-06T10:50:08.174Z</time>
      </trkpt>
      <trkpt lat="48.51111" lon="-3.36902">
        <ele>249</ele>
        <time>2022-04-06T10:50:13.178Z</time>
      </trkpt>
      <trkpt lat="48.51109" lon="-3.36909">
        <ele>250</ele>
        <time>2022-04-06T10:50:17.178Z</time>
      </trkpt>
      <trkpt lat="48.51107" lon="-3.36915">
        <ele>250</ele>
        <time>2022-04-06T10:50:22.169Z</time>
      </trkpt>
      <trkpt lat="48.51107" lon="-3.36919">
        <ele>250</ele>
        <time>2022-04-06T10:50:27.169Z</time>
      </trkpt>
      <trkpt lat="48.51107" lon="-3.3692">
        <ele>250</ele>
        <time>2022-04-06T10:50:31.176Z</time>
      </trkpt>
      <trkpt lat="48.51107" lon="-3.36924">
        <ele>250</ele>
        <time>2022-04-06T10:50:35.185Z</time>
      </trkpt>
      <trkpt lat="48.51104" lon="-3.36935">
        <ele>249</ele>
        <time>2022-04-06T10:50:40.183Z</time>
      </trkpt>
      <trkpt lat="48.51103" lon="-3.36944">
        <ele>249</ele>
        <time>2022-04-06T10:50:45.179Z</time>
      </trkpt>
      <trkpt lat="48.511" lon="-3.36954">
        <ele>249</ele>
        <time>2022-04-06T10:50:50.171Z</time>
      </trkpt>
      <trkpt lat="48.51098" lon="-3.36965">
        <ele>246</ele>
        <time>2022-04-06T10:50:55.177Z</time>
      </trkpt>
      <trkpt lat="48.51097" lon="-3.36974">
        <ele>245</ele>
        <time>2022-04-06T10:51:00.177Z</time>
      </trkpt>
      <trkpt lat="48.51096" lon="-3.36981">
        <ele>245</ele>
        <time>2022-04-06T10:51:04.225Z</time>
      </trkpt>
      <trkpt lat="48.51095" lon="-3.36991">
        <ele>244</ele>
        <time>2022-04-06T10:51:09.176Z</time>
      </trkpt>
      <trkpt lat="48.51093" lon="-3.37002">
        <ele>244</ele>
        <time>2022-04-06T10:51:14.171Z</time>
      </trkpt>
      <trkpt lat="48.51092" lon="-3.3701">
        <ele>244</ele>
        <time>2022-04-06T10:51:19.172Z</time>
      </trkpt>
      <trkpt lat="48.5109" lon="-3.37019">
        <ele>242</ele>
        <time>2022-04-06T10:51:24.170Z</time>
      </trkpt>
      <trkpt lat="48.51088" lon="-3.37027">
        <ele>242</ele>
        <time>2022-04-06T10:51:29.172Z</time>
      </trkpt>
      <trkpt lat="48.51086" lon="-3.37038">
        <ele>242</ele>
        <time>2022-04-06T10:51:34.175Z</time>
      </trkpt>
      <trkpt lat="48.51083" lon="-3.37047">
        <ele>241</ele>
        <time>2022-04-06T10:51:39.179Z</time>
      </trkpt>
      <trkpt lat="48.5108" lon="-3.37056">
        <ele>241</ele>
        <time>2022-04-06T10:51:44.177Z</time>
      </trkpt>
      <trkpt lat="48.51077" lon="-3.37067">
        <ele>241</ele>
        <time>2022-04-06T10:51:49.174Z</time>
      </trkpt>
      <trkpt lat="48.51075" lon="-3.37076">
        <ele>241</ele>
        <time>2022-04-06T10:51:54.175Z</time>
      </trkpt>
      <trkpt lat="48.51073" lon="-3.37084">
        <ele>241</ele>
        <time>2022-04-06T10:51:59.176Z</time>
      </trkpt>
      <trkpt lat="48.51071" lon="-3.37092">
        <ele>241</ele>
        <time>2022-04-06T10:52:03.177Z</time>
      </trkpt>
      <trkpt lat="48.51069" lon="-3.37099">
        <ele>241</ele>
        <time>2022-04-06T10:52:07.182Z</time>
      </trkpt>
      <trkpt lat="48.51066" lon="-3.3711">
        <ele>241</ele>
        <time>2022-04-06T10:52:12.180Z</time>
      </trkpt>
      <trkpt lat="48.51064" lon="-3.37121">
        <ele>241</ele>
        <time>2022-04-06T10:52:17.180Z</time>
      </trkpt>
      <trkpt lat="48.51061" lon="-3.37129">
        <ele>238</ele>
        <time>2022-04-06T10:52:22.175Z</time>
      </trkpt>
      <trkpt lat="48.5106" lon="-3.37137">
        <ele>238</ele>
        <time>2022-04-06T10:52:26.177Z</time>
      </trkpt>
      <trkpt lat="48.51057" lon="-3.37146">
        <ele>238</ele>
        <time>2022-04-06T10:52:31.172Z</time>
      </trkpt>
      <trkpt lat="48.51054" lon="-3.37155">
        <ele>235</ele>
        <time>2022-04-06T10:52:36.176Z</time>
      </trkpt>
      <trkpt lat="48.51052" lon="-3.37165">
        <ele>235</ele>
        <time>2022-04-06T10:52:41.175Z</time>
      </trkpt>
      <trkpt lat="48.51052" lon="-3.37175">
        <ele>235</ele>
        <time>2022-04-06T10:52:46.178Z</time>
      </trkpt>
      <trkpt lat="48.51051" lon="-3.37186">
        <ele>232</ele>
        <time>2022-04-06T10:52:51.172Z</time>
      </trkpt>
      <trkpt lat="48.51051" lon="-3.37194">
        <ele>232</ele>
        <time>2022-04-06T10:52:55.178Z</time>
      </trkpt>
      <trkpt lat="48.51052" lon="-3.37204">
        <ele>232</ele>
        <time>2022-04-06T10:53:00.175Z</time>
      </trkpt>
      <trkpt lat="48.51052" lon="-3.37214">
        <ele>228</ele>
        <time>2022-04-06T10:53:04.178Z</time>
      </trkpt>
      <trkpt lat="48.51051" lon="-3.37224">
        <ele>228</ele>
        <time>2022-04-06T10:53:09.178Z</time>
      </trkpt>
      <trkpt lat="48.51051" lon="-3.37234">
        <ele>228</ele>
        <time>2022-04-06T10:53:13.172Z</time>
      </trkpt>
      <trkpt lat="48.51052" lon="-3.37244">
        <ele>225</ele>
        <time>2022-04-06T10:53:18.171Z</time>
      </trkpt>
      <trkpt lat="48.51052" lon="-3.37252">
        <ele>225</ele>
        <time>2022-04-06T10:53:22.181Z</time>
      </trkpt>
      <trkpt lat="48.51052" lon="-3.37258">
        <ele>225</ele>
        <time>2022-04-06T10:53:26.182Z</time>
      </trkpt>
      <trkpt lat="48.51053" lon="-3.37268">
        <ele>222</ele>
        <time>2022-04-06T10:53:31.166Z</time>
      </trkpt>
      <trkpt lat="48.51054" lon="-3.37276">
        <ele>222</ele>
        <time>2022-04-06T10:53:35.180Z</time>
      </trkpt>
      <trkpt lat="48.51055" lon="-3.37285">
        <ele>222</ele>
        <time>2022-04-06T10:53:40.168Z</time>
      </trkpt>
      <trkpt lat="48.51055" lon="-3.37293">
        <ele>221</ele>
        <time>2022-04-06T10:53:44.172Z</time>
      </trkpt>
      <trkpt lat="48.51057" lon="-3.37302">
        <ele>221</ele>
        <time>2022-04-06T10:53:49.178Z</time>
      </trkpt>
      <trkpt lat="48.51057" lon="-3.37311">
        <ele>221</ele>
        <time>2022-04-06T10:53:54.175Z</time>
      </trkpt>
      <trkpt lat="48.51058" lon="-3.37319">
        <ele>221</ele>
        <time>2022-04-06T10:53:59.176Z</time>
      </trkpt>
      <trkpt lat="48.51058" lon="-3.37326">
        <ele>219</ele>
        <time>2022-04-06T10:54:04.176Z</time>
      </trkpt>
      <trkpt lat="48.51058" lon="-3.37329">
        <ele>219</ele>
        <time>2022-04-06T10:54:09.179Z</time>
      </trkpt>
      <trkpt lat="48.51058" lon="-3.37332">
        <ele>219</ele>
        <time>2022-04-06T10:54:14.175Z</time>
      </trkpt>
      <trkpt lat="48.51059" lon="-3.37334">
        <ele>219</ele>
        <time>2022-04-06T10:54:18.177Z</time>
      </trkpt>
      <trkpt lat="48.5106" lon="-3.37343">
        <ele>219</ele>
        <time>2022-04-06T10:54:23.176Z</time>
      </trkpt>
      <trkpt lat="48.5106" lon="-3.37351">
        <ele>219</ele>
        <time>2022-04-06T10:54:28.184Z</time>
      </trkpt>
      <trkpt lat="48.51061" lon="-3.37359">
        <ele>219</ele>
        <time>2022-04-06T10:54:32.198Z</time>
      </trkpt>
      <trkpt lat="48.51057" lon="-3.37373">
        <ele>219</ele>
        <time>2022-04-06T10:54:37.182Z</time>
      </trkpt>
      <trkpt lat="48.51061" lon="-3.37382">
        <ele>219</ele>
        <time>2022-04-06T10:54:41.199Z</time>
      </trkpt>
      <trkpt lat="48.51062" lon="-3.37389">
        <ele>219</ele>
        <time>2022-04-06T10:54:45.205Z</time>
      </trkpt>
      <trkpt lat="48.51063" lon="-3.37398">
        <ele>219</ele>
        <time>2022-04-06T10:54:50.205Z</time>
      </trkpt>
      <trkpt lat="48.51065" lon="-3.37407">
        <ele>219</ele>
        <time>2022-04-06T10:54:55.187Z</time>
      </trkpt>
      <trkpt lat="48.51066" lon="-3.37415">
        <ele>219</ele>
        <time>2022-04-06T10:54:59.209Z</time>
      </trkpt>
      <trkpt lat="48.51066" lon="-3.37424">
        <ele>219</ele>
        <time>2022-04-06T10:55:04.181Z</time>
      </trkpt>
      <trkpt lat="48.51067" lon="-3.37435">
        <ele>218</ele>
        <time>2022-04-06T10:55:09.176Z</time>
      </trkpt>
      <trkpt lat="48.51067" lon="-3.37444">
        <ele>218</ele>
        <time>2022-04-06T10:55:13.181Z</time>
      </trkpt>
      <trkpt lat="48.51069" lon="-3.37454">
        <ele>218</ele>
        <time>2022-04-06T10:55:18.181Z</time>
      </trkpt>
      <trkpt lat="48.5107" lon="-3.37462">
        <ele>218</ele>
        <time>2022-04-06T10:55:23.175Z</time>
      </trkpt>
      <trkpt lat="48.5107" lon="-3.37473">
        <ele>218</ele>
        <time>2022-04-06T10:55:27.178Z</time>
      </trkpt>
      <trkpt lat="48.5107" lon="-3.37478">
        <ele>218</ele>
        <time>2022-04-06T10:55:31.196Z</time>
      </trkpt>
      <trkpt lat="48.51072" lon="-3.37489">
        <ele>216</ele>
        <time>2022-04-06T10:55:36.203Z</time>
      </trkpt>
      <trkpt lat="48.51073" lon="-3.37498">
        <ele>216</ele>
        <time>2022-04-06T10:55:41.171Z</time>
      </trkpt>
      <trkpt lat="48.51075" lon="-3.37505">
        <ele>216</ele>
        <time>2022-04-06T10:55:46.168Z</time>
      </trkpt>
      <trkpt lat="48.5108" lon="-3.37511">
        <ele>216</ele>
        <time>2022-04-06T10:55:51.168Z</time>
      </trkpt>
      <trkpt lat="48.51086" lon="-3.37519">
        <ele>214</ele>
        <time>2022-04-06T10:55:55.228Z</time>
      </trkpt>
      <trkpt lat="48.51091" lon="-3.37524">
        <ele>214</ele>
        <time>2022-04-06T10:56:00.178Z</time>
      </trkpt>
      <trkpt lat="48.51096" lon="-3.37528">
        <ele>214</ele>
        <time>2022-04-06T10:56:04.185Z</time>
      </trkpt>
      <trkpt lat="48.51103" lon="-3.37531">
        <ele>216</ele>
        <time>2022-04-06T10:56:09.173Z</time>
      </trkpt>
      <trkpt lat="48.51107" lon="-3.37532">
        <ele>216</ele>
        <time>2022-04-06T10:56:13.181Z</time>
      </trkpt>
      <trkpt lat="48.51112" lon="-3.37534">
        <ele>216</ele>
        <time>2022-04-06T10:56:18.170Z</time>
      </trkpt>
      <trkpt lat="48.51117" lon="-3.37539">
        <ele>216</ele>
        <time>2022-04-06T10:56:23.172Z</time>
      </trkpt>
      <trkpt lat="48.51123" lon="-3.37542">
        <ele>214</ele>
        <time>2022-04-06T10:56:28.180Z</time>
      </trkpt>
      <trkpt lat="48.51129" lon="-3.37545">
        <ele>213</ele>
        <time>2022-04-06T10:56:33.186Z</time>
      </trkpt>
      <trkpt lat="48.51135" lon="-3.37548">
        <ele>213</ele>
        <time>2022-04-06T10:56:38.177Z</time>
      </trkpt>
      <trkpt lat="48.51141" lon="-3.3755">
        <ele>213</ele>
        <time>2022-04-06T10:56:43.202Z</time>
      </trkpt>
      <trkpt lat="48.51146" lon="-3.37548">
        <ele>213</ele>
        <time>2022-04-06T10:56:48.182Z</time>
      </trkpt>
      <trkpt lat="48.51149" lon="-3.37543">
        <ele>213</ele>
        <time>2022-04-06T10:56:52.182Z</time>
      </trkpt>
      <trkpt lat="48.51149" lon="-3.37536">
        <ele>214</ele>
        <time>2022-04-06T10:56:56.228Z</time>
      </trkpt>
      <trkpt lat="48.51149" lon="-3.37529">
        <ele>214</ele>
        <time>2022-04-06T10:57:01.201Z</time>
      </trkpt>
      <trkpt lat="48.5115" lon="-3.37521">
        <ele>214</ele>
        <time>2022-04-06T10:57:06.180Z</time>
      </trkpt>
      <trkpt lat="48.51153" lon="-3.37514">
        <ele>214</ele>
        <time>2022-04-06T10:57:11.171Z</time>
      </trkpt>
      <trkpt lat="48.51157" lon="-3.37505">
        <ele>214</ele>
        <time>2022-04-06T10:57:16.175Z</time>
      </trkpt>
      <trkpt lat="48.51156" lon="-3.375">
        <ele>214</ele>
        <time>2022-04-06T10:57:20.193Z</time>
      </trkpt>
      <trkpt lat="48.51158" lon="-3.37493">
        <ele>214</ele>
        <time>2022-04-06T10:57:25.170Z</time>
      </trkpt>
      <trkpt lat="48.51159" lon="-3.37486">
        <ele>214</ele>
        <time>2022-04-06T10:57:29.176Z</time>
      </trkpt>
      <trkpt lat="48.5116" lon="-3.3748">
        <ele>215</ele>
        <time>2022-04-06T10:57:34.177Z</time>
      </trkpt>
      <trkpt lat="48.51162" lon="-3.37474">
        <ele>215</ele>
        <time>2022-04-06T10:57:39.180Z</time>
      </trkpt>
      <trkpt lat="48.51164" lon="-3.37465">
        <ele>215</ele>
        <time>2022-04-06T10:57:44.169Z</time>
      </trkpt>
      <trkpt lat="48.51166" lon="-3.3746">
        <ele>215</ele>
        <time>2022-04-06T10:57:48.176Z</time>
      </trkpt>
      <trkpt lat="48.51168" lon="-3.37452">
        <ele>217</ele>
        <time>2022-04-06T10:57:53.173Z</time>
      </trkpt>
      <trkpt lat="48.5117" lon="-3.37444">
        <ele>217</ele>
        <time>2022-04-06T10:57:58.173Z</time>
      </trkpt>
      <trkpt lat="48.51173" lon="-3.37438">
        <ele>217</ele>
        <time>2022-04-06T10:58:03.177Z</time>
      </trkpt>
      <trkpt lat="48.51173" lon="-3.37433">
        <ele>217</ele>
        <time>2022-04-06T10:58:07.178Z</time>
      </trkpt>
      <trkpt lat="48.51176" lon="-3.37426">
        <ele>219</ele>
        <time>2022-04-06T10:58:12.173Z</time>
      </trkpt>
      <trkpt lat="48.51178" lon="-3.37418">
        <ele>219</ele>
        <time>2022-04-06T10:58:17.176Z</time>
      </trkpt>
      <trkpt lat="48.51179" lon="-3.37409">
        <ele>219</ele>
        <time>2022-04-06T10:58:22.172Z</time>
      </trkpt>
      <trkpt lat="48.51182" lon="-3.37404">
        <ele>219</ele>
        <time>2022-04-06T10:58:26.178Z</time>
      </trkpt>
      <trkpt lat="48.51186" lon="-3.374">
        <ele>221</ele>
        <time>2022-04-06T10:58:31.173Z</time>
      </trkpt>
      <trkpt lat="48.51191" lon="-3.37402">
        <ele>221</ele>
        <time>2022-04-06T10:58:35.183Z</time>
      </trkpt>
      <trkpt lat="48.51195" lon="-3.37406">
        <ele>219</ele>
        <time>2022-04-06T10:58:39.182Z</time>
      </trkpt>
      <trkpt lat="48.51199" lon="-3.3741">
        <ele>219</ele>
        <time>2022-04-06T10:58:44.190Z</time>
      </trkpt>
      <trkpt lat="48.51204" lon="-3.37415">
        <ele>219</ele>
        <time>2022-04-06T10:58:49.182Z</time>
      </trkpt>
      <trkpt lat="48.5121" lon="-3.37418">
        <ele>219</ele>
        <time>2022-04-06T10:58:54.179Z</time>
      </trkpt>
      <trkpt lat="48.51216" lon="-3.37422">
        <ele>219</ele>
        <time>2022-04-06T10:58:59.185Z</time>
      </trkpt>
      <trkpt lat="48.51221" lon="-3.37423">
        <ele>219</ele>
        <time>2022-04-06T10:59:03.190Z</time>
      </trkpt>
      <trkpt lat="48.51226" lon="-3.37426">
        <ele>219</ele>
        <time>2022-04-06T10:59:08.180Z</time>
      </trkpt>
      <trkpt lat="48.51231" lon="-3.37429">
        <ele>219</ele>
        <time>2022-04-06T10:59:13.183Z</time>
      </trkpt>
      <trkpt lat="48.51236" lon="-3.37432">
        <ele>217</ele>
        <time>2022-04-06T10:59:18.182Z</time>
      </trkpt>
      <trkpt lat="48.51241" lon="-3.37434">
        <ele>217</ele>
        <time>2022-04-06T10:59:22.188Z</time>
      </trkpt>
      <trkpt lat="48.51245" lon="-3.37435">
        <ele>217</ele>
        <time>2022-04-06T10:59:26.198Z</time>
      </trkpt>
      <trkpt lat="48.51249" lon="-3.37436">
        <ele>217</ele>
        <time>2022-04-06T10:59:30.206Z</time>
      </trkpt>
      <trkpt lat="48.51254" lon="-3.37438">
        <ele>217</ele>
        <time>2022-04-06T10:59:35.203Z</time>
      </trkpt>
      <trkpt lat="48.51259" lon="-3.37439">
        <ele>217</ele>
        <time>2022-04-06T10:59:40.198Z</time>
      </trkpt>
      <trkpt lat="48.51264" lon="-3.37442">
        <ele>218</ele>
        <time>2022-04-06T10:59:45.195Z</time>
      </trkpt>
      <trkpt lat="48.51269" lon="-3.37445">
        <ele>218</ele>
        <time>2022-04-06T10:59:50.199Z</time>
      </trkpt>
      <trkpt lat="48.51274" lon="-3.37449">
        <ele>218</ele>
        <time>2022-04-06T10:59:55.174Z</time>
      </trkpt>
      <trkpt lat="48.51278" lon="-3.37452">
        <ele>218</ele>
        <time>2022-04-06T10:59:59.261Z</time>
      </trkpt>
      <trkpt lat="48.51284" lon="-3.37454">
        <ele>218</ele>
        <time>2022-04-06T11:00:04.173Z</time>
      </trkpt>
      <trkpt lat="48.51289" lon="-3.37456">
        <ele>218</ele>
        <time>2022-04-06T11:00:09.174Z</time>
      </trkpt>
      <trkpt lat="48.51294" lon="-3.37459">
        <ele>215</ele>
        <time>2022-04-06T11:00:14.170Z</time>
      </trkpt>
      <trkpt lat="48.51299" lon="-3.37462">
        <ele>215</ele>
        <time>2022-04-06T11:00:18.171Z</time>
      </trkpt>
      <trkpt lat="48.51303" lon="-3.37463">
        <ele>215</ele>
        <time>2022-04-06T11:00:22.177Z</time>
      </trkpt>
      <trkpt lat="48.51309" lon="-3.37465">
        <ele>215</ele>
        <time>2022-04-06T11:00:27.181Z</time>
      </trkpt>
      <trkpt lat="48.51314" lon="-3.37468">
        <ele>215</ele>
        <time>2022-04-06T11:00:32.175Z</time>
      </trkpt>
      <trkpt lat="48.51319" lon="-3.37471">
        <ele>215</ele>
        <time>2022-04-06T11:00:36.173Z</time>
      </trkpt>
      <trkpt lat="48.51324" lon="-3.37474">
        <ele>216</ele>
        <time>2022-04-06T11:00:41.174Z</time>
      </trkpt>
      <trkpt lat="48.5133" lon="-3.37476">
        <ele>216</ele>
        <time>2022-04-06T11:00:46.178Z</time>
      </trkpt>
      <trkpt lat="48.51335" lon="-3.37479">
        <ele>216</ele>
        <time>2022-04-06T11:00:51.178Z</time>
      </trkpt>
      <trkpt lat="48.51341" lon="-3.37482">
        <ele>216</ele>
        <time>2022-04-06T11:00:56.176Z</time>
      </trkpt>
      <trkpt lat="48.51347" lon="-3.37485">
        <ele>216</ele>
        <time>2022-04-06T11:01:01.176Z</time>
      </trkpt>
      <trkpt lat="48.51353" lon="-3.37488">
        <ele>213</ele>
        <time>2022-04-06T11:01:06.182Z</time>
      </trkpt>
      <trkpt lat="48.51358" lon="-3.37492">
        <ele>213</ele>
        <time>2022-04-06T11:01:11.173Z</time>
      </trkpt>
      <trkpt lat="48.51361" lon="-3.37493">
        <ele>213</ele>
        <time>2022-04-06T11:01:15.176Z</time>
      </trkpt>
      <trkpt lat="48.51364" lon="-3.37495">
        <ele>213</ele>
        <time>2022-04-06T11:01:19.177Z</time>
      </trkpt>
      <trkpt lat="48.5137" lon="-3.37497">
        <ele>213</ele>
        <time>2022-04-06T11:01:24.177Z</time>
      </trkpt>
      <trkpt lat="48.51375" lon="-3.37499">
        <ele>210</ele>
        <time>2022-04-06T11:01:29.171Z</time>
      </trkpt>
      <trkpt lat="48.51381" lon="-3.37501">
        <ele>210</ele>
        <time>2022-04-06T11:01:34.172Z</time>
      </trkpt>
      <trkpt lat="48.51385" lon="-3.37503">
        <ele>210</ele>
        <time>2022-04-06T11:01:38.185Z</time>
      </trkpt>
      <trkpt lat="48.5139" lon="-3.37505">
        <ele>210</ele>
        <time>2022-04-06T11:01:42.186Z</time>
      </trkpt>
      <trkpt lat="48.51396" lon="-3.37508">
        <ele>210</ele>
        <time>2022-04-06T11:01:47.180Z</time>
      </trkpt>
      <trkpt lat="48.51402" lon="-3.3751">
        <ele>210</ele>
        <time>2022-04-06T11:01:52.169Z</time>
      </trkpt>
      <trkpt lat="48.51408" lon="-3.37513">
        <ele>205</ele>
        <time>2022-04-06T11:01:57.169Z</time>
      </trkpt>
      <trkpt lat="48.51412" lon="-3.37516">
        <ele>204</ele>
        <time>2022-04-06T11:02:01.172Z</time>
      </trkpt>
      <trkpt lat="48.51417" lon="-3.37518">
        <ele>204</ele>
        <time>2022-04-06T11:02:06.176Z</time>
      </trkpt>
      <trkpt lat="48.51423" lon="-3.3752">
        <ele>204</ele>
        <time>2022-04-06T11:02:11.174Z</time>
      </trkpt>
      <trkpt lat="48.51427" lon="-3.37523">
        <ele>204</ele>
        <time>2022-04-06T11:02:16.176Z</time>
      </trkpt>
      <trkpt lat="48.51431" lon="-3.37528">
        <ele>201</ele>
        <time>2022-04-06T11:02:21.175Z</time>
      </trkpt>
      <trkpt lat="48.5143" lon="-3.37535">
        <ele>204</ele>
        <time>2022-04-06T11:02:26.174Z</time>
      </trkpt>
      <trkpt lat="48.51428" lon="-3.37541">
        <ele>204</ele>
        <time>2022-04-06T11:02:30.185Z</time>
      </trkpt>
      <trkpt lat="48.51427" lon="-3.37548">
        <ele>203</ele>
        <time>2022-04-06T11:02:35.182Z</time>
      </trkpt>
      <trkpt lat="48.51425" lon="-3.37555">
        <ele>203</ele>
        <time>2022-04-06T11:02:40.183Z</time>
      </trkpt>
      <trkpt lat="48.51423" lon="-3.37561">
        <ele>203</ele>
        <time>2022-04-06T11:02:45.176Z</time>
      </trkpt>
      <trkpt lat="48.51423" lon="-3.37568">
        <ele>203</ele>
        <time>2022-04-06T11:02:49.178Z</time>
      </trkpt>
      <trkpt lat="48.51423" lon="-3.37575">
        <ele>202</ele>
        <time>2022-04-06T11:02:54.177Z</time>
      </trkpt>
      <trkpt lat="48.51421" lon="-3.37581">
        <ele>202</ele>
        <time>2022-04-06T11:02:59.174Z</time>
      </trkpt>
      <trkpt lat="48.5142" lon="-3.37588">
        <ele>202</ele>
        <time>2022-04-06T11:03:04.176Z</time>
      </trkpt>
      <trkpt lat="48.51419" lon="-3.37594">
        <ele>202</ele>
        <time>2022-04-06T11:03:09.175Z</time>
      </trkpt>
      <trkpt lat="48.51419" lon="-3.37599">
        <ele>199</ele>
        <time>2022-04-06T11:03:13.172Z</time>
      </trkpt>
      <trkpt lat="48.51417" lon="-3.37605">
        <ele>199</ele>
        <time>2022-04-06T11:03:17.173Z</time>
      </trkpt>
      <trkpt lat="48.51417" lon="-3.37612">
        <ele>199</ele>
        <time>2022-04-06T11:03:22.173Z</time>
      </trkpt>
      <trkpt lat="48.51415" lon="-3.3762">
        <ele>199</ele>
        <time>2022-04-06T11:03:27.180Z</time>
      </trkpt>
      <trkpt lat="48.51413" lon="-3.37627">
        <ele>198</ele>
        <time>2022-04-06T11:03:32.180Z</time>
      </trkpt>
      <trkpt lat="48.51412" lon="-3.37635">
        <ele>198</ele>
        <time>2022-04-06T11:03:37.175Z</time>
      </trkpt>
      <trkpt lat="48.51409" lon="-3.37643">
        <ele>198</ele>
        <time>2022-04-06T11:03:42.173Z</time>
      </trkpt>
      <trkpt lat="48.51407" lon="-3.3765">
        <ele>198</ele>
        <time>2022-04-06T11:03:47.177Z</time>
      </trkpt>
      <trkpt lat="48.51406" lon="-3.37657">
        <ele>195</ele>
        <time>2022-04-06T11:03:52.180Z</time>
      </trkpt>
      <trkpt lat="48.51404" lon="-3.37663">
        <ele>195</ele>
        <time>2022-04-06T11:03:57.178Z</time>
      </trkpt>
      <trkpt lat="48.51403" lon="-3.3767">
        <ele>196</ele>
        <time>2022-04-06T11:04:01.185Z</time>
      </trkpt>
      <trkpt lat="48.51401" lon="-3.37678">
        <ele>196</ele>
        <time>2022-04-06T11:04:06.173Z</time>
      </trkpt>
      <trkpt lat="48.51398" lon="-3.37685">
        <ele>192</ele>
        <time>2022-04-06T11:04:10.176Z</time>
      </trkpt>
      <trkpt lat="48.51396" lon="-3.37694">
        <ele>192</ele>
        <time>2022-04-06T11:04:15.173Z</time>
      </trkpt>
      <trkpt lat="48.51394" lon="-3.37701">
        <ele>192</ele>
        <time>2022-04-06T11:04:19.175Z</time>
      </trkpt>
      <trkpt lat="48.51392" lon="-3.37709">
        <ele>189</ele>
        <time>2022-04-06T11:04:23.177Z</time>
      </trkpt>
      <trkpt lat="48.51391" lon="-3.37715">
        <ele>189</ele>
        <time>2022-04-06T11:04:28.172Z</time>
      </trkpt>
      <trkpt lat="48.51389" lon="-3.37721">
        <ele>189</ele>
        <time>2022-04-06T11:04:32.175Z</time>
      </trkpt>
      <trkpt lat="48.51388" lon="-3.37729">
        <ele>189</ele>
        <time>2022-04-06T11:04:37.175Z</time>
      </trkpt>
      <trkpt lat="48.51386" lon="-3.37737">
        <ele>187</ele>
        <time>2022-04-06T11:04:42.175Z</time>
      </trkpt>
      <trkpt lat="48.51385" lon="-3.37743">
        <ele>187</ele>
        <time>2022-04-06T11:04:47.181Z</time>
      </trkpt>
      <trkpt lat="48.51383" lon="-3.37751">
        <ele>187</ele>
        <time>2022-04-06T11:04:52.176Z</time>
      </trkpt>
      <trkpt lat="48.51382" lon="-3.37755">
        <ele>187</ele>
        <time>2022-04-06T11:04:57.180Z</time>
      </trkpt>
      <trkpt lat="48.51382" lon="-3.37757">
        <ele>187</ele>
        <time>2022-04-06T11:05:02.189Z</time>
      </trkpt>
      <trkpt lat="48.51382" lon="-3.3776">
        <ele>187</ele>
        <time>2022-04-06T11:05:21.182Z</time>
      </trkpt>
      <trkpt lat="48.51382" lon="-3.37763">
        <ele>187</ele>
        <time>2022-04-06T11:05:26.175Z</time>
      </trkpt>
      <trkpt lat="48.51381" lon="-3.37766">
        <ele>187</ele>
        <time>2022-04-06T11:05:31.177Z</time>
      </trkpt>
      <trkpt lat="48.51382" lon="-3.37771">
        <ele>187</ele>
        <time>2022-04-06T11:05:35.177Z</time>
      </trkpt>
      <trkpt lat="48.51381" lon="-3.3778">
        <ele>187</ele>
        <time>2022-04-06T11:05:40.180Z</time>
      </trkpt>
      <trkpt lat="48.51381" lon="-3.37788">
        <ele>187</ele>
        <time>2022-04-06T11:05:45.179Z</time>
      </trkpt>
      <trkpt lat="48.5138" lon="-3.37793">
        <ele>187</ele>
        <time>2022-04-06T11:05:50.182Z</time>
      </trkpt>
      <trkpt lat="48.5138" lon="-3.37793">
        <ele>187</ele>
        <time>2022-04-06T11:05:55.178Z</time>
      </trkpt>
      <trkpt lat="48.5138" lon="-3.37796">
        <ele>187</ele>
        <time>2022-04-06T11:06:00.177Z</time>
      </trkpt>
      <trkpt lat="48.5138" lon="-3.37801">
        <ele>187</ele>
        <time>2022-04-06T11:06:04.179Z</time>
      </trkpt>
      <trkpt lat="48.51383" lon="-3.37806">
        <ele>187</ele>
        <time>2022-04-06T11:06:09.176Z</time>
      </trkpt>
      <trkpt lat="48.51387" lon="-3.37809">
        <ele>187</ele>
        <time>2022-04-06T11:06:14.175Z</time>
      </trkpt>
      <trkpt lat="48.5139" lon="-3.37812">
        <ele>187</ele>
        <time>2022-04-06T11:06:18.178Z</time>
      </trkpt>
      <trkpt lat="48.51394" lon="-3.37815">
        <ele>187</ele>
        <time>2022-04-06T11:06:23.179Z</time>
      </trkpt>
      <trkpt lat="48.51397" lon="-3.37819">
        <ele>186</ele>
        <time>2022-04-06T11:06:28.172Z</time>
      </trkpt>
      <trkpt lat="48.51399" lon="-3.37823">
        <ele>186</ele>
        <time>2022-04-06T11:06:32.176Z</time>
      </trkpt>
      <trkpt lat="48.51403" lon="-3.37825">
        <ele>186</ele>
        <time>2022-04-06T11:06:37.181Z</time>
      </trkpt>
      <trkpt lat="48.51406" lon="-3.37827">
        <ele>185</ele>
        <time>2022-04-06T11:06:41.175Z</time>
      </trkpt>
      <trkpt lat="48.51409" lon="-3.37834">
        <ele>185</ele>
        <time>2022-04-06T11:06:46.179Z</time>
      </trkpt>
      <trkpt lat="48.51413" lon="-3.37835">
        <ele>185</ele>
        <time>2022-04-06T11:06:51.183Z</time>
      </trkpt>
      <trkpt lat="48.51417" lon="-3.37841">
        <ele>185</ele>
        <time>2022-04-06T11:06:56.180Z</time>
      </trkpt>
      <trkpt lat="48.51421" lon="-3.37843">
        <ele>185</ele>
        <time>2022-04-06T11:07:00.180Z</time>
      </trkpt>
      <trkpt lat="48.51424" lon="-3.37847">
        <ele>182</ele>
        <time>2022-04-06T11:07:05.178Z</time>
      </trkpt>
      <trkpt lat="48.51428" lon="-3.37851">
        <ele>182</ele>
        <time>2022-04-06T11:07:10.176Z</time>
      </trkpt>
      <trkpt lat="48.51432" lon="-3.37853">
        <ele>183</ele>
        <time>2022-04-06T11:07:15.179Z</time>
      </trkpt>
      <trkpt lat="48.51436" lon="-3.37855">
        <ele>183</ele>
        <time>2022-04-06T11:07:20.173Z</time>
      </trkpt>
      <trkpt lat="48.51439" lon="-3.37859">
        <ele>183</ele>
        <time>2022-04-06T11:07:24.178Z</time>
      </trkpt>
      <trkpt lat="48.51443" lon="-3.37862">
        <ele>183</ele>
        <time>2022-04-06T11:07:29.179Z</time>
      </trkpt>
      <trkpt lat="48.51447" lon="-3.37865">
        <ele>183</ele>
        <time>2022-04-06T11:07:34.179Z</time>
      </trkpt>
      <trkpt lat="48.51451" lon="-3.37871">
        <ele>183</ele>
        <time>2022-04-06T11:07:39.174Z</time>
      </trkpt>
      <trkpt lat="48.51455" lon="-3.37875">
        <ele>183</ele>
        <time>2022-04-06T11:07:43.178Z</time>
      </trkpt>
      <trkpt lat="48.51459" lon="-3.37879">
        <ele>183</ele>
        <time>2022-04-06T11:07:48.175Z</time>
      </trkpt>
      <trkpt lat="48.51461" lon="-3.37885">
        <ele>183</ele>
        <time>2022-04-06T11:07:53.174Z</time>
      </trkpt>
      <trkpt lat="48.51464" lon="-3.37892">
        <ele>183</ele>
        <time>2022-04-06T11:07:58.172Z</time>
      </trkpt>
      <trkpt lat="48.51468" lon="-3.37899">
        <ele>183</ele>
        <time>2022-04-06T11:08:03.174Z</time>
      </trkpt>
      <trkpt lat="48.51472" lon="-3.37905">
        <ele>181</ele>
        <time>2022-04-06T11:08:08.176Z</time>
      </trkpt>
      <trkpt lat="48.51475" lon="-3.37913">
        <ele>181</ele>
        <time>2022-04-06T11:08:12.179Z</time>
      </trkpt>
      <trkpt lat="48.51481" lon="-3.37924">
        <ele>181</ele>
        <time>2022-04-06T11:08:17.177Z</time>
      </trkpt>
      <trkpt lat="48.51487" lon="-3.37937">
        <ele>178</ele>
        <time>2022-04-06T11:08:22.176Z</time>
      </trkpt>
      <trkpt lat="48.51492" lon="-3.37949">
        <ele>178</ele>
        <time>2022-04-06T11:08:27.174Z</time>
      </trkpt>
      <trkpt lat="48.51496" lon="-3.37961">
        <ele>175</ele>
        <time>2022-04-06T11:08:32.175Z</time>
      </trkpt>
      <trkpt lat="48.515" lon="-3.37973">
        <ele>175</ele>
        <time>2022-04-06T11:08:37.175Z</time>
      </trkpt>
      <trkpt lat="48.51504" lon="-3.37982">
        <ele>175</ele>
        <time>2022-04-06T11:08:42.175Z</time>
      </trkpt>
      <trkpt lat="48.51506" lon="-3.37992">
        <ele>173</ele>
        <time>2022-04-06T11:08:47.189Z</time>
      </trkpt>
      <trkpt lat="48.51506" lon="-3.38">
        <ele>173</ele>
        <time>2022-04-06T11:08:52.181Z</time>
      </trkpt>
      <trkpt lat="48.51509" lon="-3.38006">
        <ele>173</ele>
        <time>2022-04-06T11:08:57.177Z</time>
      </trkpt>
      <trkpt lat="48.51511" lon="-3.38013">
        <ele>173</ele>
        <time>2022-04-06T11:09:02.175Z</time>
      </trkpt>
      <trkpt lat="48.51512" lon="-3.3802">
        <ele>173</ele>
        <time>2022-04-06T11:09:06.179Z</time>
      </trkpt>
      <trkpt lat="48.51513" lon="-3.38028">
        <ele>173</ele>
        <time>2022-04-06T11:09:11.175Z</time>
      </trkpt>
      <trkpt lat="48.51514" lon="-3.38036">
        <ele>170</ele>
        <time>2022-04-06T11:09:16.174Z</time>
      </trkpt>
      <trkpt lat="48.51515" lon="-3.38045">
        <ele>171</ele>
        <time>2022-04-06T11:09:21.175Z</time>
      </trkpt>
      <trkpt lat="48.51516" lon="-3.38054">
        <ele>171</ele>
        <time>2022-04-06T11:09:26.178Z</time>
      </trkpt>
      <trkpt lat="48.51517" lon="-3.38061">
        <ele>171</ele>
        <time>2022-04-06T11:09:31.176Z</time>
      </trkpt>
      <trkpt lat="48.51518" lon="-3.3807">
        <ele>170</ele>
        <time>2022-04-06T11:09:36.173Z</time>
      </trkpt>
      <trkpt lat="48.51518" lon="-3.38077">
        <ele>170</ele>
        <time>2022-04-06T11:09:40.174Z</time>
      </trkpt>
      <trkpt lat="48.51519" lon="-3.38084">
        <ele>170</ele>
        <time>2022-04-06T11:09:45.179Z</time>
      </trkpt>
      <trkpt lat="48.5152" lon="-3.38092">
        <ele>170</ele>
        <time>2022-04-06T11:09:50.173Z</time>
      </trkpt>
      <trkpt lat="48.51521" lon="-3.381">
        <ele>170</ele>
        <time>2022-04-06T11:09:55.172Z</time>
      </trkpt>
      <trkpt lat="48.51522" lon="-3.38109">
        <ele>170</ele>
        <time>2022-04-06T11:10:00.175Z</time>
      </trkpt>
      <trkpt lat="48.51523" lon="-3.38118">
        <ele>170</ele>
        <time>2022-04-06T11:10:05.174Z</time>
      </trkpt>
      <trkpt lat="48.51524" lon="-3.38125">
        <ele>170</ele>
        <time>2022-04-06T11:10:09.183Z</time>
      </trkpt>
      <trkpt lat="48.51526" lon="-3.38133">
        <ele>169</ele>
        <time>2022-04-06T11:10:14.181Z</time>
      </trkpt>
      <trkpt lat="48.51527" lon="-3.3814">
        <ele>169</ele>
        <time>2022-04-06T11:10:19.178Z</time>
      </trkpt>
      <trkpt lat="48.51528" lon="-3.38148">
        <ele>169</ele>
        <time>2022-04-06T11:10:24.173Z</time>
      </trkpt>
      <trkpt lat="48.5153" lon="-3.38155">
        <ele>168</ele>
        <time>2022-04-06T11:10:29.176Z</time>
      </trkpt>
      <trkpt lat="48.51531" lon="-3.38163">
        <ele>168</ele>
        <time>2022-04-06T11:10:34.176Z</time>
      </trkpt>
      <trkpt lat="48.51533" lon="-3.38171">
        <ele>168</ele>
        <time>2022-04-06T11:10:39.175Z</time>
      </trkpt>
      <trkpt lat="48.51536" lon="-3.38179">
        <ele>168</ele>
        <time>2022-04-06T11:10:44.173Z</time>
      </trkpt>
      <trkpt lat="48.51537" lon="-3.38186">
        <ele>167</ele>
        <time>2022-04-06T11:10:48.178Z</time>
      </trkpt>
      <trkpt lat="48.51539" lon="-3.38193">
        <ele>167</ele>
        <time>2022-04-06T11:10:53.173Z</time>
      </trkpt>
      <trkpt lat="48.51541" lon="-3.38202">
        <ele>167</ele>
        <time>2022-04-06T11:10:58.175Z</time>
      </trkpt>
      <trkpt lat="48.51543" lon="-3.3821">
        <ele>164</ele>
        <time>2022-04-06T11:11:03.171Z</time>
      </trkpt>
      <trkpt lat="48.51544" lon="-3.38216">
        <ele>164</ele>
        <time>2022-04-06T11:11:07.176Z</time>
      </trkpt>
      <trkpt lat="48.51545" lon="-3.38225">
        <ele>164</ele>
        <time>2022-04-06T11:11:12.174Z</time>
      </trkpt>
      <trkpt lat="48.51547" lon="-3.38234">
        <ele>164</ele>
        <time>2022-04-06T11:11:17.183Z</time>
      </trkpt>
      <trkpt lat="48.51551" lon="-3.38247">
        <ele>164</ele>
        <time>2022-04-06T11:11:22.174Z</time>
      </trkpt>
      <trkpt lat="48.51554" lon="-3.38261">
        <ele>164</ele>
        <time>2022-04-06T11:11:27.183Z</time>
      </trkpt>
      <trkpt lat="48.51557" lon="-3.38274">
        <ele>165</ele>
        <time>2022-04-06T11:11:32.179Z</time>
      </trkpt>
      <trkpt lat="48.51559" lon="-3.38283">
        <ele>165</ele>
        <time>2022-04-06T11:11:37.183Z</time>
      </trkpt>
      <trkpt lat="48.5156" lon="-3.38293">
        <ele>165</ele>
        <time>2022-04-06T11:11:41.191Z</time>
      </trkpt>
      <trkpt lat="48.51562" lon="-3.38304">
        <ele>165</ele>
        <time>2022-04-06T11:11:46.176Z</time>
      </trkpt>
      <trkpt lat="48.51565" lon="-3.38312">
        <ele>165</ele>
        <time>2022-04-06T11:11:50.182Z</time>
      </trkpt>
      <trkpt lat="48.51567" lon="-3.38321">
        <ele>164</ele>
        <time>2022-04-06T11:11:54.188Z</time>
      </trkpt>
      <trkpt lat="48.51569" lon="-3.3833">
        <ele>164</ele>
        <time>2022-04-06T11:11:58.192Z</time>
      </trkpt>
      <trkpt lat="48.5157" lon="-3.38341">
        <ele>163</ele>
        <time>2022-04-06T11:12:03.175Z</time>
      </trkpt>
      <trkpt lat="48.51571" lon="-3.38352">
        <ele>163</ele>
        <time>2022-04-06T11:12:07.189Z</time>
      </trkpt>
      <trkpt lat="48.51572" lon="-3.38366">
        <ele>163</ele>
        <time>2022-04-06T11:12:12.184Z</time>
      </trkpt>
      <trkpt lat="48.51572" lon="-3.38377">
        <ele>161</ele>
        <time>2022-04-06T11:12:16.185Z</time>
      </trkpt>
      <trkpt lat="48.51573" lon="-3.38389">
        <ele>161</ele>
        <time>2022-04-06T11:12:21.171Z</time>
      </trkpt>
      <trkpt lat="48.51574" lon="-3.38396">
        <ele>161</ele>
        <time>2022-04-06T11:12:25.182Z</time>
      </trkpt>
      <trkpt lat="48.51577" lon="-3.38402">
        <ele>161</ele>
        <time>2022-04-06T11:12:30.173Z</time>
      </trkpt>
      <trkpt lat="48.51579" lon="-3.3841">
        <ele>161</ele>
        <time>2022-04-06T11:12:34.184Z</time>
      </trkpt>
      <trkpt lat="48.5158" lon="-3.38416">
        <ele>161</ele>
        <time>2022-04-06T11:12:38.184Z</time>
      </trkpt>
      <trkpt lat="48.51581" lon="-3.38426">
        <ele>161</ele>
        <time>2022-04-06T11:12:43.186Z</time>
      </trkpt>
      <trkpt lat="48.51581" lon="-3.38434">
        <ele>161</ele>
        <time>2022-04-06T11:12:48.185Z</time>
      </trkpt>
      <trkpt lat="48.51581" lon="-3.38443">
        <ele>161</ele>
        <time>2022-04-06T11:12:53.187Z</time>
      </trkpt>
      <trkpt lat="48.51582" lon="-3.3845">
        <ele>161</ele>
        <time>2022-04-06T11:12:58.185Z</time>
      </trkpt>
      <trkpt lat="48.51582" lon="-3.38457">
        <ele>161</ele>
        <time>2022-04-06T11:13:02.185Z</time>
      </trkpt>
      <trkpt lat="48.51585" lon="-3.38467">
        <ele>160</ele>
        <time>2022-04-06T11:13:07.186Z</time>
      </trkpt>
      <trkpt lat="48.51586" lon="-3.38476">
        <ele>160</ele>
        <time>2022-04-06T11:13:12.188Z</time>
      </trkpt>
      <trkpt lat="48.51588" lon="-3.38486">
        <ele>161</ele>
        <time>2022-04-06T11:13:17.183Z</time>
      </trkpt>
      <trkpt lat="48.5159" lon="-3.38495">
        <ele>161</ele>
        <time>2022-04-06T11:13:22.245Z</time>
      </trkpt>
      <trkpt lat="48.51592" lon="-3.38505">
        <ele>161</ele>
        <time>2022-04-06T11:13:27.184Z</time>
      </trkpt>
      <trkpt lat="48.51593" lon="-3.38513">
        <ele>161</ele>
        <time>2022-04-06T11:13:31.189Z</time>
      </trkpt>
      <trkpt lat="48.51596" lon="-3.38522">
        <ele>161</ele>
        <time>2022-04-06T11:13:36.188Z</time>
      </trkpt>
      <trkpt lat="48.51598" lon="-3.38531">
        <ele>161</ele>
        <time>2022-04-06T11:13:41.179Z</time>
      </trkpt>
      <trkpt lat="48.516" lon="-3.38538">
        <ele>161</ele>
        <time>2022-04-06T11:13:45.190Z</time>
      </trkpt>
      <trkpt lat="48.51603" lon="-3.38549">
        <ele>161</ele>
        <time>2022-04-06T11:13:50.185Z</time>
      </trkpt>
      <trkpt lat="48.51604" lon="-3.38557">
        <ele>161</ele>
        <time>2022-04-06T11:13:54.184Z</time>
      </trkpt>
      <trkpt lat="48.51605" lon="-3.38565">
        <ele>161</ele>
        <time>2022-04-06T11:13:58.191Z</time>
      </trkpt>
      <trkpt lat="48.51608" lon="-3.38574">
        <ele>162</ele>
        <time>2022-04-06T11:14:03.187Z</time>
      </trkpt>
      <trkpt lat="48.5161" lon="-3.38584">
        <ele>162</ele>
        <time>2022-04-06T11:14:08.185Z</time>
      </trkpt>
      <trkpt lat="48.51612" lon="-3.38595">
        <ele>162</ele>
        <time>2022-04-06T11:14:13.190Z</time>
      </trkpt>
      <trkpt lat="48.51613" lon="-3.38603">
        <ele>163</ele>
        <time>2022-04-06T11:14:17.190Z</time>
      </trkpt>
      <trkpt lat="48.51615" lon="-3.38613">
        <ele>163</ele>
        <time>2022-04-06T11:14:22.188Z</time>
      </trkpt>
      <trkpt lat="48.51617" lon="-3.38624">
        <ele>163</ele>
        <time>2022-04-06T11:14:27.180Z</time>
      </trkpt>
      <trkpt lat="48.51619" lon="-3.38633">
        <ele>166</ele>
        <time>2022-04-06T11:14:32.185Z</time>
      </trkpt>
      <trkpt lat="48.51621" lon="-3.38639">
        <ele>166</ele>
        <time>2022-04-06T11:14:37.195Z</time>
      </trkpt>
      <trkpt lat="48.51623" lon="-3.38646">
        <ele>166</ele>
        <time>2022-04-06T11:14:42.184Z</time>
      </trkpt>
      <trkpt lat="48.51625" lon="-3.38652">
        <ele>163</ele>
        <time>2022-04-06T11:14:46.191Z</time>
      </trkpt>
      <trkpt lat="48.51627" lon="-3.38659">
        <ele>166</ele>
        <time>2022-04-06T11:14:50.191Z</time>
      </trkpt>
      <trkpt lat="48.51629" lon="-3.38666">
        <ele>166</ele>
        <time>2022-04-06T11:14:55.187Z</time>
      </trkpt>
      <trkpt lat="48.51635" lon="-3.38683">
        <ele>171</ele>
        <time>2022-04-06T11:15:18.172Z</time>
      </trkpt>
      <trkpt lat="48.51636" lon="-3.38683">
        <ele>171</ele>
        <time>2022-04-06T11:15:22.176Z</time>
      </trkpt>
      <trkpt lat="48.51636" lon="-3.38686">
        <ele>171</ele>
        <time>2022-04-06T11:15:26.184Z</time>
      </trkpt>
      <trkpt lat="48.51636" lon="-3.38686">
        <ele>171</ele>
        <time>2022-04-06T11:15:31.183Z</time>
      </trkpt>
      <trkpt lat="48.51639" lon="-3.38687">
        <ele>171</ele>
        <time>2022-04-06T11:15:35.187Z</time>
      </trkpt>
      <trkpt lat="48.51654" lon="-3.3869">
        <ele>167</ele>
        <time>2022-04-06T11:18:55.180Z</time>
      </trkpt>
      <trkpt lat="48.51659" lon="-3.38692">
        <ele>167</ele>
        <time>2022-04-06T11:19:00.190Z</time>
      </trkpt>
      <trkpt lat="48.51666" lon="-3.38694">
        <ele>167</ele>
        <time>2022-04-06T11:19:05.183Z</time>
      </trkpt>
      <trkpt lat="48.5167" lon="-3.38694">
        <ele>167</ele>
        <time>2022-04-06T11:19:09.177Z</time>
      </trkpt>
      <trkpt lat="48.51674" lon="-3.387">
        <ele>167</ele>
        <time>2022-04-06T11:19:14.183Z</time>
      </trkpt>
      <trkpt lat="48.51677" lon="-3.38705">
        <ele>167</ele>
        <time>2022-04-06T11:19:18.183Z</time>
      </trkpt>
      <trkpt lat="48.51681" lon="-3.38708">
        <ele>163</ele>
        <time>2022-04-06T11:19:22.179Z</time>
      </trkpt>
      <trkpt lat="48.51686" lon="-3.38713">
        <ele>168</ele>
        <time>2022-04-06T11:19:27.184Z</time>
      </trkpt>
      <trkpt lat="48.5169" lon="-3.38718">
        <ele>168</ele>
        <time>2022-04-06T11:19:31.189Z</time>
      </trkpt>
      <trkpt lat="48.51694" lon="-3.38724">
        <ele>168</ele>
        <time>2022-04-06T11:19:36.173Z</time>
      </trkpt>
      <trkpt lat="48.51699" lon="-3.3873">
        <ele>168</ele>
        <time>2022-04-06T11:19:41.178Z</time>
      </trkpt>
      <trkpt lat="48.51704" lon="-3.38733">
        <ele>168</ele>
        <time>2022-04-06T11:19:46.181Z</time>
      </trkpt>
      <trkpt lat="48.51709" lon="-3.38738">
        <ele>166</ele>
        <time>2022-04-06T11:19:51.184Z</time>
      </trkpt>
      <trkpt lat="48.51713" lon="-3.38743">
        <ele>166</ele>
        <time>2022-04-06T11:19:56.177Z</time>
      </trkpt>
      <trkpt lat="48.51718" lon="-3.38747">
        <ele>166</ele>
        <time>2022-04-06T11:20:01.181Z</time>
      </trkpt>
      <trkpt lat="48.51723" lon="-3.38751">
        <ele>166</ele>
        <time>2022-04-06T11:20:06.180Z</time>
      </trkpt>
      <trkpt lat="48.51727" lon="-3.38755">
        <ele>166</ele>
        <time>2022-04-06T11:20:11.182Z</time>
      </trkpt>
      <trkpt lat="48.51732" lon="-3.38759">
        <ele>166</ele>
        <time>2022-04-06T11:20:16.178Z</time>
      </trkpt>
      <trkpt lat="48.51736" lon="-3.38763">
        <ele>159</ele>
        <time>2022-04-06T11:20:21.186Z</time>
      </trkpt>
      <trkpt lat="48.51741" lon="-3.38765">
        <ele>166</ele>
        <time>2022-04-06T11:20:25.179Z</time>
      </trkpt>
      <trkpt lat="48.51743" lon="-3.38766">
        <ele>166</ele>
        <time>2022-04-06T11:20:30.171Z</time>
      </trkpt>
      <trkpt lat="48.51808" lon="-3.38781">
        <ele>161</ele>
        <time>2022-04-06T11:22:50.194Z</time>
      </trkpt>
      <trkpt lat="48.51814" lon="-3.38788">
        <ele>161</ele>
        <time>2022-04-06T11:22:55.174Z</time>
      </trkpt>
      <trkpt lat="48.51819" lon="-3.38789">
        <ele>161</ele>
        <time>2022-04-06T11:23:00.181Z</time>
      </trkpt>
      <trkpt lat="48.51822" lon="-3.38788">
        <ele>158</ele>
        <time>2022-04-06T11:23:05.174Z</time>
      </trkpt>
      <trkpt lat="48.51828" lon="-3.38788">
        <ele>158</ele>
        <time>2022-04-06T11:23:10.176Z</time>
      </trkpt>
      <trkpt lat="48.51833" lon="-3.38785">
        <ele>158</ele>
        <time>2022-04-06T11:23:15.174Z</time>
      </trkpt>
      <trkpt lat="48.51837" lon="-3.38784">
        <ele>158</ele>
        <time>2022-04-06T11:23:20.175Z</time>
      </trkpt>
      <trkpt lat="48.51839" lon="-3.38782">
        <ele>158</ele>
        <time>2022-04-06T11:23:25.178Z</time>
      </trkpt>
      <trkpt lat="48.5184" lon="-3.38775">
        <ele>158</ele>
        <time>2022-04-06T11:23:30.173Z</time>
      </trkpt>
      <trkpt lat="48.51847" lon="-3.38772">
        <ele>158</ele>
        <time>2022-04-06T11:23:35.173Z</time>
      </trkpt>
      <trkpt lat="48.51854" lon="-3.38775">
        <ele>155</ele>
        <time>2022-04-06T11:23:40.177Z</time>
      </trkpt>
      <trkpt lat="48.51861" lon="-3.38773">
        <ele>155</ele>
        <time>2022-04-06T11:23:45.175Z</time>
      </trkpt>
      <trkpt lat="48.51867" lon="-3.38773">
        <ele>155</ele>
        <time>2022-04-06T11:23:50.393Z</time>
      </trkpt>
      <trkpt lat="48.51873" lon="-3.38771">
        <ele>155</ele>
        <time>2022-04-06T11:23:55.176Z</time>
      </trkpt>
      <trkpt lat="48.51877" lon="-3.38771">
        <ele>153</ele>
        <time>2022-04-06T11:23:59.175Z</time>
      </trkpt>
      <trkpt lat="48.5188" lon="-3.38771">
        <ele>153</ele>
        <time>2022-04-06T11:24:04.174Z</time>
      </trkpt>
      <trkpt lat="48.51881" lon="-3.38774">
        <ele>153</ele>
        <time>2022-04-06T11:24:28.185Z</time>
      </trkpt>
      <trkpt lat="48.51881" lon="-3.38774">
        <ele>153</ele>
        <time>2022-04-06T11:24:33.173Z</time>
      </trkpt>
      <trkpt lat="48.51885" lon="-3.38775">
        <ele>153</ele>
        <time>2022-04-06T11:24:38.190Z</time>
      </trkpt>
      <trkpt lat="48.51888" lon="-3.38779">
        <ele>153</ele>
        <time>2022-04-06T11:24:43.176Z</time>
      </trkpt>
      <trkpt lat="48.51891" lon="-3.38781">
        <ele>153</ele>
        <time>2022-04-06T11:24:47.177Z</time>
      </trkpt>
      <trkpt lat="48.51895" lon="-3.38782">
        <ele>153</ele>
        <time>2022-04-06T11:24:51.189Z</time>
      </trkpt>
      <trkpt lat="48.51899" lon="-3.38785">
        <ele>153</ele>
        <time>2022-04-06T11:24:56.177Z</time>
      </trkpt>
      <trkpt lat="48.51899" lon="-3.3879">
        <ele>153</ele>
        <time>2022-04-06T11:25:00.180Z</time>
      </trkpt>
      <trkpt lat="48.51897" lon="-3.38794">
        <ele>156</ele>
        <time>2022-04-06T11:25:05.182Z</time>
      </trkpt>
      <trkpt lat="48.51897" lon="-3.38802">
        <ele>156</ele>
        <time>2022-04-06T11:25:10.176Z</time>
      </trkpt>
      <trkpt lat="48.51903" lon="-3.38806">
        <ele>156</ele>
        <time>2022-04-06T11:25:15.173Z</time>
      </trkpt>
      <trkpt lat="48.51908" lon="-3.3881">
        <ele>152</ele>
        <time>2022-04-06T11:25:20.207Z</time>
      </trkpt>
      <trkpt lat="48.51913" lon="-3.38814">
        <ele>152</ele>
        <time>2022-04-06T11:25:25.184Z</time>
      </trkpt>
      <trkpt lat="48.51921" lon="-3.3882">
        <ele>157</ele>
        <time>2022-04-06T11:25:30.176Z</time>
      </trkpt>
      <trkpt lat="48.51927" lon="-3.38824">
        <ele>157</ele>
        <time>2022-04-06T11:25:35.177Z</time>
      </trkpt>
      <trkpt lat="48.51933" lon="-3.3883">
        <ele>151</ele>
        <time>2022-04-06T11:25:39.181Z</time>
      </trkpt>
      <trkpt lat="48.51939" lon="-3.38834">
        <ele>151</ele>
        <time>2022-04-06T11:25:44.174Z</time>
      </trkpt>
      <trkpt lat="48.51945" lon="-3.38838">
        <ele>151</ele>
        <time>2022-04-06T11:25:49.207Z</time>
      </trkpt>
      <trkpt lat="48.51949" lon="-3.38846">
        <ele>151</ele>
        <time>2022-04-06T11:25:54.178Z</time>
      </trkpt>
      <trkpt lat="48.51956" lon="-3.38853">
        <ele>154</ele>
        <time>2022-04-06T11:25:59.177Z</time>
      </trkpt>
      <trkpt lat="48.5196" lon="-3.38859">
        <ele>147</ele>
        <time>2022-04-06T11:26:04.178Z</time>
      </trkpt>
      <trkpt lat="48.51964" lon="-3.38867">
        <ele>147</ele>
        <time>2022-04-06T11:26:09.183Z</time>
      </trkpt>
      <trkpt lat="48.5197" lon="-3.38873">
        <ele>147</ele>
        <time>2022-04-06T11:26:14.179Z</time>
      </trkpt>
      <trkpt lat="48.51975" lon="-3.38881">
        <ele>151</ele>
        <time>2022-04-06T11:26:19.176Z</time>
      </trkpt>
      <trkpt lat="48.51981" lon="-3.38886">
        <ele>151</ele>
        <time>2022-04-06T11:26:23.181Z</time>
      </trkpt>
      <trkpt lat="48.51987" lon="-3.38892">
        <ele>145</ele>
        <time>2022-04-06T11:26:28.184Z</time>
      </trkpt>
      <trkpt lat="48.51995" lon="-3.38898">
        <ele>145</ele>
        <time>2022-04-06T11:26:33.176Z</time>
      </trkpt>
      <trkpt lat="48.52002" lon="-3.38904">
        <ele>146</ele>
        <time>2022-04-06T11:26:38.173Z</time>
      </trkpt>
      <trkpt lat="48.52008" lon="-3.38909">
        <ele>146</ele>
        <time>2022-04-06T11:26:42.175Z</time>
      </trkpt>
      <trkpt lat="48.52017" lon="-3.38916">
        <ele>142</ele>
        <time>2022-04-06T11:26:47.179Z</time>
      </trkpt>
      <trkpt lat="48.52022" lon="-3.3892">
        <ele>142</ele>
        <time>2022-04-06T11:26:51.179Z</time>
      </trkpt>
      <trkpt lat="48.52026" lon="-3.38925">
        <ele>142</ele>
        <time>2022-04-06T11:26:56.181Z</time>
      </trkpt>
      <trkpt lat="48.52032" lon="-3.38932">
        <ele>141</ele>
        <time>2022-04-06T11:27:01.176Z</time>
      </trkpt>
      <trkpt lat="48.52034" lon="-3.38939">
        <ele>141</ele>
        <time>2022-04-06T11:27:05.184Z</time>
      </trkpt>
      <trkpt lat="48.52038" lon="-3.38944">
        <ele>141</ele>
        <time>2022-04-06T11:27:10.213Z</time>
      </trkpt>
      <trkpt lat="48.52043" lon="-3.38952">
        <ele>140</ele>
        <time>2022-04-06T11:27:15.178Z</time>
      </trkpt>
      <trkpt lat="48.52047" lon="-3.38957">
        <ele>140</ele>
        <time>2022-04-06T11:27:19.176Z</time>
      </trkpt>
      <trkpt lat="48.52052" lon="-3.3896">
        <ele>138</ele>
        <time>2022-04-06T11:27:23.176Z</time>
      </trkpt>
      <trkpt lat="48.52051" lon="-3.3896">
        <ele>138</ele>
        <time>2022-04-06T11:27:28.178Z</time>
      </trkpt>
      <trkpt lat="48.52051" lon="-3.3896">
        <ele>138</ele>
        <time>2022-04-06T11:27:33.176Z</time>
      </trkpt>
      <trkpt lat="48.52051" lon="-3.3896">
        <ele>138</ele>
        <time>2022-04-06T11:27:38.180Z</time>
      </trkpt>
      <trkpt lat="48.52055" lon="-3.38966">
        <ele>138</ele>
        <time>2022-04-06T11:27:43.180Z</time>
      </trkpt>
      <trkpt lat="48.52059" lon="-3.38973">
        <ele>138</ele>
        <time>2022-04-06T11:27:48.202Z</time>
      </trkpt>
      <trkpt lat="48.52062" lon="-3.38979">
        <ele>138</ele>
        <time>2022-04-06T11:27:53.176Z</time>
      </trkpt>
      <trkpt lat="48.52064" lon="-3.38983">
        <ele>138</ele>
        <time>2022-04-06T11:27:57.179Z</time>
      </trkpt>
      <trkpt lat="48.52068" lon="-3.38989">
        <ele>137</ele>
        <time>2022-04-06T11:28:01.175Z</time>
      </trkpt>
      <trkpt lat="48.52073" lon="-3.38998">
        <ele>134</ele>
        <time>2022-04-06T11:28:06.177Z</time>
      </trkpt>
      <trkpt lat="48.52076" lon="-3.39007">
        <ele>134</ele>
        <time>2022-04-06T11:28:11.184Z</time>
      </trkpt>
      <trkpt lat="48.52079" lon="-3.39018">
        <ele>131</ele>
        <time>2022-04-06T11:28:16.176Z</time>
      </trkpt>
      <trkpt lat="48.52081" lon="-3.39022">
        <ele>131</ele>
        <time>2022-04-06T11:28:20.175Z</time>
      </trkpt>
      <trkpt lat="48.52084" lon="-3.39025">
        <ele>131</ele>
        <time>2022-04-06T11:28:24.180Z</time>
      </trkpt>
      <trkpt lat="48.52086" lon="-3.3903">
        <ele>131</ele>
        <time>2022-04-06T11:28:29.175Z</time>
      </trkpt>
      <trkpt lat="48.52089" lon="-3.39034">
        <ele>131</ele>
        <time>2022-04-06T11:28:33.176Z</time>
      </trkpt>
      <trkpt lat="48.52091" lon="-3.39038">
        <ele>131</ele>
        <time>2022-04-06T11:28:37.177Z</time>
      </trkpt>
      <trkpt lat="48.52091" lon="-3.39044">
        <ele>130</ele>
        <time>2022-04-06T11:28:42.178Z</time>
      </trkpt>
      <trkpt lat="48.52093" lon="-3.39052">
        <ele>130</ele>
        <time>2022-04-06T11:28:47.180Z</time>
      </trkpt>
      <trkpt lat="48.52094" lon="-3.39061">
        <ele>130</ele>
        <time>2022-04-06T11:28:51.200Z</time>
      </trkpt>
      <trkpt lat="48.52094" lon="-3.39069">
        <ele>130</ele>
        <time>2022-04-06T11:28:56.182Z</time>
      </trkpt>
      <trkpt lat="48.52096" lon="-3.39076">
        <ele>130</ele>
        <time>2022-04-06T11:29:01.175Z</time>
      </trkpt>
      <trkpt lat="48.52098" lon="-3.39083">
        <ele>122</ele>
        <time>2022-04-06T11:29:05.177Z</time>
      </trkpt>
      <trkpt lat="48.521" lon="-3.39092">
        <ele>122</ele>
        <time>2022-04-06T11:29:10.183Z</time>
      </trkpt>
      <trkpt lat="48.52101" lon="-3.39102">
        <ele>122</ele>
        <time>2022-04-06T11:29:14.193Z</time>
      </trkpt>
      <trkpt lat="48.52104" lon="-3.39114">
        <ele>122</ele>
        <time>2022-04-06T11:29:19.177Z</time>
      </trkpt>
      <trkpt lat="48.52104" lon="-3.39117">
        <ele>122</ele>
        <time>2022-04-06T11:29:56.182Z</time>
      </trkpt>
      <trkpt lat="48.52104" lon="-3.39117">
        <ele>122</ele>
        <time>2022-04-06T11:30:00.178Z</time>
      </trkpt>
      <trkpt lat="48.52104" lon="-3.39119">
        <ele>122</ele>
        <time>2022-04-06T11:30:05.174Z</time>
      </trkpt>
      <trkpt lat="48.52105" lon="-3.39125">
        <ele>124</ele>
        <time>2022-04-06T11:30:09.200Z</time>
      </trkpt>
      <trkpt lat="48.521" lon="-3.39129">
        <ele>124</ele>
        <time>2022-04-06T11:30:14.184Z</time>
      </trkpt>
      <trkpt lat="48.52103" lon="-3.39138">
        <ele>124</ele>
        <time>2022-04-06T11:30:19.200Z</time>
      </trkpt>
      <trkpt lat="48.52103" lon="-3.39143">
        <ele>124</ele>
        <time>2022-04-06T11:30:24.184Z</time>
      </trkpt>
      <trkpt lat="48.52103" lon="-3.39149">
        <ele>124</ele>
        <time>2022-04-06T11:30:29.184Z</time>
      </trkpt>
      <trkpt lat="48.52099" lon="-3.39152">
        <ele>124</ele>
        <time>2022-04-06T11:30:34.180Z</time>
      </trkpt>
      <trkpt lat="48.52095" lon="-3.39153">
        <ele>138</ele>
        <time>2022-04-06T11:30:38.188Z</time>
      </trkpt>
      <trkpt lat="48.52092" lon="-3.39155">
        <ele>142</ele>
        <time>2022-04-06T11:30:43.184Z</time>
      </trkpt>
      <trkpt lat="48.52088" lon="-3.39155">
        <ele>142</ele>
        <time>2022-04-06T11:30:48.179Z</time>
      </trkpt>
      <trkpt lat="48.52086" lon="-3.39157">
        <ele>142</ele>
        <time>2022-04-06T11:30:53.173Z</time>
      </trkpt>
      <trkpt lat="48.52082" lon="-3.3916">
        <ele>142</ele>
        <time>2022-04-06T11:30:58.180Z</time>
      </trkpt>
      <trkpt lat="48.52079" lon="-3.39168">
        <ele>142</ele>
        <time>2022-04-06T11:31:03.174Z</time>
      </trkpt>
      <trkpt lat="48.52077" lon="-3.3917">
        <ele>142</ele>
        <time>2022-04-06T11:31:07.182Z</time>
      </trkpt>
      <trkpt lat="48.52077" lon="-3.39173">
        <ele>142</ele>
        <time>2022-04-06T11:31:12.183Z</time>
      </trkpt>
      <trkpt lat="48.52072" lon="-3.39177">
        <ele>142</ele>
        <time>2022-04-06T11:31:46.177Z</time>
      </trkpt>
      <trkpt lat="48.52071" lon="-3.39177">
        <ele>142</ele>
        <time>2022-04-06T11:31:50.179Z</time>
      </trkpt>
      <trkpt lat="48.52071" lon="-3.39174">
        <ele>142</ele>
        <time>2022-04-06T11:31:55.187Z</time>
      </trkpt>
      <trkpt lat="48.52064" lon="-3.39173">
        <ele>153</ele>
        <time>2022-04-06T11:32:00.192Z</time>
      </trkpt>
      <trkpt lat="48.52064" lon="-3.39175">
        <ele>153</ele>
        <time>2022-04-06T11:32:05.189Z</time>
      </trkpt>
      <trkpt lat="48.52066" lon="-3.39191">
        <ele>153</ele>
        <time>2022-04-06T11:32:54.183Z</time>
      </trkpt>
      <trkpt lat="48.52067" lon="-3.39192">
        <ele>153</ele>
        <time>2022-04-06T11:32:58.184Z</time>
      </trkpt>
      <trkpt lat="48.52068" lon="-3.39196">
        <ele>153</ele>
        <time>2022-04-06T11:33:03.191Z</time>
      </trkpt>
      <trkpt lat="48.52068" lon="-3.39197">
        <ele>153</ele>
        <time>2022-04-06T11:33:08.186Z</time>
      </trkpt>
      <trkpt lat="48.52071" lon="-3.39203">
        <ele>143</ele>
        <time>2022-04-06T11:33:12.221Z</time>
      </trkpt>
      <trkpt lat="48.52063" lon="-3.39208">
        <ele>153</ele>
        <time>2022-04-06T11:40:13.179Z</time>
      </trkpt>
      <trkpt lat="48.52063" lon="-3.39208">
        <ele>153</ele>
        <time>2022-04-06T11:40:17.181Z</time>
      </trkpt>
      <trkpt lat="48.52063" lon="-3.39208">
        <ele>153</ele>
        <time>2022-04-06T11:40:22.183Z</time>
      </trkpt>
      <trkpt lat="48.52063" lon="-3.39208">
        <ele>153</ele>
        <time>2022-04-06T11:40:27.182Z</time>
      </trkpt>
      <trkpt lat="48.52063" lon="-3.39208">
        <ele>153</ele>
        <time>2022-04-06T11:40:32.187Z</time>
      </trkpt>
      <trkpt lat="48.52066" lon="-3.39196">
        <ele>153</ele>
        <time>2022-04-06T11:49:25.181Z</time>
      </trkpt>
      <trkpt lat="48.52066" lon="-3.39196">
        <ele>153</ele>
        <time>2022-04-06T11:49:29.185Z</time>
      </trkpt>
      <trkpt lat="48.52066" lon="-3.39196">
        <ele>153</ele>
        <time>2022-04-06T11:49:33.180Z</time>
      </trkpt>
      <trkpt lat="48.52066" lon="-3.39196">
        <ele>153</ele>
        <time>2022-04-06T11:49:38.179Z</time>
      </trkpt>
      <trkpt lat="48.52066" lon="-3.39195">
        <ele>153</ele>
        <time>2022-04-06T11:49:43.179Z</time>
      </trkpt>
      <trkpt lat="48.5207" lon="-3.39191">
        <ele>143</ele>
        <time>2022-04-06T11:53:20.181Z</time>
      </trkpt>
      <trkpt lat="48.52071" lon="-3.39198">
        <ele>143</ele>
        <time>2022-04-06T11:53:24.189Z</time>
      </trkpt>
      <trkpt lat="48.52074" lon="-3.39201">
        <ele>143</ele>
        <time>2022-04-06T11:53:29.183Z</time>
      </trkpt>
      <trkpt lat="48.52076" lon="-3.39205">
        <ele>143</ele>
        <time>2022-04-06T11:53:34.195Z</time>
      </trkpt>
      <trkpt lat="48.52078" lon="-3.3921">
        <ele>144</ele>
        <time>2022-04-06T11:53:38.192Z</time>
      </trkpt>
      <trkpt lat="48.52081" lon="-3.39216">
        <ele>144</ele>
        <time>2022-04-06T11:53:43.194Z</time>
      </trkpt>
      <trkpt lat="48.52087" lon="-3.39217">
        <ele>144</ele>
        <time>2022-04-06T11:53:48.184Z</time>
      </trkpt>
      <trkpt lat="48.5209" lon="-3.39218">
        <ele>144</ele>
        <time>2022-04-06T11:53:52.193Z</time>
      </trkpt>
      <trkpt lat="48.52091" lon="-3.39219">
        <ele>144</ele>
        <time>2022-04-06T11:53:57.189Z</time>
      </trkpt>
      <trkpt lat="48.52092" lon="-3.39221">
        <ele>144</ele>
        <time>2022-04-06T11:54:38.187Z</time>
      </trkpt>
      <trkpt lat="48.52092" lon="-3.3922">
        <ele>144</ele>
        <time>2022-04-06T11:54:43.182Z</time>
      </trkpt>
      <trkpt lat="48.5209" lon="-3.39216">
        <ele>144</ele>
        <time>2022-04-06T11:54:47.185Z</time>
      </trkpt>
      <trkpt lat="48.52088" lon="-3.39212">
        <ele>144</ele>
        <time>2022-04-06T11:54:51.182Z</time>
      </trkpt>
      <trkpt lat="48.52085" lon="-3.39208">
        <ele>143</ele>
        <time>2022-04-06T11:54:55.196Z</time>
      </trkpt>
      <trkpt lat="48.5208" lon="-3.39203">
        <ele>143</ele>
        <time>2022-04-06T11:55:00.196Z</time>
      </trkpt>
      <trkpt lat="48.52076" lon="-3.39199">
        <ele>143</ele>
        <time>2022-04-06T11:55:05.183Z</time>
      </trkpt>
      <trkpt lat="48.52073" lon="-3.39199">
        <ele>143</ele>
        <time>2022-04-06T11:55:10.179Z</time>
      </trkpt>
      <trkpt lat="48.52073" lon="-3.39202">
        <ele>143</ele>
        <time>2022-04-06T11:55:15.182Z</time>
      </trkpt>
      <trkpt lat="48.52071" lon="-3.392">
        <ele>143</ele>
        <time>2022-04-06T11:55:20.190Z</time>
      </trkpt>
      <trkpt lat="48.52071" lon="-3.39198">
        <ele>143</ele>
        <time>2022-04-06T11:55:24.195Z</time>
      </trkpt>
      <trkpt lat="48.52067" lon="-3.39199">
        <ele>153</ele>
        <time>2022-04-06T11:55:29.178Z</time>
      </trkpt>
      <trkpt lat="48.52063" lon="-3.39198">
        <ele>153</ele>
        <time>2022-04-06T11:55:33.195Z</time>
      </trkpt>
      <trkpt lat="48.5206" lon="-3.39199">
        <ele>153</ele>
        <time>2022-04-06T11:55:38.175Z</time>
      </trkpt>
      <trkpt lat="48.52066" lon="-3.39199">
        <ele>153</ele>
        <time>2022-04-06T11:57:00.186Z</time>
      </trkpt>
      <trkpt lat="48.52067" lon="-3.39198">
        <ele>153</ele>
        <time>2022-04-06T11:57:05.176Z</time>
      </trkpt>
      <trkpt lat="48.52068" lon="-3.39198">
        <ele>153</ele>
        <time>2022-04-06T11:57:09.183Z</time>
      </trkpt>
      <trkpt lat="48.52069" lon="-3.39198">
        <ele>153</ele>
        <time>2022-04-06T11:57:13.187Z</time>
      </trkpt>
      <trkpt lat="48.52071" lon="-3.39197">
        <ele>143</ele>
        <time>2022-04-06T11:57:18.175Z</time>
      </trkpt>
      <trkpt lat="48.52071" lon="-3.39199">
        <ele>143</ele>
        <time>2022-04-06T11:57:59.179Z</time>
      </trkpt>
      <trkpt lat="48.52068" lon="-3.39195">
        <ele>153</ele>
        <time>2022-04-06T11:58:04.180Z</time>
      </trkpt>
      <trkpt lat="48.52065" lon="-3.39192">
        <ele>153</ele>
        <time>2022-04-06T11:58:08.177Z</time>
      </trkpt>
      <trkpt lat="48.52065" lon="-3.39188">
        <ele>153</ele>
        <time>2022-04-06T11:58:13.190Z</time>
      </trkpt>
      <trkpt lat="48.52063" lon="-3.39186">
        <ele>153</ele>
        <time>2022-04-06T11:58:18.178Z</time>
      </trkpt>
      <trkpt lat="48.52063" lon="-3.39184">
        <ele>153</ele>
        <time>2022-04-06T11:58:32.185Z</time>
      </trkpt>
      <trkpt lat="48.52063" lon="-3.39182">
        <ele>153</ele>
        <time>2022-04-06T11:58:36.189Z</time>
      </trkpt>
      <trkpt lat="48.52062" lon="-3.39181">
        <ele>153</ele>
        <time>2022-04-06T11:58:41.178Z</time>
      </trkpt>
      <trkpt lat="48.52059" lon="-3.39178">
        <ele>153</ele>
        <time>2022-04-06T11:58:46.178Z</time>
      </trkpt>
      <trkpt lat="48.5206" lon="-3.39171">
        <ele>153</ele>
        <time>2022-04-06T11:58:50.185Z</time>
      </trkpt>
      <trkpt lat="48.52061" lon="-3.3917">
        <ele>153</ele>
        <time>2022-04-06T11:59:09.186Z</time>
      </trkpt>
      <trkpt lat="48.52061" lon="-3.3917">
        <ele>153</ele>
        <time>2022-04-06T11:59:13.201Z</time>
      </trkpt>
      <trkpt lat="48.52056" lon="-3.3917">
        <ele>153</ele>
        <time>2022-04-06T11:59:18.185Z</time>
      </trkpt>
      <trkpt lat="48.52053" lon="-3.39167">
        <ele>153</ele>
        <time>2022-04-06T11:59:22.204Z</time>
      </trkpt>
      <trkpt lat="48.52051" lon="-3.39165">
        <ele>153</ele>
        <time>2022-04-06T11:59:27.178Z</time>
      </trkpt>
      <trkpt lat="48.52048" lon="-3.39171">
        <ele>153</ele>
        <time>2022-04-06T11:59:49.180Z</time>
      </trkpt>
      <trkpt lat="48.52051" lon="-3.39174">
        <ele>153</ele>
        <time>2022-04-06T11:59:54.178Z</time>
      </trkpt>
      <trkpt lat="48.52049" lon="-3.39177">
        <ele>153</ele>
        <time>2022-04-06T11:59:59.178Z</time>
      </trkpt>
      <trkpt lat="48.52049" lon="-3.39177">
        <ele>153</ele>
        <time>2022-04-06T12:00:03.182Z</time>
      </trkpt>
      <trkpt lat="48.52046" lon="-3.39178">
        <ele>153</ele>
        <time>2022-04-06T12:00:08.175Z</time>
      </trkpt>
      <trkpt lat="48.52045" lon="-3.39182">
        <ele>153</ele>
        <time>2022-04-06T12:01:10.177Z</time>
      </trkpt>
      <trkpt lat="48.52045" lon="-3.39182">
        <ele>153</ele>
        <time>2022-04-06T12:01:15.188Z</time>
      </trkpt>
      <trkpt lat="48.52044" lon="-3.39186">
        <ele>153</ele>
        <time>2022-04-06T12:01:20.182Z</time>
      </trkpt>
      <trkpt lat="48.52042" lon="-3.39188">
        <ele>153</ele>
        <time>2022-04-06T12:01:24.182Z</time>
      </trkpt>
      <trkpt lat="48.5204" lon="-3.39191">
        <ele>161</ele>
        <time>2022-04-06T12:01:29.180Z</time>
      </trkpt>
      <trkpt lat="48.52038" lon="-3.39194">
        <ele>161</ele>
        <time>2022-04-06T12:01:34.183Z</time>
      </trkpt>
      <trkpt lat="48.52035" lon="-3.39199">
        <ele>161</ele>
        <time>2022-04-06T12:01:39.181Z</time>
      </trkpt>
      <trkpt lat="48.52032" lon="-3.39202">
        <ele>161</ele>
        <time>2022-04-06T12:01:44.181Z</time>
      </trkpt>
      <trkpt lat="48.52029" lon="-3.39207">
        <ele>161</ele>
        <time>2022-04-06T12:01:49.188Z</time>
      </trkpt>
      <trkpt lat="48.52026" lon="-3.39209">
        <ele>161</ele>
        <time>2022-04-06T12:01:54.178Z</time>
      </trkpt>
      <trkpt lat="48.52022" lon="-3.39212">
        <ele>161</ele>
        <time>2022-04-06T12:01:59.177Z</time>
      </trkpt>
      <trkpt lat="48.52019" lon="-3.39216">
        <ele>161</ele>
        <time>2022-04-06T12:02:04.184Z</time>
      </trkpt>
      <trkpt lat="48.52016" lon="-3.3922">
        <ele>161</ele>
        <time>2022-04-06T12:02:09.183Z</time>
      </trkpt>
      <trkpt lat="48.52012" lon="-3.39225">
        <ele>169</ele>
        <time>2022-04-06T12:02:14.183Z</time>
      </trkpt>
      <trkpt lat="48.52009" lon="-3.39232">
        <ele>169</ele>
        <time>2022-04-06T12:02:19.191Z</time>
      </trkpt>
      <trkpt lat="48.52005" lon="-3.39239">
        <ele>169</ele>
        <time>2022-04-06T12:02:24.196Z</time>
      </trkpt>
      <trkpt lat="48.52003" lon="-3.39244">
        <ele>169</ele>
        <time>2022-04-06T12:02:29.178Z</time>
      </trkpt>
      <trkpt lat="48.51999" lon="-3.39247">
        <ele>169</ele>
        <time>2022-04-06T12:04:43.184Z</time>
      </trkpt>
      <trkpt lat="48.51998" lon="-3.3925">
        <ele>169</ele>
        <time>2022-04-06T12:04:48.181Z</time>
      </trkpt>
      <trkpt lat="48.51993" lon="-3.39257">
        <ele>169</ele>
        <time>2022-04-06T12:04:53.180Z</time>
      </trkpt>
      <trkpt lat="48.51989" lon="-3.39258">
        <ele>169</ele>
        <time>2022-04-06T12:04:58.177Z</time>
      </trkpt>
      <trkpt lat="48.51985" lon="-3.39258">
        <ele>173</ele>
        <time>2022-04-06T12:05:02.178Z</time>
      </trkpt>
      <trkpt lat="48.51981" lon="-3.3926">
        <ele>173</ele>
        <time>2022-04-06T12:05:07.182Z</time>
      </trkpt>
      <trkpt lat="48.51977" lon="-3.39262">
        <ele>173</ele>
        <time>2022-04-06T12:05:12.181Z</time>
      </trkpt>
      <trkpt lat="48.51972" lon="-3.39262">
        <ele>173</ele>
        <time>2022-04-06T12:05:17.179Z</time>
      </trkpt>
      <trkpt lat="48.51967" lon="-3.39262">
        <ele>173</ele>
        <time>2022-04-06T12:05:21.180Z</time>
      </trkpt>
      <trkpt lat="48.51963" lon="-3.39262">
        <ele>173</ele>
        <time>2022-04-06T12:05:26.179Z</time>
      </trkpt>
      <trkpt lat="48.5196" lon="-3.39262">
        <ele>173</ele>
        <time>2022-04-06T12:05:30.277Z</time>
      </trkpt>
      <trkpt lat="48.51956" lon="-3.3926">
        <ele>175</ele>
        <time>2022-04-06T12:05:35.183Z</time>
      </trkpt>
      <trkpt lat="48.51951" lon="-3.39256">
        <ele>175</ele>
        <time>2022-04-06T12:05:40.180Z</time>
      </trkpt>
      <trkpt lat="48.51947" lon="-3.39254">
        <ele>175</ele>
        <time>2022-04-06T12:05:44.183Z</time>
      </trkpt>
      <trkpt lat="48.51945" lon="-3.39252">
        <ele>175</ele>
        <time>2022-04-06T12:05:49.184Z</time>
      </trkpt>
      <trkpt lat="48.51941" lon="-3.39252">
        <ele>175</ele>
        <time>2022-04-06T12:05:54.179Z</time>
      </trkpt>
      <trkpt lat="48.51937" lon="-3.39253">
        <ele>175</ele>
        <time>2022-04-06T12:05:59.177Z</time>
      </trkpt>
      <trkpt lat="48.51931" lon="-3.39253">
        <ele>175</ele>
        <time>2022-04-06T12:06:04.177Z</time>
      </trkpt>
      <trkpt lat="48.51925" lon="-3.39251">
        <ele>176</ele>
        <time>2022-04-06T12:06:09.180Z</time>
      </trkpt>
      <trkpt lat="48.51921" lon="-3.39249">
        <ele>176</ele>
        <time>2022-04-06T12:06:13.184Z</time>
      </trkpt>
      <trkpt lat="48.51914" lon="-3.3925">
        <ele>176</ele>
        <time>2022-04-06T12:06:18.173Z</time>
      </trkpt>
      <trkpt lat="48.51912" lon="-3.39249">
        <ele>176</ele>
        <time>2022-04-06T12:06:22.182Z</time>
      </trkpt>
      <trkpt lat="48.51909" lon="-3.39249">
        <ele>176</ele>
        <time>2022-04-06T12:06:26.182Z</time>
      </trkpt>
      <trkpt lat="48.51904" lon="-3.39249">
        <ele>176</ele>
        <time>2022-04-06T12:06:31.183Z</time>
      </trkpt>
      <trkpt lat="48.51897" lon="-3.3925">
        <ele>176</ele>
        <time>2022-04-06T12:06:36.178Z</time>
      </trkpt>
      <trkpt lat="48.51895" lon="-3.39254">
        <ele>176</ele>
        <time>2022-04-06T12:06:40.181Z</time>
      </trkpt>
      <trkpt lat="48.51888" lon="-3.39247">
        <ele>176</ele>
        <time>2022-04-06T12:06:45.176Z</time>
      </trkpt>
      <trkpt lat="48.51884" lon="-3.39246">
        <ele>176</ele>
        <time>2022-04-06T12:06:50.175Z</time>
      </trkpt>
      <trkpt lat="48.51881" lon="-3.39246">
        <ele>176</ele>
        <time>2022-04-06T12:06:54.176Z</time>
      </trkpt>
      <trkpt lat="48.51878" lon="-3.39245">
        <ele>176</ele>
        <time>2022-04-06T12:06:59.180Z</time>
      </trkpt>
      <trkpt lat="48.51872" lon="-3.39242">
        <ele>177</ele>
        <time>2022-04-06T12:07:04.178Z</time>
      </trkpt>
      <trkpt lat="48.51866" lon="-3.39238">
        <ele>177</ele>
        <time>2022-04-06T12:07:09.178Z</time>
      </trkpt>
      <trkpt lat="48.51862" lon="-3.39236">
        <ele>180</ele>
        <time>2022-04-06T12:07:14.183Z</time>
      </trkpt>
      <trkpt lat="48.51857" lon="-3.39231">
        <ele>180</ele>
        <time>2022-04-06T12:07:19.182Z</time>
      </trkpt>
      <trkpt lat="48.51851" lon="-3.39228">
        <ele>180</ele>
        <time>2022-04-06T12:07:24.173Z</time>
      </trkpt>
      <trkpt lat="48.51848" lon="-3.39226">
        <ele>180</ele>
        <time>2022-04-06T12:07:28.180Z</time>
      </trkpt>
      <trkpt lat="48.51843" lon="-3.39224">
        <ele>184</ele>
        <time>2022-04-06T12:07:33.186Z</time>
      </trkpt>
      <trkpt lat="48.5184" lon="-3.39222">
        <ele>184</ele>
        <time>2022-04-06T12:07:37.178Z</time>
      </trkpt>
      <trkpt lat="48.51835" lon="-3.39219">
        <ele>184</ele>
        <time>2022-04-06T12:07:42.191Z</time>
      </trkpt>
      <trkpt lat="48.5183" lon="-3.39218">
        <ele>184</ele>
        <time>2022-04-06T12:07:46.204Z</time>
      </trkpt>
      <trkpt lat="48.51826" lon="-3.39216">
        <ele>184</ele>
        <time>2022-04-06T12:07:51.180Z</time>
      </trkpt>
      <trkpt lat="48.51823" lon="-3.39213">
        <ele>184</ele>
        <time>2022-04-06T12:07:55.200Z</time>
      </trkpt>
      <trkpt lat="48.51817" lon="-3.39211">
        <ele>186</ele>
        <time>2022-04-06T12:08:00.174Z</time>
      </trkpt>
      <trkpt lat="48.51813" lon="-3.39211">
        <ele>186</ele>
        <time>2022-04-06T12:08:04.177Z</time>
      </trkpt>
      <trkpt lat="48.51807" lon="-3.3921">
        <ele>186</ele>
        <time>2022-04-06T12:08:09.184Z</time>
      </trkpt>
      <trkpt lat="48.51802" lon="-3.3921">
        <ele>186</ele>
        <time>2022-04-06T12:08:14.179Z</time>
      </trkpt>
      <trkpt lat="48.51798" lon="-3.39212">
        <ele>186</ele>
        <time>2022-04-06T12:08:18.184Z</time>
      </trkpt>
      <trkpt lat="48.51793" lon="-3.39212">
        <ele>186</ele>
        <time>2022-04-06T12:08:23.187Z</time>
      </trkpt>
      <trkpt lat="48.51788" lon="-3.39214">
        <ele>186</ele>
        <time>2022-04-06T12:08:28.179Z</time>
      </trkpt>
      <trkpt lat="48.51782" lon="-3.39216">
        <ele>186</ele>
        <time>2022-04-06T12:08:33.190Z</time>
      </trkpt>
      <trkpt lat="48.51777" lon="-3.3922">
        <ele>186</ele>
        <time>2022-04-06T12:08:38.183Z</time>
      </trkpt>
      <trkpt lat="48.51771" lon="-3.39221">
        <ele>186</ele>
        <time>2022-04-06T12:08:43.184Z</time>
      </trkpt>
      <trkpt lat="48.51767" lon="-3.39222">
        <ele>186</ele>
        <time>2022-04-06T12:08:47.184Z</time>
      </trkpt>
      <trkpt lat="48.51762" lon="-3.39222">
        <ele>184</ele>
        <time>2022-04-06T12:08:52.177Z</time>
      </trkpt>
      <trkpt lat="48.51757" lon="-3.39223">
        <ele>184</ele>
        <time>2022-04-06T12:08:56.192Z</time>
      </trkpt>
      <trkpt lat="48.51751" lon="-3.39225">
        <ele>184</ele>
        <time>2022-04-06T12:09:01.177Z</time>
      </trkpt>
      <trkpt lat="48.51745" lon="-3.39227">
        <ele>184</ele>
        <time>2022-04-06T12:09:06.180Z</time>
      </trkpt>
      <trkpt lat="48.51741" lon="-3.39229">
        <ele>184</ele>
        <time>2022-04-06T12:09:10.191Z</time>
      </trkpt>
      <trkpt lat="48.51738" lon="-3.39233">
        <ele>184</ele>
        <time>2022-04-06T12:09:15.183Z</time>
      </trkpt>
      <trkpt lat="48.51736" lon="-3.39239">
        <ele>184</ele>
        <time>2022-04-06T12:09:20.185Z</time>
      </trkpt>
      <trkpt lat="48.51736" lon="-3.39246">
        <ele>184</ele>
        <time>2022-04-06T12:09:25.178Z</time>
      </trkpt>
      <trkpt lat="48.51735" lon="-3.39253">
        <ele>181</ele>
        <time>2022-04-06T12:09:30.180Z</time>
      </trkpt>
      <trkpt lat="48.51734" lon="-3.39259">
        <ele>181</ele>
        <time>2022-04-06T12:09:35.186Z</time>
      </trkpt>
      <trkpt lat="48.51736" lon="-3.39264">
        <ele>180</ele>
        <time>2022-04-06T12:09:39.187Z</time>
      </trkpt>
      <trkpt lat="48.51732" lon="-3.39272">
        <ele>180</ele>
        <time>2022-04-06T12:09:44.181Z</time>
      </trkpt>
      <trkpt lat="48.51727" lon="-3.39278">
        <ele>180</ele>
        <time>2022-04-06T12:09:49.180Z</time>
      </trkpt>
      <trkpt lat="48.51723" lon="-3.39283">
        <ele>180</ele>
        <time>2022-04-06T12:09:54.177Z</time>
      </trkpt>
      <trkpt lat="48.51722" lon="-3.39291">
        <ele>180</ele>
        <time>2022-04-06T12:09:59.181Z</time>
      </trkpt>
      <trkpt lat="48.51717" lon="-3.39296">
        <ele>180</ele>
        <time>2022-04-06T12:10:03.182Z</time>
      </trkpt>
      <trkpt lat="48.51715" lon="-3.39302">
        <ele>180</ele>
        <time>2022-04-06T12:10:08.179Z</time>
      </trkpt>
      <trkpt lat="48.51712" lon="-3.39308">
        <ele>180</ele>
        <time>2022-04-06T12:10:13.185Z</time>
      </trkpt>
      <trkpt lat="48.51707" lon="-3.39314">
        <ele>180</ele>
        <time>2022-04-06T12:10:18.179Z</time>
      </trkpt>
      <trkpt lat="48.51702" lon="-3.39319">
        <ele>180</ele>
        <time>2022-04-06T12:10:22.179Z</time>
      </trkpt>
      <trkpt lat="48.51698" lon="-3.39325">
        <ele>181</ele>
        <time>2022-04-06T12:10:27.179Z</time>
      </trkpt>
      <trkpt lat="48.51694" lon="-3.39328">
        <ele>181</ele>
        <time>2022-04-06T12:10:31.179Z</time>
      </trkpt>
      <trkpt lat="48.51689" lon="-3.39331">
        <ele>181</ele>
        <time>2022-04-06T12:10:36.183Z</time>
      </trkpt>
      <trkpt lat="48.51683" lon="-3.39336">
        <ele>181</ele>
        <time>2022-04-06T12:10:41.181Z</time>
      </trkpt>
      <trkpt lat="48.51677" lon="-3.39338">
        <ele>181</ele>
        <time>2022-04-06T12:10:46.178Z</time>
      </trkpt>
      <trkpt lat="48.51673" lon="-3.3934">
        <ele>181</ele>
        <time>2022-04-06T12:10:50.190Z</time>
      </trkpt>
      <trkpt lat="48.51668" lon="-3.39341">
        <ele>181</ele>
        <time>2022-04-06T12:10:55.186Z</time>
      </trkpt>
      <trkpt lat="48.51662" lon="-3.39342">
        <ele>181</ele>
        <time>2022-04-06T12:11:00.182Z</time>
      </trkpt>
      <trkpt lat="48.51663" lon="-3.39341">
        <ele>181</ele>
        <time>2022-04-06T12:11:04.181Z</time>
      </trkpt>
      <trkpt lat="48.51657" lon="-3.39337">
        <ele>181</ele>
        <time>2022-04-06T12:11:09.184Z</time>
      </trkpt>
      <trkpt lat="48.5165" lon="-3.39335">
        <ele>180</ele>
        <time>2022-04-06T12:11:14.176Z</time>
      </trkpt>
      <trkpt lat="48.51646" lon="-3.39333">
        <ele>180</ele>
        <time>2022-04-06T12:11:18.187Z</time>
      </trkpt>
      <trkpt lat="48.5164" lon="-3.39332">
        <ele>180</ele>
        <time>2022-04-06T12:11:23.179Z</time>
      </trkpt>
      <trkpt lat="48.51635" lon="-3.3933">
        <ele>180</ele>
        <time>2022-04-06T12:11:27.181Z</time>
      </trkpt>
      <trkpt lat="48.51628" lon="-3.39329">
        <ele>180</ele>
        <time>2022-04-06T12:11:32.181Z</time>
      </trkpt>
      <trkpt lat="48.51623" lon="-3.39324">
        <ele>180</ele>
        <time>2022-04-06T12:11:36.186Z</time>
      </trkpt>
      <trkpt lat="48.51619" lon="-3.39316">
        <ele>181</ele>
        <time>2022-04-06T12:11:41.183Z</time>
      </trkpt>
      <trkpt lat="48.51613" lon="-3.39312">
        <ele>181</ele>
        <time>2022-04-06T12:11:46.183Z</time>
      </trkpt>
      <trkpt lat="48.51609" lon="-3.39312">
        <ele>181</ele>
        <time>2022-04-06T12:11:51.175Z</time>
      </trkpt>
      <trkpt lat="48.51604" lon="-3.39312">
        <ele>181</ele>
        <time>2022-04-06T12:11:56.176Z</time>
      </trkpt>
      <trkpt lat="48.51597" lon="-3.39314">
        <ele>181</ele>
        <time>2022-04-06T12:12:06.178Z</time>
      </trkpt>
      <trkpt lat="48.51597" lon="-3.39314">
        <ele>181</ele>
        <time>2022-04-06T12:12:10.178Z</time>
      </trkpt>
      <trkpt lat="48.51597" lon="-3.39314">
        <ele>181</ele>
        <time>2022-04-06T12:12:14.212Z</time>
      </trkpt>
      <trkpt lat="48.51593" lon="-3.39318">
        <ele>181</ele>
        <time>2022-04-06T12:12:19.178Z</time>
      </trkpt>
      <trkpt lat="48.51588" lon="-3.39321">
        <ele>180</ele>
        <time>2022-04-06T12:12:24.177Z</time>
      </trkpt>
      <trkpt lat="48.51582" lon="-3.39325">
        <ele>180</ele>
        <time>2022-04-06T12:12:29.176Z</time>
      </trkpt>
      <trkpt lat="48.51582" lon="-3.39324">
        <ele>180</ele>
        <time>2022-04-06T12:12:34.180Z</time>
      </trkpt>
      <trkpt lat="48.51578" lon="-3.39326">
        <ele>180</ele>
        <time>2022-04-06T12:12:38.197Z</time>
      </trkpt>
      <trkpt lat="48.51574" lon="-3.3933">
        <ele>180</ele>
        <time>2022-04-06T12:12:43.188Z</time>
      </trkpt>
      <trkpt lat="48.51569" lon="-3.39332">
        <ele>179</ele>
        <time>2022-04-06T12:12:47.174Z</time>
      </trkpt>
      <trkpt lat="48.51562" lon="-3.39335">
        <ele>179</ele>
        <time>2022-04-06T12:12:52.179Z</time>
      </trkpt>
      <trkpt lat="48.51557" lon="-3.39337">
        <ele>179</ele>
        <time>2022-04-06T12:12:57.177Z</time>
      </trkpt>
      <trkpt lat="48.51552" lon="-3.39339">
        <ele>179</ele>
        <time>2022-04-06T12:13:02.181Z</time>
      </trkpt>
      <trkpt lat="48.51547" lon="-3.39339">
        <ele>179</ele>
        <time>2022-04-06T12:13:07.183Z</time>
      </trkpt>
      <trkpt lat="48.51542" lon="-3.39343">
        <ele>179</ele>
        <time>2022-04-06T12:13:11.191Z</time>
      </trkpt>
      <trkpt lat="48.51536" lon="-3.39346">
        <ele>179</ele>
        <time>2022-04-06T12:13:16.193Z</time>
      </trkpt>
      <trkpt lat="48.51531" lon="-3.39354">
        <ele>177</ele>
        <time>2022-04-06T12:13:21.181Z</time>
      </trkpt>
      <trkpt lat="48.51521" lon="-3.39358">
        <ele>177</ele>
        <time>2022-04-06T12:13:40.179Z</time>
      </trkpt>
      <trkpt lat="48.51521" lon="-3.39357">
        <ele>177</ele>
        <time>2022-04-06T12:13:44.191Z</time>
      </trkpt>
      <trkpt lat="48.5152" lon="-3.39357">
        <ele>177</ele>
        <time>2022-04-06T12:13:49.183Z</time>
      </trkpt>
      <trkpt lat="48.51519" lon="-3.39354">
        <ele>177</ele>
        <time>2022-04-06T12:13:54.174Z</time>
      </trkpt>
      <trkpt lat="48.51516" lon="-3.39355">
        <ele>177</ele>
        <time>2022-04-06T12:13:59.176Z</time>
      </trkpt>
      <trkpt lat="48.51512" lon="-3.39358">
        <ele>177</ele>
        <time>2022-04-06T12:14:03.184Z</time>
      </trkpt>
      <trkpt lat="48.51508" lon="-3.39363">
        <ele>177</ele>
        <time>2022-04-06T12:14:08.180Z</time>
      </trkpt>
      <trkpt lat="48.51503" lon="-3.39366">
        <ele>177</ele>
        <time>2022-04-06T12:14:13.178Z</time>
      </trkpt>
      <trkpt lat="48.51499" lon="-3.3937">
        <ele>177</ele>
        <time>2022-04-06T12:14:17.184Z</time>
      </trkpt>
      <trkpt lat="48.51493" lon="-3.39376">
        <ele>176</ele>
        <time>2022-04-06T12:14:22.185Z</time>
      </trkpt>
      <trkpt lat="48.51487" lon="-3.39379">
        <ele>176</ele>
        <time>2022-04-06T12:14:27.202Z</time>
      </trkpt>
      <trkpt lat="48.51483" lon="-3.39388">
        <ele>178</ele>
        <time>2022-04-06T12:14:32.219Z</time>
      </trkpt>
      <trkpt lat="48.51483" lon="-3.39388">
        <ele>178</ele>
        <time>2022-04-06T12:14:37.178Z</time>
      </trkpt>
      <trkpt lat="48.51482" lon="-3.39388">
        <ele>178</ele>
        <time>2022-04-06T12:14:41.194Z</time>
      </trkpt>
      <trkpt lat="48.51482" lon="-3.39389">
        <ele>178</ele>
        <time>2022-04-06T12:14:46.183Z</time>
      </trkpt>
      <trkpt lat="48.51483" lon="-3.394">
        <ele>178</ele>
        <time>2022-04-06T12:14:51.178Z</time>
      </trkpt>
      <trkpt lat="48.51484" lon="-3.39409">
        <ele>179</ele>
        <time>2022-04-06T12:14:55.186Z</time>
      </trkpt>
      <trkpt lat="48.51482" lon="-3.39415">
        <ele>179</ele>
        <time>2022-04-06T12:15:00.186Z</time>
      </trkpt>
      <trkpt lat="48.51477" lon="-3.39409">
        <ele>179</ele>
        <time>2022-04-06T12:15:05.181Z</time>
      </trkpt>
      <trkpt lat="48.51471" lon="-3.39406">
        <ele>179</ele>
        <time>2022-04-06T12:15:10.190Z</time>
      </trkpt>
      <trkpt lat="48.51465" lon="-3.39404">
        <ele>179</ele>
        <time>2022-04-06T12:15:15.181Z</time>
      </trkpt>
      <trkpt lat="48.51459" lon="-3.39405">
        <ele>179</ele>
        <time>2022-04-06T12:15:52.189Z</time>
      </trkpt>
      <trkpt lat="48.51459" lon="-3.39406">
        <ele>179</ele>
        <time>2022-04-06T12:15:57.211Z</time>
      </trkpt>
      <trkpt lat="48.51461" lon="-3.39408">
        <ele>179</ele>
        <time>2022-04-06T12:16:02.203Z</time>
      </trkpt>
      <trkpt lat="48.51463" lon="-3.39413">
        <ele>179</ele>
        <time>2022-04-06T12:16:07.187Z</time>
      </trkpt>
      <trkpt lat="48.51464" lon="-3.3942">
        <ele>179</ele>
        <time>2022-04-06T12:16:11.198Z</time>
      </trkpt>
      <trkpt lat="48.51467" lon="-3.3943">
        <ele>179</ele>
        <time>2022-04-06T12:16:16.183Z</time>
      </trkpt>
      <trkpt lat="48.51469" lon="-3.39438">
        <ele>181</ele>
        <time>2022-04-06T12:16:20.180Z</time>
      </trkpt>
      <trkpt lat="48.51471" lon="-3.39447">
        <ele>181</ele>
        <time>2022-04-06T12:16:25.185Z</time>
      </trkpt>
      <trkpt lat="48.51472" lon="-3.39454">
        <ele>181</ele>
        <time>2022-04-06T12:16:30.189Z</time>
      </trkpt>
      <trkpt lat="48.51473" lon="-3.39463">
        <ele>182</ele>
        <time>2022-04-06T12:16:35.178Z</time>
      </trkpt>
      <trkpt lat="48.51476" lon="-3.39468">
        <ele>182</ele>
        <time>2022-04-06T12:16:39.190Z</time>
      </trkpt>
      <trkpt lat="48.51477" lon="-3.39477">
        <ele>182</ele>
        <time>2022-04-06T12:16:44.187Z</time>
      </trkpt>
      <trkpt lat="48.51478" lon="-3.39485">
        <ele>182</ele>
        <time>2022-04-06T12:16:49.181Z</time>
      </trkpt>
      <trkpt lat="48.51478" lon="-3.39495">
        <ele>184</ele>
        <time>2022-04-06T12:16:54.187Z</time>
      </trkpt>
      <trkpt lat="48.51478" lon="-3.39503">
        <ele>184</ele>
        <time>2022-04-06T12:16:59.196Z</time>
      </trkpt>
      <trkpt lat="48.51479" lon="-3.39513">
        <ele>184</ele>
        <time>2022-04-06T12:17:04.188Z</time>
      </trkpt>
      <trkpt lat="48.51479" lon="-3.39522">
        <ele>185</ele>
        <time>2022-04-06T12:17:09.182Z</time>
      </trkpt>
      <trkpt lat="48.51479" lon="-3.3953">
        <ele>185</ele>
        <time>2022-04-06T12:17:14.182Z</time>
      </trkpt>
      <trkpt lat="48.51479" lon="-3.39538">
        <ele>185</ele>
        <time>2022-04-06T12:17:18.194Z</time>
      </trkpt>
      <trkpt lat="48.51479" lon="-3.39548">
        <ele>187</ele>
        <time>2022-04-06T12:17:23.190Z</time>
      </trkpt>
      <trkpt lat="48.51479" lon="-3.39557">
        <ele>187</ele>
        <time>2022-04-06T12:17:28.193Z</time>
      </trkpt>
      <trkpt lat="48.51478" lon="-3.39566">
        <ele>187</ele>
        <time>2022-04-06T12:17:33.189Z</time>
      </trkpt>
      <trkpt lat="48.51478" lon="-3.39577">
        <ele>187</ele>
        <time>2022-04-06T12:17:38.193Z</time>
      </trkpt>
      <trkpt lat="48.51477" lon="-3.39587">
        <ele>187</ele>
        <time>2022-04-06T12:17:43.209Z</time>
      </trkpt>
      <trkpt lat="48.51477" lon="-3.39595">
        <ele>187</ele>
        <time>2022-04-06T12:17:48.178Z</time>
      </trkpt>
      <trkpt lat="48.51477" lon="-3.39601">
        <ele>186</ele>
        <time>2022-04-06T12:17:52.188Z</time>
      </trkpt>
      <trkpt lat="48.51477" lon="-3.39608">
        <ele>186</ele>
        <time>2022-04-06T12:17:57.182Z</time>
      </trkpt>
      <trkpt lat="48.51477" lon="-3.39615">
        <ele>186</ele>
        <time>2022-04-06T12:18:01.178Z</time>
      </trkpt>
      <trkpt lat="48.51477" lon="-3.39622">
        <ele>186</ele>
        <time>2022-04-06T12:18:06.179Z</time>
      </trkpt>
      <trkpt lat="48.51478" lon="-3.39631">
        <ele>185</ele>
        <time>2022-04-06T12:18:11.187Z</time>
      </trkpt>
      <trkpt lat="48.51478" lon="-3.39641">
        <ele>185</ele>
        <time>2022-04-06T12:18:16.185Z</time>
      </trkpt>
      <trkpt lat="48.51477" lon="-3.39646">
        <ele>185</ele>
        <time>2022-04-06T12:18:20.183Z</time>
      </trkpt>
      <trkpt lat="48.51476" lon="-3.39654">
        <ele>184</ele>
        <time>2022-04-06T12:18:25.184Z</time>
      </trkpt>
      <trkpt lat="48.51474" lon="-3.39661">
        <ele>184</ele>
        <time>2022-04-06T12:18:30.183Z</time>
      </trkpt>
      <trkpt lat="48.51472" lon="-3.39667">
        <ele>184</ele>
        <time>2022-04-06T12:18:34.206Z</time>
      </trkpt>
      <trkpt lat="48.51472" lon="-3.39676">
        <ele>184</ele>
        <time>2022-04-06T12:18:39.191Z</time>
      </trkpt>
      <trkpt lat="48.51469" lon="-3.39686">
        <ele>183</ele>
        <time>2022-04-06T12:18:44.181Z</time>
      </trkpt>
      <trkpt lat="48.51468" lon="-3.39691">
        <ele>183</ele>
        <time>2022-04-06T12:18:48.196Z</time>
      </trkpt>
      <trkpt lat="48.51465" lon="-3.39698">
        <ele>183</ele>
        <time>2022-04-06T12:18:53.181Z</time>
      </trkpt>
      <trkpt lat="48.51463" lon="-3.39704">
        <ele>183</ele>
        <time>2022-04-06T12:18:57.197Z</time>
      </trkpt>
      <trkpt lat="48.51462" lon="-3.39711">
        <ele>182</ele>
        <time>2022-04-06T12:19:02.190Z</time>
      </trkpt>
      <trkpt lat="48.51461" lon="-3.39718">
        <ele>182</ele>
        <time>2022-04-06T12:19:07.186Z</time>
      </trkpt>
      <trkpt lat="48.51459" lon="-3.39728">
        <ele>182</ele>
        <time>2022-04-06T12:19:12.190Z</time>
      </trkpt>
      <trkpt lat="48.51462" lon="-3.39738">
        <ele>181</ele>
        <time>2022-04-06T12:19:17.184Z</time>
      </trkpt>
      <trkpt lat="48.51467" lon="-3.39743">
        <ele>181</ele>
        <time>2022-04-06T12:19:21.178Z</time>
      </trkpt>
      <trkpt lat="48.51471" lon="-3.3975">
        <ele>181</ele>
        <time>2022-04-06T12:19:25.200Z</time>
      </trkpt>
      <trkpt lat="48.51475" lon="-3.39756">
        <ele>181</ele>
        <time>2022-04-06T12:19:30.187Z</time>
      </trkpt>
      <trkpt lat="48.51477" lon="-3.39762">
        <ele>181</ele>
        <time>2022-04-06T12:19:34.194Z</time>
      </trkpt>
      <trkpt lat="48.51482" lon="-3.3976">
        <ele>181</ele>
        <time>2022-04-06T12:19:39.194Z</time>
      </trkpt>
      <trkpt lat="48.51484" lon="-3.3977">
        <ele>181</ele>
        <time>2022-04-06T12:19:44.177Z</time>
      </trkpt>
      <trkpt lat="48.51485" lon="-3.39779">
        <ele>181</ele>
        <time>2022-04-06T12:19:49.194Z</time>
      </trkpt>
      <trkpt lat="48.51487" lon="-3.39787">
        <ele>177</ele>
        <time>2022-04-06T12:19:54.190Z</time>
      </trkpt>
      <trkpt lat="48.51488" lon="-3.39794">
        <ele>177</ele>
        <time>2022-04-06T12:19:58.189Z</time>
      </trkpt>
      <trkpt lat="48.51489" lon="-3.39799">
        <ele>177</ele>
        <time>2022-04-06T12:20:03.186Z</time>
      </trkpt>
      <trkpt lat="48.51489" lon="-3.39805">
        <ele>177</ele>
        <time>2022-04-06T12:20:07.184Z</time>
      </trkpt>
      <trkpt lat="48.51491" lon="-3.39814">
        <ele>177</ele>
        <time>2022-04-06T12:20:12.185Z</time>
      </trkpt>
      <trkpt lat="48.51492" lon="-3.39823">
        <ele>175</ele>
        <time>2022-04-06T12:20:17.189Z</time>
      </trkpt>
      <trkpt lat="48.51496" lon="-3.39821">
        <ele>175</ele>
        <time>2022-04-06T12:20:22.187Z</time>
      </trkpt>
      <trkpt lat="48.51496" lon="-3.39821">
        <ele>175</ele>
        <time>2022-04-06T12:20:26.189Z</time>
      </trkpt>
      <trkpt lat="48.515" lon="-3.39827">
        <ele>175</ele>
        <time>2022-04-06T12:20:30.204Z</time>
      </trkpt>
      <trkpt lat="48.51501" lon="-3.39835">
        <ele>175</ele>
        <time>2022-04-06T12:20:35.185Z</time>
      </trkpt>
      <trkpt lat="48.51503" lon="-3.39839">
        <ele>175</ele>
        <time>2022-04-06T12:20:40.188Z</time>
      </trkpt>
      <trkpt lat="48.51509" lon="-3.39844">
        <ele>175</ele>
        <time>2022-04-06T12:20:45.184Z</time>
      </trkpt>
      <trkpt lat="48.51515" lon="-3.39849">
        <ele>170</ele>
        <time>2022-04-06T12:20:50.185Z</time>
      </trkpt>
      <trkpt lat="48.51521" lon="-3.39855">
        <ele>170</ele>
        <time>2022-04-06T12:20:55.183Z</time>
      </trkpt>
      <trkpt lat="48.51525" lon="-3.39861">
        <ele>170</ele>
        <time>2022-04-06T12:20:59.186Z</time>
      </trkpt>
      <trkpt lat="48.51529" lon="-3.39864">
        <ele>170</ele>
        <time>2022-04-06T12:21:04.188Z</time>
      </trkpt>
      <trkpt lat="48.51535" lon="-3.39869">
        <ele>170</ele>
        <time>2022-04-06T12:21:09.188Z</time>
      </trkpt>
      <trkpt lat="48.51541" lon="-3.39875">
        <ele>169</ele>
        <time>2022-04-06T12:21:14.184Z</time>
      </trkpt>
      <trkpt lat="48.51548" lon="-3.39878">
        <ele>165</ele>
        <time>2022-04-06T12:21:18.208Z</time>
      </trkpt>
      <trkpt lat="48.51555" lon="-3.39883">
        <ele>165</ele>
        <time>2022-04-06T12:21:23.187Z</time>
      </trkpt>
      <trkpt lat="48.51562" lon="-3.3988">
        <ele>165</ele>
        <time>2022-04-06T12:21:27.193Z</time>
      </trkpt>
      <trkpt lat="48.51569" lon="-3.39881">
        <ele>165</ele>
        <time>2022-04-06T12:21:32.181Z</time>
      </trkpt>
      <trkpt lat="48.51577" lon="-3.39879">
        <ele>163</ele>
        <time>2022-04-06T12:21:37.193Z</time>
      </trkpt>
      <trkpt lat="48.5158" lon="-3.39886">
        <ele>163</ele>
        <time>2022-04-06T12:21:42.191Z</time>
      </trkpt>
      <trkpt lat="48.51583" lon="-3.39891">
        <ele>163</ele>
        <time>2022-04-06T12:21:47.187Z</time>
      </trkpt>
      <trkpt lat="48.51583" lon="-3.39893">
        <ele>163</ele>
        <time>2022-04-06T12:21:51.184Z</time>
      </trkpt>
      <trkpt lat="48.51582" lon="-3.39897">
        <ele>163</ele>
        <time>2022-04-06T12:21:56.180Z</time>
      </trkpt>
      <trkpt lat="48.51582" lon="-3.39903">
        <ele>163</ele>
        <time>2022-04-06T12:22:00.185Z</time>
      </trkpt>
      <trkpt lat="48.51584" lon="-3.3991">
        <ele>164</ele>
        <time>2022-04-06T12:22:05.182Z</time>
      </trkpt>
      <trkpt lat="48.51586" lon="-3.39917">
        <ele>164</ele>
        <time>2022-04-06T12:22:09.195Z</time>
      </trkpt>
      <trkpt lat="48.5159" lon="-3.39924">
        <ele>164</ele>
        <time>2022-04-06T12:22:14.176Z</time>
      </trkpt>
      <trkpt lat="48.51595" lon="-3.39927">
        <ele>164</ele>
        <time>2022-04-06T12:22:18.179Z</time>
      </trkpt>
      <trkpt lat="48.51601" lon="-3.3993">
        <ele>162</ele>
        <time>2022-04-06T12:22:23.178Z</time>
      </trkpt>
      <trkpt lat="48.51604" lon="-3.39931">
        <ele>165</ele>
        <time>2022-04-06T12:22:27.181Z</time>
      </trkpt>
      <trkpt lat="48.51609" lon="-3.39931">
        <ele>165</ele>
        <time>2022-04-06T12:22:32.189Z</time>
      </trkpt>
      <trkpt lat="48.51615" lon="-3.39932">
        <ele>165</ele>
        <time>2022-04-06T12:22:36.191Z</time>
      </trkpt>
      <trkpt lat="48.51621" lon="-3.39934">
        <ele>165</ele>
        <time>2022-04-06T12:22:41.186Z</time>
      </trkpt>
      <trkpt lat="48.51627" lon="-3.39935">
        <ele>163</ele>
        <time>2022-04-06T12:22:46.180Z</time>
      </trkpt>
      <trkpt lat="48.51634" lon="-3.39937">
        <ele>163</ele>
        <time>2022-04-06T12:22:51.183Z</time>
      </trkpt>
      <trkpt lat="48.5164" lon="-3.3994">
        <ele>163</ele>
        <time>2022-04-06T12:22:56.189Z</time>
      </trkpt>
      <trkpt lat="48.51644" lon="-3.39943">
        <ele>163</ele>
        <time>2022-04-06T12:23:00.184Z</time>
      </trkpt>
      <trkpt lat="48.5165" lon="-3.39949">
        <ele>163</ele>
        <time>2022-04-06T12:23:05.186Z</time>
      </trkpt>
      <trkpt lat="48.51654" lon="-3.39953">
        <ele>159</ele>
        <time>2022-04-06T12:23:09.190Z</time>
      </trkpt>
      <trkpt lat="48.5166" lon="-3.39959">
        <ele>161</ele>
        <time>2022-04-06T12:23:14.184Z</time>
      </trkpt>
      <trkpt lat="48.51663" lon="-3.39964">
        <ele>161</ele>
        <time>2022-04-06T12:23:18.186Z</time>
      </trkpt>
      <trkpt lat="48.51667" lon="-3.3997">
        <ele>161</ele>
        <time>2022-04-06T12:23:22.198Z</time>
      </trkpt>
      <trkpt lat="48.51672" lon="-3.39974">
        <ele>161</ele>
        <time>2022-04-06T12:23:26.196Z</time>
      </trkpt>
      <trkpt lat="48.51677" lon="-3.3998">
        <ele>161</ele>
        <time>2022-04-06T12:23:31.203Z</time>
      </trkpt>
      <trkpt lat="48.51682" lon="-3.39985">
        <ele>158</ele>
        <time>2022-04-06T12:23:36.184Z</time>
      </trkpt>
      <trkpt lat="48.51687" lon="-3.39989">
        <ele>161</ele>
        <time>2022-04-06T12:23:40.190Z</time>
      </trkpt>
      <trkpt lat="48.51692" lon="-3.39994">
        <ele>161</ele>
        <time>2022-04-06T12:23:44.267Z</time>
      </trkpt>
      <trkpt lat="48.51698" lon="-3.4">
        <ele>161</ele>
        <time>2022-04-06T12:23:49.209Z</time>
      </trkpt>
      <trkpt lat="48.51703" lon="-3.40005">
        <ele>161</ele>
        <time>2022-04-06T12:23:54.186Z</time>
      </trkpt>
      <trkpt lat="48.51708" lon="-3.40011">
        <ele>161</ele>
        <time>2022-04-06T12:23:59.190Z</time>
      </trkpt>
      <trkpt lat="48.51714" lon="-3.40019">
        <ele>158</ele>
        <time>2022-04-06T12:24:04.197Z</time>
      </trkpt>
      <trkpt lat="48.5172" lon="-3.40026">
        <ele>158</ele>
        <time>2022-04-06T12:24:09.195Z</time>
      </trkpt>
      <trkpt lat="48.51724" lon="-3.40033">
        <ele>158</ele>
        <time>2022-04-06T12:24:14.188Z</time>
      </trkpt>
      <trkpt lat="48.51728" lon="-3.40038">
        <ele>158</ele>
        <time>2022-04-06T12:24:19.187Z</time>
      </trkpt>
      <trkpt lat="48.51734" lon="-3.40046">
        <ele>162</ele>
        <time>2022-04-06T12:24:24.183Z</time>
      </trkpt>
      <trkpt lat="48.5174" lon="-3.40051">
        <ele>153</ele>
        <time>2022-04-06T12:24:29.181Z</time>
      </trkpt>
      <trkpt lat="48.51744" lon="-3.40057">
        <ele>153</ele>
        <time>2022-04-06T12:24:33.180Z</time>
      </trkpt>
      <trkpt lat="48.51749" lon="-3.40064">
        <ele>153</ele>
        <time>2022-04-06T12:24:38.216Z</time>
      </trkpt>
      <trkpt lat="48.51755" lon="-3.40069">
        <ele>153</ele>
        <time>2022-04-06T12:24:43.186Z</time>
      </trkpt>
      <trkpt lat="48.5176" lon="-3.40074">
        <ele>156</ele>
        <time>2022-04-06T12:24:48.193Z</time>
      </trkpt>
      <trkpt lat="48.51765" lon="-3.4008">
        <ele>151</ele>
        <time>2022-04-06T12:24:53.182Z</time>
      </trkpt>
      <trkpt lat="48.51771" lon="-3.40084">
        <ele>151</ele>
        <time>2022-04-06T12:24:58.183Z</time>
      </trkpt>
      <trkpt lat="48.51776" lon="-3.40089">
        <ele>151</ele>
        <time>2022-04-06T12:25:03.186Z</time>
      </trkpt>
      <trkpt lat="48.51782" lon="-3.40094">
        <ele>151</ele>
        <time>2022-04-06T12:25:08.185Z</time>
      </trkpt>
      <trkpt lat="48.51787" lon="-3.401">
        <ele>153</ele>
        <time>2022-04-06T12:25:13.183Z</time>
      </trkpt>
      <trkpt lat="48.51793" lon="-3.40104">
        <ele>150</ele>
        <time>2022-04-06T12:25:18.188Z</time>
      </trkpt>
      <trkpt lat="48.51798" lon="-3.40108">
        <ele>150</ele>
        <time>2022-04-06T12:25:22.193Z</time>
      </trkpt>
      <trkpt lat="48.51804" lon="-3.40114">
        <ele>150</ele>
        <time>2022-04-06T12:25:27.179Z</time>
      </trkpt>
      <trkpt lat="48.51809" lon="-3.4012">
        <ele>150</ele>
        <time>2022-04-06T12:25:31.187Z</time>
      </trkpt>
      <trkpt lat="48.51814" lon="-3.4013">
        <ele>151</ele>
        <time>2022-04-06T12:25:36.176Z</time>
      </trkpt>
      <trkpt lat="48.51815" lon="-3.40138">
        <ele>151</ele>
        <time>2022-04-06T12:25:40.188Z</time>
      </trkpt>
      <trkpt lat="48.51817" lon="-3.40147">
        <ele>151</ele>
        <time>2022-04-06T12:25:45.190Z</time>
      </trkpt>
      <trkpt lat="48.51818" lon="-3.40158">
        <ele>152</ele>
        <time>2022-04-06T12:25:50.190Z</time>
      </trkpt>
      <trkpt lat="48.51816" lon="-3.40167">
        <ele>152</ele>
        <time>2022-04-06T12:25:55.199Z</time>
      </trkpt>
      <trkpt lat="48.51816" lon="-3.40176">
        <ele>152</ele>
        <time>2022-04-06T12:25:59.205Z</time>
      </trkpt>
      <trkpt lat="48.51814" lon="-3.40184">
        <ele>151</ele>
        <time>2022-04-06T12:26:04.178Z</time>
      </trkpt>
      <trkpt lat="48.51812" lon="-3.4019">
        <ele>151</ele>
        <time>2022-04-06T12:26:08.196Z</time>
      </trkpt>
      <trkpt lat="48.51808" lon="-3.40197">
        <ele>151</ele>
        <time>2022-04-06T12:26:13.195Z</time>
      </trkpt>
      <trkpt lat="48.51806" lon="-3.40205">
        <ele>151</ele>
        <time>2022-04-06T12:26:18.193Z</time>
      </trkpt>
      <trkpt lat="48.51804" lon="-3.40214">
        <ele>148</ele>
        <time>2022-04-06T12:26:23.204Z</time>
      </trkpt>
      <trkpt lat="48.518" lon="-3.40222">
        <ele>148</ele>
        <time>2022-04-06T12:26:28.188Z</time>
      </trkpt>
      <trkpt lat="48.51797" lon="-3.4023">
        <ele>148</ele>
        <time>2022-04-06T12:26:33.184Z</time>
      </trkpt>
      <trkpt lat="48.51794" lon="-3.40238">
        <ele>144</ele>
        <time>2022-04-06T12:26:38.200Z</time>
      </trkpt>
      <trkpt lat="48.51791" lon="-3.40246">
        <ele>152</ele>
        <time>2022-04-06T12:26:43.184Z</time>
      </trkpt>
      <trkpt lat="48.51788" lon="-3.40252">
        <ele>152</ele>
        <time>2022-04-06T12:26:47.194Z</time>
      </trkpt>
      <trkpt lat="48.51785" lon="-3.4026">
        <ele>152</ele>
        <time>2022-04-06T12:26:52.181Z</time>
      </trkpt>
      <trkpt lat="48.51782" lon="-3.40267">
        <ele>148</ele>
        <time>2022-04-06T12:26:56.189Z</time>
      </trkpt>
      <trkpt lat="48.5178" lon="-3.40275">
        <ele>148</ele>
        <time>2022-04-06T12:27:00.263Z</time>
      </trkpt>
      <trkpt lat="48.51778" lon="-3.40285">
        <ele>148</ele>
        <time>2022-04-06T12:27:05.185Z</time>
      </trkpt>
      <trkpt lat="48.51775" lon="-3.40292">
        <ele>147</ele>
        <time>2022-04-06T12:27:09.198Z</time>
      </trkpt>
      <trkpt lat="48.51775" lon="-3.40287">
        <ele>148</ele>
        <time>2022-04-06T12:27:14.180Z</time>
      </trkpt>
      <trkpt lat="48.5177" lon="-3.40298">
        <ele>147</ele>
        <time>2022-04-06T12:27:18.182Z</time>
      </trkpt>
      <trkpt lat="48.51766" lon="-3.40307">
        <ele>147</ele>
        <time>2022-04-06T12:27:23.183Z</time>
      </trkpt>
      <trkpt lat="48.51763" lon="-3.40321">
        <ele>150</ele>
        <time>2022-04-06T12:27:28.187Z</time>
      </trkpt>
      <trkpt lat="48.51758" lon="-3.40332">
        <ele>150</ele>
        <time>2022-04-06T12:27:33.184Z</time>
      </trkpt>
      <trkpt lat="48.51754" lon="-3.40342">
        <ele>150</ele>
        <time>2022-04-06T12:27:38.187Z</time>
      </trkpt>
      <trkpt lat="48.51751" lon="-3.40352">
        <ele>148</ele>
        <time>2022-04-06T12:27:43.183Z</time>
      </trkpt>
      <trkpt lat="48.51748" lon="-3.40361">
        <ele>148</ele>
        <time>2022-04-06T12:27:48.196Z</time>
      </trkpt>
      <trkpt lat="48.51745" lon="-3.40367">
        <ele>148</ele>
        <time>2022-04-06T12:27:53.183Z</time>
      </trkpt>
      <trkpt lat="48.51741" lon="-3.40376">
        <ele>148</ele>
        <time>2022-04-06T12:27:58.184Z</time>
      </trkpt>
      <trkpt lat="48.51739" lon="-3.40382">
        <ele>148</ele>
        <time>2022-04-06T12:28:02.194Z</time>
      </trkpt>
      <trkpt lat="48.51737" lon="-3.40391">
        <ele>148</ele>
        <time>2022-04-06T12:28:07.182Z</time>
      </trkpt>
      <trkpt lat="48.51737" lon="-3.40398">
        <ele>148</ele>
        <time>2022-04-06T12:28:11.185Z</time>
      </trkpt>
      <trkpt lat="48.51736" lon="-3.40406">
        <ele>147</ele>
        <time>2022-04-06T12:28:16.189Z</time>
      </trkpt>
      <trkpt lat="48.51735" lon="-3.40415">
        <ele>154</ele>
        <time>2022-04-06T12:28:21.183Z</time>
      </trkpt>
      <trkpt lat="48.51734" lon="-3.40422">
        <ele>154</ele>
        <time>2022-04-06T12:28:25.190Z</time>
      </trkpt>
      <trkpt lat="48.51735" lon="-3.40432">
        <ele>154</ele>
        <time>2022-04-06T12:28:30.181Z</time>
      </trkpt>
      <trkpt lat="48.51735" lon="-3.40441">
        <ele>154</ele>
        <time>2022-04-06T12:28:34.187Z</time>
      </trkpt>
      <trkpt lat="48.51733" lon="-3.40449">
        <ele>154</ele>
        <time>2022-04-06T12:28:38.182Z</time>
      </trkpt>
      <trkpt lat="48.51733" lon="-3.4046">
        <ele>152</ele>
        <time>2022-04-06T12:28:43.186Z</time>
      </trkpt>
      <trkpt lat="48.51733" lon="-3.40468">
        <ele>152</ele>
        <time>2022-04-06T12:28:47.190Z</time>
      </trkpt>
      <trkpt lat="48.51733" lon="-3.40476">
        <ele>152</ele>
        <time>2022-04-06T12:28:52.182Z</time>
      </trkpt>
      <trkpt lat="48.51733" lon="-3.40484">
        <ele>152</ele>
        <time>2022-04-06T12:28:56.186Z</time>
      </trkpt>
      <trkpt lat="48.51733" lon="-3.40491">
        <ele>151</ele>
        <time>2022-04-06T12:29:00.193Z</time>
      </trkpt>
      <trkpt lat="48.51724" lon="-3.405">
        <ele>151</ele>
        <time>2022-04-06T12:29:05.192Z</time>
      </trkpt>
      <trkpt lat="48.51741" lon="-3.40512">
        <ele>145</ele>
        <time>2022-04-06T12:29:10.180Z</time>
      </trkpt>
      <trkpt lat="48.51739" lon="-3.40521">
        <ele>144</ele>
        <time>2022-04-06T12:29:14.187Z</time>
      </trkpt>
      <trkpt lat="48.51739" lon="-3.40529">
        <ele>144</ele>
        <time>2022-04-06T12:29:18.185Z</time>
      </trkpt>
      <trkpt lat="48.51737" lon="-3.4054">
        <ele>144</ele>
        <time>2022-04-06T12:29:23.184Z</time>
      </trkpt>
      <trkpt lat="48.51736" lon="-3.40548">
        <ele>148</ele>
        <time>2022-04-06T12:29:28.184Z</time>
      </trkpt>
      <trkpt lat="48.51733" lon="-3.40555">
        <ele>148</ele>
        <time>2022-04-06T12:29:32.190Z</time>
      </trkpt>
      <trkpt lat="48.51731" lon="-3.40563">
        <ele>148</ele>
        <time>2022-04-06T12:29:37.187Z</time>
      </trkpt>
      <trkpt lat="48.51729" lon="-3.40574">
        <ele>148</ele>
        <time>2022-04-06T12:29:42.190Z</time>
      </trkpt>
      <trkpt lat="48.51727" lon="-3.40582">
        <ele>148</ele>
        <time>2022-04-06T12:29:47.190Z</time>
      </trkpt>
      <trkpt lat="48.51724" lon="-3.40591">
        <ele>148</ele>
        <time>2022-04-06T12:29:52.182Z</time>
      </trkpt>
      <trkpt lat="48.51723" lon="-3.40597">
        <ele>148</ele>
        <time>2022-04-06T12:29:56.190Z</time>
      </trkpt>
      <trkpt lat="48.51719" lon="-3.40607">
        <ele>148</ele>
        <time>2022-04-06T12:30:01.187Z</time>
      </trkpt>
      <trkpt lat="48.51715" lon="-3.40615">
        <ele>148</ele>
        <time>2022-04-06T12:30:06.190Z</time>
      </trkpt>
      <trkpt lat="48.51714" lon="-3.40623">
        <ele>148</ele>
        <time>2022-04-06T12:30:10.198Z</time>
      </trkpt>
      <trkpt lat="48.51705" lon="-3.40624">
        <ele>151</ele>
        <time>2022-04-06T12:30:15.188Z</time>
      </trkpt>
      <trkpt lat="48.517" lon="-3.40627">
        <ele>149</ele>
        <time>2022-04-06T12:30:20.218Z</time>
      </trkpt>
      <trkpt lat="48.51694" lon="-3.40631">
        <ele>149</ele>
        <time>2022-04-06T12:30:25.190Z</time>
      </trkpt>
      <trkpt lat="48.5169" lon="-3.40635">
        <ele>149</ele>
        <time>2022-04-06T12:30:30.189Z</time>
      </trkpt>
      <trkpt lat="48.51686" lon="-3.40639">
        <ele>149</ele>
        <time>2022-04-06T12:30:34.195Z</time>
      </trkpt>
      <trkpt lat="48.51684" lon="-3.40647">
        <ele>149</ele>
        <time>2022-04-06T12:30:39.219Z</time>
      </trkpt>
      <trkpt lat="48.51681" lon="-3.40654">
        <ele>147</ele>
        <time>2022-04-06T12:30:44.217Z</time>
      </trkpt>
      <trkpt lat="48.5168" lon="-3.4066">
        <ele>148</ele>
        <time>2022-04-06T12:30:49.211Z</time>
      </trkpt>
      <trkpt lat="48.51677" lon="-3.40668">
        <ele>148</ele>
        <time>2022-04-06T12:30:54.183Z</time>
      </trkpt>
      <trkpt lat="48.51674" lon="-3.40674">
        <ele>148</ele>
        <time>2022-04-06T12:30:58.186Z</time>
      </trkpt>
      <trkpt lat="48.51671" lon="-3.40682">
        <ele>145</ele>
        <time>2022-04-06T12:31:03.191Z</time>
      </trkpt>
      <trkpt lat="48.51667" lon="-3.40687">
        <ele>145</ele>
        <time>2022-04-06T12:31:07.201Z</time>
      </trkpt>
      <trkpt lat="48.51662" lon="-3.40693">
        <ele>145</ele>
        <time>2022-04-06T12:31:12.187Z</time>
      </trkpt>
      <trkpt lat="48.51656" lon="-3.40697">
        <ele>145</ele>
        <time>2022-04-06T12:31:17.194Z</time>
      </trkpt>
      <trkpt lat="48.51653" lon="-3.40702">
        <ele>145</ele>
        <time>2022-04-06T12:31:22.186Z</time>
      </trkpt>
      <trkpt lat="48.51651" lon="-3.40708">
        <ele>148</ele>
        <time>2022-04-06T12:31:27.185Z</time>
      </trkpt>
      <trkpt lat="48.51651" lon="-3.40716">
        <ele>145</ele>
        <time>2022-04-06T12:31:32.178Z</time>
      </trkpt>
      <trkpt lat="48.5165" lon="-3.40722">
        <ele>145</ele>
        <time>2022-04-06T12:31:36.182Z</time>
      </trkpt>
      <trkpt lat="48.51652" lon="-3.40729">
        <ele>145</ele>
        <time>2022-04-06T12:31:41.182Z</time>
      </trkpt>
      <trkpt lat="48.51654" lon="-3.4073">
        <ele>144</ele>
        <time>2022-04-06T12:31:46.186Z</time>
      </trkpt>
      <trkpt lat="48.51655" lon="-3.4073">
        <ele>144</ele>
        <time>2022-04-06T12:31:51.179Z</time>
      </trkpt>
      <trkpt lat="48.51659" lon="-3.4073">
        <ele>144</ele>
        <time>2022-04-06T12:31:56.186Z</time>
      </trkpt>
      <trkpt lat="48.51661" lon="-3.40737">
        <ele>142</ele>
        <time>2022-04-06T12:32:01.181Z</time>
      </trkpt>
      <trkpt lat="48.51662" lon="-3.40742">
        <ele>142</ele>
        <time>2022-04-06T12:32:05.210Z</time>
      </trkpt>
      <trkpt lat="48.51666" lon="-3.40745">
        <ele>142</ele>
        <time>2022-04-06T12:32:10.180Z</time>
      </trkpt>
      <trkpt lat="48.51663" lon="-3.40752">
        <ele>142</ele>
        <time>2022-04-06T12:32:15.196Z</time>
      </trkpt>
      <trkpt lat="48.51666" lon="-3.40758">
        <ele>142</ele>
        <time>2022-04-06T12:32:20.178Z</time>
      </trkpt>
      <trkpt lat="48.5167" lon="-3.40761">
        <ele>142</ele>
        <time>2022-04-06T12:32:25.180Z</time>
      </trkpt>
      <trkpt lat="48.51672" lon="-3.40759">
        <ele>142</ele>
        <time>2022-04-06T12:32:29.182Z</time>
      </trkpt>
      <trkpt lat="48.51675" lon="-3.40754">
        <ele>142</ele>
        <time>2022-04-06T12:32:34.180Z</time>
      </trkpt>
      <trkpt lat="48.51675" lon="-3.40746">
        <ele>142</ele>
        <time>2022-04-06T12:32:58.178Z</time>
      </trkpt>
      <trkpt lat="48.51674" lon="-3.40741">
        <ele>142</ele>
        <time>2022-04-06T12:33:02.178Z</time>
      </trkpt>
      <trkpt lat="48.51673" lon="-3.40737">
        <ele>142</ele>
        <time>2022-04-06T12:33:06.180Z</time>
      </trkpt>
      <trkpt lat="48.51673" lon="-3.40737">
        <ele>142</ele>
        <time>2022-04-06T12:33:10.187Z</time>
      </trkpt>
      <trkpt lat="48.51671" lon="-3.40735">
        <ele>144</ele>
        <time>2022-04-06T12:33:15.177Z</time>
      </trkpt>
      <trkpt lat="48.51669" lon="-3.40736">
        <ele>144</ele>
        <time>2022-04-06T12:33:34.179Z</time>
      </trkpt>
      <trkpt lat="48.51669" lon="-3.40736">
        <ele>144</ele>
        <time>2022-04-06T12:33:38.177Z</time>
      </trkpt>
      <trkpt lat="48.5167" lon="-3.40739">
        <ele>142</ele>
        <time>2022-04-06T12:33:43.179Z</time>
      </trkpt>
      <trkpt lat="48.51668" lon="-3.40742">
        <ele>142</ele>
        <time>2022-04-06T12:33:48.179Z</time>
      </trkpt>
      <trkpt lat="48.51667" lon="-3.40747">
        <ele>142</ele>
        <time>2022-04-06T12:33:53.185Z</time>
      </trkpt>
      <trkpt lat="48.51668" lon="-3.40753">
        <ele>142</ele>
        <time>2022-04-06T12:48:38.183Z</time>
      </trkpt>
      <trkpt lat="48.51665" lon="-3.40759">
        <ele>142</ele>
        <time>2022-04-06T12:48:43.178Z</time>
      </trkpt>
      <trkpt lat="48.51664" lon="-3.40759">
        <ele>142</ele>
        <time>2022-04-06T12:48:48.182Z</time>
      </trkpt>
      <trkpt lat="48.51663" lon="-3.40763">
        <ele>142</ele>
        <time>2022-04-06T12:48:53.180Z</time>
      </trkpt>
      <trkpt lat="48.51665" lon="-3.40765">
        <ele>140</ele>
        <time>2022-04-06T12:48:58.181Z</time>
      </trkpt>
      <trkpt lat="48.51664" lon="-3.40763">
        <ele>142</ele>
        <time>2022-04-06T12:49:22.180Z</time>
      </trkpt>
      <trkpt lat="48.51667" lon="-3.40769">
        <ele>140</ele>
        <time>2022-04-06T12:49:27.181Z</time>
      </trkpt>
      <trkpt lat="48.51666" lon="-3.40777">
        <ele>140</ele>
        <time>2022-04-06T12:49:32.179Z</time>
      </trkpt>
      <trkpt lat="48.51665" lon="-3.40781">
        <ele>140</ele>
        <time>2022-04-06T12:49:36.335Z</time>
      </trkpt>
      <trkpt lat="48.51664" lon="-3.40787">
        <ele>140</ele>
        <time>2022-04-06T12:49:41.182Z</time>
      </trkpt>
      <trkpt lat="48.51659" lon="-3.40797">
        <ele>138</ele>
        <time>2022-04-06T12:50:23.179Z</time>
      </trkpt>
      <trkpt lat="48.51659" lon="-3.40799">
        <ele>138</ele>
        <time>2022-04-06T12:50:27.180Z</time>
      </trkpt>
      <trkpt lat="48.51661" lon="-3.40802">
        <ele>138</ele>
        <time>2022-04-06T12:50:31.179Z</time>
      </trkpt>
      <trkpt lat="48.51663" lon="-3.40806">
        <ele>138</ele>
        <time>2022-04-06T12:50:35.181Z</time>
      </trkpt>
      <trkpt lat="48.51665" lon="-3.40813">
        <ele>138</ele>
        <time>2022-04-06T12:50:40.181Z</time>
      </trkpt>
      <trkpt lat="48.51669" lon="-3.40808">
        <ele>138</ele>
        <time>2022-04-06T12:50:53.182Z</time>
      </trkpt>
      <trkpt lat="48.51667" lon="-3.40806">
        <ele>138</ele>
        <time>2022-04-06T12:50:57.185Z</time>
      </trkpt>
      <trkpt lat="48.51674" lon="-3.40817">
        <ele>138</ele>
        <time>2022-04-06T12:51:02.179Z</time>
      </trkpt>
      <trkpt lat="48.51678" lon="-3.40817">
        <ele>138</ele>
        <time>2022-04-06T12:51:07.180Z</time>
      </trkpt>
      <trkpt lat="48.5168" lon="-3.40815">
        <ele>138</ele>
        <time>2022-04-06T12:51:12.184Z</time>
      </trkpt>
      <trkpt lat="48.51685" lon="-3.40816">
        <ele>135</ele>
        <time>2022-04-06T12:52:13.192Z</time>
      </trkpt>
      <trkpt lat="48.51686" lon="-3.40815">
        <ele>135</ele>
        <time>2022-04-06T12:52:18.185Z</time>
      </trkpt>
      <trkpt lat="48.51689" lon="-3.40819">
        <ele>135</ele>
        <time>2022-04-06T12:52:22.184Z</time>
      </trkpt>
      <trkpt lat="48.51696" lon="-3.40822">
        <ele>133</ele>
        <time>2022-04-06T12:52:27.181Z</time>
      </trkpt>
      <trkpt lat="48.517" lon="-3.40824">
        <ele>133</ele>
        <time>2022-04-06T12:52:31.184Z</time>
      </trkpt>
      <trkpt lat="48.51702" lon="-3.40829">
        <ele>133</ele>
        <time>2022-04-06T12:52:35.183Z</time>
      </trkpt>
      <trkpt lat="48.51701" lon="-3.40836">
        <ele>133</ele>
        <time>2022-04-06T12:52:40.179Z</time>
      </trkpt>
      <trkpt lat="48.51699" lon="-3.40842">
        <ele>133</ele>
        <time>2022-04-06T12:52:44.181Z</time>
      </trkpt>
      <trkpt lat="48.51696" lon="-3.40844">
        <ele>133</ele>
        <time>2022-04-06T12:52:48.188Z</time>
      </trkpt>
      <trkpt lat="48.5169" lon="-3.40852">
        <ele>132</ele>
        <time>2022-04-06T12:53:13.182Z</time>
      </trkpt>
      <trkpt lat="48.51693" lon="-3.40855">
        <ele>132</ele>
        <time>2022-04-06T12:53:18.182Z</time>
      </trkpt>
      <trkpt lat="48.51694" lon="-3.40858">
        <ele>132</ele>
        <time>2022-04-06T12:53:23.179Z</time>
      </trkpt>
      <trkpt lat="48.51699" lon="-3.40856">
        <ele>132</ele>
        <time>2022-04-06T12:53:28.180Z</time>
      </trkpt>
      <trkpt lat="48.517" lon="-3.40854">
        <ele>132</ele>
        <time>2022-04-06T12:53:33.179Z</time>
      </trkpt>
      <trkpt lat="48.51697" lon="-3.4087">
        <ele>132</ele>
        <time>2022-04-06T12:54:24.186Z</time>
      </trkpt>
      <trkpt lat="48.51688" lon="-3.40871">
        <ele>132</ele>
        <time>2022-04-06T12:54:29.195Z</time>
      </trkpt>
      <trkpt lat="48.51687" lon="-3.40866">
        <ele>132</ele>
        <time>2022-04-06T12:54:34.182Z</time>
      </trkpt>
      <trkpt lat="48.51686" lon="-3.40866">
        <ele>132</ele>
        <time>2022-04-06T12:54:38.182Z</time>
      </trkpt>
      <trkpt lat="48.51682" lon="-3.40872">
        <ele>132</ele>
        <time>2022-04-06T12:54:53.178Z</time>
      </trkpt>
      <trkpt lat="48.51682" lon="-3.40875">
        <ele>132</ele>
        <time>2022-04-06T12:54:57.182Z</time>
      </trkpt>
      <trkpt lat="48.51683" lon="-3.40878">
        <ele>132</ele>
        <time>2022-04-06T12:55:01.184Z</time>
      </trkpt>
      <trkpt lat="48.51684" lon="-3.4088">
        <ele>132</ele>
        <time>2022-04-06T12:55:06.207Z</time>
      </trkpt>
      <trkpt lat="48.51684" lon="-3.40881">
        <ele>132</ele>
        <time>2022-04-06T12:55:11.178Z</time>
      </trkpt>
      <trkpt lat="48.5168" lon="-3.40883">
        <ele>137</ele>
        <time>2022-04-06T12:55:20.178Z</time>
      </trkpt>
      <trkpt lat="48.51678" lon="-3.40885">
        <ele>137</ele>
        <time>2022-04-06T12:55:25.180Z</time>
      </trkpt>
      <trkpt lat="48.51676" lon="-3.40888">
        <ele>137</ele>
        <time>2022-04-06T12:55:29.182Z</time>
      </trkpt>
      <trkpt lat="48.51675" lon="-3.4089">
        <ele>137</ele>
        <time>2022-04-06T12:55:34.182Z</time>
      </trkpt>
      <trkpt lat="48.51673" lon="-3.40892">
        <ele>137</ele>
        <time>2022-04-06T12:55:39.179Z</time>
      </trkpt>
      <trkpt lat="48.51663" lon="-3.40895">
        <ele>137</ele>
        <time>2022-04-06T12:56:02.182Z</time>
      </trkpt>
      <trkpt lat="48.51665" lon="-3.40901">
        <ele>137</ele>
        <time>2022-04-06T12:56:07.187Z</time>
      </trkpt>
      <trkpt lat="48.51666" lon="-3.40907">
        <ele>138</ele>
        <time>2022-04-06T12:56:12.179Z</time>
      </trkpt>
      <trkpt lat="48.51665" lon="-3.40914">
        <ele>138</ele>
        <time>2022-04-06T12:56:16.180Z</time>
      </trkpt>
      <trkpt lat="48.51663" lon="-3.4092">
        <ele>138</ele>
        <time>2022-04-06T12:56:21.184Z</time>
      </trkpt>
      <trkpt lat="48.51661" lon="-3.40928">
        <ele>138</ele>
        <time>2022-04-06T12:56:25.179Z</time>
      </trkpt>
      <trkpt lat="48.51657" lon="-3.40937">
        <ele>138</ele>
        <time>2022-04-06T12:56:30.187Z</time>
      </trkpt>
      <trkpt lat="48.51654" lon="-3.40946">
        <ele>138</ele>
        <time>2022-04-06T12:56:35.185Z</time>
      </trkpt>
      <trkpt lat="48.51656" lon="-3.40954">
        <ele>138</ele>
        <time>2022-04-06T12:56:40.188Z</time>
      </trkpt>
      <trkpt lat="48.51661" lon="-3.4096">
        <ele>137</ele>
        <time>2022-04-06T12:56:45.185Z</time>
      </trkpt>
      <trkpt lat="48.51665" lon="-3.40965">
        <ele>137</ele>
        <time>2022-04-06T12:56:49.187Z</time>
      </trkpt>
      <trkpt lat="48.5167" lon="-3.40972">
        <ele>137</ele>
        <time>2022-04-06T12:56:54.185Z</time>
      </trkpt>
      <trkpt lat="48.51674" lon="-3.40979">
        <ele>137</ele>
        <time>2022-04-06T12:56:59.178Z</time>
      </trkpt>
      <trkpt lat="48.51677" lon="-3.40984">
        <ele>137</ele>
        <time>2022-04-06T12:57:03.185Z</time>
      </trkpt>
      <trkpt lat="48.51683" lon="-3.40991">
        <ele>133</ele>
        <time>2022-04-06T12:57:08.183Z</time>
      </trkpt>
      <trkpt lat="48.51689" lon="-3.40998">
        <ele>133</ele>
        <time>2022-04-06T12:57:13.183Z</time>
      </trkpt>
      <trkpt lat="48.51695" lon="-3.41006">
        <ele>133</ele>
        <time>2022-04-06T12:57:18.180Z</time>
      </trkpt>
      <trkpt lat="48.51698" lon="-3.41012">
        <ele>133</ele>
        <time>2022-04-06T12:57:22.185Z</time>
      </trkpt>
      <trkpt lat="48.51703" lon="-3.41021">
        <ele>134</ele>
        <time>2022-04-06T12:57:27.182Z</time>
      </trkpt>
      <trkpt lat="48.51708" lon="-3.41026">
        <ele>134</ele>
        <time>2022-04-06T12:57:31.180Z</time>
      </trkpt>
      <trkpt lat="48.51714" lon="-3.41036">
        <ele>131</ele>
        <time>2022-04-06T12:57:36.183Z</time>
      </trkpt>
      <trkpt lat="48.51717" lon="-3.41043">
        <ele>131</ele>
        <time>2022-04-06T12:57:40.183Z</time>
      </trkpt>
      <trkpt lat="48.51721" lon="-3.41052">
        <ele>131</ele>
        <time>2022-04-06T12:57:45.182Z</time>
      </trkpt>
      <trkpt lat="48.51724" lon="-3.41061">
        <ele>131</ele>
        <time>2022-04-06T12:57:50.182Z</time>
      </trkpt>
      <trkpt lat="48.51728" lon="-3.41068">
        <ele>131</ele>
        <time>2022-04-06T12:57:55.187Z</time>
      </trkpt>
      <trkpt lat="48.5173" lon="-3.41081">
        <ele>131</ele>
        <time>2022-04-06T12:58:00.181Z</time>
      </trkpt>
      <trkpt lat="48.51732" lon="-3.41087">
        <ele>131</ele>
        <time>2022-04-06T12:58:04.183Z</time>
      </trkpt>
      <trkpt lat="48.51734" lon="-3.41096">
        <ele>131</ele>
        <time>2022-04-06T12:58:09.180Z</time>
      </trkpt>
      <trkpt lat="48.51736" lon="-3.41103">
        <ele>129</ele>
        <time>2022-04-06T12:58:13.193Z</time>
      </trkpt>
      <trkpt lat="48.51739" lon="-3.41111">
        <ele>129</ele>
        <time>2022-04-06T12:58:18.181Z</time>
      </trkpt>
      <trkpt lat="48.51741" lon="-3.41118">
        <ele>129</ele>
        <time>2022-04-06T12:58:23.187Z</time>
      </trkpt>
      <trkpt lat="48.51742" lon="-3.41125">
        <ele>130</ele>
        <time>2022-04-06T12:58:28.182Z</time>
      </trkpt>
      <trkpt lat="48.51744" lon="-3.41133">
        <ele>130</ele>
        <time>2022-04-06T12:58:33.179Z</time>
      </trkpt>
      <trkpt lat="48.51746" lon="-3.4114">
        <ele>130</ele>
        <time>2022-04-06T12:58:37.187Z</time>
      </trkpt>
      <trkpt lat="48.51749" lon="-3.41148">
        <ele>130</ele>
        <time>2022-04-06T12:58:42.180Z</time>
      </trkpt>
      <trkpt lat="48.51751" lon="-3.41154">
        <ele>130</ele>
        <time>2022-04-06T12:58:46.182Z</time>
      </trkpt>
      <trkpt lat="48.51755" lon="-3.41162">
        <ele>130</ele>
        <time>2022-04-06T12:58:51.186Z</time>
      </trkpt>
      <trkpt lat="48.51757" lon="-3.41172">
        <ele>130</ele>
        <time>2022-04-06T12:58:56.185Z</time>
      </trkpt>
      <trkpt lat="48.5176" lon="-3.41181">
        <ele>130</ele>
        <time>2022-04-06T12:59:01.182Z</time>
      </trkpt>
      <trkpt lat="48.51762" lon="-3.41191">
        <ele>130</ele>
        <time>2022-04-06T12:59:06.184Z</time>
      </trkpt>
      <trkpt lat="48.51762" lon="-3.41199">
        <ele>130</ele>
        <time>2022-04-06T12:59:10.191Z</time>
      </trkpt>
      <trkpt lat="48.51763" lon="-3.41208">
        <ele>130</ele>
        <time>2022-04-06T12:59:15.179Z</time>
      </trkpt>
      <trkpt lat="48.51764" lon="-3.41215">
        <ele>127</ele>
        <time>2022-04-06T12:59:19.183Z</time>
      </trkpt>
      <trkpt lat="48.51764" lon="-3.41224">
        <ele>127</ele>
        <time>2022-04-06T12:59:23.186Z</time>
      </trkpt>
      <trkpt lat="48.51764" lon="-3.41234">
        <ele>127</ele>
        <time>2022-04-06T12:59:28.182Z</time>
      </trkpt>
      <trkpt lat="48.51763" lon="-3.41243">
        <ele>128</ele>
        <time>2022-04-06T12:59:33.189Z</time>
      </trkpt>
      <trkpt lat="48.51762" lon="-3.41253">
        <ele>128</ele>
        <time>2022-04-06T12:59:38.184Z</time>
      </trkpt>
      <trkpt lat="48.51762" lon="-3.41263">
        <ele>128</ele>
        <time>2022-04-06T12:59:43.183Z</time>
      </trkpt>
      <trkpt lat="48.51761" lon="-3.41271">
        <ele>129</ele>
        <time>2022-04-06T12:59:47.186Z</time>
      </trkpt>
      <trkpt lat="48.5176" lon="-3.4128">
        <ele>129</ele>
        <time>2022-04-06T12:59:52.180Z</time>
      </trkpt>
      <trkpt lat="48.51758" lon="-3.41288">
        <ele>129</ele>
        <time>2022-04-06T12:59:56.189Z</time>
      </trkpt>
      <trkpt lat="48.51757" lon="-3.41297">
        <ele>128</ele>
        <time>2022-04-06T13:00:01.184Z</time>
      </trkpt>
      <trkpt lat="48.51756" lon="-3.41303">
        <ele>128</ele>
        <time>2022-04-06T13:00:05.187Z</time>
      </trkpt>
      <trkpt lat="48.51755" lon="-3.41313">
        <ele>128</ele>
        <time>2022-04-06T13:00:10.181Z</time>
      </trkpt>
      <trkpt lat="48.51754" lon="-3.41322">
        <ele>128</ele>
        <time>2022-04-06T13:00:15.180Z</time>
      </trkpt>
      <trkpt lat="48.51752" lon="-3.41329">
        <ele>128</ele>
        <time>2022-04-06T13:00:19.187Z</time>
      </trkpt>
      <trkpt lat="48.51751" lon="-3.41339">
        <ele>128</ele>
        <time>2022-04-06T13:00:24.183Z</time>
      </trkpt>
      <trkpt lat="48.5175" lon="-3.41349">
        <ele>127</ele>
        <time>2022-04-06T13:00:29.184Z</time>
      </trkpt>
      <trkpt lat="48.5175" lon="-3.41357">
        <ele>127</ele>
        <time>2022-04-06T13:00:33.183Z</time>
      </trkpt>
      <trkpt lat="48.51749" lon="-3.41367">
        <ele>127</ele>
        <time>2022-04-06T13:00:38.185Z</time>
      </trkpt>
      <trkpt lat="48.51749" lon="-3.41377">
        <ele>125</ele>
        <time>2022-04-06T13:00:43.186Z</time>
      </trkpt>
      <trkpt lat="48.51747" lon="-3.41386">
        <ele>125</ele>
        <time>2022-04-06T13:00:48.181Z</time>
      </trkpt>
      <trkpt lat="48.51747" lon="-3.41393">
        <ele>125</ele>
        <time>2022-04-06T13:00:52.188Z</time>
      </trkpt>
      <trkpt lat="48.51747" lon="-3.41403">
        <ele>123</ele>
        <time>2022-04-06T13:00:57.179Z</time>
      </trkpt>
      <trkpt lat="48.51746" lon="-3.4141">
        <ele>123</ele>
        <time>2022-04-06T13:01:01.182Z</time>
      </trkpt>
      <trkpt lat="48.51745" lon="-3.4142">
        <ele>123</ele>
        <time>2022-04-06T13:01:06.180Z</time>
      </trkpt>
      <trkpt lat="48.51745" lon="-3.41429">
        <ele>123</ele>
        <time>2022-04-06T13:01:11.183Z</time>
      </trkpt>
      <trkpt lat="48.51743" lon="-3.41439">
        <ele>121</ele>
        <time>2022-04-06T13:01:16.186Z</time>
      </trkpt>
      <trkpt lat="48.51742" lon="-3.41449">
        <ele>121</ele>
        <time>2022-04-06T13:01:21.182Z</time>
      </trkpt>
      <trkpt lat="48.51741" lon="-3.41458">
        <ele>121</ele>
        <time>2022-04-06T13:01:26.176Z</time>
      </trkpt>
      <trkpt lat="48.5174" lon="-3.41466">
        <ele>121</ele>
        <time>2022-04-06T13:01:30.181Z</time>
      </trkpt>
      <trkpt lat="48.51739" lon="-3.41473">
        <ele>121</ele>
        <time>2022-04-06T13:01:34.200Z</time>
      </trkpt>
      <trkpt lat="48.51738" lon="-3.41483">
        <ele>121</ele>
        <time>2022-04-06T13:01:39.188Z</time>
      </trkpt>
      <trkpt lat="48.51737" lon="-3.41493">
        <ele>119</ele>
        <time>2022-04-06T13:01:44.191Z</time>
      </trkpt>
      <trkpt lat="48.51737" lon="-3.41502">
        <ele>119</ele>
        <time>2022-04-06T13:01:49.175Z</time>
      </trkpt>
      <trkpt lat="48.51736" lon="-3.4151">
        <ele>119</ele>
        <time>2022-04-06T13:01:53.195Z</time>
      </trkpt>
      <trkpt lat="48.51736" lon="-3.41518">
        <ele>119</ele>
        <time>2022-04-06T13:01:57.198Z</time>
      </trkpt>
      <trkpt lat="48.51735" lon="-3.41527">
        <ele>119</ele>
        <time>2022-04-06T13:02:02.183Z</time>
      </trkpt>
      <trkpt lat="48.51736" lon="-3.41535">
        <ele>119</ele>
        <time>2022-04-06T13:02:06.198Z</time>
      </trkpt>
      <trkpt lat="48.51737" lon="-3.41543">
        <ele>115</ele>
        <time>2022-04-06T13:02:11.180Z</time>
      </trkpt>
      <trkpt lat="48.51738" lon="-3.41552">
        <ele>115</ele>
        <time>2022-04-06T13:02:16.183Z</time>
      </trkpt>
      <trkpt lat="48.51739" lon="-3.41561">
        <ele>115</ele>
        <time>2022-04-06T13:02:21.182Z</time>
      </trkpt>
      <trkpt lat="48.51742" lon="-3.41569">
        <ele>115</ele>
        <time>2022-04-06T13:02:26.190Z</time>
      </trkpt>
      <trkpt lat="48.51744" lon="-3.41578">
        <ele>114</ele>
        <time>2022-04-06T13:02:31.186Z</time>
      </trkpt>
      <trkpt lat="48.51746" lon="-3.41586">
        <ele>114</ele>
        <time>2022-04-06T13:02:36.181Z</time>
      </trkpt>
      <trkpt lat="48.51748" lon="-3.41592">
        <ele>114</ele>
        <time>2022-04-06T13:02:40.199Z</time>
      </trkpt>
      <trkpt lat="48.5175" lon="-3.41601">
        <ele>114</ele>
        <time>2022-04-06T13:02:45.194Z</time>
      </trkpt>
      <trkpt lat="48.51751" lon="-3.41609">
        <ele>114</ele>
        <time>2022-04-06T13:02:50.181Z</time>
      </trkpt>
      <trkpt lat="48.51753" lon="-3.41614">
        <ele>114</ele>
        <time>2022-04-06T13:02:54.184Z</time>
      </trkpt>
      <trkpt lat="48.51755" lon="-3.4162">
        <ele>114</ele>
        <time>2022-04-06T13:02:58.201Z</time>
      </trkpt>
      <trkpt lat="48.51757" lon="-3.41628">
        <ele>113</ele>
        <time>2022-04-06T13:03:03.191Z</time>
      </trkpt>
      <trkpt lat="48.5176" lon="-3.41637">
        <ele>113</ele>
        <time>2022-04-06T13:03:08.184Z</time>
      </trkpt>
      <trkpt lat="48.51761" lon="-3.41645">
        <ele>113</ele>
        <time>2022-04-06T13:03:12.192Z</time>
      </trkpt>
      <trkpt lat="48.51764" lon="-3.41653">
        <ele>113</ele>
        <time>2022-04-06T13:03:17.181Z</time>
      </trkpt>
      <trkpt lat="48.51766" lon="-3.41661">
        <ele>113</ele>
        <time>2022-04-06T13:03:21.182Z</time>
      </trkpt>
      <trkpt lat="48.51769" lon="-3.4167">
        <ele>113</ele>
        <time>2022-04-06T13:03:26.192Z</time>
      </trkpt>
      <trkpt lat="48.51771" lon="-3.41679">
        <ele>113</ele>
        <time>2022-04-06T13:03:31.185Z</time>
      </trkpt>
      <trkpt lat="48.51773" lon="-3.41689">
        <ele>111</ele>
        <time>2022-04-06T13:03:36.183Z</time>
      </trkpt>
      <trkpt lat="48.51775" lon="-3.41696">
        <ele>111</ele>
        <time>2022-04-06T13:03:40.192Z</time>
      </trkpt>
      <trkpt lat="48.51778" lon="-3.41705">
        <ele>111</ele>
        <time>2022-04-06T13:03:45.186Z</time>
      </trkpt>
      <trkpt lat="48.51779" lon="-3.41716">
        <ele>110</ele>
        <time>2022-04-06T13:03:50.183Z</time>
      </trkpt>
      <trkpt lat="48.51781" lon="-3.41723">
        <ele>110</ele>
        <time>2022-04-06T13:03:54.187Z</time>
      </trkpt>
      <trkpt lat="48.51783" lon="-3.41731">
        <ele>110</ele>
        <time>2022-04-06T13:03:59.181Z</time>
      </trkpt>
      <trkpt lat="48.51785" lon="-3.41738">
        <ele>109</ele>
        <time>2022-04-06T13:04:03.188Z</time>
      </trkpt>
      <trkpt lat="48.51786" lon="-3.41747">
        <ele>109</ele>
        <time>2022-04-06T13:04:08.188Z</time>
      </trkpt>
      <trkpt lat="48.51787" lon="-3.41756">
        <ele>109</ele>
        <time>2022-04-06T13:04:13.182Z</time>
      </trkpt>
      <trkpt lat="48.51787" lon="-3.41765">
        <ele>108</ele>
        <time>2022-04-06T13:04:17.187Z</time>
      </trkpt>
      <trkpt lat="48.51788" lon="-3.41774">
        <ele>108</ele>
        <time>2022-04-06T13:04:22.182Z</time>
      </trkpt>
      <trkpt lat="48.51787" lon="-3.41781">
        <ele>108</ele>
        <time>2022-04-06T13:04:26.182Z</time>
      </trkpt>
      <trkpt lat="48.51789" lon="-3.4179">
        <ele>108</ele>
        <time>2022-04-06T13:04:31.185Z</time>
      </trkpt>
      <trkpt lat="48.51788" lon="-3.41798">
        <ele>108</ele>
        <time>2022-04-06T13:04:36.184Z</time>
      </trkpt>
      <trkpt lat="48.51787" lon="-3.41808">
        <ele>108</ele>
        <time>2022-04-06T13:04:41.184Z</time>
      </trkpt>
      <trkpt lat="48.51788" lon="-3.41819">
        <ele>108</ele>
        <time>2022-04-06T13:04:46.186Z</time>
      </trkpt>
      <trkpt lat="48.51787" lon="-3.41828">
        <ele>108</ele>
        <time>2022-04-06T13:04:51.181Z</time>
      </trkpt>
      <trkpt lat="48.51787" lon="-3.41835">
        <ele>108</ele>
        <time>2022-04-06T13:04:55.184Z</time>
      </trkpt>
      <trkpt lat="48.51788" lon="-3.41843">
        <ele>108</ele>
        <time>2022-04-06T13:05:00.185Z</time>
      </trkpt>
      <trkpt lat="48.51788" lon="-3.41851">
        <ele>110</ele>
        <time>2022-04-06T13:05:05.187Z</time>
      </trkpt>
      <trkpt lat="48.51786" lon="-3.4186">
        <ele>110</ele>
        <time>2022-04-06T13:05:10.184Z</time>
      </trkpt>
      <trkpt lat="48.51784" lon="-3.41869">
        <ele>110</ele>
        <time>2022-04-06T13:05:15.182Z</time>
      </trkpt>
      <trkpt lat="48.51783" lon="-3.41877">
        <ele>114</ele>
        <time>2022-04-06T13:05:20.189Z</time>
      </trkpt>
      <trkpt lat="48.51779" lon="-3.41884">
        <ele>114</ele>
        <time>2022-04-06T13:05:25.185Z</time>
      </trkpt>
      <trkpt lat="48.51771" lon="-3.41883">
        <ele>114</ele>
        <time>2022-04-06T13:06:26.183Z</time>
      </trkpt>
      <trkpt lat="48.51769" lon="-3.41884">
        <ele>114</ele>
        <time>2022-04-06T13:06:31.182Z</time>
      </trkpt>
      <trkpt lat="48.51764" lon="-3.41884">
        <ele>110</ele>
        <time>2022-04-06T13:06:36.188Z</time>
      </trkpt>
      <trkpt lat="48.51759" lon="-3.41881">
        <ele>110</ele>
        <time>2022-04-06T13:06:41.173Z</time>
      </trkpt>
      <trkpt lat="48.51755" lon="-3.41877">
        <ele>110</ele>
        <time>2022-04-06T13:06:45.182Z</time>
      </trkpt>
      <trkpt lat="48.51752" lon="-3.41875">
        <ele>109</ele>
        <time>2022-04-06T13:06:49.184Z</time>
      </trkpt>
      <trkpt lat="48.51748" lon="-3.41872">
        <ele>109</ele>
        <time>2022-04-06T13:06:54.185Z</time>
      </trkpt>
      <trkpt lat="48.51743" lon="-3.41868">
        <ele>109</ele>
        <time>2022-04-06T13:06:59.183Z</time>
      </trkpt>
      <trkpt lat="48.51739" lon="-3.41863">
        <ele>109</ele>
        <time>2022-04-06T13:07:04.183Z</time>
      </trkpt>
      <trkpt lat="48.51734" lon="-3.41859">
        <ele>107</ele>
        <time>2022-04-06T13:07:09.193Z</time>
      </trkpt>
      <trkpt lat="48.51729" lon="-3.41855">
        <ele>107</ele>
        <time>2022-04-06T13:07:14.175Z</time>
      </trkpt>
      <trkpt lat="48.51725" lon="-3.41851">
        <ele>107</ele>
        <time>2022-04-06T13:07:18.192Z</time>
      </trkpt>
      <trkpt lat="48.5172" lon="-3.41847">
        <ele>107</ele>
        <time>2022-04-06T13:07:23.182Z</time>
      </trkpt>
      <trkpt lat="48.51714" lon="-3.41841">
        <ele>107</ele>
        <time>2022-04-06T13:07:28.185Z</time>
      </trkpt>
      <trkpt lat="48.5171" lon="-3.41838">
        <ele>107</ele>
        <time>2022-04-06T13:07:32.192Z</time>
      </trkpt>
      <trkpt lat="48.51705" lon="-3.41834">
        <ele>107</ele>
        <time>2022-04-06T13:07:37.182Z</time>
      </trkpt>
      <trkpt lat="48.51701" lon="-3.4183">
        <ele>107</ele>
        <time>2022-04-06T13:07:42.175Z</time>
      </trkpt>
      <trkpt lat="48.51697" lon="-3.41827">
        <ele>107</ele>
        <time>2022-04-06T13:07:46.189Z</time>
      </trkpt>
      <trkpt lat="48.51692" lon="-3.41825">
        <ele>107</ele>
        <time>2022-04-06T13:07:51.187Z</time>
      </trkpt>
      <trkpt lat="48.51687" lon="-3.41822">
        <ele>107</ele>
        <time>2022-04-06T13:07:56.172Z</time>
      </trkpt>
      <trkpt lat="48.51684" lon="-3.41819">
        <ele>107</ele>
        <time>2022-04-06T13:08:00.186Z</time>
      </trkpt>
      <trkpt lat="48.51681" lon="-3.41815">
        <ele>107</ele>
        <time>2022-04-06T13:08:04.197Z</time>
      </trkpt>
      <trkpt lat="48.51677" lon="-3.41811">
        <ele>109</ele>
        <time>2022-04-06T13:08:09.177Z</time>
      </trkpt>
      <trkpt lat="48.51673" lon="-3.41806">
        <ele>109</ele>
        <time>2022-04-06T13:08:14.173Z</time>
      </trkpt>
      <trkpt lat="48.5167" lon="-3.41802">
        <ele>109</ele>
        <time>2022-04-06T13:08:18.191Z</time>
      </trkpt>
      <trkpt lat="48.51666" lon="-3.41796">
        <ele>109</ele>
        <time>2022-04-06T13:08:23.198Z</time>
      </trkpt>
      <trkpt lat="48.51662" lon="-3.41791">
        <ele>108</ele>
        <time>2022-04-06T13:08:28.176Z</time>
      </trkpt>
      <trkpt lat="48.51659" lon="-3.41787">
        <ele>108</ele>
        <time>2022-04-06T13:08:32.186Z</time>
      </trkpt>
      <trkpt lat="48.51655" lon="-3.41782">
        <ele>108</ele>
        <time>2022-04-06T13:08:37.204Z</time>
      </trkpt>
      <trkpt lat="48.51651" lon="-3.41778">
        <ele>111</ele>
        <time>2022-04-06T13:08:42.194Z</time>
      </trkpt>
      <trkpt lat="48.51647" lon="-3.41774">
        <ele>111</ele>
        <time>2022-04-06T13:08:47.174Z</time>
      </trkpt>
      <trkpt lat="48.51644" lon="-3.4177">
        <ele>111</ele>
        <time>2022-04-06T13:08:51.175Z</time>
      </trkpt>
      <trkpt lat="48.51642" lon="-3.41765">
        <ele>111</ele>
        <time>2022-04-06T13:08:55.190Z</time>
      </trkpt>
      <trkpt lat="48.51638" lon="-3.4176">
        <ele>110</ele>
        <time>2022-04-06T13:08:59.198Z</time>
      </trkpt>
      <trkpt lat="48.51635" lon="-3.41754">
        <ele>110</ele>
        <time>2022-04-06T13:09:04.186Z</time>
      </trkpt>
      <trkpt lat="48.51632" lon="-3.41749">
        <ele>110</ele>
        <time>2022-04-06T13:09:09.187Z</time>
      </trkpt>
      <trkpt lat="48.51629" lon="-3.41744">
        <ele>110</ele>
        <time>2022-04-06T13:09:13.203Z</time>
      </trkpt>
      <trkpt lat="48.51626" lon="-3.41738">
        <ele>110</ele>
        <time>2022-04-06T13:09:18.196Z</time>
      </trkpt>
      <trkpt lat="48.51623" lon="-3.41732">
        <ele>119</ele>
        <time>2022-04-06T13:09:23.180Z</time>
      </trkpt>
      <trkpt lat="48.5162" lon="-3.41727">
        <ele>119</ele>
        <time>2022-04-06T13:09:27.184Z</time>
      </trkpt>
      <trkpt lat="48.51617" lon="-3.41722">
        <ele>119</ele>
        <time>2022-04-06T13:09:32.186Z</time>
      </trkpt>
      <trkpt lat="48.51613" lon="-3.41717">
        <ele>119</ele>
        <time>2022-04-06T13:09:37.185Z</time>
      </trkpt>
      <trkpt lat="48.5161" lon="-3.41714">
        <ele>119</ele>
        <time>2022-04-06T13:09:41.215Z</time>
      </trkpt>
      <trkpt lat="48.51606" lon="-3.41708">
        <ele>117</ele>
        <time>2022-04-06T13:09:46.213Z</time>
      </trkpt>
      <trkpt lat="48.51602" lon="-3.41704">
        <ele>117</ele>
        <time>2022-04-06T13:09:51.188Z</time>
      </trkpt>
      <trkpt lat="48.51598" lon="-3.41702">
        <ele>117</ele>
        <time>2022-04-06T13:09:55.190Z</time>
      </trkpt>
      <trkpt lat="48.51593" lon="-3.41699">
        <ele>124</ele>
        <time>2022-04-06T13:10:00.178Z</time>
      </trkpt>
      <trkpt lat="48.51588" lon="-3.41695">
        <ele>124</ele>
        <time>2022-04-06T13:10:04.181Z</time>
      </trkpt>
      <trkpt lat="48.51585" lon="-3.41691">
        <ele>124</ele>
        <time>2022-04-06T13:10:08.206Z</time>
      </trkpt>
      <trkpt lat="48.5158" lon="-3.41687">
        <ele>124</ele>
        <time>2022-04-06T13:10:13.212Z</time>
      </trkpt>
      <trkpt lat="48.51575" lon="-3.41682">
        <ele>124</ele>
        <time>2022-04-06T13:10:18.197Z</time>
      </trkpt>
      <trkpt lat="48.5157" lon="-3.41674">
        <ele>119</ele>
        <time>2022-04-06T13:10:23.200Z</time>
      </trkpt>
      <trkpt lat="48.51566" lon="-3.41668">
        <ele>124</ele>
        <time>2022-04-06T13:10:27.217Z</time>
      </trkpt>
      <trkpt lat="48.51561" lon="-3.41663">
        <ele>124</ele>
        <time>2022-04-06T13:10:32.191Z</time>
      </trkpt>
      <trkpt lat="48.51558" lon="-3.4166">
        <ele>124</ele>
        <time>2022-04-06T13:10:36.208Z</time>
      </trkpt>
      <trkpt lat="48.51553" lon="-3.41655">
        <ele>124</ele>
        <time>2022-04-06T13:10:41.172Z</time>
      </trkpt>
      <trkpt lat="48.51548" lon="-3.41649">
        <ele>118</ele>
        <time>2022-04-06T13:10:46.194Z</time>
      </trkpt>
      <trkpt lat="48.51542" lon="-3.41644">
        <ele>118</ele>
        <time>2022-04-06T13:10:51.209Z</time>
      </trkpt>
      <trkpt lat="48.51537" lon="-3.4164">
        <ele>122</ele>
        <time>2022-04-06T13:10:56.207Z</time>
      </trkpt>
      <trkpt lat="48.51532" lon="-3.41639">
        <ele>122</ele>
        <time>2022-04-06T13:11:01.199Z</time>
      </trkpt>
      <trkpt lat="48.51527" lon="-3.41642">
        <ele>122</ele>
        <time>2022-04-06T13:11:06.206Z</time>
      </trkpt>
      <trkpt lat="48.51522" lon="-3.41646">
        <ele>122</ele>
        <time>2022-04-06T13:11:11.198Z</time>
      </trkpt>
      <trkpt lat="48.51518" lon="-3.41652">
        <ele>122</ele>
        <time>2022-04-06T13:11:16.198Z</time>
      </trkpt>
      <trkpt lat="48.51516" lon="-3.4166">
        <ele>126</ele>
        <time>2022-04-06T13:11:21.209Z</time>
      </trkpt>
      <trkpt lat="48.51514" lon="-3.41668">
        <ele>126</ele>
        <time>2022-04-06T13:11:26.192Z</time>
      </trkpt>
      <trkpt lat="48.51512" lon="-3.41677">
        <ele>125</ele>
        <time>2022-04-06T13:11:31.200Z</time>
      </trkpt>
      <trkpt lat="48.51509" lon="-3.41685">
        <ele>129</ele>
        <time>2022-04-06T13:11:36.209Z</time>
      </trkpt>
      <trkpt lat="48.51507" lon="-3.41694">
        <ele>129</ele>
        <time>2022-04-06T13:11:41.195Z</time>
      </trkpt>
      <trkpt lat="48.51504" lon="-3.41702">
        <ele>129</ele>
        <time>2022-04-06T13:11:46.173Z</time>
      </trkpt>
      <trkpt lat="48.51502" lon="-3.41709">
        <ele>131</ele>
        <time>2022-04-06T13:11:50.200Z</time>
      </trkpt>
      <trkpt lat="48.51498" lon="-3.41716">
        <ele>131</ele>
        <time>2022-04-06T13:11:55.186Z</time>
      </trkpt>
      <trkpt lat="48.51496" lon="-3.41724">
        <ele>131</ele>
        <time>2022-04-06T13:12:00.184Z</time>
      </trkpt>
      <trkpt lat="48.51493" lon="-3.4173">
        <ele>131</ele>
        <time>2022-04-06T13:12:04.197Z</time>
      </trkpt>
      <trkpt lat="48.5149" lon="-3.41736">
        <ele>134</ele>
        <time>2022-04-06T13:12:08.202Z</time>
      </trkpt>
      <trkpt lat="48.51486" lon="-3.41742">
        <ele>134</ele>
        <time>2022-04-06T13:12:13.173Z</time>
      </trkpt>
      <trkpt lat="48.51485" lon="-3.41748">
        <ele>131</ele>
        <time>2022-04-06T13:12:17.180Z</time>
      </trkpt>
      <trkpt lat="48.51482" lon="-3.41756">
        <ele>131</ele>
        <time>2022-04-06T13:12:22.180Z</time>
      </trkpt>
      <trkpt lat="48.51479" lon="-3.41762">
        <ele>131</ele>
        <time>2022-04-06T13:12:27.188Z</time>
      </trkpt>
      <trkpt lat="48.51476" lon="-3.4177">
        <ele>133</ele>
        <time>2022-04-06T13:12:32.185Z</time>
      </trkpt>
      <trkpt lat="48.51473" lon="-3.41777">
        <ele>133</ele>
        <time>2022-04-06T13:12:37.185Z</time>
      </trkpt>
      <trkpt lat="48.5147" lon="-3.41783">
        <ele>133</ele>
        <time>2022-04-06T13:12:42.189Z</time>
      </trkpt>
      <trkpt lat="48.51468" lon="-3.41789">
        <ele>133</ele>
        <time>2022-04-06T13:12:47.183Z</time>
      </trkpt>
      <trkpt lat="48.51465" lon="-3.41795">
        <ele>135</ele>
        <time>2022-04-06T13:12:51.183Z</time>
      </trkpt>
      <trkpt lat="48.51462" lon="-3.41799">
        <ele>135</ele>
        <time>2022-04-06T13:12:55.185Z</time>
      </trkpt>
      <trkpt lat="48.51459" lon="-3.41805">
        <ele>135</ele>
        <time>2022-04-06T13:13:00.180Z</time>
      </trkpt>
      <trkpt lat="48.51457" lon="-3.41811">
        <ele>130</ele>
        <time>2022-04-06T13:13:05.193Z</time>
      </trkpt>
      <trkpt lat="48.51454" lon="-3.41817">
        <ele>130</ele>
        <time>2022-04-06T13:13:10.186Z</time>
      </trkpt>
      <trkpt lat="48.51451" lon="-3.41825">
        <ele>132</ele>
        <time>2022-04-06T13:13:15.182Z</time>
      </trkpt>
      <trkpt lat="48.51448" lon="-3.4183">
        <ele>132</ele>
        <time>2022-04-06T13:13:19.183Z</time>
      </trkpt>
      <trkpt lat="48.51444" lon="-3.41838">
        <ele>132</ele>
        <time>2022-04-06T13:13:24.191Z</time>
      </trkpt>
      <trkpt lat="48.51442" lon="-3.41846">
        <ele>132</ele>
        <time>2022-04-06T13:13:29.182Z</time>
      </trkpt>
      <trkpt lat="48.5144" lon="-3.41853">
        <ele>133</ele>
        <time>2022-04-06T13:13:34.193Z</time>
      </trkpt>
      <trkpt lat="48.51437" lon="-3.41859">
        <ele>133</ele>
        <time>2022-04-06T13:13:38.188Z</time>
      </trkpt>
      <trkpt lat="48.51434" lon="-3.41867">
        <ele>133</ele>
        <time>2022-04-06T13:13:43.177Z</time>
      </trkpt>
      <trkpt lat="48.51432" lon="-3.41874">
        <ele>133</ele>
        <time>2022-04-06T13:13:47.187Z</time>
      </trkpt>
      <trkpt lat="48.51429" lon="-3.41881">
        <ele>132</ele>
        <time>2022-04-06T13:13:52.188Z</time>
      </trkpt>
      <trkpt lat="48.51427" lon="-3.41887">
        <ele>132</ele>
        <time>2022-04-06T13:13:56.194Z</time>
      </trkpt>
      <trkpt lat="48.51423" lon="-3.41894">
        <ele>132</ele>
        <time>2022-04-06T13:14:01.179Z</time>
      </trkpt>
      <trkpt lat="48.51419" lon="-3.41898">
        <ele>132</ele>
        <time>2022-04-06T13:14:05.191Z</time>
      </trkpt>
      <trkpt lat="48.51413" lon="-3.41903">
        <ele>131</ele>
        <time>2022-04-06T13:14:10.189Z</time>
      </trkpt>
      <trkpt lat="48.51406" lon="-3.41905">
        <ele>131</ele>
        <time>2022-04-06T13:14:15.188Z</time>
      </trkpt>
      <trkpt lat="48.51399" lon="-3.41905">
        <ele>130</ele>
        <time>2022-04-06T13:14:20.181Z</time>
      </trkpt>
      <trkpt lat="48.51393" lon="-3.41906">
        <ele>130</ele>
        <time>2022-04-06T13:14:25.181Z</time>
      </trkpt>
      <trkpt lat="48.51387" lon="-3.41906">
        <ele>130</ele>
        <time>2022-04-06T13:14:30.185Z</time>
      </trkpt>
      <trkpt lat="48.51381" lon="-3.41906">
        <ele>130</ele>
        <time>2022-04-06T13:14:35.181Z</time>
      </trkpt>
      <trkpt lat="48.51376" lon="-3.41905">
        <ele>130</ele>
        <time>2022-04-06T13:14:39.179Z</time>
      </trkpt>
      <trkpt lat="48.51371" lon="-3.41904">
        <ele>130</ele>
        <time>2022-04-06T13:14:43.190Z</time>
      </trkpt>
      <trkpt lat="48.51365" lon="-3.41904">
        <ele>130</ele>
        <time>2022-04-06T13:14:48.192Z</time>
      </trkpt>
      <trkpt lat="48.51361" lon="-3.41903">
        <ele>130</ele>
        <time>2022-04-06T13:14:52.201Z</time>
      </trkpt>
      <trkpt lat="48.51355" lon="-3.41904">
        <ele>130</ele>
        <time>2022-04-06T13:14:57.179Z</time>
      </trkpt>
      <trkpt lat="48.51349" lon="-3.41903">
        <ele>130</ele>
        <time>2022-04-06T13:15:02.181Z</time>
      </trkpt>
      <trkpt lat="48.51345" lon="-3.41903">
        <ele>130</ele>
        <time>2022-04-06T13:15:06.180Z</time>
      </trkpt>
      <trkpt lat="48.51339" lon="-3.41904">
        <ele>130</ele>
        <time>2022-04-06T13:15:11.180Z</time>
      </trkpt>
      <trkpt lat="48.51334" lon="-3.41905">
        <ele>130</ele>
        <time>2022-04-06T13:15:15.186Z</time>
      </trkpt>
      <trkpt lat="48.51328" lon="-3.41904">
        <ele>130</ele>
        <time>2022-04-06T13:15:20.184Z</time>
      </trkpt>
      <trkpt lat="48.51323" lon="-3.41904">
        <ele>130</ele>
        <time>2022-04-06T13:15:24.182Z</time>
      </trkpt>
      <trkpt lat="48.51317" lon="-3.41904">
        <ele>130</ele>
        <time>2022-04-06T13:15:29.185Z</time>
      </trkpt>
      <trkpt lat="48.51311" lon="-3.41904">
        <ele>130</ele>
        <time>2022-04-06T13:15:34.190Z</time>
      </trkpt>
      <trkpt lat="48.51305" lon="-3.41904">
        <ele>130</ele>
        <time>2022-04-06T13:15:39.191Z</time>
      </trkpt>
      <trkpt lat="48.51299" lon="-3.41902">
        <ele>130</ele>
        <time>2022-04-06T13:15:44.180Z</time>
      </trkpt>
      <trkpt lat="48.51294" lon="-3.419">
        <ele>130</ele>
        <time>2022-04-06T13:15:48.190Z</time>
      </trkpt>
      <trkpt lat="48.51287" lon="-3.41897">
        <ele>132</ele>
        <time>2022-04-06T13:15:53.187Z</time>
      </trkpt>
      <trkpt lat="48.51281" lon="-3.41895">
        <ele>132</ele>
        <time>2022-04-06T13:15:58.186Z</time>
      </trkpt>
      <trkpt lat="48.51275" lon="-3.41895">
        <ele>132</ele>
        <time>2022-04-06T13:16:03.188Z</time>
      </trkpt>
      <trkpt lat="48.5127" lon="-3.41893">
        <ele>132</ele>
        <time>2022-04-06T13:16:07.211Z</time>
      </trkpt>
      <trkpt lat="48.51264" lon="-3.41893">
        <ele>132</ele>
        <time>2022-04-06T13:16:12.185Z</time>
      </trkpt>
      <trkpt lat="48.51258" lon="-3.41893">
        <ele>134</ele>
        <time>2022-04-06T13:16:17.192Z</time>
      </trkpt>
      <trkpt lat="48.51252" lon="-3.41892">
        <ele>134</ele>
        <time>2022-04-06T13:16:22.182Z</time>
      </trkpt>
      <trkpt lat="48.51248" lon="-3.41892">
        <ele>134</ele>
        <time>2022-04-06T13:16:26.186Z</time>
      </trkpt>
      <trkpt lat="48.51243" lon="-3.41891">
        <ele>134</ele>
        <time>2022-04-06T13:16:31.183Z</time>
      </trkpt>
      <trkpt lat="48.51237" lon="-3.41891">
        <ele>134</ele>
        <time>2022-04-06T13:16:35.186Z</time>
      </trkpt>
      <trkpt lat="48.51232" lon="-3.41891">
        <ele>134</ele>
        <time>2022-04-06T13:16:40.187Z</time>
      </trkpt>
      <trkpt lat="48.51227" lon="-3.41892">
        <ele>134</ele>
        <time>2022-04-06T13:16:45.183Z</time>
      </trkpt>
      <trkpt lat="48.51221" lon="-3.41892">
        <ele>134</ele>
        <time>2022-04-06T13:16:50.181Z</time>
      </trkpt>
      <trkpt lat="48.51216" lon="-3.41892">
        <ele>134</ele>
        <time>2022-04-06T13:16:54.185Z</time>
      </trkpt>
      <trkpt lat="48.51211" lon="-3.41893">
        <ele>134</ele>
        <time>2022-04-06T13:16:58.189Z</time>
      </trkpt>
      <trkpt lat="48.51205" lon="-3.41893">
        <ele>135</ele>
        <time>2022-04-06T13:17:03.178Z</time>
      </trkpt>
      <trkpt lat="48.51201" lon="-3.41893">
        <ele>135</ele>
        <time>2022-04-06T13:17:07.187Z</time>
      </trkpt>
      <trkpt lat="48.51195" lon="-3.41893">
        <ele>135</ele>
        <time>2022-04-06T13:17:12.189Z</time>
      </trkpt>
      <trkpt lat="48.51189" lon="-3.41893">
        <ele>135</ele>
        <time>2022-04-06T13:17:17.188Z</time>
      </trkpt>
      <trkpt lat="48.51184" lon="-3.41892">
        <ele>135</ele>
        <time>2022-04-06T13:17:22.187Z</time>
      </trkpt>
      <trkpt lat="48.51179" lon="-3.41892">
        <ele>137</ele>
        <time>2022-04-06T13:17:26.180Z</time>
      </trkpt>
      <trkpt lat="48.51173" lon="-3.41892">
        <ele>137</ele>
        <time>2022-04-06T13:17:31.184Z</time>
      </trkpt>
      <trkpt lat="48.51167" lon="-3.41891">
        <ele>137</ele>
        <time>2022-04-06T13:17:36.180Z</time>
      </trkpt>
      <trkpt lat="48.51162" lon="-3.41891">
        <ele>137</ele>
        <time>2022-04-06T13:17:40.195Z</time>
      </trkpt>
      <trkpt lat="48.51155" lon="-3.41887">
        <ele>137</ele>
        <time>2022-04-06T13:17:45.183Z</time>
      </trkpt>
      <trkpt lat="48.51149" lon="-3.41883">
        <ele>138</ele>
        <time>2022-04-06T13:17:50.180Z</time>
      </trkpt>
      <trkpt lat="48.51144" lon="-3.41879">
        <ele>138</ele>
        <time>2022-04-06T13:17:54.190Z</time>
      </trkpt>
      <trkpt lat="48.51141" lon="-3.41874">
        <ele>137</ele>
        <time>2022-04-06T13:17:58.194Z</time>
      </trkpt>
      <trkpt lat="48.51136" lon="-3.41869">
        <ele>137</ele>
        <time>2022-04-06T13:18:03.182Z</time>
      </trkpt>
      <trkpt lat="48.51131" lon="-3.41862">
        <ele>137</ele>
        <time>2022-04-06T13:18:07.181Z</time>
      </trkpt>
      <trkpt lat="48.51123" lon="-3.41852">
        <ele>138</ele>
        <time>2022-04-06T13:18:12.177Z</time>
      </trkpt>
      <trkpt lat="48.5112" lon="-3.41847">
        <ele>136</ele>
        <time>2022-04-06T13:18:17.177Z</time>
      </trkpt>
      <trkpt lat="48.51119" lon="-3.41845">
        <ele>136</ele>
        <time>2022-04-06T13:18:21.197Z</time>
      </trkpt>
      <trkpt lat="48.51115" lon="-3.41847">
        <ele>136</ele>
        <time>2022-04-06T13:18:26.189Z</time>
      </trkpt>
      <trkpt lat="48.51112" lon="-3.41846">
        <ele>136</ele>
        <time>2022-04-06T13:18:30.196Z</time>
      </trkpt>
      <trkpt lat="48.51107" lon="-3.41845">
        <ele>136</ele>
        <time>2022-04-06T13:18:35.202Z</time>
      </trkpt>
      <trkpt lat="48.51102" lon="-3.41846">
        <ele>136</ele>
        <time>2022-04-06T13:18:40.193Z</time>
      </trkpt>
      <trkpt lat="48.51097" lon="-3.41847">
        <ele>138</ele>
        <time>2022-04-06T13:18:45.189Z</time>
      </trkpt>
      <trkpt lat="48.51091" lon="-3.4185">
        <ele>138</ele>
        <time>2022-04-06T13:18:50.186Z</time>
      </trkpt>
      <trkpt lat="48.51089" lon="-3.41854">
        <ele>138</ele>
        <time>2022-04-06T13:18:54.188Z</time>
      </trkpt>
      <trkpt lat="48.51083" lon="-3.41856">
        <ele>138</ele>
        <time>2022-04-06T13:18:59.185Z</time>
      </trkpt>
      <trkpt lat="48.51081" lon="-3.41862">
        <ele>138</ele>
        <time>2022-04-06T13:19:03.186Z</time>
      </trkpt>
      <trkpt lat="48.51076" lon="-3.41862">
        <ele>138</ele>
        <time>2022-04-06T13:19:08.186Z</time>
      </trkpt>
      <trkpt lat="48.51072" lon="-3.41864">
        <ele>138</ele>
        <time>2022-04-06T13:19:13.197Z</time>
      </trkpt>
      <trkpt lat="48.51066" lon="-3.41865">
        <ele>137</ele>
        <time>2022-04-06T13:19:18.191Z</time>
      </trkpt>
      <trkpt lat="48.51061" lon="-3.41866">
        <ele>137</ele>
        <time>2022-04-06T13:19:23.189Z</time>
      </trkpt>
      <trkpt lat="48.51056" lon="-3.41867">
        <ele>137</ele>
        <time>2022-04-06T13:19:28.187Z</time>
      </trkpt>
      <trkpt lat="48.51052" lon="-3.41867">
        <ele>137</ele>
        <time>2022-04-06T13:19:32.191Z</time>
      </trkpt>
      <trkpt lat="48.51046" lon="-3.41868">
        <ele>137</ele>
        <time>2022-04-06T13:19:37.197Z</time>
      </trkpt>
      <trkpt lat="48.5104" lon="-3.41869">
        <ele>135</ele>
        <time>2022-04-06T13:19:42.191Z</time>
      </trkpt>
      <trkpt lat="48.51034" lon="-3.41871">
        <ele>135</ele>
        <time>2022-04-06T13:19:47.179Z</time>
      </trkpt>
      <trkpt lat="48.5103" lon="-3.41874">
        <ele>135</ele>
        <time>2022-04-06T13:19:51.202Z</time>
      </trkpt>
      <trkpt lat="48.51023" lon="-3.41877">
        <ele>137</ele>
        <time>2022-04-06T13:19:56.183Z</time>
      </trkpt>
      <trkpt lat="48.51017" lon="-3.4188">
        <ele>137</ele>
        <time>2022-04-06T13:20:01.183Z</time>
      </trkpt>
      <trkpt lat="48.51012" lon="-3.41882">
        <ele>137</ele>
        <time>2022-04-06T13:20:05.197Z</time>
      </trkpt>
      <trkpt lat="48.51007" lon="-3.41888">
        <ele>137</ele>
        <time>2022-04-06T13:20:10.185Z</time>
      </trkpt>
      <trkpt lat="48.51001" lon="-3.4189">
        <ele>137</ele>
        <time>2022-04-06T13:20:14.188Z</time>
      </trkpt>
      <trkpt lat="48.50995" lon="-3.41893">
        <ele>137</ele>
        <time>2022-04-06T13:20:19.189Z</time>
      </trkpt>
      <trkpt lat="48.50988" lon="-3.41895">
        <ele>137</ele>
        <time>2022-04-06T13:20:24.198Z</time>
      </trkpt>
      <trkpt lat="48.50982" lon="-3.41897">
        <ele>137</ele>
        <time>2022-04-06T13:20:29.179Z</time>
      </trkpt>
      <trkpt lat="48.50978" lon="-3.41898">
        <ele>137</ele>
        <time>2022-04-06T13:20:33.185Z</time>
      </trkpt>
      <trkpt lat="48.50973" lon="-3.41899">
        <ele>137</ele>
        <time>2022-04-06T13:20:37.198Z</time>
      </trkpt>
      <trkpt lat="48.50967" lon="-3.419">
        <ele>137</ele>
        <time>2022-04-06T13:20:42.206Z</time>
      </trkpt>
      <trkpt lat="48.50962" lon="-3.41901">
        <ele>137</ele>
        <time>2022-04-06T13:20:47.181Z</time>
      </trkpt>
      <trkpt lat="48.50955" lon="-3.419">
        <ele>140</ele>
        <time>2022-04-06T13:20:52.185Z</time>
      </trkpt>
      <trkpt lat="48.50948" lon="-3.419">
        <ele>140</ele>
        <time>2022-04-06T13:20:57.182Z</time>
      </trkpt>
      <trkpt lat="48.50942" lon="-3.41901">
        <ele>140</ele>
        <time>2022-04-06T13:21:02.184Z</time>
      </trkpt>
      <trkpt lat="48.50936" lon="-3.41901">
        <ele>140</ele>
        <time>2022-04-06T13:21:06.181Z</time>
      </trkpt>
      <trkpt lat="48.50931" lon="-3.419">
        <ele>140</ele>
        <time>2022-04-06T13:21:11.189Z</time>
      </trkpt>
      <trkpt lat="48.50925" lon="-3.41899">
        <ele>145</ele>
        <time>2022-04-06T13:21:16.185Z</time>
      </trkpt>
      <trkpt lat="48.5092" lon="-3.41898">
        <ele>145</ele>
        <time>2022-04-06T13:21:21.181Z</time>
      </trkpt>
      <trkpt lat="48.50914" lon="-3.41893">
        <ele>145</ele>
        <time>2022-04-06T13:21:26.185Z</time>
      </trkpt>
      <trkpt lat="48.50911" lon="-3.41894">
        <ele>145</ele>
        <time>2022-04-06T13:22:07.193Z</time>
      </trkpt>
      <trkpt lat="48.50911" lon="-3.41894">
        <ele>145</ele>
        <time>2022-04-06T13:22:12.180Z</time>
      </trkpt>
      <trkpt lat="48.50907" lon="-3.41893">
        <ele>145</ele>
        <time>2022-04-06T13:22:16.189Z</time>
      </trkpt>
      <trkpt lat="48.50903" lon="-3.41891">
        <ele>145</ele>
        <time>2022-04-06T13:22:21.182Z</time>
      </trkpt>
      <trkpt lat="48.50899" lon="-3.41889">
        <ele>146</ele>
        <time>2022-04-06T13:22:25.183Z</time>
      </trkpt>
      <trkpt lat="48.50895" lon="-3.41892">
        <ele>146</ele>
        <time>2022-04-06T13:22:29.180Z</time>
      </trkpt>
      <trkpt lat="48.50892" lon="-3.41899">
        <ele>146</ele>
        <time>2022-04-06T13:22:34.183Z</time>
      </trkpt>
      <trkpt lat="48.50889" lon="-3.41908">
        <ele>146</ele>
        <time>2022-04-06T13:22:39.191Z</time>
      </trkpt>
      <trkpt lat="48.50887" lon="-3.41917">
        <ele>146</ele>
        <time>2022-04-06T13:22:44.191Z</time>
      </trkpt>
      <trkpt lat="48.50884" lon="-3.41926">
        <ele>146</ele>
        <time>2022-04-06T13:22:49.181Z</time>
      </trkpt>
      <trkpt lat="48.50884" lon="-3.41935">
        <ele>144</ele>
        <time>2022-04-06T13:22:54.189Z</time>
      </trkpt>
      <trkpt lat="48.50887" lon="-3.41942">
        <ele>144</ele>
        <time>2022-04-06T13:22:59.180Z</time>
      </trkpt>
      <trkpt lat="48.50892" lon="-3.41948">
        <ele>144</ele>
        <time>2022-04-06T13:23:04.184Z</time>
      </trkpt>
      <trkpt lat="48.50895" lon="-3.41952">
        <ele>144</ele>
        <time>2022-04-06T13:23:08.196Z</time>
      </trkpt>
      <trkpt lat="48.509" lon="-3.41956">
        <ele>144</ele>
        <time>2022-04-06T13:23:13.185Z</time>
      </trkpt>
      <trkpt lat="48.50903" lon="-3.41961">
        <ele>141</ele>
        <time>2022-04-06T13:23:17.188Z</time>
      </trkpt>
      <trkpt lat="48.50907" lon="-3.41966">
        <ele>141</ele>
        <time>2022-04-06T13:23:22.180Z</time>
      </trkpt>
      <trkpt lat="48.50912" lon="-3.41972">
        <ele>141</ele>
        <time>2022-04-06T13:23:27.180Z</time>
      </trkpt>
      <trkpt lat="48.50917" lon="-3.41978">
        <ele>141</ele>
        <time>2022-04-06T13:23:32.180Z</time>
      </trkpt>
      <trkpt lat="48.5092" lon="-3.41982">
        <ele>141</ele>
        <time>2022-04-06T13:23:36.180Z</time>
      </trkpt>
      <trkpt lat="48.50924" lon="-3.41987">
        <ele>140</ele>
        <time>2022-04-06T13:23:41.175Z</time>
      </trkpt>
      <trkpt lat="48.50928" lon="-3.41992">
        <ele>140</ele>
        <time>2022-04-06T13:23:45.202Z</time>
      </trkpt>
      <trkpt lat="48.50933" lon="-3.41997">
        <ele>138</ele>
        <time>2022-04-06T13:23:50.207Z</time>
      </trkpt>
      <trkpt lat="48.50938" lon="-3.42003">
        <ele>138</ele>
        <time>2022-04-06T13:23:55.199Z</time>
      </trkpt>
      <trkpt lat="48.50941" lon="-3.42011">
        <ele>138</ele>
        <time>2022-04-06T13:24:00.184Z</time>
      </trkpt>
      <trkpt lat="48.5094" lon="-3.42019">
        <ele>138</ele>
        <time>2022-04-06T13:24:04.181Z</time>
      </trkpt>
      <trkpt lat="48.50938" lon="-3.42029">
        <ele>138</ele>
        <time>2022-04-06T13:24:09.184Z</time>
      </trkpt>
      <trkpt lat="48.50935" lon="-3.42036">
        <ele>138</ele>
        <time>2022-04-06T13:24:13.193Z</time>
      </trkpt>
      <trkpt lat="48.50932" lon="-3.42042">
        <ele>138</ele>
        <time>2022-04-06T13:24:17.196Z</time>
      </trkpt>
      <trkpt lat="48.50928" lon="-3.4205">
        <ele>140</ele>
        <time>2022-04-06T13:24:22.181Z</time>
      </trkpt>
      <trkpt lat="48.50925" lon="-3.42059">
        <ele>140</ele>
        <time>2022-04-06T13:24:27.182Z</time>
      </trkpt>
      <trkpt lat="48.50923" lon="-3.42066">
        <ele>140</ele>
        <time>2022-04-06T13:24:31.184Z</time>
      </trkpt>
      <trkpt lat="48.5092" lon="-3.42075">
        <ele>138</ele>
        <time>2022-04-06T13:24:36.189Z</time>
      </trkpt>
      <trkpt lat="48.50918" lon="-3.42083">
        <ele>138</ele>
        <time>2022-04-06T13:24:41.183Z</time>
      </trkpt>
      <trkpt lat="48.50916" lon="-3.42091">
        <ele>138</ele>
        <time>2022-04-06T13:24:46.183Z</time>
      </trkpt>
      <trkpt lat="48.50912" lon="-3.421">
        <ele>137</ele>
        <time>2022-04-06T13:24:51.192Z</time>
      </trkpt>
      <trkpt lat="48.50909" lon="-3.42108">
        <ele>137</ele>
        <time>2022-04-06T13:24:55.192Z</time>
      </trkpt>
      <trkpt lat="48.50906" lon="-3.42117">
        <ele>137</ele>
        <time>2022-04-06T13:25:00.191Z</time>
      </trkpt>
      <trkpt lat="48.50902" lon="-3.42125">
        <ele>138</ele>
        <time>2022-04-06T13:25:05.182Z</time>
      </trkpt>
      <trkpt lat="48.509" lon="-3.42131">
        <ele>138</ele>
        <time>2022-04-06T13:25:09.188Z</time>
      </trkpt>
      <trkpt lat="48.50897" lon="-3.42139">
        <ele>138</ele>
        <time>2022-04-06T13:25:14.182Z</time>
      </trkpt>
      <trkpt lat="48.50894" lon="-3.42146">
        <ele>138</ele>
        <time>2022-04-06T13:25:19.198Z</time>
      </trkpt>
      <trkpt lat="48.50891" lon="-3.42156">
        <ele>137</ele>
        <time>2022-04-06T13:25:24.185Z</time>
      </trkpt>
      <trkpt lat="48.50889" lon="-3.42163">
        <ele>137</ele>
        <time>2022-04-06T13:25:28.195Z</time>
      </trkpt>
      <trkpt lat="48.50886" lon="-3.42169">
        <ele>137</ele>
        <time>2022-04-06T13:25:33.188Z</time>
      </trkpt>
      <trkpt lat="48.50886" lon="-3.42177">
        <ele>137</ele>
        <time>2022-04-06T13:25:56.189Z</time>
      </trkpt>
      <trkpt lat="48.50886" lon="-3.42177">
        <ele>137</ele>
        <time>2022-04-06T13:26:00.212Z</time>
      </trkpt>
      <trkpt lat="48.50886" lon="-3.42177">
        <ele>137</ele>
        <time>2022-04-06T13:26:05.224Z</time>
      </trkpt>
      <trkpt lat="48.50883" lon="-3.42184">
        <ele>137</ele>
        <time>2022-04-06T13:26:10.193Z</time>
      </trkpt>
      <trkpt lat="48.50879" lon="-3.42183">
        <ele>137</ele>
        <time>2022-04-06T13:26:14.204Z</time>
      </trkpt>
      <trkpt lat="48.50879" lon="-3.42182">
        <ele>137</ele>
        <time>2022-04-06T13:26:32.182Z</time>
      </trkpt>
      <trkpt lat="48.50877" lon="-3.42187">
        <ele>137</ele>
        <time>2022-04-06T13:26:37.185Z</time>
      </trkpt>
      <trkpt lat="48.50875" lon="-3.42189">
        <ele>138</ele>
        <time>2022-04-06T13:26:41.192Z</time>
      </trkpt>
      <trkpt lat="48.50874" lon="-3.42191">
        <ele>138</ele>
        <time>2022-04-06T13:26:46.192Z</time>
      </trkpt>
      <trkpt lat="48.5088" lon="-3.42195">
        <ele>137</ele>
        <time>2022-04-06T13:26:51.180Z</time>
      </trkpt>
      <trkpt lat="48.50882" lon="-3.42201">
        <ele>137</ele>
        <time>2022-04-06T13:31:13.185Z</time>
      </trkpt>
      <trkpt lat="48.50883" lon="-3.42202">
        <ele>137</ele>
        <time>2022-04-06T13:31:18.173Z</time>
      </trkpt>
      <trkpt lat="48.50885" lon="-3.42202">
        <ele>137</ele>
        <time>2022-04-06T13:31:22.180Z</time>
      </trkpt>
      <trkpt lat="48.50888" lon="-3.42204">
        <ele>137</ele>
        <time>2022-04-06T13:31:26.190Z</time>
      </trkpt>
      <trkpt lat="48.5089" lon="-3.4221">
        <ele>136</ele>
        <time>2022-04-06T13:31:31.178Z</time>
      </trkpt>
      <trkpt lat="48.50893" lon="-3.42215">
        <ele>136</ele>
        <time>2022-04-06T13:31:35.184Z</time>
      </trkpt>
      <trkpt lat="48.50895" lon="-3.42218">
        <ele>136</ele>
        <time>2022-04-06T13:31:39.193Z</time>
      </trkpt>
      <trkpt lat="48.50895" lon="-3.42224">
        <ele>136</ele>
        <time>2022-04-06T13:31:44.185Z</time>
      </trkpt>
      <trkpt lat="48.50894" lon="-3.42228">
        <ele>136</ele>
        <time>2022-04-06T13:31:49.187Z</time>
      </trkpt>
      <trkpt lat="48.50893" lon="-3.4223">
        <ele>136</ele>
        <time>2022-04-06T13:31:53.195Z</time>
      </trkpt>
      <trkpt lat="48.50895" lon="-3.42245">
        <ele>135</ele>
        <time>2022-04-06T13:32:50.176Z</time>
      </trkpt>
      <trkpt lat="48.50895" lon="-3.42245">
        <ele>135</ele>
        <time>2022-04-06T13:32:54.181Z</time>
      </trkpt>
      <trkpt lat="48.50895" lon="-3.42245">
        <ele>135</ele>
        <time>2022-04-06T13:32:58.192Z</time>
      </trkpt>
      <trkpt lat="48.50896" lon="-3.42246">
        <ele>135</ele>
        <time>2022-04-06T13:33:02.187Z</time>
      </trkpt>
      <trkpt lat="48.50897" lon="-3.42247">
        <ele>135</ele>
        <time>2022-04-06T13:33:07.174Z</time>
      </trkpt>
      <trkpt lat="48.50896" lon="-3.42249">
        <ele>135</ele>
        <time>2022-04-06T13:33:15.189Z</time>
      </trkpt>
      <trkpt lat="48.50896" lon="-3.42249">
        <ele>135</ele>
        <time>2022-04-06T13:33:20.178Z</time>
      </trkpt>
      <trkpt lat="48.50897" lon="-3.4225">
        <ele>135</ele>
        <time>2022-04-06T13:33:24.190Z</time>
      </trkpt>
      <trkpt lat="48.50898" lon="-3.42254">
        <ele>135</ele>
        <time>2022-04-06T13:33:29.183Z</time>
      </trkpt>
      <trkpt lat="48.50901" lon="-3.4226">
        <ele>135</ele>
        <time>2022-04-06T13:33:34.179Z</time>
      </trkpt>
      <trkpt lat="48.50904" lon="-3.42263">
        <ele>134</ele>
        <time>2022-04-06T13:33:38.189Z</time>
      </trkpt>
      <trkpt lat="48.50907" lon="-3.42268">
        <ele>133</ele>
        <time>2022-04-06T13:33:43.187Z</time>
      </trkpt>
      <trkpt lat="48.50909" lon="-3.42275">
        <ele>133</ele>
        <time>2022-04-06T13:33:48.179Z</time>
      </trkpt>
      <trkpt lat="48.5091" lon="-3.4228">
        <ele>133</ele>
        <time>2022-04-06T13:33:52.192Z</time>
      </trkpt>
      <trkpt lat="48.50915" lon="-3.42294">
        <ele>133</ele>
        <time>2022-04-06T13:34:58.181Z</time>
      </trkpt>
      <trkpt lat="48.50915" lon="-3.42297">
        <ele>133</ele>
        <time>2022-04-06T13:35:02.182Z</time>
      </trkpt>
      <trkpt lat="48.50913" lon="-3.42301">
        <ele>133</ele>
        <time>2022-04-06T13:35:06.195Z</time>
      </trkpt>
      <trkpt lat="48.50913" lon="-3.42302">
        <ele>133</ele>
        <time>2022-04-06T13:35:11.174Z</time>
      </trkpt>
      <trkpt lat="48.50914" lon="-3.42302">
        <ele>133</ele>
        <time>2022-04-06T13:35:15.183Z</time>
      </trkpt>
      <trkpt lat="48.50915" lon="-3.42301">
        <ele>133</ele>
        <time>2022-04-06T13:35:19.188Z</time>
      </trkpt>
      <trkpt lat="48.50914" lon="-3.42307">
        <ele>133</ele>
        <time>2022-04-06T13:35:24.171Z</time>
      </trkpt>
      <trkpt lat="48.50913" lon="-3.42315">
        <ele>133</ele>
        <time>2022-04-06T13:35:28.196Z</time>
      </trkpt>
      <trkpt lat="48.50914" lon="-3.42321">
        <ele>132</ele>
        <time>2022-04-06T13:35:33.181Z</time>
      </trkpt>
      <trkpt lat="48.50913" lon="-3.42328">
        <ele>132</ele>
        <time>2022-04-06T13:35:37.184Z</time>
      </trkpt>
      <trkpt lat="48.50911" lon="-3.42333">
        <ele>132</ele>
        <time>2022-04-06T13:35:42.188Z</time>
      </trkpt>
      <trkpt lat="48.50908" lon="-3.4234">
        <ele>132</ele>
        <time>2022-04-06T13:35:47.178Z</time>
      </trkpt>
      <trkpt lat="48.50905" lon="-3.42344">
        <ele>132</ele>
        <time>2022-04-06T13:35:51.197Z</time>
      </trkpt>
      <trkpt lat="48.50904" lon="-3.42349">
        <ele>131</ele>
        <time>2022-04-06T13:35:56.185Z</time>
      </trkpt>
      <trkpt lat="48.50901" lon="-3.42355">
        <ele>132</ele>
        <time>2022-04-06T13:36:00.186Z</time>
      </trkpt>
      <trkpt lat="48.50898" lon="-3.42356">
        <ele>132</ele>
        <time>2022-04-06T13:36:04.196Z</time>
      </trkpt>
      <trkpt lat="48.50896" lon="-3.4236">
        <ele>132</ele>
        <time>2022-04-06T13:36:09.190Z</time>
      </trkpt>
      <trkpt lat="48.50895" lon="-3.42363">
        <ele>132</ele>
        <time>2022-04-06T13:36:14.183Z</time>
      </trkpt>
      <trkpt lat="48.50892" lon="-3.42366">
        <ele>132</ele>
        <time>2022-04-06T13:36:18.209Z</time>
      </trkpt>
      <trkpt lat="48.50891" lon="-3.42368">
        <ele>132</ele>
        <time>2022-04-06T13:36:23.202Z</time>
      </trkpt>
      <trkpt lat="48.5089" lon="-3.42374">
        <ele>132</ele>
        <time>2022-04-06T13:36:28.182Z</time>
      </trkpt>
      <trkpt lat="48.50888" lon="-3.42376">
        <ele>131</ele>
        <time>2022-04-06T13:36:32.193Z</time>
      </trkpt>
      <trkpt lat="48.50884" lon="-3.42381">
        <ele>131</ele>
        <time>2022-04-06T13:36:37.187Z</time>
      </trkpt>
      <trkpt lat="48.50882" lon="-3.42387">
        <ele>131</ele>
        <time>2022-04-06T13:36:42.191Z</time>
      </trkpt>
      <trkpt lat="48.5088" lon="-3.42392">
        <ele>131</ele>
        <time>2022-04-06T13:36:47.180Z</time>
      </trkpt>
      <trkpt lat="48.50877" lon="-3.42396">
        <ele>131</ele>
        <time>2022-04-06T13:36:52.183Z</time>
      </trkpt>
      <trkpt lat="48.50874" lon="-3.4241">
        <ele>133</ele>
        <time>2022-04-06T13:38:11.193Z</time>
      </trkpt>
      <trkpt lat="48.50873" lon="-3.42419">
        <ele>133</ele>
        <time>2022-04-06T13:38:16.178Z</time>
      </trkpt>
      <trkpt lat="48.50872" lon="-3.42422">
        <ele>133</ele>
        <time>2022-04-06T13:38:20.174Z</time>
      </trkpt>
      <trkpt lat="48.50873" lon="-3.42427">
        <ele>133</ele>
        <time>2022-04-06T13:38:24.198Z</time>
      </trkpt>
      <trkpt lat="48.50871" lon="-3.42434">
        <ele>134</ele>
        <time>2022-04-06T13:38:29.183Z</time>
      </trkpt>
      <trkpt lat="48.50865" lon="-3.42436">
        <ele>134</ele>
        <time>2022-04-06T13:38:52.179Z</time>
      </trkpt>
      <trkpt lat="48.50865" lon="-3.42439">
        <ele>134</ele>
        <time>2022-04-06T13:38:56.186Z</time>
      </trkpt>
      <trkpt lat="48.50864" lon="-3.42446">
        <ele>134</ele>
        <time>2022-04-06T13:39:00.196Z</time>
      </trkpt>
      <trkpt lat="48.50862" lon="-3.42453">
        <ele>134</ele>
        <time>2022-04-06T13:39:05.189Z</time>
      </trkpt>
      <trkpt lat="48.50863" lon="-3.42459">
        <ele>135</ele>
        <time>2022-04-06T13:39:09.201Z</time>
      </trkpt>
      <trkpt lat="48.50864" lon="-3.42466">
        <ele>135</ele>
        <time>2022-04-06T13:39:14.186Z</time>
      </trkpt>
      <trkpt lat="48.50867" lon="-3.42472">
        <ele>135</ele>
        <time>2022-04-06T13:39:19.193Z</time>
      </trkpt>
      <trkpt lat="48.50867" lon="-3.42478">
        <ele>135</ele>
        <time>2022-04-06T13:39:24.183Z</time>
      </trkpt>
      <trkpt lat="48.50868" lon="-3.4248">
        <ele>135</ele>
        <time>2022-04-06T13:39:28.187Z</time>
      </trkpt>
      <trkpt lat="48.50865" lon="-3.42486">
        <ele>136</ele>
        <time>2022-04-06T13:39:33.186Z</time>
      </trkpt>
      <trkpt lat="48.50863" lon="-3.42492">
        <ele>136</ele>
        <time>2022-04-06T13:39:38.182Z</time>
      </trkpt>
      <trkpt lat="48.50862" lon="-3.42496">
        <ele>136</ele>
        <time>2022-04-06T13:39:42.193Z</time>
      </trkpt>
      <trkpt lat="48.50861" lon="-3.42497">
        <ele>136</ele>
        <time>2022-04-06T13:39:47.183Z</time>
      </trkpt>
      <trkpt lat="48.5086" lon="-3.425">
        <ele>136</ele>
        <time>2022-04-06T13:39:51.192Z</time>
      </trkpt>
      <trkpt lat="48.50858" lon="-3.42504">
        <ele>136</ele>
        <time>2022-04-06T13:39:56.200Z</time>
      </trkpt>
      <trkpt lat="48.50856" lon="-3.42509">
        <ele>136</ele>
        <time>2022-04-06T13:40:01.183Z</time>
      </trkpt>
      <trkpt lat="48.50855" lon="-3.42512">
        <ele>136</ele>
        <time>2022-04-06T13:40:05.204Z</time>
      </trkpt>
      <trkpt lat="48.50851" lon="-3.42517">
        <ele>137</ele>
        <time>2022-04-06T13:40:10.180Z</time>
      </trkpt>
      <trkpt lat="48.50849" lon="-3.4252">
        <ele>137</ele>
        <time>2022-04-06T13:40:14.187Z</time>
      </trkpt>
      <trkpt lat="48.50847" lon="-3.42524">
        <ele>137</ele>
        <time>2022-04-06T13:40:18.194Z</time>
      </trkpt>
      <trkpt lat="48.50847" lon="-3.42527">
        <ele>139</ele>
        <time>2022-04-06T13:40:23.182Z</time>
      </trkpt>
      <trkpt lat="48.50846" lon="-3.42531">
        <ele>139</ele>
        <time>2022-04-06T13:40:28.187Z</time>
      </trkpt>
      <trkpt lat="48.50846" lon="-3.42536">
        <ele>139</ele>
        <time>2022-04-06T13:40:33.193Z</time>
      </trkpt>
      <trkpt lat="48.50849" lon="-3.42543">
        <ele>137</ele>
        <time>2022-04-06T13:40:42.203Z</time>
      </trkpt>
      <trkpt lat="48.50847" lon="-3.42544">
        <ele>137</ele>
        <time>2022-04-06T13:40:47.187Z</time>
      </trkpt>
      <trkpt lat="48.50846" lon="-3.42543">
        <ele>139</ele>
        <time>2022-04-06T13:40:52.199Z</time>
      </trkpt>
      <trkpt lat="48.50841" lon="-3.42546">
        <ele>139</ele>
        <time>2022-04-06T13:40:57.180Z</time>
      </trkpt>
      <trkpt lat="48.50839" lon="-3.42551">
        <ele>139</ele>
        <time>2022-04-06T13:41:01.188Z</time>
      </trkpt>
      <trkpt lat="48.50839" lon="-3.42555">
        <ele>139</ele>
        <time>2022-04-06T13:41:05.191Z</time>
      </trkpt>
      <trkpt lat="48.50835" lon="-3.42561">
        <ele>139</ele>
        <time>2022-04-06T13:41:10.180Z</time>
      </trkpt>
      <trkpt lat="48.50832" lon="-3.42568">
        <ele>139</ele>
        <time>2022-04-06T13:41:15.178Z</time>
      </trkpt>
      <trkpt lat="48.5083" lon="-3.42573">
        <ele>138</ele>
        <time>2022-04-06T13:41:19.190Z</time>
      </trkpt>
      <trkpt lat="48.50828" lon="-3.42575">
        <ele>138</ele>
        <time>2022-04-06T13:41:24.176Z</time>
      </trkpt>
      <trkpt lat="48.50825" lon="-3.42578">
        <ele>138</ele>
        <time>2022-04-06T13:41:28.183Z</time>
      </trkpt>
      <trkpt lat="48.50825" lon="-3.42582">
        <ele>138</ele>
        <time>2022-04-06T13:41:32.204Z</time>
      </trkpt>
      <trkpt lat="48.50825" lon="-3.42584">
        <ele>138</ele>
        <time>2022-04-06T13:41:37.182Z</time>
      </trkpt>
      <trkpt lat="48.50823" lon="-3.42587">
        <ele>138</ele>
        <time>2022-04-06T13:41:41.207Z</time>
      </trkpt>
      <trkpt lat="48.50822" lon="-3.42593">
        <ele>138</ele>
        <time>2022-04-06T13:41:46.193Z</time>
      </trkpt>
      <trkpt lat="48.50819" lon="-3.42594">
        <ele>139</ele>
        <time>2022-04-06T13:41:51.176Z</time>
      </trkpt>
      <trkpt lat="48.50817" lon="-3.42596">
        <ele>139</ele>
        <time>2022-04-06T13:41:55.199Z</time>
      </trkpt>
      <trkpt lat="48.50814" lon="-3.426">
        <ele>138</ele>
        <time>2022-04-06T13:42:00.178Z</time>
      </trkpt>
      <trkpt lat="48.50812" lon="-3.42603">
        <ele>138</ele>
        <time>2022-04-06T13:42:04.186Z</time>
      </trkpt>
      <trkpt lat="48.50811" lon="-3.42606">
        <ele>138</ele>
        <time>2022-04-06T13:42:08.197Z</time>
      </trkpt>
      <trkpt lat="48.50809" lon="-3.42609">
        <ele>138</ele>
        <time>2022-04-06T13:42:13.191Z</time>
      </trkpt>
      <trkpt lat="48.50807" lon="-3.42611">
        <ele>138</ele>
        <time>2022-04-06T13:42:17.195Z</time>
      </trkpt>
      <trkpt lat="48.50805" lon="-3.42614">
        <ele>138</ele>
        <time>2022-04-06T13:42:22.185Z</time>
      </trkpt>
      <trkpt lat="48.50802" lon="-3.42619">
        <ele>138</ele>
        <time>2022-04-06T13:42:27.182Z</time>
      </trkpt>
      <trkpt lat="48.508" lon="-3.42622">
        <ele>138</ele>
        <time>2022-04-06T13:42:31.191Z</time>
      </trkpt>
      <trkpt lat="48.50797" lon="-3.42625">
        <ele>137</ele>
        <time>2022-04-06T13:42:35.201Z</time>
      </trkpt>
      <trkpt lat="48.50795" lon="-3.42629">
        <ele>137</ele>
        <time>2022-04-06T13:42:40.192Z</time>
      </trkpt>
      <trkpt lat="48.50793" lon="-3.42633">
        <ele>137</ele>
        <time>2022-04-06T13:42:44.198Z</time>
      </trkpt>
      <trkpt lat="48.50791" lon="-3.42637">
        <ele>142</ele>
        <time>2022-04-06T13:42:49.181Z</time>
      </trkpt>
      <trkpt lat="48.50788" lon="-3.42641">
        <ele>142</ele>
        <time>2022-04-06T13:42:54.182Z</time>
      </trkpt>
      <trkpt lat="48.50786" lon="-3.42644">
        <ele>142</ele>
        <time>2022-04-06T13:42:58.188Z</time>
      </trkpt>
      <trkpt lat="48.50783" lon="-3.42649">
        <ele>142</ele>
        <time>2022-04-06T13:43:03.189Z</time>
      </trkpt>
      <trkpt lat="48.50781" lon="-3.42655">
        <ele>140</ele>
        <time>2022-04-06T13:43:08.176Z</time>
      </trkpt>
      <trkpt lat="48.5078" lon="-3.42657">
        <ele>140</ele>
        <time>2022-04-06T13:43:12.187Z</time>
      </trkpt>
      <trkpt lat="48.5078" lon="-3.42659">
        <ele>140</ele>
        <time>2022-04-06T13:43:17.180Z</time>
      </trkpt>
      <trkpt lat="48.5078" lon="-3.42661">
        <ele>140</ele>
        <time>2022-04-06T13:43:22.188Z</time>
      </trkpt>
      <trkpt lat="48.50778" lon="-3.42668">
        <ele>140</ele>
        <time>2022-04-06T13:43:27.186Z</time>
      </trkpt>
      <trkpt lat="48.50774" lon="-3.42674">
        <ele>140</ele>
        <time>2022-04-06T13:43:32.175Z</time>
      </trkpt>
      <trkpt lat="48.50772" lon="-3.4268">
        <ele>140</ele>
        <time>2022-04-06T13:43:37.178Z</time>
      </trkpt>
      <trkpt lat="48.50771" lon="-3.42685">
        <ele>140</ele>
        <time>2022-04-06T13:43:41.188Z</time>
      </trkpt>
      <trkpt lat="48.5077" lon="-3.42689">
        <ele>140</ele>
        <time>2022-04-06T13:43:45.190Z</time>
      </trkpt>
      <trkpt lat="48.50767" lon="-3.42696">
        <ele>140</ele>
        <time>2022-04-06T13:43:50.176Z</time>
      </trkpt>
      <trkpt lat="48.50765" lon="-3.42701">
        <ele>140</ele>
        <time>2022-04-06T13:43:54.188Z</time>
      </trkpt>
      <trkpt lat="48.50762" lon="-3.42706">
        <ele>141</ele>
        <time>2022-04-06T13:43:58.199Z</time>
      </trkpt>
      <trkpt lat="48.5076" lon="-3.42712">
        <ele>141</ele>
        <time>2022-04-06T13:44:03.180Z</time>
      </trkpt>
      <trkpt lat="48.50752" lon="-3.42727">
        <ele>141</ele>
        <time>2022-04-06T13:44:22.202Z</time>
      </trkpt>
      <trkpt lat="48.50752" lon="-3.42728">
        <ele>141</ele>
        <time>2022-04-06T13:44:27.178Z</time>
      </trkpt>
      <trkpt lat="48.50752" lon="-3.42728">
        <ele>141</ele>
        <time>2022-04-06T13:44:31.186Z</time>
      </trkpt>
      <trkpt lat="48.50748" lon="-3.42731">
        <ele>141</ele>
        <time>2022-04-06T13:44:36.189Z</time>
      </trkpt>
      <trkpt lat="48.50745" lon="-3.42742">
        <ele>141</ele>
        <time>2022-04-06T13:44:41.189Z</time>
      </trkpt>
      <trkpt lat="48.50745" lon="-3.42747">
        <ele>141</ele>
        <time>2022-04-06T13:44:50.199Z</time>
      </trkpt>
      <trkpt lat="48.50743" lon="-3.42749">
        <ele>141</ele>
        <time>2022-04-06T13:44:55.192Z</time>
      </trkpt>
      <trkpt lat="48.50742" lon="-3.4275">
        <ele>141</ele>
        <time>2022-04-06T13:45:00.185Z</time>
      </trkpt>
      <trkpt lat="48.50741" lon="-3.42757">
        <ele>141</ele>
        <time>2022-04-06T13:45:04.197Z</time>
      </trkpt>
      <trkpt lat="48.50739" lon="-3.42761">
        <ele>141</ele>
        <time>2022-04-06T13:45:08.201Z</time>
      </trkpt>
      <trkpt lat="48.50739" lon="-3.42767">
        <ele>140</ele>
        <time>2022-04-06T13:45:13.178Z</time>
      </trkpt>
      <trkpt lat="48.50738" lon="-3.42771">
        <ele>140</ele>
        <time>2022-04-06T13:45:17.187Z</time>
      </trkpt>
      <trkpt lat="48.50739" lon="-3.42775">
        <ele>140</ele>
        <time>2022-04-06T13:45:22.184Z</time>
      </trkpt>
      <trkpt lat="48.50739" lon="-3.42781">
        <ele>140</ele>
        <time>2022-04-06T13:45:26.188Z</time>
      </trkpt>
      <trkpt lat="48.50739" lon="-3.42785">
        <ele>140</ele>
        <time>2022-04-06T13:45:31.181Z</time>
      </trkpt>
      <trkpt lat="48.5074" lon="-3.42788">
        <ele>140</ele>
        <time>2022-04-06T13:45:35.189Z</time>
      </trkpt>
      <trkpt lat="48.5074" lon="-3.42791">
        <ele>140</ele>
        <time>2022-04-06T13:45:39.196Z</time>
      </trkpt>
      <trkpt lat="48.50741" lon="-3.42797">
        <ele>139</ele>
        <time>2022-04-06T13:45:43.202Z</time>
      </trkpt>
      <trkpt lat="48.50742" lon="-3.42801">
        <ele>139</ele>
        <time>2022-04-06T13:45:48.181Z</time>
      </trkpt>
      <trkpt lat="48.50743" lon="-3.42805">
        <ele>139</ele>
        <time>2022-04-06T13:45:52.187Z</time>
      </trkpt>
      <trkpt lat="48.50743" lon="-3.4281">
        <ele>139</ele>
        <time>2022-04-06T13:45:56.199Z</time>
      </trkpt>
      <trkpt lat="48.50743" lon="-3.42815">
        <ele>139</ele>
        <time>2022-04-06T13:46:01.188Z</time>
      </trkpt>
      <trkpt lat="48.50743" lon="-3.42819">
        <ele>139</ele>
        <time>2022-04-06T13:46:06.182Z</time>
      </trkpt>
      <trkpt lat="48.50745" lon="-3.42825">
        <ele>139</ele>
        <time>2022-04-06T13:46:14.200Z</time>
      </trkpt>
      <trkpt lat="48.50744" lon="-3.4283">
        <ele>139</ele>
        <time>2022-04-06T13:46:19.175Z</time>
      </trkpt>
      <trkpt lat="48.50744" lon="-3.42834">
        <ele>139</ele>
        <time>2022-04-06T13:46:23.180Z</time>
      </trkpt>
      <trkpt lat="48.50744" lon="-3.42837">
        <ele>139</ele>
        <time>2022-04-06T13:46:27.199Z</time>
      </trkpt>
      <trkpt lat="48.50743" lon="-3.42841">
        <ele>139</ele>
        <time>2022-04-06T13:46:31.181Z</time>
      </trkpt>
      <trkpt lat="48.50741" lon="-3.42848">
        <ele>139</ele>
        <time>2022-04-06T13:46:36.189Z</time>
      </trkpt>
      <trkpt lat="48.50742" lon="-3.42854">
        <ele>139</ele>
        <time>2022-04-06T13:46:41.183Z</time>
      </trkpt>
      <trkpt lat="48.50741" lon="-3.42861">
        <ele>139</ele>
        <time>2022-04-06T13:46:46.180Z</time>
      </trkpt>
      <trkpt lat="48.50742" lon="-3.42866">
        <ele>139</ele>
        <time>2022-04-06T13:46:51.179Z</time>
      </trkpt>
      <trkpt lat="48.50741" lon="-3.42872">
        <ele>139</ele>
        <time>2022-04-06T13:46:56.181Z</time>
      </trkpt>
      <trkpt lat="48.50741" lon="-3.42876">
        <ele>139</ele>
        <time>2022-04-06T13:47:00.183Z</time>
      </trkpt>
      <trkpt lat="48.50741" lon="-3.42879">
        <ele>139</ele>
        <time>2022-04-06T13:47:04.180Z</time>
      </trkpt>
      <trkpt lat="48.50741" lon="-3.42884">
        <ele>139</ele>
        <time>2022-04-06T13:47:08.189Z</time>
      </trkpt>
      <trkpt lat="48.50741" lon="-3.42889">
        <ele>139</ele>
        <time>2022-04-06T13:47:13.188Z</time>
      </trkpt>
      <trkpt lat="48.50742" lon="-3.42894">
        <ele>139</ele>
        <time>2022-04-06T13:47:18.212Z</time>
      </trkpt>
      <trkpt lat="48.50743" lon="-3.42898">
        <ele>139</ele>
        <time>2022-04-06T13:47:23.188Z</time>
      </trkpt>
      <trkpt lat="48.50744" lon="-3.42904">
        <ele>138</ele>
        <time>2022-04-06T13:47:28.184Z</time>
      </trkpt>
      <trkpt lat="48.50744" lon="-3.42908">
        <ele>138</ele>
        <time>2022-04-06T13:47:33.180Z</time>
      </trkpt>
      <trkpt lat="48.50744" lon="-3.42915">
        <ele>138</ele>
        <time>2022-04-06T13:47:38.181Z</time>
      </trkpt>
      <trkpt lat="48.50744" lon="-3.4292">
        <ele>138</ele>
        <time>2022-04-06T13:47:43.188Z</time>
      </trkpt>
      <trkpt lat="48.50744" lon="-3.42925">
        <ele>138</ele>
        <time>2022-04-06T13:47:48.183Z</time>
      </trkpt>
      <trkpt lat="48.50744" lon="-3.42932">
        <ele>137</ele>
        <time>2022-04-06T13:47:53.180Z</time>
      </trkpt>
      <trkpt lat="48.50744" lon="-3.42936">
        <ele>137</ele>
        <time>2022-04-06T13:47:57.187Z</time>
      </trkpt>
      <trkpt lat="48.50744" lon="-3.42943">
        <ele>137</ele>
        <time>2022-04-06T13:48:02.180Z</time>
      </trkpt>
      <trkpt lat="48.50744" lon="-3.42948">
        <ele>137</ele>
        <time>2022-04-06T13:48:06.200Z</time>
      </trkpt>
      <trkpt lat="48.50745" lon="-3.42954">
        <ele>137</ele>
        <time>2022-04-06T13:48:11.195Z</time>
      </trkpt>
      <trkpt lat="48.50746" lon="-3.4296">
        <ele>137</ele>
        <time>2022-04-06T13:48:16.182Z</time>
      </trkpt>
      <trkpt lat="48.50746" lon="-3.42965">
        <ele>137</ele>
        <time>2022-04-06T13:48:20.182Z</time>
      </trkpt>
      <trkpt lat="48.50748" lon="-3.42969">
        <ele>137</ele>
        <time>2022-04-06T13:48:24.193Z</time>
      </trkpt>
      <trkpt lat="48.5075" lon="-3.42977">
        <ele>137</ele>
        <time>2022-04-06T13:48:29.179Z</time>
      </trkpt>
      <trkpt lat="48.50753" lon="-3.42987">
        <ele>137</ele>
        <time>2022-04-06T13:48:44.185Z</time>
      </trkpt>
      <trkpt lat="48.50752" lon="-3.42988">
        <ele>137</ele>
        <time>2022-04-06T13:48:48.186Z</time>
      </trkpt>
      <trkpt lat="48.50752" lon="-3.4299">
        <ele>137</ele>
        <time>2022-04-06T13:48:53.183Z</time>
      </trkpt>
      <trkpt lat="48.50753" lon="-3.42993">
        <ele>137</ele>
        <time>2022-04-06T13:48:58.195Z</time>
      </trkpt>
      <trkpt lat="48.50753" lon="-3.42999">
        <ele>137</ele>
        <time>2022-04-06T13:49:03.181Z</time>
      </trkpt>
      <trkpt lat="48.50758" lon="-3.43011">
        <ele>137</ele>
        <time>2022-04-06T13:49:20.194Z</time>
      </trkpt>
      <trkpt lat="48.50759" lon="-3.43014">
        <ele>137</ele>
        <time>2022-04-06T13:49:24.200Z</time>
      </trkpt>
      <trkpt lat="48.5076" lon="-3.43019">
        <ele>138</ele>
        <time>2022-04-06T13:49:29.179Z</time>
      </trkpt>
      <trkpt lat="48.5076" lon="-3.43023">
        <ele>138</ele>
        <time>2022-04-06T13:49:33.188Z</time>
      </trkpt>
      <trkpt lat="48.50761" lon="-3.43029">
        <ele>138</ele>
        <time>2022-04-06T13:49:38.192Z</time>
      </trkpt>
      <trkpt lat="48.50766" lon="-3.43027">
        <ele>139</ele>
        <time>2022-04-06T13:51:16.202Z</time>
      </trkpt>
      <trkpt lat="48.50766" lon="-3.43027">
        <ele>139</ele>
        <time>2022-04-06T13:51:21.209Z</time>
      </trkpt>
      <trkpt lat="48.50768" lon="-3.43026">
        <ele>139</ele>
        <time>2022-04-06T13:51:26.209Z</time>
      </trkpt>
      <trkpt lat="48.50772" lon="-3.43023">
        <ele>139</ele>
        <time>2022-04-06T13:51:31.200Z</time>
      </trkpt>
      <trkpt lat="48.50774" lon="-3.4302">
        <ele>139</ele>
        <time>2022-04-06T13:51:36.216Z</time>
      </trkpt>
      <trkpt lat="48.50777" lon="-3.43016">
        <ele>139</ele>
        <time>2022-04-06T13:51:41.207Z</time>
      </trkpt>
      <trkpt lat="48.50779" lon="-3.43011">
        <ele>138</ele>
        <time>2022-04-06T13:51:46.197Z</time>
      </trkpt>
      <trkpt lat="48.50781" lon="-3.4301">
        <ele>138</ele>
        <time>2022-04-06T13:51:50.200Z</time>
      </trkpt>
      <trkpt lat="48.50783" lon="-3.43007">
        <ele>138</ele>
        <time>2022-04-06T13:51:55.179Z</time>
      </trkpt>
      <trkpt lat="48.50785" lon="-3.43003">
        <ele>138</ele>
        <time>2022-04-06T13:51:59.188Z</time>
      </trkpt>
      <trkpt lat="48.50785" lon="-3.42999">
        <ele>138</ele>
        <time>2022-04-06T13:52:03.197Z</time>
      </trkpt>
      <trkpt lat="48.50787" lon="-3.42995">
        <ele>138</ele>
        <time>2022-04-06T13:52:08.207Z</time>
      </trkpt>
      <trkpt lat="48.50791" lon="-3.42991">
        <ele>138</ele>
        <time>2022-04-06T13:52:13.214Z</time>
      </trkpt>
      <trkpt lat="48.50793" lon="-3.42986">
        <ele>138</ele>
        <time>2022-04-06T13:52:18.207Z</time>
      </trkpt>
      <trkpt lat="48.50795" lon="-3.42981">
        <ele>138</ele>
        <time>2022-04-06T13:52:23.205Z</time>
      </trkpt>
      <trkpt lat="48.50797" lon="-3.42977">
        <ele>138</ele>
        <time>2022-04-06T13:52:27.214Z</time>
      </trkpt>
      <trkpt lat="48.50799" lon="-3.42972">
        <ele>138</ele>
        <time>2022-04-06T13:52:32.185Z</time>
      </trkpt>
      <trkpt lat="48.50802" lon="-3.42968">
        <ele>138</ele>
        <time>2022-04-06T13:52:36.211Z</time>
      </trkpt>
      <trkpt lat="48.50806" lon="-3.42965">
        <ele>138</ele>
        <time>2022-04-06T13:52:41.213Z</time>
      </trkpt>
      <trkpt lat="48.50807" lon="-3.42961">
        <ele>138</ele>
        <time>2022-04-06T13:52:46.203Z</time>
      </trkpt>
      <trkpt lat="48.5081" lon="-3.42957">
        <ele>138</ele>
        <time>2022-04-06T13:52:51.209Z</time>
      </trkpt>
      <trkpt lat="48.50813" lon="-3.42953">
        <ele>138</ele>
        <time>2022-04-06T13:52:56.210Z</time>
      </trkpt>
      <trkpt lat="48.50817" lon="-3.42949">
        <ele>138</ele>
        <time>2022-04-06T13:53:01.202Z</time>
      </trkpt>
      <trkpt lat="48.50822" lon="-3.4295">
        <ele>139</ele>
        <time>2022-04-06T13:53:06.204Z</time>
      </trkpt>
      <trkpt lat="48.50825" lon="-3.42954">
        <ele>139</ele>
        <time>2022-04-06T13:53:11.190Z</time>
      </trkpt>
      <trkpt lat="48.50828" lon="-3.42959">
        <ele>140</ele>
        <time>2022-04-06T13:53:16.198Z</time>
      </trkpt>
      <trkpt lat="48.5083" lon="-3.42962">
        <ele>140</ele>
        <time>2022-04-06T13:53:20.185Z</time>
      </trkpt>
      <trkpt lat="48.50831" lon="-3.42966">
        <ele>140</ele>
        <time>2022-04-06T13:53:25.191Z</time>
      </trkpt>
      <trkpt lat="48.50833" lon="-3.42971">
        <ele>140</ele>
        <time>2022-04-06T13:53:30.185Z</time>
      </trkpt>
      <trkpt lat="48.50836" lon="-3.42974">
        <ele>140</ele>
        <time>2022-04-06T13:53:34.187Z</time>
      </trkpt>
      <trkpt lat="48.50839" lon="-3.42979">
        <ele>140</ele>
        <time>2022-04-06T13:53:38.213Z</time>
      </trkpt>
      <trkpt lat="48.50841" lon="-3.42984">
        <ele>140</ele>
        <time>2022-04-06T13:53:43.189Z</time>
      </trkpt>
      <trkpt lat="48.50844" lon="-3.42989">
        <ele>141</ele>
        <time>2022-04-06T13:53:48.190Z</time>
      </trkpt>
      <trkpt lat="48.50845" lon="-3.42996">
        <ele>141</ele>
        <time>2022-04-06T13:53:53.181Z</time>
      </trkpt>
      <trkpt lat="48.50847" lon="-3.43001">
        <ele>141</ele>
        <time>2022-04-06T13:53:57.179Z</time>
      </trkpt>
      <trkpt lat="48.50848" lon="-3.43008">
        <ele>143</ele>
        <time>2022-04-06T13:54:02.181Z</time>
      </trkpt>
      <trkpt lat="48.5085" lon="-3.43012">
        <ele>143</ele>
        <time>2022-04-06T13:54:06.183Z</time>
      </trkpt>
      <trkpt lat="48.50851" lon="-3.43016">
        <ele>144</ele>
        <time>2022-04-06T13:54:10.190Z</time>
      </trkpt>
      <trkpt lat="48.50854" lon="-3.43022">
        <ele>144</ele>
        <time>2022-04-06T13:54:15.181Z</time>
      </trkpt>
      <trkpt lat="48.50857" lon="-3.43028">
        <ele>144</ele>
        <time>2022-04-06T13:54:20.182Z</time>
      </trkpt>
      <trkpt lat="48.5086" lon="-3.43031">
        <ele>144</ele>
        <time>2022-04-06T13:54:24.185Z</time>
      </trkpt>
      <trkpt lat="48.50863" lon="-3.43034">
        <ele>144</ele>
        <time>2022-04-06T13:54:29.181Z</time>
      </trkpt>
      <trkpt lat="48.50866" lon="-3.43039">
        <ele>144</ele>
        <time>2022-04-06T13:54:33.181Z</time>
      </trkpt>
      <trkpt lat="48.50869" lon="-3.43043">
        <ele>144</ele>
        <time>2022-04-06T13:54:37.178Z</time>
      </trkpt>
      <trkpt lat="48.50872" lon="-3.43048">
        <ele>144</ele>
        <time>2022-04-06T13:54:42.177Z</time>
      </trkpt>
      <trkpt lat="48.50875" lon="-3.43053">
        <ele>144</ele>
        <time>2022-04-06T13:54:46.184Z</time>
      </trkpt>
      <trkpt lat="48.50878" lon="-3.43059">
        <ele>145</ele>
        <time>2022-04-06T13:54:51.186Z</time>
      </trkpt>
      <trkpt lat="48.50881" lon="-3.43064">
        <ele>145</ele>
        <time>2022-04-06T13:54:56.183Z</time>
      </trkpt>
      <trkpt lat="48.50884" lon="-3.43068">
        <ele>145</ele>
        <time>2022-04-06T13:55:00.189Z</time>
      </trkpt>
      <trkpt lat="48.50886" lon="-3.43074">
        <ele>145</ele>
        <time>2022-04-06T13:55:05.190Z</time>
      </trkpt>
      <trkpt lat="48.5089" lon="-3.4308">
        <ele>145</ele>
        <time>2022-04-06T13:55:10.195Z</time>
      </trkpt>
      <trkpt lat="48.50894" lon="-3.43084">
        <ele>145</ele>
        <time>2022-04-06T13:55:15.178Z</time>
      </trkpt>
      <trkpt lat="48.50897" lon="-3.4309">
        <ele>145</ele>
        <time>2022-04-06T13:55:19.183Z</time>
      </trkpt>
      <trkpt lat="48.50901" lon="-3.43094">
        <ele>145</ele>
        <time>2022-04-06T13:55:24.183Z</time>
      </trkpt>
      <trkpt lat="48.50904" lon="-3.43098">
        <ele>146</ele>
        <time>2022-04-06T13:55:28.192Z</time>
      </trkpt>
      <trkpt lat="48.50908" lon="-3.43102">
        <ele>146</ele>
        <time>2022-04-06T13:55:33.186Z</time>
      </trkpt>
      <trkpt lat="48.50913" lon="-3.43104">
        <ele>146</ele>
        <time>2022-04-06T13:55:38.186Z</time>
      </trkpt>
      <trkpt lat="48.50917" lon="-3.43105">
        <ele>146</ele>
        <time>2022-04-06T13:55:43.183Z</time>
      </trkpt>
      <trkpt lat="48.50919" lon="-3.43106">
        <ele>146</ele>
        <time>2022-04-06T13:55:48.182Z</time>
      </trkpt>
      <trkpt lat="48.50922" lon="-3.43107">
        <ele>146</ele>
        <time>2022-04-06T13:55:52.181Z</time>
      </trkpt>
      <trkpt lat="48.50927" lon="-3.43109">
        <ele>146</ele>
        <time>2022-04-06T13:55:57.189Z</time>
      </trkpt>
      <trkpt lat="48.5093" lon="-3.4311">
        <ele>146</ele>
        <time>2022-04-06T13:56:01.189Z</time>
      </trkpt>
      <trkpt lat="48.50934" lon="-3.43109">
        <ele>147</ele>
        <time>2022-04-06T13:56:06.191Z</time>
      </trkpt>
      <trkpt lat="48.50937" lon="-3.43105">
        <ele>147</ele>
        <time>2022-04-06T13:56:11.181Z</time>
      </trkpt>
      <trkpt lat="48.5094" lon="-3.43102">
        <ele>147</ele>
        <time>2022-04-06T13:56:15.187Z</time>
      </trkpt>
      <trkpt lat="48.50943" lon="-3.43098">
        <ele>147</ele>
        <time>2022-04-06T13:56:19.194Z</time>
      </trkpt>
      <trkpt lat="48.50952" lon="-3.43084">
        <ele>147</ele>
        <time>2022-04-06T13:56:47.198Z</time>
      </trkpt>
      <trkpt lat="48.50954" lon="-3.43082">
        <ele>147</ele>
        <time>2022-04-06T13:56:52.188Z</time>
      </trkpt>
      <trkpt lat="48.50956" lon="-3.43081">
        <ele>147</ele>
        <time>2022-04-06T13:56:57.180Z</time>
      </trkpt>
      <trkpt lat="48.50957" lon="-3.43077">
        <ele>147</ele>
        <time>2022-04-06T13:57:01.190Z</time>
      </trkpt>
      <trkpt lat="48.50961" lon="-3.43071">
        <ele>148</ele>
        <time>2022-04-06T13:57:06.191Z</time>
      </trkpt>
      <trkpt lat="48.50964" lon="-3.43067">
        <ele>147</ele>
        <time>2022-04-06T13:57:10.195Z</time>
      </trkpt>
      <trkpt lat="48.50967" lon="-3.43063">
        <ele>147</ele>
        <time>2022-04-06T13:57:15.189Z</time>
      </trkpt>
      <trkpt lat="48.50969" lon="-3.43057">
        <ele>147</ele>
        <time>2022-04-06T13:57:20.211Z</time>
      </trkpt>
      <trkpt lat="48.50971" lon="-3.43052">
        <ele>147</ele>
        <time>2022-04-06T13:57:25.179Z</time>
      </trkpt>
      <trkpt lat="48.50973" lon="-3.4305">
        <ele>147</ele>
        <time>2022-04-06T13:57:29.179Z</time>
      </trkpt>
      <trkpt lat="48.50976" lon="-3.43047">
        <ele>147</ele>
        <time>2022-04-06T13:57:33.186Z</time>
      </trkpt>
      <trkpt lat="48.5098" lon="-3.43043">
        <ele>147</ele>
        <time>2022-04-06T13:57:38.183Z</time>
      </trkpt>
      <trkpt lat="48.50981" lon="-3.43041">
        <ele>146</ele>
        <time>2022-04-06T13:57:42.181Z</time>
      </trkpt>
      <trkpt lat="48.50982" lon="-3.43041">
        <ele>146</ele>
        <time>2022-04-06T13:57:47.180Z</time>
      </trkpt>
      <trkpt lat="48.50983" lon="-3.43039">
        <ele>146</ele>
        <time>2022-04-06T13:57:51.181Z</time>
      </trkpt>
      <trkpt lat="48.50982" lon="-3.43034">
        <ele>146</ele>
        <time>2022-04-06T13:57:56.193Z</time>
      </trkpt>
      <trkpt lat="48.50984" lon="-3.4303">
        <ele>146</ele>
        <time>2022-04-06T13:58:01.182Z</time>
      </trkpt>
      <trkpt lat="48.50988" lon="-3.4303">
        <ele>148</ele>
        <time>2022-04-06T13:58:05.188Z</time>
      </trkpt>
      <trkpt lat="48.5099" lon="-3.43031">
        <ele>148</ele>
        <time>2022-04-06T13:58:10.183Z</time>
      </trkpt>
      <trkpt lat="48.5099" lon="-3.43031">
        <ele>148</ele>
        <time>2022-04-06T13:58:14.186Z</time>
      </trkpt>
      <trkpt lat="48.50993" lon="-3.4303">
        <ele>148</ele>
        <time>2022-04-06T13:58:18.199Z</time>
      </trkpt>
      <trkpt lat="48.50997" lon="-3.43027">
        <ele>148</ele>
        <time>2022-04-06T13:58:23.183Z</time>
      </trkpt>
      <trkpt lat="48.50999" lon="-3.43025">
        <ele>148</ele>
        <time>2022-04-06T13:58:28.184Z</time>
      </trkpt>
      <trkpt lat="48.51004" lon="-3.43009">
        <ele>147</ele>
        <time>2022-04-06T13:59:38.189Z</time>
      </trkpt>
      <trkpt lat="48.51005" lon="-3.43008">
        <ele>147</ele>
        <time>2022-04-06T13:59:43.203Z</time>
      </trkpt>
      <trkpt lat="48.51008" lon="-3.43006">
        <ele>147</ele>
        <time>2022-04-06T13:59:48.182Z</time>
      </trkpt>
      <trkpt lat="48.51012" lon="-3.43005">
        <ele>147</ele>
        <time>2022-04-06T13:59:52.186Z</time>
      </trkpt>
      <trkpt lat="48.51014" lon="-3.43003">
        <ele>147</ele>
        <time>2022-04-06T13:59:57.179Z</time>
      </trkpt>
      <trkpt lat="48.51009" lon="-3.43025">
        <ele>148</ele>
        <time>2022-04-06T14:01:16.192Z</time>
      </trkpt>
      <trkpt lat="48.51013" lon="-3.43031">
        <ele>148</ele>
        <time>2022-04-06T14:01:21.185Z</time>
      </trkpt>
      <trkpt lat="48.51017" lon="-3.43036">
        <ele>151</ele>
        <time>2022-04-06T14:01:26.180Z</time>
      </trkpt>
      <trkpt lat="48.5102" lon="-3.43039">
        <ele>151</ele>
        <time>2022-04-06T14:01:30.190Z</time>
      </trkpt>
      <trkpt lat="48.51022" lon="-3.43046">
        <ele>152</ele>
        <time>2022-04-06T14:01:35.178Z</time>
      </trkpt>
      <trkpt lat="48.51025" lon="-3.4305">
        <ele>152</ele>
        <time>2022-04-06T14:01:39.189Z</time>
      </trkpt>
      <trkpt lat="48.51028" lon="-3.43056">
        <ele>152</ele>
        <time>2022-04-06T14:01:44.181Z</time>
      </trkpt>
      <trkpt lat="48.5103" lon="-3.43062">
        <ele>152</ele>
        <time>2022-04-06T14:01:48.190Z</time>
      </trkpt>
      <trkpt lat="48.51033" lon="-3.43069">
        <ele>152</ele>
        <time>2022-04-06T14:01:53.190Z</time>
      </trkpt>
      <trkpt lat="48.51034" lon="-3.43077">
        <ele>151</ele>
        <time>2022-04-06T14:01:58.189Z</time>
      </trkpt>
      <trkpt lat="48.51038" lon="-3.43087">
        <ele>151</ele>
        <time>2022-04-06T14:02:03.197Z</time>
      </trkpt>
      <trkpt lat="48.51039" lon="-3.43096">
        <ele>151</ele>
        <time>2022-04-06T14:02:08.186Z</time>
      </trkpt>
      <trkpt lat="48.5104" lon="-3.43104">
        <ele>151</ele>
        <time>2022-04-06T14:02:12.189Z</time>
      </trkpt>
      <trkpt lat="48.51039" lon="-3.43112">
        <ele>151</ele>
        <time>2022-04-06T14:02:17.173Z</time>
      </trkpt>
      <trkpt lat="48.51043" lon="-3.43116">
        <ele>152</ele>
        <time>2022-04-06T14:02:22.184Z</time>
      </trkpt>
      <trkpt lat="48.51047" lon="-3.43117">
        <ele>152</ele>
        <time>2022-04-06T14:02:27.175Z</time>
      </trkpt>
      <trkpt lat="48.51051" lon="-3.43122">
        <ele>152</ele>
        <time>2022-04-06T14:02:32.181Z</time>
      </trkpt>
      <trkpt lat="48.51053" lon="-3.43128">
        <ele>152</ele>
        <time>2022-04-06T14:02:37.178Z</time>
      </trkpt>
      <trkpt lat="48.51054" lon="-3.43133">
        <ele>152</ele>
        <time>2022-04-06T14:02:41.186Z</time>
      </trkpt>
      <trkpt lat="48.51056" lon="-3.43137">
        <ele>152</ele>
        <time>2022-04-06T14:02:45.198Z</time>
      </trkpt>
      <trkpt lat="48.51059" lon="-3.43144">
        <ele>152</ele>
        <time>2022-04-06T14:02:50.191Z</time>
      </trkpt>
      <trkpt lat="48.51062" lon="-3.43151">
        <ele>152</ele>
        <time>2022-04-06T14:02:55.181Z</time>
      </trkpt>
      <trkpt lat="48.51065" lon="-3.43158">
        <ele>151</ele>
        <time>2022-04-06T14:03:00.178Z</time>
      </trkpt>
      <trkpt lat="48.51067" lon="-3.43164">
        <ele>151</ele>
        <time>2022-04-06T14:03:04.181Z</time>
      </trkpt>
      <trkpt lat="48.51065" lon="-3.43172">
        <ele>151</ele>
        <time>2022-04-06T14:03:09.181Z</time>
      </trkpt>
      <trkpt lat="48.5106" lon="-3.43176">
        <ele>151</ele>
        <time>2022-04-06T14:03:54.197Z</time>
      </trkpt>
      <trkpt lat="48.51063" lon="-3.43177">
        <ele>151</ele>
        <time>2022-04-06T14:03:59.187Z</time>
      </trkpt>
      <trkpt lat="48.51067" lon="-3.43177">
        <ele>151</ele>
        <time>2022-04-06T14:04:04.182Z</time>
      </trkpt>
      <trkpt lat="48.51072" lon="-3.43185">
        <ele>151</ele>
        <time>2022-04-06T14:04:09.190Z</time>
      </trkpt>
      <trkpt lat="48.51076" lon="-3.43192">
        <ele>151</ele>
        <time>2022-04-06T14:04:14.182Z</time>
      </trkpt>
      <trkpt lat="48.51081" lon="-3.43195">
        <ele>151</ele>
        <time>2022-04-06T14:04:18.322Z</time>
      </trkpt>
      <trkpt lat="48.51086" lon="-3.432">
        <ele>151</ele>
        <time>2022-04-06T14:04:23.184Z</time>
      </trkpt>
      <trkpt lat="48.5109" lon="-3.43202">
        <ele>151</ele>
        <time>2022-04-06T14:04:27.180Z</time>
      </trkpt>
      <trkpt lat="48.51096" lon="-3.43204">
        <ele>151</ele>
        <time>2022-04-06T14:04:32.182Z</time>
      </trkpt>
      <trkpt lat="48.51102" lon="-3.43204">
        <ele>154</ele>
        <time>2022-04-06T14:04:36.185Z</time>
      </trkpt>
      <trkpt lat="48.51105" lon="-3.4321">
        <ele>154</ele>
        <time>2022-04-06T14:04:41.184Z</time>
      </trkpt>
      <trkpt lat="48.51109" lon="-3.43212">
        <ele>154</ele>
        <time>2022-04-06T14:04:45.185Z</time>
      </trkpt>
      <trkpt lat="48.51114" lon="-3.43215">
        <ele>154</ele>
        <time>2022-04-06T14:04:50.196Z</time>
      </trkpt>
      <trkpt lat="48.51118" lon="-3.43219">
        <ele>154</ele>
        <time>2022-04-06T14:04:55.193Z</time>
      </trkpt>
      <trkpt lat="48.51123" lon="-3.43222">
        <ele>154</ele>
        <time>2022-04-06T14:05:00.192Z</time>
      </trkpt>
      <trkpt lat="48.51129" lon="-3.43223">
        <ele>159</ele>
        <time>2022-04-06T14:05:05.184Z</time>
      </trkpt>
      <trkpt lat="48.51133" lon="-3.4322">
        <ele>159</ele>
        <time>2022-04-06T14:05:09.192Z</time>
      </trkpt>
      <trkpt lat="48.51136" lon="-3.43215">
        <ele>159</ele>
        <time>2022-04-06T14:05:13.191Z</time>
      </trkpt>
      <trkpt lat="48.5114" lon="-3.43209">
        <ele>159</ele>
        <time>2022-04-06T14:05:18.190Z</time>
      </trkpt>
      <trkpt lat="48.51143" lon="-3.43203">
        <ele>159</ele>
        <time>2022-04-06T14:05:23.186Z</time>
      </trkpt>
      <trkpt lat="48.51147" lon="-3.43198">
        <ele>159</ele>
        <time>2022-04-06T14:05:27.194Z</time>
      </trkpt>
      <trkpt lat="48.51152" lon="-3.43192">
        <ele>159</ele>
        <time>2022-04-06T14:05:32.177Z</time>
      </trkpt>
      <trkpt lat="48.51155" lon="-3.43187">
        <ele>162</ele>
        <time>2022-04-06T14:05:36.185Z</time>
      </trkpt>
      <trkpt lat="48.51161" lon="-3.43184">
        <ele>162</ele>
        <time>2022-04-06T14:05:41.187Z</time>
      </trkpt>
      <trkpt lat="48.51166" lon="-3.43188">
        <ele>162</ele>
        <time>2022-04-06T14:05:46.182Z</time>
      </trkpt>
      <trkpt lat="48.5117" lon="-3.43189">
        <ele>162</ele>
        <time>2022-04-06T14:05:50.187Z</time>
      </trkpt>
      <trkpt lat="48.51173" lon="-3.43193">
        <ele>162</ele>
        <time>2022-04-06T14:05:54.183Z</time>
      </trkpt>
      <trkpt lat="48.51178" lon="-3.43195">
        <ele>162</ele>
        <time>2022-04-06T14:05:59.199Z</time>
      </trkpt>
      <trkpt lat="48.51181" lon="-3.432">
        <ele>163</ele>
        <time>2022-04-06T14:06:04.185Z</time>
      </trkpt>
      <trkpt lat="48.51187" lon="-3.43204">
        <ele>163</ele>
        <time>2022-04-06T14:06:09.188Z</time>
      </trkpt>
      <trkpt lat="48.51192" lon="-3.43207">
        <ele>163</ele>
        <time>2022-04-06T14:06:14.187Z</time>
      </trkpt>
      <trkpt lat="48.51196" lon="-3.43209">
        <ele>164</ele>
        <time>2022-04-06T14:06:18.196Z</time>
      </trkpt>
      <trkpt lat="48.51201" lon="-3.43214">
        <ele>164</ele>
        <time>2022-04-06T14:06:23.189Z</time>
      </trkpt>
      <trkpt lat="48.51207" lon="-3.43217">
        <ele>164</ele>
        <time>2022-04-06T14:06:28.182Z</time>
      </trkpt>
      <trkpt lat="48.51212" lon="-3.43217">
        <ele>166</ele>
        <time>2022-04-06T14:06:32.183Z</time>
      </trkpt>
      <trkpt lat="48.51217" lon="-3.43218">
        <ele>166</ele>
        <time>2022-04-06T14:06:36.188Z</time>
      </trkpt>
      <trkpt lat="48.51222" lon="-3.43222">
        <ele>166</ele>
        <time>2022-04-06T14:06:41.184Z</time>
      </trkpt>
      <trkpt lat="48.51227" lon="-3.43222">
        <ele>166</ele>
        <time>2022-04-06T14:06:45.193Z</time>
      </trkpt>
      <trkpt lat="48.51234" lon="-3.43224">
        <ele>166</ele>
        <time>2022-04-06T14:06:50.186Z</time>
      </trkpt>
      <trkpt lat="48.51239" lon="-3.43226">
        <ele>167</ele>
        <time>2022-04-06T14:06:55.186Z</time>
      </trkpt>
      <trkpt lat="48.51244" lon="-3.43229">
        <ele>167</ele>
        <time>2022-04-06T14:07:00.198Z</time>
      </trkpt>
      <trkpt lat="48.51249" lon="-3.43234">
        <ele>167</ele>
        <time>2022-04-06T14:07:05.189Z</time>
      </trkpt>
      <trkpt lat="48.51253" lon="-3.43239">
        <ele>168</ele>
        <time>2022-04-06T14:07:09.182Z</time>
      </trkpt>
      <trkpt lat="48.5126" lon="-3.43247">
        <ele>168</ele>
        <time>2022-04-06T14:07:14.178Z</time>
      </trkpt>
      <trkpt lat="48.51264" lon="-3.43251">
        <ele>168</ele>
        <time>2022-04-06T14:07:18.181Z</time>
      </trkpt>
      <trkpt lat="48.51269" lon="-3.43255">
        <ele>170</ele>
        <time>2022-04-06T14:07:22.188Z</time>
      </trkpt>
      <trkpt lat="48.51275" lon="-3.43261">
        <ele>170</ele>
        <time>2022-04-06T14:07:27.190Z</time>
      </trkpt>
      <trkpt lat="48.5128" lon="-3.43268">
        <ele>171</ele>
        <time>2022-04-06T14:07:32.190Z</time>
      </trkpt>
      <trkpt lat="48.51286" lon="-3.43272">
        <ele>171</ele>
        <time>2022-04-06T14:07:37.200Z</time>
      </trkpt>
      <trkpt lat="48.51291" lon="-3.43273">
        <ele>171</ele>
        <time>2022-04-06T14:07:42.190Z</time>
      </trkpt>
      <trkpt lat="48.51295" lon="-3.43277">
        <ele>172</ele>
        <time>2022-04-06T14:07:47.179Z</time>
      </trkpt>
      <trkpt lat="48.513" lon="-3.43278">
        <ele>172</ele>
        <time>2022-04-06T14:07:51.180Z</time>
      </trkpt>
      <trkpt lat="48.51305" lon="-3.4328">
        <ele>172</ele>
        <time>2022-04-06T14:07:56.185Z</time>
      </trkpt>
      <trkpt lat="48.51311" lon="-3.4328">
        <ele>172</ele>
        <time>2022-04-06T14:08:01.193Z</time>
      </trkpt>
      <trkpt lat="48.51318" lon="-3.43281">
        <ele>172</ele>
        <time>2022-04-06T14:08:06.204Z</time>
      </trkpt>
      <trkpt lat="48.51325" lon="-3.43286">
        <ele>173</ele>
        <time>2022-04-06T14:08:11.191Z</time>
      </trkpt>
      <trkpt lat="48.51334" lon="-3.43289">
        <ele>173</ele>
        <time>2022-04-06T14:08:16.191Z</time>
      </trkpt>
      <trkpt lat="48.51342" lon="-3.43289">
        <ele>173</ele>
        <time>2022-04-06T14:08:21.189Z</time>
      </trkpt>
      <trkpt lat="48.51345" lon="-3.43282">
        <ele>173</ele>
        <time>2022-04-06T14:08:26.204Z</time>
      </trkpt>
      <trkpt lat="48.51352" lon="-3.43301">
        <ele>177</ele>
        <time>2022-04-06T14:08:31.191Z</time>
      </trkpt>
      <trkpt lat="48.51355" lon="-3.43306">
        <ele>177</ele>
        <time>2022-04-06T14:08:35.189Z</time>
      </trkpt>
      <trkpt lat="48.5136" lon="-3.43311">
        <ele>177</ele>
        <time>2022-04-06T14:08:39.201Z</time>
      </trkpt>
      <trkpt lat="48.51365" lon="-3.43317">
        <ele>177</ele>
        <time>2022-04-06T14:08:43.202Z</time>
      </trkpt>
      <trkpt lat="48.5137" lon="-3.43321">
        <ele>179</ele>
        <time>2022-04-06T14:08:48.189Z</time>
      </trkpt>
      <trkpt lat="48.51374" lon="-3.43327">
        <ele>179</ele>
        <time>2022-04-06T14:08:52.202Z</time>
      </trkpt>
      <trkpt lat="48.51379" lon="-3.43333">
        <ele>180</ele>
        <time>2022-04-06T14:08:57.179Z</time>
      </trkpt>
      <trkpt lat="48.51383" lon="-3.43339">
        <ele>180</ele>
        <time>2022-04-06T14:09:01.211Z</time>
      </trkpt>
      <trkpt lat="48.51388" lon="-3.43346">
        <ele>180</ele>
        <time>2022-04-06T14:09:06.210Z</time>
      </trkpt>
      <trkpt lat="48.51394" lon="-3.43353">
        <ele>180</ele>
        <time>2022-04-06T14:09:11.189Z</time>
      </trkpt>
      <trkpt lat="48.514" lon="-3.43362">
        <ele>180</ele>
        <time>2022-04-06T14:09:16.184Z</time>
      </trkpt>
      <trkpt lat="48.51407" lon="-3.43369">
        <ele>181</ele>
        <time>2022-04-06T14:09:21.199Z</time>
      </trkpt>
      <trkpt lat="48.51412" lon="-3.43376">
        <ele>181</ele>
        <time>2022-04-06T14:09:26.186Z</time>
      </trkpt>
      <trkpt lat="48.51416" lon="-3.43382">
        <ele>181</ele>
        <time>2022-04-06T14:09:30.189Z</time>
      </trkpt>
      <trkpt lat="48.5142" lon="-3.43388">
        <ele>181</ele>
        <time>2022-04-06T14:09:34.202Z</time>
      </trkpt>
      <trkpt lat="48.51426" lon="-3.43394">
        <ele>181</ele>
        <time>2022-04-06T14:09:39.197Z</time>
      </trkpt>
      <trkpt lat="48.51432" lon="-3.43399">
        <ele>181</ele>
        <time>2022-04-06T14:09:44.195Z</time>
      </trkpt>
      <trkpt lat="48.51436" lon="-3.43402">
        <ele>181</ele>
        <time>2022-04-06T14:09:48.204Z</time>
      </trkpt>
      <trkpt lat="48.51441" lon="-3.43398">
        <ele>181</ele>
        <time>2022-04-06T14:09:53.182Z</time>
      </trkpt>
      <trkpt lat="48.51443" lon="-3.43417">
        <ele>182</ele>
        <time>2022-04-06T14:09:57.186Z</time>
      </trkpt>
      <trkpt lat="48.51443" lon="-3.43417">
        <ele>182</ele>
        <time>2022-04-06T14:10:02.181Z</time>
      </trkpt>
      <trkpt lat="48.51443" lon="-3.43418">
        <ele>182</ele>
        <time>2022-04-06T14:10:06.196Z</time>
      </trkpt>
      <trkpt lat="48.51444" lon="-3.43417">
        <ele>182</ele>
        <time>2022-04-06T14:15:15.187Z</time>
      </trkpt>
      <trkpt lat="48.51445" lon="-3.43422">
        <ele>182</ele>
        <time>2022-04-06T14:15:20.189Z</time>
      </trkpt>
      <trkpt lat="48.51445" lon="-3.43428">
        <ele>182</ele>
        <time>2022-04-06T14:15:25.176Z</time>
      </trkpt>
      <trkpt lat="48.51442" lon="-3.4343">
        <ele>182</ele>
        <time>2022-04-06T14:15:29.184Z</time>
      </trkpt>
      <trkpt lat="48.51439" lon="-3.43437">
        <ele>183</ele>
        <time>2022-04-06T14:15:34.193Z</time>
      </trkpt>
      <trkpt lat="48.51438" lon="-3.43441">
        <ele>183</ele>
        <time>2022-04-06T14:15:38.191Z</time>
      </trkpt>
      <trkpt lat="48.51435" lon="-3.43447">
        <ele>183</ele>
        <time>2022-04-06T14:15:43.194Z</time>
      </trkpt>
      <trkpt lat="48.51432" lon="-3.43452">
        <ele>183</ele>
        <time>2022-04-06T14:15:47.202Z</time>
      </trkpt>
      <trkpt lat="48.51429" lon="-3.4346">
        <ele>184</ele>
        <time>2022-04-06T14:15:52.193Z</time>
      </trkpt>
      <trkpt lat="48.51428" lon="-3.43467">
        <ele>184</ele>
        <time>2022-04-06T14:15:57.198Z</time>
      </trkpt>
      <trkpt lat="48.51426" lon="-3.43474">
        <ele>184</ele>
        <time>2022-04-06T14:16:02.182Z</time>
      </trkpt>
      <trkpt lat="48.51422" lon="-3.43483">
        <ele>184</ele>
        <time>2022-04-06T14:16:07.188Z</time>
      </trkpt>
      <trkpt lat="48.5142" lon="-3.43488">
        <ele>185</ele>
        <time>2022-04-06T14:16:12.198Z</time>
      </trkpt>
      <trkpt lat="48.51417" lon="-3.43493">
        <ele>185</ele>
        <time>2022-04-06T14:16:16.193Z</time>
      </trkpt>
      <trkpt lat="48.51417" lon="-3.43499">
        <ele>185</ele>
        <time>2022-04-06T14:16:21.193Z</time>
      </trkpt>
      <trkpt lat="48.51417" lon="-3.43502">
        <ele>185</ele>
        <time>2022-04-06T14:16:25.194Z</time>
      </trkpt>
      <trkpt lat="48.51417" lon="-3.4351">
        <ele>185</ele>
        <time>2022-04-06T14:16:30.202Z</time>
      </trkpt>
      <trkpt lat="48.51417" lon="-3.43515">
        <ele>185</ele>
        <time>2022-04-06T14:16:35.198Z</time>
      </trkpt>
      <trkpt lat="48.51416" lon="-3.43518">
        <ele>185</ele>
        <time>2022-04-06T14:16:39.209Z</time>
      </trkpt>
      <trkpt lat="48.51416" lon="-3.43522">
        <ele>185</ele>
        <time>2022-04-06T14:16:44.188Z</time>
      </trkpt>
      <trkpt lat="48.51414" lon="-3.43529">
        <ele>185</ele>
        <time>2022-04-06T14:16:49.192Z</time>
      </trkpt>
      <trkpt lat="48.51414" lon="-3.43534">
        <ele>185</ele>
        <time>2022-04-06T14:16:54.196Z</time>
      </trkpt>
      <trkpt lat="48.51415" lon="-3.43537">
        <ele>185</ele>
        <time>2022-04-06T14:16:59.212Z</time>
      </trkpt>
      <trkpt lat="48.51415" lon="-3.43546">
        <ele>185</ele>
        <time>2022-04-06T14:17:04.191Z</time>
      </trkpt>
      <trkpt lat="48.51416" lon="-3.43551">
        <ele>185</ele>
        <time>2022-04-06T14:17:08.197Z</time>
      </trkpt>
      <trkpt lat="48.51416" lon="-3.43561">
        <ele>185</ele>
        <time>2022-04-06T14:17:13.177Z</time>
      </trkpt>
      <trkpt lat="48.51416" lon="-3.43568">
        <ele>185</ele>
        <time>2022-04-06T14:17:17.185Z</time>
      </trkpt>
      <trkpt lat="48.51418" lon="-3.43574">
        <ele>186</ele>
        <time>2022-04-06T14:17:22.193Z</time>
      </trkpt>
      <trkpt lat="48.51419" lon="-3.43583">
        <ele>186</ele>
        <time>2022-04-06T14:17:27.189Z</time>
      </trkpt>
      <trkpt lat="48.51417" lon="-3.43589">
        <ele>186</ele>
        <time>2022-04-06T14:17:31.200Z</time>
      </trkpt>
      <trkpt lat="48.51415" lon="-3.43598">
        <ele>186</ele>
        <time>2022-04-06T14:17:36.188Z</time>
      </trkpt>
      <trkpt lat="48.51417" lon="-3.43604">
        <ele>186</ele>
        <time>2022-04-06T14:17:40.203Z</time>
      </trkpt>
      <trkpt lat="48.51418" lon="-3.43614">
        <ele>186</ele>
        <time>2022-04-06T14:17:45.188Z</time>
      </trkpt>
      <trkpt lat="48.51417" lon="-3.43621">
        <ele>186</ele>
        <time>2022-04-06T14:17:49.191Z</time>
      </trkpt>
      <trkpt lat="48.51418" lon="-3.43629">
        <ele>185</ele>
        <time>2022-04-06T14:17:54.182Z</time>
      </trkpt>
      <trkpt lat="48.51418" lon="-3.43638">
        <ele>185</ele>
        <time>2022-04-06T14:17:59.209Z</time>
      </trkpt>
      <trkpt lat="48.51418" lon="-3.43646">
        <ele>185</ele>
        <time>2022-04-06T14:18:04.194Z</time>
      </trkpt>
      <trkpt lat="48.51416" lon="-3.4366">
        <ele>184</ele>
        <time>2022-04-06T14:18:09.189Z</time>
      </trkpt>
      <trkpt lat="48.51416" lon="-3.43666">
        <ele>184</ele>
        <time>2022-04-06T14:18:14.184Z</time>
      </trkpt>
      <trkpt lat="48.51417" lon="-3.43672">
        <ele>184</ele>
        <time>2022-04-06T14:18:18.193Z</time>
      </trkpt>
      <trkpt lat="48.5142" lon="-3.4368">
        <ele>184</ele>
        <time>2022-04-06T14:18:23.178Z</time>
      </trkpt>
      <trkpt lat="48.5142" lon="-3.43688">
        <ele>183</ele>
        <time>2022-04-06T14:18:27.181Z</time>
      </trkpt>
      <trkpt lat="48.51422" lon="-3.43696">
        <ele>183</ele>
        <time>2022-04-06T14:18:32.199Z</time>
      </trkpt>
      <trkpt lat="48.51423" lon="-3.43704">
        <ele>183</ele>
        <time>2022-04-06T14:18:37.190Z</time>
      </trkpt>
      <trkpt lat="48.51424" lon="-3.43711">
        <ele>182</ele>
        <time>2022-04-06T14:18:41.200Z</time>
      </trkpt>
      <trkpt lat="48.51425" lon="-3.4372">
        <ele>182</ele>
        <time>2022-04-06T14:18:46.188Z</time>
      </trkpt>
      <trkpt lat="48.51426" lon="-3.43727">
        <ele>182</ele>
        <time>2022-04-06T14:18:50.201Z</time>
      </trkpt>
      <trkpt lat="48.51428" lon="-3.43734">
        <ele>182</ele>
        <time>2022-04-06T14:18:54.200Z</time>
      </trkpt>
      <trkpt lat="48.51428" lon="-3.43746">
        <ele>183</ele>
        <time>2022-04-06T14:18:59.191Z</time>
      </trkpt>
      <trkpt lat="48.51429" lon="-3.43754">
        <ele>183</ele>
        <time>2022-04-06T14:19:03.196Z</time>
      </trkpt>
      <trkpt lat="48.51432" lon="-3.43761">
        <ele>182</ele>
        <time>2022-04-06T14:19:08.181Z</time>
      </trkpt>
      <trkpt lat="48.51433" lon="-3.43768">
        <ele>182</ele>
        <time>2022-04-06T14:19:12.181Z</time>
      </trkpt>
      <trkpt lat="48.51434" lon="-3.43776">
        <ele>182</ele>
        <time>2022-04-06T14:19:16.193Z</time>
      </trkpt>
      <trkpt lat="48.51435" lon="-3.43787">
        <ele>182</ele>
        <time>2022-04-06T14:19:21.199Z</time>
      </trkpt>
      <trkpt lat="48.51436" lon="-3.43797">
        <ele>182</ele>
        <time>2022-04-06T14:19:26.199Z</time>
      </trkpt>
      <trkpt lat="48.51439" lon="-3.43804">
        <ele>182</ele>
        <time>2022-04-06T14:19:31.187Z</time>
      </trkpt>
      <trkpt lat="48.51438" lon="-3.4381">
        <ele>182</ele>
        <time>2022-04-06T14:19:36.190Z</time>
      </trkpt>
      <trkpt lat="48.5144" lon="-3.43817">
        <ele>182</ele>
        <time>2022-04-06T14:19:40.198Z</time>
      </trkpt>
      <trkpt lat="48.5144" lon="-3.43825">
        <ele>181</ele>
        <time>2022-04-06T14:19:45.197Z</time>
      </trkpt>
      <trkpt lat="48.51441" lon="-3.43831">
        <ele>181</ele>
        <time>2022-04-06T14:19:49.200Z</time>
      </trkpt>
      <trkpt lat="48.51443" lon="-3.4384">
        <ele>181</ele>
        <time>2022-04-06T14:19:54.192Z</time>
      </trkpt>
      <trkpt lat="48.51439" lon="-3.43848">
        <ele>179</ele>
        <time>2022-04-06T14:19:59.193Z</time>
      </trkpt>
      <trkpt lat="48.5144" lon="-3.43855">
        <ele>179</ele>
        <time>2022-04-06T14:20:04.189Z</time>
      </trkpt>
      <trkpt lat="48.51442" lon="-3.43861">
        <ele>179</ele>
        <time>2022-04-06T14:20:08.204Z</time>
      </trkpt>
      <trkpt lat="48.51444" lon="-3.43869">
        <ele>179</ele>
        <time>2022-04-06T14:20:13.182Z</time>
      </trkpt>
      <trkpt lat="48.51447" lon="-3.43873">
        <ele>179</ele>
        <time>2022-04-06T14:20:17.184Z</time>
      </trkpt>
      <trkpt lat="48.5145" lon="-3.43878">
        <ele>179</ele>
        <time>2022-04-06T14:20:22.189Z</time>
      </trkpt>
      <trkpt lat="48.51452" lon="-3.43882">
        <ele>179</ele>
        <time>2022-04-06T14:20:26.197Z</time>
      </trkpt>
      <trkpt lat="48.51452" lon="-3.43888">
        <ele>179</ele>
        <time>2022-04-06T14:20:31.202Z</time>
      </trkpt>
      <trkpt lat="48.51453" lon="-3.43896">
        <ele>179</ele>
        <time>2022-04-06T14:20:36.183Z</time>
      </trkpt>
      <trkpt lat="48.51456" lon="-3.43901">
        <ele>179</ele>
        <time>2022-04-06T14:20:40.191Z</time>
      </trkpt>
      <trkpt lat="48.51458" lon="-3.43907">
        <ele>179</ele>
        <time>2022-04-06T14:20:44.195Z</time>
      </trkpt>
      <trkpt lat="48.51461" lon="-3.43912">
        <ele>178</ele>
        <time>2022-04-06T14:20:49.199Z</time>
      </trkpt>
      <trkpt lat="48.51468" lon="-3.43916">
        <ele>178</ele>
        <time>2022-04-06T14:20:54.185Z</time>
      </trkpt>
      <trkpt lat="48.51472" lon="-3.43922">
        <ele>178</ele>
        <time>2022-04-06T14:20:58.185Z</time>
      </trkpt>
      <trkpt lat="48.51477" lon="-3.43927">
        <ele>178</ele>
        <time>2022-04-06T14:21:03.197Z</time>
      </trkpt>
      <trkpt lat="48.5148" lon="-3.43936">
        <ele>177</ele>
        <time>2022-04-06T14:21:08.195Z</time>
      </trkpt>
      <trkpt lat="48.5148" lon="-3.43945">
        <ele>177</ele>
        <time>2022-04-06T14:21:13.191Z</time>
      </trkpt>
      <trkpt lat="48.5148" lon="-3.43955">
        <ele>177</ele>
        <time>2022-04-06T14:21:18.194Z</time>
      </trkpt>
      <trkpt lat="48.5148" lon="-3.43965">
        <ele>176</ele>
        <time>2022-04-06T14:21:23.199Z</time>
      </trkpt>
      <trkpt lat="48.5148" lon="-3.43972">
        <ele>176</ele>
        <time>2022-04-06T14:21:28.187Z</time>
      </trkpt>
      <trkpt lat="48.51479" lon="-3.43987">
        <ele>176</ele>
        <time>2022-04-06T14:21:37.194Z</time>
      </trkpt>
      <trkpt lat="48.51479" lon="-3.4399">
        <ele>176</ele>
        <time>2022-04-06T14:21:41.202Z</time>
      </trkpt>
      <trkpt lat="48.51483" lon="-3.43991">
        <ele>176</ele>
        <time>2022-04-06T14:21:46.194Z</time>
      </trkpt>
      <trkpt lat="48.51482" lon="-3.43993">
        <ele>176</ele>
        <time>2022-04-06T14:21:50.213Z</time>
      </trkpt>
      <trkpt lat="48.5148" lon="-3.43998">
        <ele>176</ele>
        <time>2022-04-06T14:21:55.208Z</time>
      </trkpt>
      <trkpt lat="48.51475" lon="-3.44004">
        <ele>176</ele>
        <time>2022-04-06T14:22:00.191Z</time>
      </trkpt>
      <trkpt lat="48.51471" lon="-3.44005">
        <ele>176</ele>
        <time>2022-04-06T14:22:04.193Z</time>
      </trkpt>
      <trkpt lat="48.51468" lon="-3.44006">
        <ele>176</ele>
        <time>2022-04-06T14:22:08.199Z</time>
      </trkpt>
      <trkpt lat="48.51464" lon="-3.44008">
        <ele>176</ele>
        <time>2022-04-06T14:22:13.201Z</time>
      </trkpt>
      <trkpt lat="48.5146" lon="-3.4401">
        <ele>176</ele>
        <time>2022-04-06T14:22:18.193Z</time>
      </trkpt>
      <trkpt lat="48.51456" lon="-3.44012">
        <ele>177</ele>
        <time>2022-04-06T14:22:23.196Z</time>
      </trkpt>
      <trkpt lat="48.51451" lon="-3.44013">
        <ele>177</ele>
        <time>2022-04-06T14:22:28.187Z</time>
      </trkpt>
      <trkpt lat="48.51447" lon="-3.44016">
        <ele>176</ele>
        <time>2022-04-06T14:22:33.190Z</time>
      </trkpt>
      <trkpt lat="48.51438" lon="-3.44025">
        <ele>176</ele>
        <time>2022-04-06T14:22:52.197Z</time>
      </trkpt>
      <trkpt lat="48.51432" lon="-3.44023">
        <ele>176</ele>
        <time>2022-04-06T14:22:57.189Z</time>
      </trkpt>
      <trkpt lat="48.51429" lon="-3.44026">
        <ele>178</ele>
        <time>2022-04-06T14:23:02.196Z</time>
      </trkpt>
      <trkpt lat="48.51427" lon="-3.44029">
        <ele>178</ele>
        <time>2022-04-06T14:23:06.195Z</time>
      </trkpt>
      <trkpt lat="48.51423" lon="-3.44033">
        <ele>178</ele>
        <time>2022-04-06T14:23:11.198Z</time>
      </trkpt>
      <trkpt lat="48.51419" lon="-3.44037">
        <ele>178</ele>
        <time>2022-04-06T14:23:16.200Z</time>
      </trkpt>
      <trkpt lat="48.51414" lon="-3.44041">
        <ele>178</ele>
        <time>2022-04-06T14:23:21.200Z</time>
      </trkpt>
      <trkpt lat="48.5141" lon="-3.44046">
        <ele>177</ele>
        <time>2022-04-06T14:23:26.199Z</time>
      </trkpt>
      <trkpt lat="48.51407" lon="-3.44048">
        <ele>177</ele>
        <time>2022-04-06T14:23:30.204Z</time>
      </trkpt>
      <trkpt lat="48.51402" lon="-3.44053">
        <ele>181</ele>
        <time>2022-04-06T14:23:35.199Z</time>
      </trkpt>
      <trkpt lat="48.51399" lon="-3.44056">
        <ele>181</ele>
        <time>2022-04-06T14:23:39.204Z</time>
      </trkpt>
      <trkpt lat="48.51395" lon="-3.44058">
        <ele>181</ele>
        <time>2022-04-06T14:23:44.207Z</time>
      </trkpt>
      <trkpt lat="48.51391" lon="-3.4406">
        <ele>181</ele>
        <time>2022-04-06T14:23:49.199Z</time>
      </trkpt>
      <trkpt lat="48.51387" lon="-3.44062">
        <ele>181</ele>
        <time>2022-04-06T14:23:54.205Z</time>
      </trkpt>
      <trkpt lat="48.51386" lon="-3.44065">
        <ele>181</ele>
        <time>2022-04-06T14:23:59.200Z</time>
      </trkpt>
      <trkpt lat="48.51382" lon="-3.44071">
        <ele>181</ele>
        <time>2022-04-06T14:24:04.196Z</time>
      </trkpt>
      <trkpt lat="48.51379" lon="-3.44075">
        <ele>181</ele>
        <time>2022-04-06T14:24:08.207Z</time>
      </trkpt>
      <trkpt lat="48.51378" lon="-3.4408">
        <ele>181</ele>
        <time>2022-04-06T14:24:12.210Z</time>
      </trkpt>
      <trkpt lat="48.51376" lon="-3.44087">
        <ele>181</ele>
        <time>2022-04-06T14:24:17.197Z</time>
      </trkpt>
      <trkpt lat="48.51375" lon="-3.4409">
        <ele>184</ele>
        <time>2022-04-06T14:24:21.202Z</time>
      </trkpt>
      <trkpt lat="48.51368" lon="-3.44097">
        <ele>183</ele>
        <time>2022-04-06T14:24:26.193Z</time>
      </trkpt>
      <trkpt lat="48.51365" lon="-3.44105">
        <ele>183</ele>
        <time>2022-04-06T14:24:31.191Z</time>
      </trkpt>
      <trkpt lat="48.51362" lon="-3.44113">
        <ele>183</ele>
        <time>2022-04-06T14:24:36.186Z</time>
      </trkpt>
      <trkpt lat="48.5136" lon="-3.4412">
        <ele>183</ele>
        <time>2022-04-06T14:24:40.198Z</time>
      </trkpt>
      <trkpt lat="48.51357" lon="-3.44126">
        <ele>183</ele>
        <time>2022-04-06T14:24:44.201Z</time>
      </trkpt>
      <trkpt lat="48.51353" lon="-3.44135">
        <ele>183</ele>
        <time>2022-04-06T14:24:49.190Z</time>
      </trkpt>
      <trkpt lat="48.5135" lon="-3.44141">
        <ele>183</ele>
        <time>2022-04-06T14:24:53.195Z</time>
      </trkpt>
      <trkpt lat="48.51345" lon="-3.44148">
        <ele>184</ele>
        <time>2022-04-06T14:24:58.190Z</time>
      </trkpt>
      <trkpt lat="48.51341" lon="-3.44156">
        <ele>185</ele>
        <time>2022-04-06T14:25:03.192Z</time>
      </trkpt>
      <trkpt lat="48.51338" lon="-3.44161">
        <ele>185</ele>
        <time>2022-04-06T14:25:07.189Z</time>
      </trkpt>
      <trkpt lat="48.51335" lon="-3.44167">
        <ele>185</ele>
        <time>2022-04-06T14:25:11.194Z</time>
      </trkpt>
      <trkpt lat="48.51333" lon="-3.44175">
        <ele>185</ele>
        <time>2022-04-06T14:25:16.211Z</time>
      </trkpt>
      <trkpt lat="48.51329" lon="-3.44182">
        <ele>185</ele>
        <time>2022-04-06T14:25:21.200Z</time>
      </trkpt>
      <trkpt lat="48.51326" lon="-3.44191">
        <ele>185</ele>
        <time>2022-04-06T14:25:26.191Z</time>
      </trkpt>
      <trkpt lat="48.51323" lon="-3.44199">
        <ele>185</ele>
        <time>2022-04-06T14:25:31.194Z</time>
      </trkpt>
      <trkpt lat="48.5132" lon="-3.44207">
        <ele>185</ele>
        <time>2022-04-06T14:25:36.191Z</time>
      </trkpt>
      <trkpt lat="48.51317" lon="-3.44213">
        <ele>186</ele>
        <time>2022-04-06T14:25:40.207Z</time>
      </trkpt>
      <trkpt lat="48.51315" lon="-3.44221">
        <ele>186</ele>
        <time>2022-04-06T14:25:45.205Z</time>
      </trkpt>
      <trkpt lat="48.51312" lon="-3.44229">
        <ele>186</ele>
        <time>2022-04-06T14:25:50.194Z</time>
      </trkpt>
      <trkpt lat="48.5131" lon="-3.44237">
        <ele>187</ele>
        <time>2022-04-06T14:25:55.188Z</time>
      </trkpt>
      <trkpt lat="48.51308" lon="-3.44243">
        <ele>187</ele>
        <time>2022-04-06T14:25:59.191Z</time>
      </trkpt>
      <trkpt lat="48.51306" lon="-3.4425">
        <ele>187</ele>
        <time>2022-04-06T14:26:03.199Z</time>
      </trkpt>
      <trkpt lat="48.51303" lon="-3.44258">
        <ele>187</ele>
        <time>2022-04-06T14:26:08.188Z</time>
      </trkpt>
      <trkpt lat="48.51301" lon="-3.44265">
        <ele>187</ele>
        <time>2022-04-06T14:26:13.193Z</time>
      </trkpt>
      <trkpt lat="48.51298" lon="-3.44272">
        <ele>187</ele>
        <time>2022-04-06T14:26:18.196Z</time>
      </trkpt>
      <trkpt lat="48.51295" lon="-3.4428">
        <ele>187</ele>
        <time>2022-04-06T14:26:23.192Z</time>
      </trkpt>
      <trkpt lat="48.51293" lon="-3.44286">
        <ele>187</ele>
        <time>2022-04-06T14:26:27.188Z</time>
      </trkpt>
      <trkpt lat="48.51289" lon="-3.44292">
        <ele>188</ele>
        <time>2022-04-06T14:26:32.200Z</time>
      </trkpt>
      <trkpt lat="48.51285" lon="-3.44298">
        <ele>188</ele>
        <time>2022-04-06T14:26:37.177Z</time>
      </trkpt>
      <trkpt lat="48.51281" lon="-3.44302">
        <ele>188</ele>
        <time>2022-04-06T14:26:41.186Z</time>
      </trkpt>
      <trkpt lat="48.51278" lon="-3.44307">
        <ele>188</ele>
        <time>2022-04-06T14:26:45.192Z</time>
      </trkpt>
      <trkpt lat="48.51272" lon="-3.44312">
        <ele>188</ele>
        <time>2022-04-06T14:26:50.183Z</time>
      </trkpt>
      <trkpt lat="48.51269" lon="-3.44315">
        <ele>188</ele>
        <time>2022-04-06T14:26:54.191Z</time>
      </trkpt>
      <trkpt lat="48.51263" lon="-3.44316">
        <ele>188</ele>
        <time>2022-04-06T14:26:59.190Z</time>
      </trkpt>
      <trkpt lat="48.51258" lon="-3.44316">
        <ele>188</ele>
        <time>2022-04-06T14:27:04.185Z</time>
      </trkpt>
      <trkpt lat="48.51254" lon="-3.44313">
        <ele>188</ele>
        <time>2022-04-06T14:27:08.208Z</time>
      </trkpt>
      <trkpt lat="48.51249" lon="-3.44308">
        <ele>188</ele>
        <time>2022-04-06T14:27:13.184Z</time>
      </trkpt>
      <trkpt lat="48.51246" lon="-3.44303">
        <ele>188</ele>
        <time>2022-04-06T14:27:17.189Z</time>
      </trkpt>
      <trkpt lat="48.51242" lon="-3.44298">
        <ele>188</ele>
        <time>2022-04-06T14:27:21.190Z</time>
      </trkpt>
      <trkpt lat="48.51238" lon="-3.44293">
        <ele>188</ele>
        <time>2022-04-06T14:27:25.193Z</time>
      </trkpt>
      <trkpt lat="48.51233" lon="-3.44287">
        <ele>187</ele>
        <time>2022-04-06T14:27:30.192Z</time>
      </trkpt>
      <trkpt lat="48.51227" lon="-3.44285">
        <ele>187</ele>
        <time>2022-04-06T14:27:34.205Z</time>
      </trkpt>
      <trkpt lat="48.51221" lon="-3.44283">
        <ele>187</ele>
        <time>2022-04-06T14:27:39.192Z</time>
      </trkpt>
      <trkpt lat="48.51216" lon="-3.44281">
        <ele>187</ele>
        <time>2022-04-06T14:27:43.207Z</time>
      </trkpt>
      <trkpt lat="48.5121" lon="-3.4428">
        <ele>187</ele>
        <time>2022-04-06T14:27:48.187Z</time>
      </trkpt>
      <trkpt lat="48.51206" lon="-3.44279">
        <ele>187</ele>
        <time>2022-04-06T14:27:52.200Z</time>
      </trkpt>
      <trkpt lat="48.51201" lon="-3.44278">
        <ele>187</ele>
        <time>2022-04-06T14:27:56.205Z</time>
      </trkpt>
      <trkpt lat="48.51194" lon="-3.44276">
        <ele>187</ele>
        <time>2022-04-06T14:28:01.200Z</time>
      </trkpt>
      <trkpt lat="48.51188" lon="-3.44272">
        <ele>187</ele>
        <time>2022-04-06T14:28:06.197Z</time>
      </trkpt>
      <trkpt lat="48.51182" lon="-3.44268">
        <ele>187</ele>
        <time>2022-04-06T14:28:11.198Z</time>
      </trkpt>
      <trkpt lat="48.51176" lon="-3.44265">
        <ele>187</ele>
        <time>2022-04-06T14:28:16.200Z</time>
      </trkpt>
      <trkpt lat="48.51169" lon="-3.44263">
        <ele>186</ele>
        <time>2022-04-06T14:28:21.202Z</time>
      </trkpt>
      <trkpt lat="48.51163" lon="-3.44262">
        <ele>186</ele>
        <time>2022-04-06T14:28:26.198Z</time>
      </trkpt>
      <trkpt lat="48.51157" lon="-3.44262">
        <ele>186</ele>
        <time>2022-04-06T14:28:31.201Z</time>
      </trkpt>
      <trkpt lat="48.51151" lon="-3.44262">
        <ele>186</ele>
        <time>2022-04-06T14:28:36.194Z</time>
      </trkpt>
      <trkpt lat="48.51145" lon="-3.44261">
        <ele>186</ele>
        <time>2022-04-06T14:28:41.187Z</time>
      </trkpt>
      <trkpt lat="48.51141" lon="-3.44261">
        <ele>186</ele>
        <time>2022-04-06T14:28:45.194Z</time>
      </trkpt>
      <trkpt lat="48.51136" lon="-3.4426">
        <ele>186</ele>
        <time>2022-04-06T14:28:49.201Z</time>
      </trkpt>
      <trkpt lat="48.5113" lon="-3.44259">
        <ele>186</ele>
        <time>2022-04-06T14:28:53.204Z</time>
      </trkpt>
      <trkpt lat="48.51124" lon="-3.44255">
        <ele>184</ele>
        <time>2022-04-06T14:28:58.201Z</time>
      </trkpt>
      <trkpt lat="48.51118" lon="-3.44254">
        <ele>184</ele>
        <time>2022-04-06T14:29:03.212Z</time>
      </trkpt>
      <trkpt lat="48.51112" lon="-3.44253">
        <ele>184</ele>
        <time>2022-04-06T14:29:08.207Z</time>
      </trkpt>
      <trkpt lat="48.51105" lon="-3.44253">
        <ele>184</ele>
        <time>2022-04-06T14:29:13.184Z</time>
      </trkpt>
      <trkpt lat="48.51099" lon="-3.44249">
        <ele>184</ele>
        <time>2022-04-06T14:29:18.202Z</time>
      </trkpt>
      <trkpt lat="48.51092" lon="-3.44248">
        <ele>182</ele>
        <time>2022-04-06T14:29:23.202Z</time>
      </trkpt>
      <trkpt lat="48.51086" lon="-3.44247">
        <ele>182</ele>
        <time>2022-04-06T14:29:28.188Z</time>
      </trkpt>
      <trkpt lat="48.51081" lon="-3.44246">
        <ele>182</ele>
        <time>2022-04-06T14:29:32.185Z</time>
      </trkpt>
      <trkpt lat="48.51075" lon="-3.44244">
        <ele>182</ele>
        <time>2022-04-06T14:29:37.182Z</time>
      </trkpt>
      <trkpt lat="48.51069" lon="-3.44244">
        <ele>181</ele>
        <time>2022-04-06T14:29:41.200Z</time>
      </trkpt>
      <trkpt lat="48.51063" lon="-3.44243">
        <ele>181</ele>
        <time>2022-04-06T14:29:46.200Z</time>
      </trkpt>
      <trkpt lat="48.51056" lon="-3.44242">
        <ele>181</ele>
        <time>2022-04-06T14:29:51.182Z</time>
      </trkpt>
      <trkpt lat="48.5105" lon="-3.44241">
        <ele>181</ele>
        <time>2022-04-06T14:29:56.186Z</time>
      </trkpt>
      <trkpt lat="48.51045" lon="-3.4424">
        <ele>181</ele>
        <time>2022-04-06T14:30:00.195Z</time>
      </trkpt>
      <trkpt lat="48.51039" lon="-3.4424">
        <ele>180</ele>
        <time>2022-04-06T14:30:05.193Z</time>
      </trkpt>
      <trkpt lat="48.51034" lon="-3.44238">
        <ele>180</ele>
        <time>2022-04-06T14:30:09.193Z</time>
      </trkpt>
      <trkpt lat="48.51027" lon="-3.44239">
        <ele>180</ele>
        <time>2022-04-06T14:30:14.190Z</time>
      </trkpt>
      <trkpt lat="48.51021" lon="-3.44238">
        <ele>180</ele>
        <time>2022-04-06T14:30:19.198Z</time>
      </trkpt>
      <trkpt lat="48.51014" lon="-3.44238">
        <ele>180</ele>
        <time>2022-04-06T14:30:24.191Z</time>
      </trkpt>
      <trkpt lat="48.51007" lon="-3.44235">
        <ele>178</ele>
        <time>2022-04-06T14:30:29.184Z</time>
      </trkpt>
      <trkpt lat="48.51002" lon="-3.44235">
        <ele>178</ele>
        <time>2022-04-06T14:30:33.192Z</time>
      </trkpt>
      <trkpt lat="48.50995" lon="-3.44236">
        <ele>179</ele>
        <time>2022-04-06T14:30:38.183Z</time>
      </trkpt>
      <trkpt lat="48.50988" lon="-3.44236">
        <ele>178</ele>
        <time>2022-04-06T14:30:43.192Z</time>
      </trkpt>
      <trkpt lat="48.50983" lon="-3.44236">
        <ele>179</ele>
        <time>2022-04-06T14:30:47.201Z</time>
      </trkpt>
      <trkpt lat="48.50976" lon="-3.44238">
        <ele>179</ele>
        <time>2022-04-06T14:30:52.195Z</time>
      </trkpt>
      <trkpt lat="48.5097" lon="-3.44241">
        <ele>179</ele>
        <time>2022-04-06T14:30:57.183Z</time>
      </trkpt>
      <trkpt lat="48.50966" lon="-3.44244">
        <ele>179</ele>
        <time>2022-04-06T14:31:01.201Z</time>
      </trkpt>
      <trkpt lat="48.5096" lon="-3.44251">
        <ele>179</ele>
        <time>2022-04-06T14:31:06.206Z</time>
      </trkpt>
      <trkpt lat="48.50955" lon="-3.44258">
        <ele>177</ele>
        <time>2022-04-06T14:31:11.185Z</time>
      </trkpt>
      <trkpt lat="48.50951" lon="-3.44266">
        <ele>177</ele>
        <time>2022-04-06T14:31:16.206Z</time>
      </trkpt>
      <trkpt lat="48.50949" lon="-3.44273">
        <ele>177</ele>
        <time>2022-04-06T14:31:20.211Z</time>
      </trkpt>
      <trkpt lat="48.50946" lon="-3.44281">
        <ele>177</ele>
        <time>2022-04-06T14:31:25.198Z</time>
      </trkpt>
      <trkpt lat="48.50942" lon="-3.44288">
        <ele>177</ele>
        <time>2022-04-06T14:31:30.197Z</time>
      </trkpt>
      <trkpt lat="48.50937" lon="-3.44295">
        <ele>176</ele>
        <time>2022-04-06T14:31:35.186Z</time>
      </trkpt>
      <trkpt lat="48.50933" lon="-3.44301">
        <ele>176</ele>
        <time>2022-04-06T14:31:39.187Z</time>
      </trkpt>
      <trkpt lat="48.50928" lon="-3.44309">
        <ele>175</ele>
        <time>2022-04-06T14:31:44.196Z</time>
      </trkpt>
      <trkpt lat="48.50924" lon="-3.44316">
        <ele>175</ele>
        <time>2022-04-06T14:31:49.187Z</time>
      </trkpt>
      <trkpt lat="48.5092" lon="-3.44322">
        <ele>176</ele>
        <time>2022-04-06T14:31:53.210Z</time>
      </trkpt>
      <trkpt lat="48.50916" lon="-3.44329">
        <ele>176</ele>
        <time>2022-04-06T14:31:58.184Z</time>
      </trkpt>
      <trkpt lat="48.50912" lon="-3.44334">
        <ele>176</ele>
        <time>2022-04-06T14:32:02.193Z</time>
      </trkpt>
      <trkpt lat="48.50908" lon="-3.44341">
        <ele>176</ele>
        <time>2022-04-06T14:32:07.197Z</time>
      </trkpt>
      <trkpt lat="48.50905" lon="-3.44347">
        <ele>176</ele>
        <time>2022-04-06T14:32:11.203Z</time>
      </trkpt>
      <trkpt lat="48.50901" lon="-3.44355">
        <ele>177</ele>
        <time>2022-04-06T14:32:16.201Z</time>
      </trkpt>
      <trkpt lat="48.50897" lon="-3.44363">
        <ele>177</ele>
        <time>2022-04-06T14:32:21.190Z</time>
      </trkpt>
      <trkpt lat="48.50894" lon="-3.44371">
        <ele>177</ele>
        <time>2022-04-06T14:32:26.201Z</time>
      </trkpt>
      <trkpt lat="48.50891" lon="-3.4438">
        <ele>178</ele>
        <time>2022-04-06T14:32:31.201Z</time>
      </trkpt>
      <trkpt lat="48.50888" lon="-3.44388">
        <ele>178</ele>
        <time>2022-04-06T14:32:36.187Z</time>
      </trkpt>
      <trkpt lat="48.50884" lon="-3.44397">
        <ele>178</ele>
        <time>2022-04-06T14:32:41.201Z</time>
      </trkpt>
      <trkpt lat="48.50882" lon="-3.44403">
        <ele>177</ele>
        <time>2022-04-06T14:32:45.193Z</time>
      </trkpt>
      <trkpt lat="48.50879" lon="-3.44412">
        <ele>177</ele>
        <time>2022-04-06T14:32:50.187Z</time>
      </trkpt>
      <trkpt lat="48.50876" lon="-3.44421">
        <ele>177</ele>
        <time>2022-04-06T14:32:55.192Z</time>
      </trkpt>
      <trkpt lat="48.50872" lon="-3.44429">
        <ele>173</ele>
        <time>2022-04-06T14:33:00.186Z</time>
      </trkpt>
      <trkpt lat="48.5087" lon="-3.44435">
        <ele>173</ele>
        <time>2022-04-06T14:33:04.196Z</time>
      </trkpt>
      <trkpt lat="48.50867" lon="-3.44443">
        <ele>173</ele>
        <time>2022-04-06T14:33:08.201Z</time>
      </trkpt>
      <trkpt lat="48.50864" lon="-3.44449">
        <ele>173</ele>
        <time>2022-04-06T14:33:12.204Z</time>
      </trkpt>
      <trkpt lat="48.5086" lon="-3.44457">
        <ele>173</ele>
        <time>2022-04-06T14:33:17.189Z</time>
      </trkpt>
      <trkpt lat="48.50857" lon="-3.44463">
        <ele>174</ele>
        <time>2022-04-06T14:33:21.196Z</time>
      </trkpt>
      <trkpt lat="48.50853" lon="-3.44471">
        <ele>174</ele>
        <time>2022-04-06T14:33:26.208Z</time>
      </trkpt>
      <trkpt lat="48.50849" lon="-3.44478">
        <ele>174</ele>
        <time>2022-04-06T14:33:31.189Z</time>
      </trkpt>
      <trkpt lat="48.50846" lon="-3.44486">
        <ele>174</ele>
        <time>2022-04-06T14:33:36.200Z</time>
      </trkpt>
      <trkpt lat="48.50843" lon="-3.44493">
        <ele>174</ele>
        <time>2022-04-06T14:33:40.209Z</time>
      </trkpt>
      <trkpt lat="48.50839" lon="-3.44501">
        <ele>174</ele>
        <time>2022-04-06T14:33:45.197Z</time>
      </trkpt>
      <trkpt lat="48.50834" lon="-3.44506">
        <ele>174</ele>
        <time>2022-04-06T14:33:50.196Z</time>
      </trkpt>
      <trkpt lat="48.50827" lon="-3.44507">
        <ele>174</ele>
        <time>2022-04-06T14:33:55.198Z</time>
      </trkpt>
      <trkpt lat="48.50821" lon="-3.44504">
        <ele>174</ele>
        <time>2022-04-06T14:34:00.192Z</time>
      </trkpt>
      <trkpt lat="48.50817" lon="-3.44502">
        <ele>171</ele>
        <time>2022-04-06T14:34:05.193Z</time>
      </trkpt>
      <trkpt lat="48.50816" lon="-3.44502">
        <ele>171</ele>
        <time>2022-04-06T14:34:19.193Z</time>
      </trkpt>
      <trkpt lat="48.50816" lon="-3.44501">
        <ele>171</ele>
        <time>2022-04-06T14:34:23.202Z</time>
      </trkpt>
      <trkpt lat="48.50816" lon="-3.445">
        <ele>171</ele>
        <time>2022-04-06T14:34:28.191Z</time>
      </trkpt>
      <trkpt lat="48.50812" lon="-3.44498">
        <ele>171</ele>
        <time>2022-04-06T14:34:33.190Z</time>
      </trkpt>
      <trkpt lat="48.50807" lon="-3.44493">
        <ele>171</ele>
        <time>2022-04-06T14:34:38.196Z</time>
      </trkpt>
      <trkpt lat="48.50802" lon="-3.44487">
        <ele>171</ele>
        <time>2022-04-06T14:34:43.196Z</time>
      </trkpt>
      <trkpt lat="48.50797" lon="-3.44482">
        <ele>169</ele>
        <time>2022-04-06T14:34:48.191Z</time>
      </trkpt>
      <trkpt lat="48.50793" lon="-3.44478">
        <ele>169</ele>
        <time>2022-04-06T14:34:52.187Z</time>
      </trkpt>
      <trkpt lat="48.50788" lon="-3.44471">
        <ele>166</ele>
        <time>2022-04-06T14:34:57.186Z</time>
      </trkpt>
      <trkpt lat="48.50785" lon="-3.44466">
        <ele>166</ele>
        <time>2022-04-06T14:35:01.192Z</time>
      </trkpt>
      <trkpt lat="48.50781" lon="-3.4446">
        <ele>166</ele>
        <time>2022-04-06T14:35:06.193Z</time>
      </trkpt>
      <trkpt lat="48.50776" lon="-3.44454">
        <ele>166</ele>
        <time>2022-04-06T14:35:11.192Z</time>
      </trkpt>
      <trkpt lat="48.50771" lon="-3.44445">
        <ele>166</ele>
        <time>2022-04-06T14:35:16.191Z</time>
      </trkpt>
      <trkpt lat="48.50766" lon="-3.44438">
        <ele>166</ele>
        <time>2022-04-06T14:35:21.192Z</time>
      </trkpt>
      <trkpt lat="48.50759" lon="-3.44429">
        <ele>165</ele>
        <time>2022-04-06T14:35:26.184Z</time>
      </trkpt>
      <trkpt lat="48.50754" lon="-3.4443">
        <ele>165</ele>
        <time>2022-04-06T14:35:30.189Z</time>
      </trkpt>
      <trkpt lat="48.50749" lon="-3.44432">
        <ele>165</ele>
        <time>2022-04-06T14:35:34.206Z</time>
      </trkpt>
      <trkpt lat="48.50743" lon="-3.44435">
        <ele>165</ele>
        <time>2022-04-06T14:35:39.202Z</time>
      </trkpt>
      <trkpt lat="48.50738" lon="-3.44438">
        <ele>165</ele>
        <time>2022-04-06T14:35:43.208Z</time>
      </trkpt>
      <trkpt lat="48.50732" lon="-3.44438">
        <ele>165</ele>
        <time>2022-04-06T14:35:48.192Z</time>
      </trkpt>
      <trkpt lat="48.50727" lon="-3.44442">
        <ele>165</ele>
        <time>2022-04-06T14:35:52.202Z</time>
      </trkpt>
      <trkpt lat="48.50722" lon="-3.44447">
        <ele>165</ele>
        <time>2022-04-06T14:35:57.185Z</time>
      </trkpt>
      <trkpt lat="48.50717" lon="-3.44453">
        <ele>165</ele>
        <time>2022-04-06T14:36:02.198Z</time>
      </trkpt>
      <trkpt lat="48.50712" lon="-3.44459">
        <ele>165</ele>
        <time>2022-04-06T14:36:07.195Z</time>
      </trkpt>
      <trkpt lat="48.50708" lon="-3.44465">
        <ele>163</ele>
        <time>2022-04-06T14:36:11.195Z</time>
      </trkpt>
      <trkpt lat="48.50702" lon="-3.44467">
        <ele>163</ele>
        <time>2022-04-06T14:36:16.191Z</time>
      </trkpt>
      <trkpt lat="48.50696" lon="-3.44471">
        <ele>163</ele>
        <time>2022-04-06T14:36:21.183Z</time>
      </trkpt>
      <trkpt lat="48.50692" lon="-3.44474">
        <ele>163</ele>
        <time>2022-04-06T14:36:25.184Z</time>
      </trkpt>
      <trkpt lat="48.50687" lon="-3.44478">
        <ele>163</ele>
        <time>2022-04-06T14:36:30.185Z</time>
      </trkpt>
      <trkpt lat="48.50682" lon="-3.44482">
        <ele>163</ele>
        <time>2022-04-06T14:36:34.187Z</time>
      </trkpt>
      <trkpt lat="48.50678" lon="-3.44486">
        <ele>160</ele>
        <time>2022-04-06T14:36:38.181Z</time>
      </trkpt>
      <trkpt lat="48.50672" lon="-3.44489">
        <ele>161</ele>
        <time>2022-04-06T14:36:43.182Z</time>
      </trkpt>
      <trkpt lat="48.50668" lon="-3.44493">
        <ele>161</ele>
        <time>2022-04-06T14:36:47.185Z</time>
      </trkpt>
      <trkpt lat="48.50662" lon="-3.44498">
        <ele>161</ele>
        <time>2022-04-06T14:36:52.181Z</time>
      </trkpt>
      <trkpt lat="48.50658" lon="-3.44501">
        <ele>161</ele>
        <time>2022-04-06T14:36:56.179Z</time>
      </trkpt>
      <trkpt lat="48.50651" lon="-3.44505">
        <ele>160</ele>
        <time>2022-04-06T14:37:01.183Z</time>
      </trkpt>
      <trkpt lat="48.50646" lon="-3.44509">
        <ele>160</ele>
        <time>2022-04-06T14:37:06.185Z</time>
      </trkpt>
      <trkpt lat="48.5064" lon="-3.44514">
        <ele>161</ele>
        <time>2022-04-06T14:37:11.191Z</time>
      </trkpt>
      <trkpt lat="48.50634" lon="-3.4452">
        <ele>161</ele>
        <time>2022-04-06T14:37:16.182Z</time>
      </trkpt>
      <trkpt lat="48.50627" lon="-3.44525">
        <ele>161</ele>
        <time>2022-04-06T14:37:21.184Z</time>
      </trkpt>
      <trkpt lat="48.50621" lon="-3.44532">
        <ele>160</ele>
        <time>2022-04-06T14:37:26.182Z</time>
      </trkpt>
      <trkpt lat="48.50616" lon="-3.44537">
        <ele>160</ele>
        <time>2022-04-06T14:37:30.187Z</time>
      </trkpt>
      <trkpt lat="48.5061" lon="-3.44543">
        <ele>161</ele>
        <time>2022-04-06T14:37:35.183Z</time>
      </trkpt>
      <trkpt lat="48.50605" lon="-3.44549">
        <ele>161</ele>
        <time>2022-04-06T14:37:39.192Z</time>
      </trkpt>
      <trkpt lat="48.50597" lon="-3.44554">
        <ele>161</ele>
        <time>2022-04-06T14:37:44.182Z</time>
      </trkpt>
      <trkpt lat="48.50591" lon="-3.4456">
        <ele>161</ele>
        <time>2022-04-06T14:37:49.184Z</time>
      </trkpt>
      <trkpt lat="48.50584" lon="-3.44567">
        <ele>161</ele>
        <time>2022-04-06T14:37:54.184Z</time>
      </trkpt>
      <trkpt lat="48.50577" lon="-3.44572">
        <ele>162</ele>
        <time>2022-04-06T14:37:59.184Z</time>
      </trkpt>
      <trkpt lat="48.5057" lon="-3.44577">
        <ele>162</ele>
        <time>2022-04-06T14:38:04.183Z</time>
      </trkpt>
      <trkpt lat="48.50564" lon="-3.44582">
        <ele>162</ele>
        <time>2022-04-06T14:38:09.189Z</time>
      </trkpt>
      <trkpt lat="48.5056" lon="-3.44587">
        <ele>162</ele>
        <time>2022-04-06T14:38:13.203Z</time>
      </trkpt>
      <trkpt lat="48.50553" lon="-3.44593">
        <ele>162</ele>
        <time>2022-04-06T14:38:18.184Z</time>
      </trkpt>
      <trkpt lat="48.50547" lon="-3.44598">
        <ele>163</ele>
        <time>2022-04-06T14:38:23.182Z</time>
      </trkpt>
      <trkpt lat="48.50542" lon="-3.44603">
        <ele>163</ele>
        <time>2022-04-06T14:38:27.194Z</time>
      </trkpt>
      <trkpt lat="48.50536" lon="-3.44606">
        <ele>164</ele>
        <time>2022-04-06T14:38:32.197Z</time>
      </trkpt>
      <trkpt lat="48.5053" lon="-3.4461">
        <ele>164</ele>
        <time>2022-04-06T14:38:37.189Z</time>
      </trkpt>
      <trkpt lat="48.50523" lon="-3.44612">
        <ele>164</ele>
        <time>2022-04-06T14:38:42.190Z</time>
      </trkpt>
      <trkpt lat="48.50515" lon="-3.44614">
        <ele>164</ele>
        <time>2022-04-06T14:38:47.188Z</time>
      </trkpt>
      <trkpt lat="48.50509" lon="-3.44615">
        <ele>165</ele>
        <time>2022-04-06T14:38:51.190Z</time>
      </trkpt>
      <trkpt lat="48.505" lon="-3.44615">
        <ele>165</ele>
        <time>2022-04-06T14:38:56.190Z</time>
      </trkpt>
      <trkpt lat="48.50495" lon="-3.44615">
        <ele>165</ele>
        <time>2022-04-06T14:39:00.192Z</time>
      </trkpt>
      <trkpt lat="48.50488" lon="-3.44615">
        <ele>165</ele>
        <time>2022-04-06T14:39:05.184Z</time>
      </trkpt>
      <trkpt lat="48.50482" lon="-3.44616">
        <ele>166</ele>
        <time>2022-04-06T14:39:09.187Z</time>
      </trkpt>
      <trkpt lat="48.50476" lon="-3.44617">
        <ele>166</ele>
        <time>2022-04-06T14:39:13.193Z</time>
      </trkpt>
      <trkpt lat="48.5047" lon="-3.44618">
        <ele>166</ele>
        <time>2022-04-06T14:39:18.187Z</time>
      </trkpt>
      <trkpt lat="48.50464" lon="-3.44618">
        <ele>166</ele>
        <time>2022-04-06T14:39:22.194Z</time>
      </trkpt>
      <trkpt lat="48.50457" lon="-3.44619">
        <ele>167</ele>
        <time>2022-04-06T14:39:27.191Z</time>
      </trkpt>
      <trkpt lat="48.50451" lon="-3.4462">
        <ele>167</ele>
        <time>2022-04-06T14:39:31.195Z</time>
      </trkpt>
      <trkpt lat="48.50445" lon="-3.44622">
        <ele>167</ele>
        <time>2022-04-06T14:39:36.198Z</time>
      </trkpt>
      <trkpt lat="48.50439" lon="-3.44625">
        <ele>167</ele>
        <time>2022-04-06T14:39:41.190Z</time>
      </trkpt>
      <trkpt lat="48.50432" lon="-3.44621">
        <ele>167</ele>
        <time>2022-04-06T14:39:45.190Z</time>
      </trkpt>
      <trkpt lat="48.50425" lon="-3.44623">
        <ele>168</ele>
        <time>2022-04-06T14:39:50.187Z</time>
      </trkpt>
      <trkpt lat="48.50419" lon="-3.44624">
        <ele>168</ele>
        <time>2022-04-06T14:39:54.193Z</time>
      </trkpt>
      <trkpt lat="48.50414" lon="-3.44625">
        <ele>168</ele>
        <time>2022-04-06T14:39:58.211Z</time>
      </trkpt>
      <trkpt lat="48.50407" lon="-3.44625">
        <ele>169</ele>
        <time>2022-04-06T14:40:03.189Z</time>
      </trkpt>
      <trkpt lat="48.50399" lon="-3.44625">
        <ele>170</ele>
        <time>2022-04-06T14:40:08.189Z</time>
      </trkpt>
      <trkpt lat="48.50395" lon="-3.44628">
        <ele>170</ele>
        <time>2022-04-06T14:40:13.191Z</time>
      </trkpt>
      <trkpt lat="48.50388" lon="-3.4463">
        <ele>170</ele>
        <time>2022-04-06T14:40:18.185Z</time>
      </trkpt>
      <trkpt lat="48.50382" lon="-3.44631">
        <ele>170</ele>
        <time>2022-04-06T14:40:23.187Z</time>
      </trkpt>
      <trkpt lat="48.50378" lon="-3.44632">
        <ele>170</ele>
        <time>2022-04-06T14:40:27.193Z</time>
      </trkpt>
      <trkpt lat="48.50372" lon="-3.44634">
        <ele>172</ele>
        <time>2022-04-06T14:40:32.183Z</time>
      </trkpt>
      <trkpt lat="48.50366" lon="-3.44635">
        <ele>172</ele>
        <time>2022-04-06T14:40:36.198Z</time>
      </trkpt>
      <trkpt lat="48.50359" lon="-3.44639">
        <ele>172</ele>
        <time>2022-04-06T14:40:41.192Z</time>
      </trkpt>
      <trkpt lat="48.50352" lon="-3.4464">
        <ele>172</ele>
        <time>2022-04-06T14:40:46.193Z</time>
      </trkpt>
      <trkpt lat="48.50346" lon="-3.44643">
        <ele>173</ele>
        <time>2022-04-06T14:40:51.195Z</time>
      </trkpt>
      <trkpt lat="48.5034" lon="-3.44648">
        <ele>173</ele>
        <time>2022-04-06T14:40:56.195Z</time>
      </trkpt>
      <trkpt lat="48.50335" lon="-3.44655">
        <ele>175</ele>
        <time>2022-04-06T14:41:01.190Z</time>
      </trkpt>
      <trkpt lat="48.5033" lon="-3.4466">
        <ele>175</ele>
        <time>2022-04-06T14:41:06.188Z</time>
      </trkpt>
      <trkpt lat="48.50326" lon="-3.44668">
        <ele>175</ele>
        <time>2022-04-06T14:41:11.206Z</time>
      </trkpt>
      <trkpt lat="48.50321" lon="-3.44675">
        <ele>175</ele>
        <time>2022-04-06T14:41:16.188Z</time>
      </trkpt>
      <trkpt lat="48.50318" lon="-3.44682">
        <ele>176</ele>
        <time>2022-04-06T14:41:21.203Z</time>
      </trkpt>
      <trkpt lat="48.50314" lon="-3.44688">
        <ele>176</ele>
        <time>2022-04-06T14:41:26.195Z</time>
      </trkpt>
      <trkpt lat="48.50311" lon="-3.44693">
        <ele>176</ele>
        <time>2022-04-06T14:41:30.250Z</time>
      </trkpt>
      <trkpt lat="48.50307" lon="-3.44699">
        <ele>176</ele>
        <time>2022-04-06T14:41:35.200Z</time>
      </trkpt>
      <trkpt lat="48.50303" lon="-3.44705">
        <ele>176</ele>
        <time>2022-04-06T14:41:39.203Z</time>
      </trkpt>
      <trkpt lat="48.50299" lon="-3.44713">
        <ele>177</ele>
        <time>2022-04-06T14:41:44.185Z</time>
      </trkpt>
      <trkpt lat="48.50294" lon="-3.44722">
        <ele>177</ele>
        <time>2022-04-06T14:41:48.195Z</time>
      </trkpt>
      <trkpt lat="48.50291" lon="-3.4473">
        <ele>178</ele>
        <time>2022-04-06T14:41:52.199Z</time>
      </trkpt>
      <trkpt lat="48.50287" lon="-3.44736">
        <ele>178</ele>
        <time>2022-04-06T14:41:57.203Z</time>
      </trkpt>
      <trkpt lat="48.50285" lon="-3.44745">
        <ele>178</ele>
        <time>2022-04-06T14:42:02.206Z</time>
      </trkpt>
      <trkpt lat="48.50282" lon="-3.44754">
        <ele>178</ele>
        <time>2022-04-06T14:42:07.182Z</time>
      </trkpt>
      <trkpt lat="48.50275" lon="-3.44768">
        <ele>178</ele>
        <time>2022-04-06T14:43:37.189Z</time>
      </trkpt>
      <trkpt lat="48.50275" lon="-3.44768">
        <ele>178</ele>
        <time>2022-04-06T14:43:41.199Z</time>
      </trkpt>
      <trkpt lat="48.50272" lon="-3.44774">
        <ele>178</ele>
        <time>2022-04-06T14:43:46.203Z</time>
      </trkpt>
      <trkpt lat="48.50271" lon="-3.44781">
        <ele>178</ele>
        <time>2022-04-06T14:43:51.193Z</time>
      </trkpt>
      <trkpt lat="48.5027" lon="-3.44787">
        <ele>178</ele>
        <time>2022-04-06T14:43:55.184Z</time>
      </trkpt>
      <trkpt lat="48.50269" lon="-3.44793">
        <ele>179</ele>
        <time>2022-04-06T14:43:59.189Z</time>
      </trkpt>
      <trkpt lat="48.50267" lon="-3.44799">
        <ele>179</ele>
        <time>2022-04-06T14:44:03.199Z</time>
      </trkpt>
      <trkpt lat="48.50266" lon="-3.44808">
        <ele>179</ele>
        <time>2022-04-06T14:44:08.190Z</time>
      </trkpt>
      <trkpt lat="48.50264" lon="-3.44815">
        <ele>179</ele>
        <time>2022-04-06T14:44:13.187Z</time>
      </trkpt>
      <trkpt lat="48.50263" lon="-3.44824">
        <ele>181</ele>
        <time>2022-04-06T14:44:18.186Z</time>
      </trkpt>
      <trkpt lat="48.50263" lon="-3.44831">
        <ele>181</ele>
        <time>2022-04-06T14:44:22.195Z</time>
      </trkpt>
      <trkpt lat="48.50264" lon="-3.44841">
        <ele>181</ele>
        <time>2022-04-06T14:44:27.195Z</time>
      </trkpt>
      <trkpt lat="48.50263" lon="-3.4485">
        <ele>182</ele>
        <time>2022-04-06T14:44:32.191Z</time>
      </trkpt>
      <trkpt lat="48.50257" lon="-3.44855">
        <ele>182</ele>
        <time>2022-04-06T14:44:37.198Z</time>
      </trkpt>
      <trkpt lat="48.50262" lon="-3.44861">
        <ele>182</ele>
        <time>2022-04-06T14:44:42.195Z</time>
      </trkpt>
      <trkpt lat="48.50269" lon="-3.44861">
        <ele>180</ele>
        <time>2022-04-06T14:44:47.190Z</time>
      </trkpt>
      <trkpt lat="48.50275" lon="-3.44863">
        <ele>180</ele>
        <time>2022-04-06T14:44:52.190Z</time>
      </trkpt>
    </trkseg>
  </trk>
</gpx>